<?xml version="1.0" encoding="UTF-8" standalone="no" ?>
<gpx xmlns="http://www.topografix.com/GPX/1/1" xmlns:xsi="http://www.w3.org/2001/XMLSchema-instance" xsi:schemaLocation="http://www.topografix.com/GPX/1/1 http://www.topografix.com/GPX/1/1/gpx.xsd" version="1.1" creator="VisuGPX - https://www.visugpx.com">
  <metadata>
    <name>28 kms Le cellier</name>
  </metadata>
  <trk>
    <name><![CDATA[runtastic_20141031_1008]]></name>
    <trkseg>
      <trkpt lat="47.36372" lon="-1.34375">
        <ele>103</ele>
        <time>2014-10-31T09:08:04.000Z</time>
      </trkpt>
      <trkpt lat="47.36372" lon="-1.34361">
        <ele>104</ele>
        <time>2014-10-31T09:08:12.000Z</time>
      </trkpt>
      <trkpt lat="47.36366" lon="-1.34347">
        <ele>103</ele>
        <time>2014-10-31T09:08:16.000Z</time>
      </trkpt>
      <trkpt lat="47.36361" lon="-1.3434">
        <ele>103</ele>
        <time>2014-10-31T09:08:19.000Z</time>
      </trkpt>
      <trkpt lat="47.36357" lon="-1.34331">
        <ele>103</ele>
        <time>2014-10-31T09:08:20.000Z</time>
      </trkpt>
      <trkpt lat="47.36351" lon="-1.34323">
        <ele>102</ele>
        <time>2014-10-31T09:08:22.000Z</time>
      </trkpt>
      <trkpt lat="47.36346" lon="-1.34314">
        <ele>102</ele>
        <time>2014-10-31T09:08:25.000Z</time>
      </trkpt>
      <trkpt lat="47.36339" lon="-1.34304">
        <ele>102</ele>
        <time>2014-10-31T09:08:26.000Z</time>
      </trkpt>
      <trkpt lat="47.36332" lon="-1.34296">
        <ele>101</ele>
        <time>2014-10-31T09:08:28.000Z</time>
      </trkpt>
      <trkpt lat="47.36325" lon="-1.34288">
        <ele>101</ele>
        <time>2014-10-31T09:08:30.000Z</time>
      </trkpt>
      <trkpt lat="47.36317" lon="-1.3428">
        <ele>101</ele>
        <time>2014-10-31T09:08:32.000Z</time>
      </trkpt>
      <trkpt lat="47.36309" lon="-1.3427">
        <ele>101</ele>
        <time>2014-10-31T09:08:35.000Z</time>
      </trkpt>
      <trkpt lat="47.36301" lon="-1.3426">
        <ele>100</ele>
        <time>2014-10-31T09:08:36.000Z</time>
      </trkpt>
      <trkpt lat="47.36292" lon="-1.34249">
        <ele>100</ele>
        <time>2014-10-31T09:08:38.000Z</time>
      </trkpt>
      <trkpt lat="47.36283" lon="-1.34237">
        <ele>100</ele>
        <time>2014-10-31T09:08:40.000Z</time>
      </trkpt>
      <trkpt lat="47.36272" lon="-1.34224">
        <ele>100</ele>
        <time>2014-10-31T09:08:42.000Z</time>
      </trkpt>
      <trkpt lat="47.36263" lon="-1.3421">
        <ele>100</ele>
        <time>2014-10-31T09:08:44.000Z</time>
      </trkpt>
      <trkpt lat="47.36253" lon="-1.34197">
        <ele>99</ele>
        <time>2014-10-31T09:08:46.000Z</time>
      </trkpt>
      <trkpt lat="47.36243" lon="-1.3418">
        <ele>100</ele>
        <time>2014-10-31T09:08:48.000Z</time>
      </trkpt>
      <trkpt lat="47.36234" lon="-1.34159">
        <ele>99</ele>
        <time>2014-10-31T09:08:50.000Z</time>
      </trkpt>
      <trkpt lat="47.3622" lon="-1.34137">
        <ele>98</ele>
        <time>2014-10-31T09:08:52.000Z</time>
      </trkpt>
      <trkpt lat="47.36207" lon="-1.34112">
        <ele>96</ele>
        <time>2014-10-31T09:08:54.000Z</time>
      </trkpt>
      <trkpt lat="47.36193" lon="-1.34089">
        <ele>94</ele>
        <time>2014-10-31T09:08:56.000Z</time>
      </trkpt>
      <trkpt lat="47.3618" lon="-1.34062">
        <ele>94</ele>
        <time>2014-10-31T09:08:58.000Z</time>
      </trkpt>
      <trkpt lat="47.36167" lon="-1.34039">
        <ele>93</ele>
        <time>2014-10-31T09:09:00.000Z</time>
      </trkpt>
      <trkpt lat="47.36154" lon="-1.34019">
        <ele>93</ele>
        <time>2014-10-31T09:09:02.000Z</time>
      </trkpt>
      <trkpt lat="47.36142" lon="-1.34004">
        <ele>94</ele>
        <time>2014-10-31T09:09:04.000Z</time>
      </trkpt>
      <trkpt lat="47.36131" lon="-1.33993">
        <ele>94</ele>
        <time>2014-10-31T09:09:06.000Z</time>
      </trkpt>
      <trkpt lat="47.3612" lon="-1.33987">
        <ele>94</ele>
        <time>2014-10-31T09:09:08.000Z</time>
      </trkpt>
      <trkpt lat="47.3611" lon="-1.33984">
        <ele>95</ele>
        <time>2014-10-31T09:09:10.000Z</time>
      </trkpt>
      <trkpt lat="47.36099" lon="-1.33982">
        <ele>95</ele>
        <time>2014-10-31T09:09:12.000Z</time>
      </trkpt>
      <trkpt lat="47.36089" lon="-1.3398">
        <ele>95</ele>
        <time>2014-10-31T09:09:14.000Z</time>
      </trkpt>
      <trkpt lat="47.36081" lon="-1.33978">
        <ele>96</ele>
        <time>2014-10-31T09:09:16.000Z</time>
      </trkpt>
      <trkpt lat="47.36072" lon="-1.33975">
        <ele>97</ele>
        <time>2014-10-31T09:09:18.000Z</time>
      </trkpt>
      <trkpt lat="47.36064" lon="-1.33973">
        <ele>96</ele>
        <time>2014-10-31T09:09:20.000Z</time>
      </trkpt>
      <trkpt lat="47.36057" lon="-1.33969">
        <ele>97</ele>
        <time>2014-10-31T09:09:22.000Z</time>
      </trkpt>
      <trkpt lat="47.3605" lon="-1.33965">
        <ele>97</ele>
        <time>2014-10-31T09:09:24.000Z</time>
      </trkpt>
      <trkpt lat="47.36042" lon="-1.33962">
        <ele>97</ele>
        <time>2014-10-31T09:09:26.000Z</time>
      </trkpt>
      <trkpt lat="47.36035" lon="-1.33956">
        <ele>97</ele>
        <time>2014-10-31T09:09:28.000Z</time>
      </trkpt>
      <trkpt lat="47.36028" lon="-1.3395">
        <ele>97</ele>
        <time>2014-10-31T09:09:30.000Z</time>
      </trkpt>
      <trkpt lat="47.36022" lon="-1.33943">
        <ele>98</ele>
        <time>2014-10-31T09:09:32.000Z</time>
      </trkpt>
      <trkpt lat="47.36016" lon="-1.33935">
        <ele>98</ele>
        <time>2014-10-31T09:09:34.000Z</time>
      </trkpt>
      <trkpt lat="47.3601" lon="-1.33927">
        <ele>99</ele>
        <time>2014-10-31T09:09:36.000Z</time>
      </trkpt>
      <trkpt lat="47.36004" lon="-1.33918">
        <ele>99</ele>
        <time>2014-10-31T09:09:38.000Z</time>
      </trkpt>
      <trkpt lat="47.35998" lon="-1.33909">
        <ele>100</ele>
        <time>2014-10-31T09:09:40.000Z</time>
      </trkpt>
      <trkpt lat="47.35992" lon="-1.339">
        <ele>100</ele>
        <time>2014-10-31T09:09:42.000Z</time>
      </trkpt>
      <trkpt lat="47.35987" lon="-1.33891">
        <ele>101</ele>
        <time>2014-10-31T09:09:44.000Z</time>
      </trkpt>
      <trkpt lat="47.35981" lon="-1.33883">
        <ele>101</ele>
        <time>2014-10-31T09:09:46.000Z</time>
      </trkpt>
      <trkpt lat="47.35977" lon="-1.33876">
        <ele>101</ele>
        <time>2014-10-31T09:09:48.000Z</time>
      </trkpt>
      <trkpt lat="47.35977" lon="-1.33876">
        <ele>101</ele>
        <time>2014-10-31T09:09:50.000Z</time>
      </trkpt>
      <trkpt lat="47.35968" lon="-1.33865">
        <ele>102</ele>
        <time>2014-10-31T09:09:52.000Z</time>
      </trkpt>
      <trkpt lat="47.35963" lon="-1.33859">
        <ele>103</ele>
        <time>2014-10-31T09:09:54.000Z</time>
      </trkpt>
      <trkpt lat="47.35959" lon="-1.33853">
        <ele>103</ele>
        <time>2014-10-31T09:09:56.000Z</time>
      </trkpt>
      <trkpt lat="47.35954" lon="-1.33848">
        <ele>104</ele>
        <time>2014-10-31T09:09:58.000Z</time>
      </trkpt>
      <trkpt lat="47.35947" lon="-1.33842">
        <ele>104</ele>
        <time>2014-10-31T09:10:00.000Z</time>
      </trkpt>
      <trkpt lat="47.3594" lon="-1.33836">
        <ele>105</ele>
        <time>2014-10-31T09:10:02.000Z</time>
      </trkpt>
      <trkpt lat="47.35933" lon="-1.3383">
        <ele>105</ele>
        <time>2014-10-31T09:10:04.000Z</time>
      </trkpt>
      <trkpt lat="47.35926" lon="-1.33825">
        <ele>106</ele>
        <time>2014-10-31T09:10:06.000Z</time>
      </trkpt>
      <trkpt lat="47.3592" lon="-1.3382">
        <ele>106</ele>
        <time>2014-10-31T09:10:08.000Z</time>
      </trkpt>
      <trkpt lat="47.35913" lon="-1.33816">
        <ele>106</ele>
        <time>2014-10-31T09:10:10.000Z</time>
      </trkpt>
      <trkpt lat="47.35907" lon="-1.33812">
        <ele>106</ele>
        <time>2014-10-31T09:10:12.000Z</time>
      </trkpt>
      <trkpt lat="47.35901" lon="-1.33808">
        <ele>106</ele>
        <time>2014-10-31T09:10:14.000Z</time>
      </trkpt>
      <trkpt lat="47.35894" lon="-1.33803">
        <ele>106</ele>
        <time>2014-10-31T09:10:16.000Z</time>
      </trkpt>
      <trkpt lat="47.35888" lon="-1.33798">
        <ele>106</ele>
        <time>2014-10-31T09:10:18.000Z</time>
      </trkpt>
      <trkpt lat="47.35881" lon="-1.33793">
        <ele>107</ele>
        <time>2014-10-31T09:10:20.000Z</time>
      </trkpt>
      <trkpt lat="47.35874" lon="-1.33788">
        <ele>107</ele>
        <time>2014-10-31T09:10:22.000Z</time>
      </trkpt>
      <trkpt lat="47.35867" lon="-1.33783">
        <ele>107</ele>
        <time>2014-10-31T09:10:24.000Z</time>
      </trkpt>
      <trkpt lat="47.35859" lon="-1.33778">
        <ele>107</ele>
        <time>2014-10-31T09:10:26.000Z</time>
      </trkpt>
      <trkpt lat="47.35852" lon="-1.33773">
        <ele>107</ele>
        <time>2014-10-31T09:10:28.000Z</time>
      </trkpt>
      <trkpt lat="47.35843" lon="-1.33767">
        <ele>107</ele>
        <time>2014-10-31T09:10:30.000Z</time>
      </trkpt>
      <trkpt lat="47.35835" lon="-1.33761">
        <ele>108</ele>
        <time>2014-10-31T09:10:32.000Z</time>
      </trkpt>
      <trkpt lat="47.35827" lon="-1.33754">
        <ele>108</ele>
        <time>2014-10-31T09:10:34.000Z</time>
      </trkpt>
      <trkpt lat="47.35818" lon="-1.33747">
        <ele>108</ele>
        <time>2014-10-31T09:10:36.000Z</time>
      </trkpt>
      <trkpt lat="47.3581" lon="-1.33738">
        <ele>109</ele>
        <time>2014-10-31T09:10:38.000Z</time>
      </trkpt>
      <trkpt lat="47.35802" lon="-1.33729">
        <ele>109</ele>
        <time>2014-10-31T09:10:40.000Z</time>
      </trkpt>
      <trkpt lat="47.35795" lon="-1.33719">
        <ele>109</ele>
        <time>2014-10-31T09:10:42.000Z</time>
      </trkpt>
      <trkpt lat="47.35789" lon="-1.33708">
        <ele>110</ele>
        <time>2014-10-31T09:10:44.000Z</time>
      </trkpt>
      <trkpt lat="47.35782" lon="-1.33696">
        <ele>110</ele>
        <time>2014-10-31T09:10:46.000Z</time>
      </trkpt>
      <trkpt lat="47.35776" lon="-1.33683">
        <ele>110</ele>
        <time>2014-10-31T09:10:48.000Z</time>
      </trkpt>
      <trkpt lat="47.35769" lon="-1.3367">
        <ele>109</ele>
        <time>2014-10-31T09:10:50.000Z</time>
      </trkpt>
      <trkpt lat="47.35764" lon="-1.33658">
        <ele>110</ele>
        <time>2014-10-31T09:10:52.000Z</time>
      </trkpt>
      <trkpt lat="47.35756" lon="-1.33645">
        <ele>109</ele>
        <time>2014-10-31T09:10:54.000Z</time>
      </trkpt>
      <trkpt lat="47.35749" lon="-1.33633">
        <ele>109</ele>
        <time>2014-10-31T09:10:56.000Z</time>
      </trkpt>
      <trkpt lat="47.35743" lon="-1.33619">
        <ele>109</ele>
        <time>2014-10-31T09:10:58.000Z</time>
      </trkpt>
      <trkpt lat="47.35737" lon="-1.33608">
        <ele>110</ele>
        <time>2014-10-31T09:11:00.000Z</time>
      </trkpt>
      <trkpt lat="47.3573" lon="-1.33595">
        <ele>109</ele>
        <time>2014-10-31T09:11:02.000Z</time>
      </trkpt>
      <trkpt lat="47.35725" lon="-1.33584">
        <ele>109</ele>
        <time>2014-10-31T09:11:04.000Z</time>
      </trkpt>
      <trkpt lat="47.35717" lon="-1.33572">
        <ele>110</ele>
        <time>2014-10-31T09:11:06.000Z</time>
      </trkpt>
      <trkpt lat="47.35711" lon="-1.3356">
        <ele>111</ele>
        <time>2014-10-31T09:11:08.000Z</time>
      </trkpt>
      <trkpt lat="47.35705" lon="-1.33547">
        <ele>112</ele>
        <time>2014-10-31T09:11:10.000Z</time>
      </trkpt>
      <trkpt lat="47.35699" lon="-1.33533">
        <ele>111</ele>
        <time>2014-10-31T09:11:12.000Z</time>
      </trkpt>
      <trkpt lat="47.35693" lon="-1.33519">
        <ele>111</ele>
        <time>2014-10-31T09:11:14.000Z</time>
      </trkpt>
      <trkpt lat="47.35687" lon="-1.33506">
        <ele>110</ele>
        <time>2014-10-31T09:11:16.000Z</time>
      </trkpt>
      <trkpt lat="47.3568" lon="-1.33495">
        <ele>111</ele>
        <time>2014-10-31T09:11:18.000Z</time>
      </trkpt>
      <trkpt lat="47.3567" lon="-1.33492">
        <ele>112</ele>
        <time>2014-10-31T09:11:20.000Z</time>
      </trkpt>
      <trkpt lat="47.35664" lon="-1.33494">
        <ele>112</ele>
        <time>2014-10-31T09:11:22.000Z</time>
      </trkpt>
      <trkpt lat="47.35655" lon="-1.33499">
        <ele>113</ele>
        <time>2014-10-31T09:11:24.000Z</time>
      </trkpt>
      <trkpt lat="47.35648" lon="-1.33505">
        <ele>112</ele>
        <time>2014-10-31T09:11:26.000Z</time>
      </trkpt>
      <trkpt lat="47.3564" lon="-1.3351">
        <ele>112</ele>
        <time>2014-10-31T09:11:28.000Z</time>
      </trkpt>
      <trkpt lat="47.35633" lon="-1.33515">
        <ele>113</ele>
        <time>2014-10-31T09:11:30.000Z</time>
      </trkpt>
      <trkpt lat="47.35626" lon="-1.33521">
        <ele>113</ele>
        <time>2014-10-31T09:11:32.000Z</time>
      </trkpt>
      <trkpt lat="47.35618" lon="-1.33526">
        <ele>113</ele>
        <time>2014-10-31T09:11:34.000Z</time>
      </trkpt>
      <trkpt lat="47.3561" lon="-1.3353">
        <ele>112</ele>
        <time>2014-10-31T09:11:36.000Z</time>
      </trkpt>
      <trkpt lat="47.35601" lon="-1.33534">
        <ele>113</ele>
        <time>2014-10-31T09:11:38.000Z</time>
      </trkpt>
      <trkpt lat="47.35593" lon="-1.33537">
        <ele>111</ele>
        <time>2014-10-31T09:11:40.000Z</time>
      </trkpt>
      <trkpt lat="47.35585" lon="-1.3354">
        <ele>112</ele>
        <time>2014-10-31T09:11:42.000Z</time>
      </trkpt>
      <trkpt lat="47.35577" lon="-1.33545">
        <ele>113</ele>
        <time>2014-10-31T09:11:44.000Z</time>
      </trkpt>
      <trkpt lat="47.35567" lon="-1.33548">
        <ele>113</ele>
        <time>2014-10-31T09:11:46.000Z</time>
      </trkpt>
      <trkpt lat="47.35558" lon="-1.33551">
        <ele>114</ele>
        <time>2014-10-31T09:11:48.000Z</time>
      </trkpt>
      <trkpt lat="47.35549" lon="-1.33557">
        <ele>113</ele>
        <time>2014-10-31T09:11:50.000Z</time>
      </trkpt>
      <trkpt lat="47.3554" lon="-1.33559">
        <ele>115</ele>
        <time>2014-10-31T09:11:52.000Z</time>
      </trkpt>
      <trkpt lat="47.3553" lon="-1.33562">
        <ele>116</ele>
        <time>2014-10-31T09:11:54.000Z</time>
      </trkpt>
      <trkpt lat="47.3552" lon="-1.33564">
        <ele>116</ele>
        <time>2014-10-31T09:11:56.000Z</time>
      </trkpt>
      <trkpt lat="47.35511" lon="-1.33567">
        <ele>117</ele>
        <time>2014-10-31T09:11:58.000Z</time>
      </trkpt>
      <trkpt lat="47.35502" lon="-1.33571">
        <ele>117</ele>
        <time>2014-10-31T09:12:00.000Z</time>
      </trkpt>
      <trkpt lat="47.35493" lon="-1.33574">
        <ele>118</ele>
        <time>2014-10-31T09:12:02.000Z</time>
      </trkpt>
      <trkpt lat="47.35484" lon="-1.33578">
        <ele>118</ele>
        <time>2014-10-31T09:12:04.000Z</time>
      </trkpt>
      <trkpt lat="47.35473" lon="-1.33582">
        <ele>119</ele>
        <time>2014-10-31T09:12:06.000Z</time>
      </trkpt>
      <trkpt lat="47.35462" lon="-1.33585">
        <ele>119</ele>
        <time>2014-10-31T09:12:08.000Z</time>
      </trkpt>
      <trkpt lat="47.35452" lon="-1.33589">
        <ele>119</ele>
        <time>2014-10-31T09:12:10.000Z</time>
      </trkpt>
      <trkpt lat="47.35441" lon="-1.33594">
        <ele>119</ele>
        <time>2014-10-31T09:12:12.000Z</time>
      </trkpt>
      <trkpt lat="47.3543" lon="-1.33597">
        <ele>121</ele>
        <time>2014-10-31T09:12:14.000Z</time>
      </trkpt>
      <trkpt lat="47.35418" lon="-1.33601">
        <ele>122</ele>
        <time>2014-10-31T09:12:16.000Z</time>
      </trkpt>
      <trkpt lat="47.35406" lon="-1.33605">
        <ele>124</ele>
        <time>2014-10-31T09:12:18.000Z</time>
      </trkpt>
      <trkpt lat="47.35394" lon="-1.33611">
        <ele>124</ele>
        <time>2014-10-31T09:12:20.000Z</time>
      </trkpt>
      <trkpt lat="47.35382" lon="-1.33619">
        <ele>123</ele>
        <time>2014-10-31T09:12:22.000Z</time>
      </trkpt>
      <trkpt lat="47.35369" lon="-1.33628">
        <ele>122</ele>
        <time>2014-10-31T09:12:24.000Z</time>
      </trkpt>
      <trkpt lat="47.35357" lon="-1.33637">
        <ele>121</ele>
        <time>2014-10-31T09:12:26.000Z</time>
      </trkpt>
      <trkpt lat="47.35345" lon="-1.33647">
        <ele>121</ele>
        <time>2014-10-31T09:12:28.000Z</time>
      </trkpt>
      <trkpt lat="47.35332" lon="-1.33657">
        <ele>121</ele>
        <time>2014-10-31T09:12:30.000Z</time>
      </trkpt>
      <trkpt lat="47.35319" lon="-1.33665">
        <ele>121</ele>
        <time>2014-10-31T09:12:32.000Z</time>
      </trkpt>
      <trkpt lat="47.35308" lon="-1.33677">
        <ele>121</ele>
        <time>2014-10-31T09:12:34.000Z</time>
      </trkpt>
      <trkpt lat="47.35299" lon="-1.33688">
        <ele>119</ele>
        <time>2014-10-31T09:12:36.000Z</time>
      </trkpt>
      <trkpt lat="47.35288" lon="-1.33702">
        <ele>119</ele>
        <time>2014-10-31T09:12:38.000Z</time>
      </trkpt>
      <trkpt lat="47.35278" lon="-1.33717">
        <ele>118</ele>
        <time>2014-10-31T09:12:40.000Z</time>
      </trkpt>
      <trkpt lat="47.35266" lon="-1.33733">
        <ele>117</ele>
        <time>2014-10-31T09:12:42.000Z</time>
      </trkpt>
      <trkpt lat="47.35254" lon="-1.33748">
        <ele>117</ele>
        <time>2014-10-31T09:12:44.000Z</time>
      </trkpt>
      <trkpt lat="47.35244" lon="-1.33766">
        <ele>116</ele>
        <time>2014-10-31T09:12:46.000Z</time>
      </trkpt>
      <trkpt lat="47.35235" lon="-1.33782">
        <ele>116</ele>
        <time>2014-10-31T09:12:48.000Z</time>
      </trkpt>
      <trkpt lat="47.35225" lon="-1.33799">
        <ele>115</ele>
        <time>2014-10-31T09:12:50.000Z</time>
      </trkpt>
      <trkpt lat="47.35216" lon="-1.33815">
        <ele>116</ele>
        <time>2014-10-31T09:12:52.000Z</time>
      </trkpt>
      <trkpt lat="47.35207" lon="-1.3383">
        <ele>115</ele>
        <time>2014-10-31T09:12:54.000Z</time>
      </trkpt>
      <trkpt lat="47.35197" lon="-1.33844">
        <ele>115</ele>
        <time>2014-10-31T09:12:56.000Z</time>
      </trkpt>
      <trkpt lat="47.35189" lon="-1.33857">
        <ele>114</ele>
        <time>2014-10-31T09:12:58.000Z</time>
      </trkpt>
      <trkpt lat="47.3518" lon="-1.33869">
        <ele>115</ele>
        <time>2014-10-31T09:13:00.000Z</time>
      </trkpt>
      <trkpt lat="47.35171" lon="-1.33881">
        <ele>116</ele>
        <time>2014-10-31T09:13:02.000Z</time>
      </trkpt>
      <trkpt lat="47.35162" lon="-1.33893">
        <ele>116</ele>
        <time>2014-10-31T09:13:04.000Z</time>
      </trkpt>
      <trkpt lat="47.35153" lon="-1.33903">
        <ele>115</ele>
        <time>2014-10-31T09:13:06.000Z</time>
      </trkpt>
      <trkpt lat="47.35145" lon="-1.33912">
        <ele>115</ele>
        <time>2014-10-31T09:13:08.000Z</time>
      </trkpt>
      <trkpt lat="47.35136" lon="-1.33921">
        <ele>115</ele>
        <time>2014-10-31T09:13:10.000Z</time>
      </trkpt>
      <trkpt lat="47.35127" lon="-1.33931">
        <ele>115</ele>
        <time>2014-10-31T09:13:12.000Z</time>
      </trkpt>
      <trkpt lat="47.35118" lon="-1.33941">
        <ele>113</ele>
        <time>2014-10-31T09:13:14.000Z</time>
      </trkpt>
      <trkpt lat="47.35109" lon="-1.3395">
        <ele>114</ele>
        <time>2014-10-31T09:13:16.000Z</time>
      </trkpt>
      <trkpt lat="47.35098" lon="-1.33959">
        <ele>114</ele>
        <time>2014-10-31T09:13:18.000Z</time>
      </trkpt>
      <trkpt lat="47.35089" lon="-1.33965">
        <ele>115</ele>
        <time>2014-10-31T09:13:20.000Z</time>
      </trkpt>
      <trkpt lat="47.35079" lon="-1.33972">
        <ele>116</ele>
        <time>2014-10-31T09:13:22.000Z</time>
      </trkpt>
      <trkpt lat="47.35069" lon="-1.33979">
        <ele>116</ele>
        <time>2014-10-31T09:13:24.000Z</time>
      </trkpt>
      <trkpt lat="47.35059" lon="-1.33985">
        <ele>116</ele>
        <time>2014-10-31T09:13:26.000Z</time>
      </trkpt>
      <trkpt lat="47.35049" lon="-1.33991">
        <ele>117</ele>
        <time>2014-10-31T09:13:28.000Z</time>
      </trkpt>
      <trkpt lat="47.35037" lon="-1.33995">
        <ele>117</ele>
        <time>2014-10-31T09:13:30.000Z</time>
      </trkpt>
      <trkpt lat="47.35027" lon="-1.33999">
        <ele>116</ele>
        <time>2014-10-31T09:13:32.000Z</time>
      </trkpt>
      <trkpt lat="47.35016" lon="-1.33999">
        <ele>117</ele>
        <time>2014-10-31T09:13:34.000Z</time>
      </trkpt>
      <trkpt lat="47.35007" lon="-1.33997">
        <ele>116</ele>
        <time>2014-10-31T09:13:36.000Z</time>
      </trkpt>
      <trkpt lat="47.35001" lon="-1.33994">
        <ele>116</ele>
        <time>2014-10-31T09:13:38.000Z</time>
      </trkpt>
      <trkpt lat="47.35001" lon="-1.33994">
        <ele>116</ele>
        <time>2014-10-31T09:13:40.000Z</time>
      </trkpt>
      <trkpt lat="47.34995" lon="-1.33986">
        <ele>114</ele>
        <time>2014-10-31T09:13:42.000Z</time>
      </trkpt>
      <trkpt lat="47.34992" lon="-1.33978">
        <ele>114</ele>
        <time>2014-10-31T09:13:44.000Z</time>
      </trkpt>
      <trkpt lat="47.34989" lon="-1.33968">
        <ele>114</ele>
        <time>2014-10-31T09:13:46.000Z</time>
      </trkpt>
      <trkpt lat="47.34985" lon="-1.33954">
        <ele>115</ele>
        <time>2014-10-31T09:13:48.000Z</time>
      </trkpt>
      <trkpt lat="47.34983" lon="-1.33938">
        <ele>115</ele>
        <time>2014-10-31T09:13:50.000Z</time>
      </trkpt>
      <trkpt lat="47.34984" lon="-1.33921">
        <ele>114</ele>
        <time>2014-10-31T09:13:52.000Z</time>
      </trkpt>
      <trkpt lat="47.34987" lon="-1.33905">
        <ele>115</ele>
        <time>2014-10-31T09:13:54.000Z</time>
      </trkpt>
      <trkpt lat="47.3499" lon="-1.33888">
        <ele>116</ele>
        <time>2014-10-31T09:13:56.000Z</time>
      </trkpt>
      <trkpt lat="47.34992" lon="-1.33869">
        <ele>117</ele>
        <time>2014-10-31T09:13:58.000Z</time>
      </trkpt>
      <trkpt lat="47.34993" lon="-1.3385">
        <ele>117</ele>
        <time>2014-10-31T09:14:00.000Z</time>
      </trkpt>
      <trkpt lat="47.34992" lon="-1.3383">
        <ele>116</ele>
        <time>2014-10-31T09:14:02.000Z</time>
      </trkpt>
      <trkpt lat="47.34992" lon="-1.33811">
        <ele>115</ele>
        <time>2014-10-31T09:14:04.000Z</time>
      </trkpt>
      <trkpt lat="47.34991" lon="-1.3379">
        <ele>113</ele>
        <time>2014-10-31T09:14:07.000Z</time>
      </trkpt>
      <trkpt lat="47.3499" lon="-1.3377">
        <ele>113</ele>
        <time>2014-10-31T09:14:08.000Z</time>
      </trkpt>
      <trkpt lat="47.34991" lon="-1.33749">
        <ele>114</ele>
        <time>2014-10-31T09:14:11.000Z</time>
      </trkpt>
      <trkpt lat="47.34992" lon="-1.33727">
        <ele>113</ele>
        <time>2014-10-31T09:14:12.000Z</time>
      </trkpt>
      <trkpt lat="47.34992" lon="-1.33706">
        <ele>113</ele>
        <time>2014-10-31T09:14:14.000Z</time>
      </trkpt>
      <trkpt lat="47.34991" lon="-1.33685">
        <ele>113</ele>
        <time>2014-10-31T09:14:16.000Z</time>
      </trkpt>
      <trkpt lat="47.34991" lon="-1.33664">
        <ele>113</ele>
        <time>2014-10-31T09:14:18.000Z</time>
      </trkpt>
      <trkpt lat="47.34992" lon="-1.33644">
        <ele>114</ele>
        <time>2014-10-31T09:14:21.000Z</time>
      </trkpt>
      <trkpt lat="47.34991" lon="-1.33624">
        <ele>114</ele>
        <time>2014-10-31T09:14:22.000Z</time>
      </trkpt>
      <trkpt lat="47.34993" lon="-1.33603">
        <ele>113</ele>
        <time>2014-10-31T09:14:24.000Z</time>
      </trkpt>
      <trkpt lat="47.34993" lon="-1.33582">
        <ele>113</ele>
        <time>2014-10-31T09:14:26.000Z</time>
      </trkpt>
      <trkpt lat="47.34995" lon="-1.33564">
        <ele>113</ele>
        <time>2014-10-31T09:14:28.000Z</time>
      </trkpt>
      <trkpt lat="47.34994" lon="-1.33544">
        <ele>114</ele>
        <time>2014-10-31T09:14:30.000Z</time>
      </trkpt>
      <trkpt lat="47.34997" lon="-1.33523">
        <ele>113</ele>
        <time>2014-10-31T09:14:32.000Z</time>
      </trkpt>
      <trkpt lat="47.34998" lon="-1.33503">
        <ele>113</ele>
        <time>2014-10-31T09:14:34.000Z</time>
      </trkpt>
      <trkpt lat="47.35001" lon="-1.33481">
        <ele>111</ele>
        <time>2014-10-31T09:14:36.000Z</time>
      </trkpt>
      <trkpt lat="47.35001" lon="-1.33462">
        <ele>111</ele>
        <time>2014-10-31T09:14:38.000Z</time>
      </trkpt>
      <trkpt lat="47.35001" lon="-1.33444">
        <ele>112</ele>
        <time>2014-10-31T09:14:40.000Z</time>
      </trkpt>
      <trkpt lat="47.35001" lon="-1.33424">
        <ele>112</ele>
        <time>2014-10-31T09:14:42.000Z</time>
      </trkpt>
      <trkpt lat="47.35001" lon="-1.33405">
        <ele>113</ele>
        <time>2014-10-31T09:14:44.000Z</time>
      </trkpt>
      <trkpt lat="47.35001" lon="-1.33386">
        <ele>113</ele>
        <time>2014-10-31T09:14:46.000Z</time>
      </trkpt>
      <trkpt lat="47.35002" lon="-1.33368">
        <ele>113</ele>
        <time>2014-10-31T09:14:48.000Z</time>
      </trkpt>
      <trkpt lat="47.35002" lon="-1.3335">
        <ele>113</ele>
        <time>2014-10-31T09:14:50.000Z</time>
      </trkpt>
      <trkpt lat="47.35003" lon="-1.33331">
        <ele>113</ele>
        <time>2014-10-31T09:14:52.000Z</time>
      </trkpt>
      <trkpt lat="47.35003" lon="-1.33311">
        <ele>113</ele>
        <time>2014-10-31T09:14:54.000Z</time>
      </trkpt>
      <trkpt lat="47.35002" lon="-1.33291">
        <ele>113</ele>
        <time>2014-10-31T09:14:56.000Z</time>
      </trkpt>
      <trkpt lat="47.35001" lon="-1.33274">
        <ele>113</ele>
        <time>2014-10-31T09:14:58.000Z</time>
      </trkpt>
      <trkpt lat="47.35001" lon="-1.33259">
        <ele>113</ele>
        <time>2014-10-31T09:15:00.000Z</time>
      </trkpt>
      <trkpt lat="47.34993" lon="-1.33247">
        <ele>114</ele>
        <time>2014-10-31T09:15:02.000Z</time>
      </trkpt>
      <trkpt lat="47.34984" lon="-1.33245">
        <ele>115</ele>
        <time>2014-10-31T09:15:04.000Z</time>
      </trkpt>
      <trkpt lat="47.34972" lon="-1.33242">
        <ele>121</ele>
        <time>2014-10-31T09:15:06.000Z</time>
      </trkpt>
      <trkpt lat="47.34962" lon="-1.33237">
        <ele>125</ele>
        <time>2014-10-31T09:15:08.000Z</time>
      </trkpt>
      <trkpt lat="47.34952" lon="-1.33233">
        <ele>126</ele>
        <time>2014-10-31T09:15:10.000Z</time>
      </trkpt>
      <trkpt lat="47.34943" lon="-1.33232">
        <ele>127</ele>
        <time>2014-10-31T09:15:12.000Z</time>
      </trkpt>
      <trkpt lat="47.34932" lon="-1.3323">
        <ele>127</ele>
        <time>2014-10-31T09:15:14.000Z</time>
      </trkpt>
      <trkpt lat="47.34917" lon="-1.33232">
        <ele>125</ele>
        <time>2014-10-31T09:15:16.000Z</time>
      </trkpt>
      <trkpt lat="47.34902" lon="-1.3323">
        <ele>125</ele>
        <time>2014-10-31T09:15:18.000Z</time>
      </trkpt>
      <trkpt lat="47.34888" lon="-1.33228">
        <ele>128</ele>
        <time>2014-10-31T09:15:20.000Z</time>
      </trkpt>
      <trkpt lat="47.34874" lon="-1.33225">
        <ele>128</ele>
        <time>2014-10-31T09:15:22.000Z</time>
      </trkpt>
      <trkpt lat="47.34859" lon="-1.33227">
        <ele>128</ele>
        <time>2014-10-31T09:15:24.000Z</time>
      </trkpt>
      <trkpt lat="47.34843" lon="-1.33232">
        <ele>123</ele>
        <time>2014-10-31T09:15:26.000Z</time>
      </trkpt>
      <trkpt lat="47.34828" lon="-1.33235">
        <ele>119</ele>
        <time>2014-10-31T09:15:28.000Z</time>
      </trkpt>
      <trkpt lat="47.34812" lon="-1.33236">
        <ele>118</ele>
        <time>2014-10-31T09:15:30.000Z</time>
      </trkpt>
      <trkpt lat="47.34798" lon="-1.33239">
        <ele>116</ele>
        <time>2014-10-31T09:15:32.000Z</time>
      </trkpt>
      <trkpt lat="47.34782" lon="-1.33239">
        <ele>115</ele>
        <time>2014-10-31T09:15:34.000Z</time>
      </trkpt>
      <trkpt lat="47.34769" lon="-1.33238">
        <ele>114</ele>
        <time>2014-10-31T09:15:36.000Z</time>
      </trkpt>
      <trkpt lat="47.34755" lon="-1.33236">
        <ele>113</ele>
        <time>2014-10-31T09:15:38.000Z</time>
      </trkpt>
      <trkpt lat="47.34741" lon="-1.33235">
        <ele>113</ele>
        <time>2014-10-31T09:15:40.000Z</time>
      </trkpt>
      <trkpt lat="47.34727" lon="-1.33232">
        <ele>114</ele>
        <time>2014-10-31T09:15:42.000Z</time>
      </trkpt>
      <trkpt lat="47.34712" lon="-1.33228">
        <ele>115</ele>
        <time>2014-10-31T09:15:44.000Z</time>
      </trkpt>
      <trkpt lat="47.34699" lon="-1.33227">
        <ele>114</ele>
        <time>2014-10-31T09:15:46.000Z</time>
      </trkpt>
      <trkpt lat="47.34684" lon="-1.33231">
        <ele>114</ele>
        <time>2014-10-31T09:15:49.000Z</time>
      </trkpt>
      <trkpt lat="47.34674" lon="-1.33232">
        <ele>112</ele>
        <time>2014-10-31T09:15:51.000Z</time>
      </trkpt>
      <trkpt lat="47.34663" lon="-1.33232">
        <ele>110</ele>
        <time>2014-10-31T09:15:53.000Z</time>
      </trkpt>
      <trkpt lat="47.34653" lon="-1.33237">
        <ele>110</ele>
        <time>2014-10-31T09:15:55.000Z</time>
      </trkpt>
      <trkpt lat="47.34644" lon="-1.33247">
        <ele>110</ele>
        <time>2014-10-31T09:15:57.000Z</time>
      </trkpt>
      <trkpt lat="47.34637" lon="-1.33259">
        <ele>110</ele>
        <time>2014-10-31T09:15:59.000Z</time>
      </trkpt>
      <trkpt lat="47.34629" lon="-1.33271">
        <ele>110</ele>
        <time>2014-10-31T09:16:01.000Z</time>
      </trkpt>
      <trkpt lat="47.34623" lon="-1.33284">
        <ele>110</ele>
        <time>2014-10-31T09:16:03.000Z</time>
      </trkpt>
      <trkpt lat="47.34616" lon="-1.33298">
        <ele>110</ele>
        <time>2014-10-31T09:16:05.000Z</time>
      </trkpt>
      <trkpt lat="47.3461" lon="-1.33312">
        <ele>111</ele>
        <time>2014-10-31T09:16:07.000Z</time>
      </trkpt>
      <trkpt lat="47.34604" lon="-1.33325">
        <ele>111</ele>
        <time>2014-10-31T09:16:09.000Z</time>
      </trkpt>
      <trkpt lat="47.34596" lon="-1.33338">
        <ele>110</ele>
        <time>2014-10-31T09:16:11.000Z</time>
      </trkpt>
      <trkpt lat="47.3459" lon="-1.33349">
        <ele>110</ele>
        <time>2014-10-31T09:16:13.000Z</time>
      </trkpt>
      <trkpt lat="47.34583" lon="-1.33359">
        <ele>110</ele>
        <time>2014-10-31T09:16:15.000Z</time>
      </trkpt>
      <trkpt lat="47.34574" lon="-1.33366">
        <ele>112</ele>
        <time>2014-10-31T09:16:17.000Z</time>
      </trkpt>
      <trkpt lat="47.34564" lon="-1.33371">
        <ele>112</ele>
        <time>2014-10-31T09:16:19.000Z</time>
      </trkpt>
      <trkpt lat="47.34555" lon="-1.33369">
        <ele>111</ele>
        <time>2014-10-31T09:16:21.000Z</time>
      </trkpt>
      <trkpt lat="47.34541" lon="-1.33368">
        <ele>111</ele>
        <time>2014-10-31T09:16:23.000Z</time>
      </trkpt>
      <trkpt lat="47.34528" lon="-1.33362">
        <ele>112</ele>
        <time>2014-10-31T09:16:25.000Z</time>
      </trkpt>
      <trkpt lat="47.34519" lon="-1.33352">
        <ele>112</ele>
        <time>2014-10-31T09:16:27.000Z</time>
      </trkpt>
      <trkpt lat="47.34511" lon="-1.33339">
        <ele>112</ele>
        <time>2014-10-31T09:16:29.000Z</time>
      </trkpt>
      <trkpt lat="47.34504" lon="-1.33325">
        <ele>111</ele>
        <time>2014-10-31T09:16:31.000Z</time>
      </trkpt>
      <trkpt lat="47.34494" lon="-1.33314">
        <ele>113</ele>
        <time>2014-10-31T09:16:33.000Z</time>
      </trkpt>
      <trkpt lat="47.34487" lon="-1.33301">
        <ele>113</ele>
        <time>2014-10-31T09:16:35.000Z</time>
      </trkpt>
      <trkpt lat="47.34479" lon="-1.33289">
        <ele>114</ele>
        <time>2014-10-31T09:16:37.000Z</time>
      </trkpt>
      <trkpt lat="47.34472" lon="-1.33276">
        <ele>114</ele>
        <time>2014-10-31T09:16:39.000Z</time>
      </trkpt>
      <trkpt lat="47.34465" lon="-1.33263">
        <ele>113</ele>
        <time>2014-10-31T09:16:41.000Z</time>
      </trkpt>
      <trkpt lat="47.34457" lon="-1.33252">
        <ele>113</ele>
        <time>2014-10-31T09:16:43.000Z</time>
      </trkpt>
      <trkpt lat="47.34448" lon="-1.3324">
        <ele>113</ele>
        <time>2014-10-31T09:16:45.000Z</time>
      </trkpt>
      <trkpt lat="47.34437" lon="-1.33236">
        <ele>113</ele>
        <time>2014-10-31T09:16:47.000Z</time>
      </trkpt>
      <trkpt lat="47.3443" lon="-1.33243">
        <ele>113</ele>
        <time>2014-10-31T09:16:49.000Z</time>
      </trkpt>
      <trkpt lat="47.34423" lon="-1.33253">
        <ele>113</ele>
        <time>2014-10-31T09:16:51.000Z</time>
      </trkpt>
      <trkpt lat="47.34417" lon="-1.33265">
        <ele>113</ele>
        <time>2014-10-31T09:16:53.000Z</time>
      </trkpt>
      <trkpt lat="47.34409" lon="-1.33275">
        <ele>112</ele>
        <time>2014-10-31T09:16:55.000Z</time>
      </trkpt>
      <trkpt lat="47.34401" lon="-1.33285">
        <ele>112</ele>
        <time>2014-10-31T09:16:57.000Z</time>
      </trkpt>
      <trkpt lat="47.34393" lon="-1.33296">
        <ele>111</ele>
        <time>2014-10-31T09:16:59.000Z</time>
      </trkpt>
      <trkpt lat="47.34388" lon="-1.33303">
        <ele>111</ele>
        <time>2014-10-31T09:17:01.000Z</time>
      </trkpt>
      <trkpt lat="47.34381" lon="-1.33312">
        <ele>110</ele>
        <time>2014-10-31T09:17:03.000Z</time>
      </trkpt>
      <trkpt lat="47.34375" lon="-1.3332">
        <ele>109</ele>
        <time>2014-10-31T09:17:05.000Z</time>
      </trkpt>
      <trkpt lat="47.3437" lon="-1.33329">
        <ele>107</ele>
        <time>2014-10-31T09:17:07.000Z</time>
      </trkpt>
      <trkpt lat="47.34365" lon="-1.33335">
        <ele>107</ele>
        <time>2014-10-31T09:17:09.000Z</time>
      </trkpt>
      <trkpt lat="47.34359" lon="-1.33343">
        <ele>107</ele>
        <time>2014-10-31T09:17:11.000Z</time>
      </trkpt>
      <trkpt lat="47.34353" lon="-1.33351">
        <ele>106</ele>
        <time>2014-10-31T09:17:13.000Z</time>
      </trkpt>
      <trkpt lat="47.34347" lon="-1.33359">
        <ele>105</ele>
        <time>2014-10-31T09:17:15.000Z</time>
      </trkpt>
      <trkpt lat="47.34338" lon="-1.33366">
        <ele>105</ele>
        <time>2014-10-31T09:17:17.000Z</time>
      </trkpt>
      <trkpt lat="47.3433" lon="-1.33379">
        <ele>103</ele>
        <time>2014-10-31T09:17:19.000Z</time>
      </trkpt>
      <trkpt lat="47.34321" lon="-1.33389">
        <ele>102</ele>
        <time>2014-10-31T09:17:21.000Z</time>
      </trkpt>
      <trkpt lat="47.34314" lon="-1.33399">
        <ele>100</ele>
        <time>2014-10-31T09:17:23.000Z</time>
      </trkpt>
      <trkpt lat="47.34307" lon="-1.3341">
        <ele>98</ele>
        <time>2014-10-31T09:17:25.000Z</time>
      </trkpt>
      <trkpt lat="47.34302" lon="-1.33418">
        <ele>96</ele>
        <time>2014-10-31T09:17:27.000Z</time>
      </trkpt>
      <trkpt lat="47.34296" lon="-1.33425">
        <ele>96</ele>
        <time>2014-10-31T09:17:29.000Z</time>
      </trkpt>
      <trkpt lat="47.34296" lon="-1.33425">
        <ele>96</ele>
        <time>2014-10-31T09:17:31.000Z</time>
      </trkpt>
      <trkpt lat="47.34291" lon="-1.3343">
        <ele>96</ele>
        <time>2014-10-31T09:17:33.000Z</time>
      </trkpt>
      <trkpt lat="47.34291" lon="-1.3343">
        <ele>96</ele>
        <time>2014-10-31T09:17:35.000Z</time>
      </trkpt>
      <trkpt lat="47.34291" lon="-1.3343">
        <ele>96</ele>
        <time>2014-10-31T09:17:37.000Z</time>
      </trkpt>
      <trkpt lat="47.34283" lon="-1.33434">
        <ele>97</ele>
        <time>2014-10-31T09:17:39.000Z</time>
      </trkpt>
      <trkpt lat="47.34277" lon="-1.3344">
        <ele>99</ele>
        <time>2014-10-31T09:17:43.000Z</time>
      </trkpt>
      <trkpt lat="47.34277" lon="-1.3344">
        <ele>99</ele>
        <time>2014-10-31T09:17:45.000Z</time>
      </trkpt>
      <trkpt lat="47.34277" lon="-1.3344">
        <ele>99</ele>
        <time>2014-10-31T09:17:47.000Z</time>
      </trkpt>
      <trkpt lat="47.34277" lon="-1.3344">
        <ele>99</ele>
        <time>2014-10-31T09:17:49.000Z</time>
      </trkpt>
      <trkpt lat="47.3427" lon="-1.33449">
        <ele>101</ele>
        <time>2014-10-31T09:17:51.000Z</time>
      </trkpt>
      <trkpt lat="47.34266" lon="-1.33458">
        <ele>105</ele>
        <time>2014-10-31T09:17:55.000Z</time>
      </trkpt>
      <trkpt lat="47.34266" lon="-1.33458">
        <ele>105</ele>
        <time>2014-10-31T09:17:57.000Z</time>
      </trkpt>
      <trkpt lat="47.34262" lon="-1.33465">
        <ele>100</ele>
        <time>2014-10-31T09:17:59.000Z</time>
      </trkpt>
      <trkpt lat="47.34255" lon="-1.33468">
        <ele>102</ele>
        <time>2014-10-31T09:18:01.000Z</time>
      </trkpt>
      <trkpt lat="47.34238" lon="-1.33475">
        <ele>96</ele>
        <time>2014-10-31T09:18:04.000Z</time>
      </trkpt>
      <trkpt lat="47.34229" lon="-1.33466">
        <ele>93</ele>
        <time>2014-10-31T09:18:08.000Z</time>
      </trkpt>
      <trkpt lat="47.34222" lon="-1.33455">
        <ele>89</ele>
        <time>2014-10-31T09:18:12.000Z</time>
      </trkpt>
      <trkpt lat="47.34218" lon="-1.33448">
        <ele>88</ele>
        <time>2014-10-31T09:18:14.000Z</time>
      </trkpt>
      <trkpt lat="47.34211" lon="-1.33441">
        <ele>89</ele>
        <time>2014-10-31T09:18:16.000Z</time>
      </trkpt>
      <trkpt lat="47.34207" lon="-1.33433">
        <ele>90</ele>
        <time>2014-10-31T09:18:18.000Z</time>
      </trkpt>
      <trkpt lat="47.34203" lon="-1.33424">
        <ele>88</ele>
        <time>2014-10-31T09:18:20.000Z</time>
      </trkpt>
      <trkpt lat="47.34203" lon="-1.33424">
        <ele>88</ele>
        <time>2014-10-31T09:18:22.000Z</time>
      </trkpt>
      <trkpt lat="47.34203" lon="-1.33414">
        <ele>92</ele>
        <time>2014-10-31T09:18:24.000Z</time>
      </trkpt>
      <trkpt lat="47.34203" lon="-1.33414">
        <ele>92</ele>
        <time>2014-10-31T09:18:26.000Z</time>
      </trkpt>
      <trkpt lat="47.34203" lon="-1.33414">
        <ele>92</ele>
        <time>2014-10-31T09:18:28.000Z</time>
      </trkpt>
      <trkpt lat="47.34196" lon="-1.33407">
        <ele>91</ele>
        <time>2014-10-31T09:18:30.000Z</time>
      </trkpt>
      <trkpt lat="47.34196" lon="-1.33407">
        <ele>91</ele>
        <time>2014-10-31T09:18:32.000Z</time>
      </trkpt>
      <trkpt lat="47.34185" lon="-1.33406">
        <ele>100</ele>
        <time>2014-10-31T09:18:34.000Z</time>
      </trkpt>
      <trkpt lat="47.34179" lon="-1.33403">
        <ele>103</ele>
        <time>2014-10-31T09:18:38.000Z</time>
      </trkpt>
      <trkpt lat="47.34179" lon="-1.33403">
        <ele>103</ele>
        <time>2014-10-31T09:18:40.000Z</time>
      </trkpt>
      <trkpt lat="47.34179" lon="-1.33403">
        <ele>103</ele>
        <time>2014-10-31T09:18:42.000Z</time>
      </trkpt>
      <trkpt lat="47.34173" lon="-1.3341">
        <ele>106</ele>
        <time>2014-10-31T09:18:44.000Z</time>
      </trkpt>
      <trkpt lat="47.34173" lon="-1.3341">
        <ele>106</ele>
        <time>2014-10-31T09:18:46.000Z</time>
      </trkpt>
      <trkpt lat="47.34167" lon="-1.33416">
        <ele>112</ele>
        <time>2014-10-31T09:18:48.000Z</time>
      </trkpt>
      <trkpt lat="47.34161" lon="-1.33421">
        <ele>111</ele>
        <time>2014-10-31T09:18:52.000Z</time>
      </trkpt>
      <trkpt lat="47.34155" lon="-1.33429">
        <ele>114</ele>
        <time>2014-10-31T09:18:56.000Z</time>
      </trkpt>
      <trkpt lat="47.34145" lon="-1.33428">
        <ele>122</ele>
        <time>2014-10-31T09:19:00.000Z</time>
      </trkpt>
      <trkpt lat="47.34135" lon="-1.33431">
        <ele>124</ele>
        <time>2014-10-31T09:19:04.000Z</time>
      </trkpt>
      <trkpt lat="47.34131" lon="-1.33435">
        <ele>123</ele>
        <time>2014-10-31T09:19:06.000Z</time>
      </trkpt>
      <trkpt lat="47.34125" lon="-1.33443">
        <ele>123</ele>
        <time>2014-10-31T09:19:10.000Z</time>
      </trkpt>
      <trkpt lat="47.34125" lon="-1.33443">
        <ele>123</ele>
        <time>2014-10-31T09:19:12.000Z</time>
      </trkpt>
      <trkpt lat="47.34125" lon="-1.33443">
        <ele>123</ele>
        <time>2014-10-31T09:19:14.000Z</time>
      </trkpt>
      <trkpt lat="47.34122" lon="-1.3345">
        <ele>120</ele>
        <time>2014-10-31T09:19:16.000Z</time>
      </trkpt>
      <trkpt lat="47.34121" lon="-1.33457">
        <ele>114</ele>
        <time>2014-10-31T09:19:18.000Z</time>
      </trkpt>
      <trkpt lat="47.34118" lon="-1.33465">
        <ele>112</ele>
        <time>2014-10-31T09:19:20.000Z</time>
      </trkpt>
      <trkpt lat="47.34116" lon="-1.33474">
        <ele>111</ele>
        <time>2014-10-31T09:19:22.000Z</time>
      </trkpt>
      <trkpt lat="47.34114" lon="-1.33482">
        <ele>115</ele>
        <time>2014-10-31T09:19:24.000Z</time>
      </trkpt>
      <trkpt lat="47.34108" lon="-1.33494">
        <ele>119</ele>
        <time>2014-10-31T09:19:26.000Z</time>
      </trkpt>
      <trkpt lat="47.34108" lon="-1.33494">
        <ele>119</ele>
        <time>2014-10-31T09:19:28.000Z</time>
      </trkpt>
      <trkpt lat="47.34101" lon="-1.33501">
        <ele>117</ele>
        <time>2014-10-31T09:19:30.000Z</time>
      </trkpt>
      <trkpt lat="47.34094" lon="-1.33509">
        <ele>120</ele>
        <time>2014-10-31T09:19:34.000Z</time>
      </trkpt>
      <trkpt lat="47.34091" lon="-1.33519">
        <ele>121</ele>
        <time>2014-10-31T09:19:36.000Z</time>
      </trkpt>
      <trkpt lat="47.34088" lon="-1.33527">
        <ele>126</ele>
        <time>2014-10-31T09:19:38.000Z</time>
      </trkpt>
      <trkpt lat="47.34087" lon="-1.33538">
        <ele>128</ele>
        <time>2014-10-31T09:19:40.000Z</time>
      </trkpt>
      <trkpt lat="47.34087" lon="-1.33538">
        <ele>128</ele>
        <time>2014-10-31T09:19:42.000Z</time>
      </trkpt>
      <trkpt lat="47.34083" lon="-1.33551">
        <ele>132</ele>
        <time>2014-10-31T09:19:44.000Z</time>
      </trkpt>
      <trkpt lat="47.34081" lon="-1.33564">
        <ele>129</ele>
        <time>2014-10-31T09:19:48.000Z</time>
      </trkpt>
      <trkpt lat="47.34081" lon="-1.33564">
        <ele>129</ele>
        <time>2014-10-31T09:19:50.000Z</time>
      </trkpt>
      <trkpt lat="47.34076" lon="-1.33574">
        <ele>133</ele>
        <time>2014-10-31T09:19:52.000Z</time>
      </trkpt>
      <trkpt lat="47.34072" lon="-1.33585">
        <ele>133</ele>
        <time>2014-10-31T09:19:56.000Z</time>
      </trkpt>
      <trkpt lat="47.3407" lon="-1.33599">
        <ele>135</ele>
        <time>2014-10-31T09:20:00.000Z</time>
      </trkpt>
      <trkpt lat="47.34066" lon="-1.33611">
        <ele>134</ele>
        <time>2014-10-31T09:20:04.000Z</time>
      </trkpt>
      <trkpt lat="47.34062" lon="-1.33622">
        <ele>133</ele>
        <time>2014-10-31T09:20:08.000Z</time>
      </trkpt>
      <trkpt lat="47.34058" lon="-1.33634">
        <ele>130</ele>
        <time>2014-10-31T09:20:12.000Z</time>
      </trkpt>
      <trkpt lat="47.34053" lon="-1.33646">
        <ele>131</ele>
        <time>2014-10-31T09:20:16.000Z</time>
      </trkpt>
      <trkpt lat="47.34047" lon="-1.33658">
        <ele>128</ele>
        <time>2014-10-31T09:20:20.000Z</time>
      </trkpt>
      <trkpt lat="47.34041" lon="-1.33671">
        <ele>122</ele>
        <time>2014-10-31T09:20:24.000Z</time>
      </trkpt>
      <trkpt lat="47.34035" lon="-1.33683">
        <ele>124</ele>
        <time>2014-10-31T09:20:28.000Z</time>
      </trkpt>
      <trkpt lat="47.34031" lon="-1.3369">
        <ele>123</ele>
        <time>2014-10-31T09:20:30.000Z</time>
      </trkpt>
      <trkpt lat="47.34027" lon="-1.33698">
        <ele>123</ele>
        <time>2014-10-31T09:20:32.000Z</time>
      </trkpt>
      <trkpt lat="47.34023" lon="-1.33706">
        <ele>122</ele>
        <time>2014-10-31T09:20:34.000Z</time>
      </trkpt>
      <trkpt lat="47.34019" lon="-1.33714">
        <ele>122</ele>
        <time>2014-10-31T09:20:36.000Z</time>
      </trkpt>
      <trkpt lat="47.34016" lon="-1.33721">
        <ele>121</ele>
        <time>2014-10-31T09:20:38.000Z</time>
      </trkpt>
      <trkpt lat="47.34011" lon="-1.33728">
        <ele>121</ele>
        <time>2014-10-31T09:20:40.000Z</time>
      </trkpt>
      <trkpt lat="47.34008" lon="-1.33737">
        <ele>121</ele>
        <time>2014-10-31T09:20:42.000Z</time>
      </trkpt>
      <trkpt lat="47.34003" lon="-1.33746">
        <ele>123</ele>
        <time>2014-10-31T09:20:44.000Z</time>
      </trkpt>
      <trkpt lat="47.33998" lon="-1.33755">
        <ele>124</ele>
        <time>2014-10-31T09:20:46.000Z</time>
      </trkpt>
      <trkpt lat="47.33991" lon="-1.33758">
        <ele>120</ele>
        <time>2014-10-31T09:20:48.000Z</time>
      </trkpt>
      <trkpt lat="47.33984" lon="-1.33754">
        <ele>119</ele>
        <time>2014-10-31T09:20:50.000Z</time>
      </trkpt>
      <trkpt lat="47.33976" lon="-1.33747">
        <ele>121</ele>
        <time>2014-10-31T09:20:52.000Z</time>
      </trkpt>
      <trkpt lat="47.33969" lon="-1.33739">
        <ele>120</ele>
        <time>2014-10-31T09:20:54.000Z</time>
      </trkpt>
      <trkpt lat="47.33961" lon="-1.33731">
        <ele>118</ele>
        <time>2014-10-31T09:20:56.000Z</time>
      </trkpt>
      <trkpt lat="47.33952" lon="-1.33724">
        <ele>117</ele>
        <time>2014-10-31T09:20:58.000Z</time>
      </trkpt>
      <trkpt lat="47.33944" lon="-1.3372">
        <ele>117</ele>
        <time>2014-10-31T09:21:00.000Z</time>
      </trkpt>
      <trkpt lat="47.33936" lon="-1.33716">
        <ele>116</ele>
        <time>2014-10-31T09:21:02.000Z</time>
      </trkpt>
      <trkpt lat="47.33928" lon="-1.33712">
        <ele>117</ele>
        <time>2014-10-31T09:21:04.000Z</time>
      </trkpt>
      <trkpt lat="47.33921" lon="-1.33706">
        <ele>118</ele>
        <time>2014-10-31T09:21:06.000Z</time>
      </trkpt>
      <trkpt lat="47.33915" lon="-1.33701">
        <ele>117</ele>
        <time>2014-10-31T09:21:08.000Z</time>
      </trkpt>
      <trkpt lat="47.33908" lon="-1.33694">
        <ele>117</ele>
        <time>2014-10-31T09:21:10.000Z</time>
      </trkpt>
      <trkpt lat="47.33903" lon="-1.33688">
        <ele>118</ele>
        <time>2014-10-31T09:21:12.000Z</time>
      </trkpt>
      <trkpt lat="47.33896" lon="-1.33682">
        <ele>118</ele>
        <time>2014-10-31T09:21:14.000Z</time>
      </trkpt>
      <trkpt lat="47.33889" lon="-1.33674">
        <ele>118</ele>
        <time>2014-10-31T09:21:16.000Z</time>
      </trkpt>
      <trkpt lat="47.33881" lon="-1.33666">
        <ele>116</ele>
        <time>2014-10-31T09:21:18.000Z</time>
      </trkpt>
      <trkpt lat="47.33875" lon="-1.33656">
        <ele>117</ele>
        <time>2014-10-31T09:21:20.000Z</time>
      </trkpt>
      <trkpt lat="47.33868" lon="-1.33648">
        <ele>116</ele>
        <time>2014-10-31T09:21:22.000Z</time>
      </trkpt>
      <trkpt lat="47.33862" lon="-1.33643">
        <ele>116</ele>
        <time>2014-10-31T09:21:24.000Z</time>
      </trkpt>
      <trkpt lat="47.33855" lon="-1.33636">
        <ele>116</ele>
        <time>2014-10-31T09:21:26.000Z</time>
      </trkpt>
      <trkpt lat="47.33848" lon="-1.33629">
        <ele>117</ele>
        <time>2014-10-31T09:21:28.000Z</time>
      </trkpt>
      <trkpt lat="47.3384" lon="-1.33621">
        <ele>116</ele>
        <time>2014-10-31T09:21:30.000Z</time>
      </trkpt>
      <trkpt lat="47.33833" lon="-1.33614">
        <ele>115</ele>
        <time>2014-10-31T09:21:32.000Z</time>
      </trkpt>
      <trkpt lat="47.33826" lon="-1.33607">
        <ele>115</ele>
        <time>2014-10-31T09:21:34.000Z</time>
      </trkpt>
      <trkpt lat="47.3382" lon="-1.33598">
        <ele>115</ele>
        <time>2014-10-31T09:21:36.000Z</time>
      </trkpt>
      <trkpt lat="47.33813" lon="-1.33589">
        <ele>115</ele>
        <time>2014-10-31T09:21:38.000Z</time>
      </trkpt>
      <trkpt lat="47.33807" lon="-1.33581">
        <ele>115</ele>
        <time>2014-10-31T09:21:40.000Z</time>
      </trkpt>
      <trkpt lat="47.33801" lon="-1.33573">
        <ele>115</ele>
        <time>2014-10-31T09:21:42.000Z</time>
      </trkpt>
      <trkpt lat="47.33794" lon="-1.33565">
        <ele>114</ele>
        <time>2014-10-31T09:21:44.000Z</time>
      </trkpt>
      <trkpt lat="47.33785" lon="-1.33558">
        <ele>115</ele>
        <time>2014-10-31T09:21:46.000Z</time>
      </trkpt>
      <trkpt lat="47.33776" lon="-1.33553">
        <ele>114</ele>
        <time>2014-10-31T09:21:48.000Z</time>
      </trkpt>
      <trkpt lat="47.33769" lon="-1.33544">
        <ele>113</ele>
        <time>2014-10-31T09:21:50.000Z</time>
      </trkpt>
      <trkpt lat="47.33762" lon="-1.33533">
        <ele>112</ele>
        <time>2014-10-31T09:21:52.000Z</time>
      </trkpt>
      <trkpt lat="47.33759" lon="-1.3352">
        <ele>112</ele>
        <time>2014-10-31T09:21:54.000Z</time>
      </trkpt>
      <trkpt lat="47.33761" lon="-1.33506">
        <ele>110</ele>
        <time>2014-10-31T09:21:56.000Z</time>
      </trkpt>
      <trkpt lat="47.33767" lon="-1.33494">
        <ele>108</ele>
        <time>2014-10-31T09:21:58.000Z</time>
      </trkpt>
      <trkpt lat="47.33776" lon="-1.33481">
        <ele>109</ele>
        <time>2014-10-31T09:22:00.000Z</time>
      </trkpt>
      <trkpt lat="47.33784" lon="-1.33467">
        <ele>108</ele>
        <time>2014-10-31T09:22:02.000Z</time>
      </trkpt>
      <trkpt lat="47.33792" lon="-1.33452">
        <ele>111</ele>
        <time>2014-10-31T09:22:04.000Z</time>
      </trkpt>
      <trkpt lat="47.33799" lon="-1.33433">
        <ele>111</ele>
        <time>2014-10-31T09:22:06.000Z</time>
      </trkpt>
      <trkpt lat="47.33808" lon="-1.3341">
        <ele>108</ele>
        <time>2014-10-31T09:22:08.000Z</time>
      </trkpt>
      <trkpt lat="47.33818" lon="-1.33392">
        <ele>107</ele>
        <time>2014-10-31T09:22:10.000Z</time>
      </trkpt>
      <trkpt lat="47.33827" lon="-1.33375">
        <ele>107</ele>
        <time>2014-10-31T09:22:12.000Z</time>
      </trkpt>
      <trkpt lat="47.33831" lon="-1.33355">
        <ele>106</ele>
        <time>2014-10-31T09:22:14.000Z</time>
      </trkpt>
      <trkpt lat="47.33834" lon="-1.33335">
        <ele>106</ele>
        <time>2014-10-31T09:22:16.000Z</time>
      </trkpt>
      <trkpt lat="47.33838" lon="-1.3332">
        <ele>107</ele>
        <time>2014-10-31T09:22:18.000Z</time>
      </trkpt>
      <trkpt lat="47.33844" lon="-1.33312">
        <ele>108</ele>
        <time>2014-10-31T09:22:20.000Z</time>
      </trkpt>
      <trkpt lat="47.33849" lon="-1.33303">
        <ele>108</ele>
        <time>2014-10-31T09:22:22.000Z</time>
      </trkpt>
      <trkpt lat="47.3386" lon="-1.33291">
        <ele>111</ele>
        <time>2014-10-31T09:22:25.000Z</time>
      </trkpt>
      <trkpt lat="47.33864" lon="-1.33284">
        <ele>111</ele>
        <time>2014-10-31T09:22:27.000Z</time>
      </trkpt>
      <trkpt lat="47.33864" lon="-1.33284">
        <ele>111</ele>
        <time>2014-10-31T09:22:29.000Z</time>
      </trkpt>
      <trkpt lat="47.33876" lon="-1.33246">
        <ele>103</ele>
        <time>2014-10-31T09:22:33.000Z</time>
      </trkpt>
      <trkpt lat="47.33881" lon="-1.33235">
        <ele>103</ele>
        <time>2014-10-31T09:22:35.000Z</time>
      </trkpt>
      <trkpt lat="47.33886" lon="-1.33216">
        <ele>98</ele>
        <time>2014-10-31T09:22:37.000Z</time>
      </trkpt>
      <trkpt lat="47.33889" lon="-1.33202">
        <ele>96</ele>
        <time>2014-10-31T09:22:39.000Z</time>
      </trkpt>
      <trkpt lat="47.33889" lon="-1.33186">
        <ele>92</ele>
        <time>2014-10-31T09:22:41.000Z</time>
      </trkpt>
      <trkpt lat="47.33901" lon="-1.33154">
        <ele>86</ele>
        <time>2014-10-31T09:22:44.000Z</time>
      </trkpt>
      <trkpt lat="47.33906" lon="-1.33137">
        <ele>84</ele>
        <time>2014-10-31T09:22:46.000Z</time>
      </trkpt>
      <trkpt lat="47.33908" lon="-1.33124">
        <ele>89</ele>
        <time>2014-10-31T09:22:48.000Z</time>
      </trkpt>
      <trkpt lat="47.33913" lon="-1.33081">
        <ele>77</ele>
        <time>2014-10-31T09:22:52.000Z</time>
      </trkpt>
      <trkpt lat="47.33916" lon="-1.33066">
        <ele>75</ele>
        <time>2014-10-31T09:22:54.000Z</time>
      </trkpt>
      <trkpt lat="47.33922" lon="-1.33064">
        <ele>74</ele>
        <time>2014-10-31T09:22:56.000Z</time>
      </trkpt>
      <trkpt lat="47.33928" lon="-1.33053">
        <ele>76</ele>
        <time>2014-10-31T09:22:58.000Z</time>
      </trkpt>
      <trkpt lat="47.33935" lon="-1.33042">
        <ele>77</ele>
        <time>2014-10-31T09:23:00.000Z</time>
      </trkpt>
      <trkpt lat="47.33939" lon="-1.33029">
        <ele>79</ele>
        <time>2014-10-31T09:23:02.000Z</time>
      </trkpt>
      <trkpt lat="47.33947" lon="-1.33018">
        <ele>80</ele>
        <time>2014-10-31T09:23:04.000Z</time>
      </trkpt>
      <trkpt lat="47.33947" lon="-1.33009">
        <ele>80</ele>
        <time>2014-10-31T09:23:06.000Z</time>
      </trkpt>
      <trkpt lat="47.33947" lon="-1.33009">
        <ele>80</ele>
        <time>2014-10-31T09:23:09.000Z</time>
      </trkpt>
      <trkpt lat="47.33947" lon="-1.33009">
        <ele>80</ele>
        <time>2014-10-31T09:23:11.000Z</time>
      </trkpt>
      <trkpt lat="47.33947" lon="-1.33009">
        <ele>80</ele>
        <time>2014-10-31T09:23:13.000Z</time>
      </trkpt>
      <trkpt lat="47.33947" lon="-1.33009">
        <ele>80</ele>
        <time>2014-10-31T09:23:15.000Z</time>
      </trkpt>
      <trkpt lat="47.33947" lon="-1.33009">
        <ele>80</ele>
        <time>2014-10-31T09:23:17.000Z</time>
      </trkpt>
      <trkpt lat="47.33947" lon="-1.33009">
        <ele>80</ele>
        <time>2014-10-31T09:23:19.000Z</time>
      </trkpt>
      <trkpt lat="47.33947" lon="-1.33009">
        <ele>80</ele>
        <time>2014-10-31T09:23:21.000Z</time>
      </trkpt>
      <trkpt lat="47.33949" lon="-1.33001">
        <ele>87</ele>
        <time>2014-10-31T09:23:23.000Z</time>
      </trkpt>
      <trkpt lat="47.33955" lon="-1.32995">
        <ele>89</ele>
        <time>2014-10-31T09:23:27.000Z</time>
      </trkpt>
      <trkpt lat="47.33966" lon="-1.32984">
        <ele>87</ele>
        <time>2014-10-31T09:23:31.000Z</time>
      </trkpt>
      <trkpt lat="47.33971" lon="-1.32978">
        <ele>87</ele>
        <time>2014-10-31T09:23:33.000Z</time>
      </trkpt>
      <trkpt lat="47.33977" lon="-1.32971">
        <ele>87</ele>
        <time>2014-10-31T09:23:35.000Z</time>
      </trkpt>
      <trkpt lat="47.33984" lon="-1.32964">
        <ele>86</ele>
        <time>2014-10-31T09:23:37.000Z</time>
      </trkpt>
      <trkpt lat="47.33991" lon="-1.32956">
        <ele>87</ele>
        <time>2014-10-31T09:23:39.000Z</time>
      </trkpt>
      <trkpt lat="47.33991" lon="-1.32956">
        <ele>87</ele>
        <time>2014-10-31T09:23:42.000Z</time>
      </trkpt>
      <trkpt lat="47.33991" lon="-1.32956">
        <ele>87</ele>
        <time>2014-10-31T09:23:44.000Z</time>
      </trkpt>
      <trkpt lat="47.33998" lon="-1.32957">
        <ele>83</ele>
        <time>2014-10-31T09:23:46.000Z</time>
      </trkpt>
      <trkpt lat="47.33998" lon="-1.32957">
        <ele>83</ele>
        <time>2014-10-31T09:23:48.000Z</time>
      </trkpt>
      <trkpt lat="47.34003" lon="-1.32951">
        <ele>81</ele>
        <time>2014-10-31T09:23:50.000Z</time>
      </trkpt>
      <trkpt lat="47.34007" lon="-1.32944">
        <ele>80</ele>
        <time>2014-10-31T09:23:52.000Z</time>
      </trkpt>
      <trkpt lat="47.34014" lon="-1.32934">
        <ele>84</ele>
        <time>2014-10-31T09:23:54.000Z</time>
      </trkpt>
      <trkpt lat="47.34019" lon="-1.32928">
        <ele>87</ele>
        <time>2014-10-31T09:23:56.000Z</time>
      </trkpt>
      <trkpt lat="47.34025" lon="-1.32922">
        <ele>86</ele>
        <time>2014-10-31T09:23:58.000Z</time>
      </trkpt>
      <trkpt lat="47.34025" lon="-1.32922">
        <ele>86</ele>
        <time>2014-10-31T09:24:00.000Z</time>
      </trkpt>
      <trkpt lat="47.34033" lon="-1.32913">
        <ele>86</ele>
        <time>2014-10-31T09:24:02.000Z</time>
      </trkpt>
      <trkpt lat="47.34033" lon="-1.32913">
        <ele>86</ele>
        <time>2014-10-31T09:24:04.000Z</time>
      </trkpt>
      <trkpt lat="47.34041" lon="-1.32904">
        <ele>95</ele>
        <time>2014-10-31T09:24:06.000Z</time>
      </trkpt>
      <trkpt lat="47.34046" lon="-1.329">
        <ele>96</ele>
        <time>2014-10-31T09:24:08.000Z</time>
      </trkpt>
      <trkpt lat="47.3405" lon="-1.32895">
        <ele>99</ele>
        <time>2014-10-31T09:24:12.000Z</time>
      </trkpt>
      <trkpt lat="47.34053" lon="-1.32891">
        <ele>98</ele>
        <time>2014-10-31T09:24:14.000Z</time>
      </trkpt>
      <trkpt lat="47.34057" lon="-1.32884">
        <ele>95</ele>
        <time>2014-10-31T09:24:17.000Z</time>
      </trkpt>
      <trkpt lat="47.34061" lon="-1.32879">
        <ele>96</ele>
        <time>2014-10-31T09:24:19.000Z</time>
      </trkpt>
      <trkpt lat="47.34064" lon="-1.32874">
        <ele>98</ele>
        <time>2014-10-31T09:24:21.000Z</time>
      </trkpt>
      <trkpt lat="47.34072" lon="-1.3286">
        <ele>98</ele>
        <time>2014-10-31T09:24:23.000Z</time>
      </trkpt>
      <trkpt lat="47.34076" lon="-1.32852">
        <ele>100</ele>
        <time>2014-10-31T09:24:25.000Z</time>
      </trkpt>
      <trkpt lat="47.3408" lon="-1.32845">
        <ele>100</ele>
        <time>2014-10-31T09:24:28.000Z</time>
      </trkpt>
      <trkpt lat="47.34084" lon="-1.32839">
        <ele>101</ele>
        <time>2014-10-31T09:24:29.000Z</time>
      </trkpt>
      <trkpt lat="47.34084" lon="-1.32839">
        <ele>101</ele>
        <time>2014-10-31T09:24:32.000Z</time>
      </trkpt>
      <trkpt lat="47.34091" lon="-1.32827">
        <ele>104</ele>
        <time>2014-10-31T09:24:33.000Z</time>
      </trkpt>
      <trkpt lat="47.34091" lon="-1.32827">
        <ele>104</ele>
        <time>2014-10-31T09:24:35.000Z</time>
      </trkpt>
      <trkpt lat="47.34098" lon="-1.32823">
        <ele>101</ele>
        <time>2014-10-31T09:24:37.000Z</time>
      </trkpt>
      <trkpt lat="47.34098" lon="-1.32823">
        <ele>101</ele>
        <time>2014-10-31T09:24:39.000Z</time>
      </trkpt>
      <trkpt lat="47.34106" lon="-1.32818">
        <ele>100</ele>
        <time>2014-10-31T09:24:41.000Z</time>
      </trkpt>
      <trkpt lat="47.34116" lon="-1.32806">
        <ele>105</ele>
        <time>2014-10-31T09:24:45.000Z</time>
      </trkpt>
      <trkpt lat="47.34121" lon="-1.32797">
        <ele>109</ele>
        <time>2014-10-31T09:24:47.000Z</time>
      </trkpt>
      <trkpt lat="47.34125" lon="-1.32786">
        <ele>106</ele>
        <time>2014-10-31T09:24:49.000Z</time>
      </trkpt>
      <trkpt lat="47.34128" lon="-1.32778">
        <ele>106</ele>
        <time>2014-10-31T09:24:51.000Z</time>
      </trkpt>
      <trkpt lat="47.34128" lon="-1.32778">
        <ele>106</ele>
        <time>2014-10-31T09:24:53.000Z</time>
      </trkpt>
      <trkpt lat="47.34133" lon="-1.32766">
        <ele>105</ele>
        <time>2014-10-31T09:24:55.000Z</time>
      </trkpt>
      <trkpt lat="47.34138" lon="-1.32761">
        <ele>103</ele>
        <time>2014-10-31T09:24:57.000Z</time>
      </trkpt>
      <trkpt lat="47.34138" lon="-1.32761">
        <ele>103</ele>
        <time>2014-10-31T09:24:59.000Z</time>
      </trkpt>
      <trkpt lat="47.34144" lon="-1.32754">
        <ele>102</ele>
        <time>2014-10-31T09:25:01.000Z</time>
      </trkpt>
      <trkpt lat="47.34144" lon="-1.32754">
        <ele>102</ele>
        <time>2014-10-31T09:25:03.000Z</time>
      </trkpt>
      <trkpt lat="47.3415" lon="-1.32746">
        <ele>108</ele>
        <time>2014-10-31T09:25:05.000Z</time>
      </trkpt>
      <trkpt lat="47.3415" lon="-1.32746">
        <ele>108</ele>
        <time>2014-10-31T09:25:07.000Z</time>
      </trkpt>
      <trkpt lat="47.34156" lon="-1.3274">
        <ele>113</ele>
        <time>2014-10-31T09:25:09.000Z</time>
      </trkpt>
      <trkpt lat="47.34156" lon="-1.3274">
        <ele>113</ele>
        <time>2014-10-31T09:25:11.000Z</time>
      </trkpt>
      <trkpt lat="47.34156" lon="-1.3274">
        <ele>113</ele>
        <time>2014-10-31T09:25:13.000Z</time>
      </trkpt>
      <trkpt lat="47.34161" lon="-1.32734">
        <ele>108</ele>
        <time>2014-10-31T09:25:15.000Z</time>
      </trkpt>
      <trkpt lat="47.34161" lon="-1.32734">
        <ele>108</ele>
        <time>2014-10-31T09:25:17.000Z</time>
      </trkpt>
      <trkpt lat="47.34167" lon="-1.32727">
        <ele>109</ele>
        <time>2014-10-31T09:25:19.000Z</time>
      </trkpt>
      <trkpt lat="47.34173" lon="-1.32716">
        <ele>118</ele>
        <time>2014-10-31T09:25:23.000Z</time>
      </trkpt>
      <trkpt lat="47.3418" lon="-1.32708">
        <ele>121</ele>
        <time>2014-10-31T09:25:27.000Z</time>
      </trkpt>
      <trkpt lat="47.3418" lon="-1.32708">
        <ele>121</ele>
        <time>2014-10-31T09:25:29.000Z</time>
      </trkpt>
      <trkpt lat="47.3418" lon="-1.32708">
        <ele>121</ele>
        <time>2014-10-31T09:25:31.000Z</time>
      </trkpt>
      <trkpt lat="47.34186" lon="-1.32701">
        <ele>121</ele>
        <time>2014-10-31T09:25:33.000Z</time>
      </trkpt>
      <trkpt lat="47.34186" lon="-1.32701">
        <ele>121</ele>
        <time>2014-10-31T09:25:35.000Z</time>
      </trkpt>
      <trkpt lat="47.34185" lon="-1.32693">
        <ele>120</ele>
        <time>2014-10-31T09:25:37.000Z</time>
      </trkpt>
      <trkpt lat="47.34185" lon="-1.32693">
        <ele>120</ele>
        <time>2014-10-31T09:25:39.000Z</time>
      </trkpt>
      <trkpt lat="47.34188" lon="-1.32685">
        <ele>117</ele>
        <time>2014-10-31T09:25:41.000Z</time>
      </trkpt>
      <trkpt lat="47.34195" lon="-1.32675">
        <ele>118</ele>
        <time>2014-10-31T09:25:45.000Z</time>
      </trkpt>
      <trkpt lat="47.342" lon="-1.32668">
        <ele>117</ele>
        <time>2014-10-31T09:25:48.000Z</time>
      </trkpt>
      <trkpt lat="47.34202" lon="-1.32659">
        <ele>115</ele>
        <time>2014-10-31T09:25:49.000Z</time>
      </trkpt>
      <trkpt lat="47.34203" lon="-1.32641">
        <ele>113</ele>
        <time>2014-10-31T09:25:53.000Z</time>
      </trkpt>
      <trkpt lat="47.34203" lon="-1.32641">
        <ele>113</ele>
        <time>2014-10-31T09:25:55.000Z</time>
      </trkpt>
      <trkpt lat="47.34201" lon="-1.32633">
        <ele>115</ele>
        <time>2014-10-31T09:25:57.000Z</time>
      </trkpt>
      <trkpt lat="47.34201" lon="-1.32633">
        <ele>115</ele>
        <time>2014-10-31T09:25:59.000Z</time>
      </trkpt>
      <trkpt lat="47.342" lon="-1.32624">
        <ele>114</ele>
        <time>2014-10-31T09:26:01.000Z</time>
      </trkpt>
      <trkpt lat="47.34198" lon="-1.3261">
        <ele>115</ele>
        <time>2014-10-31T09:26:05.000Z</time>
      </trkpt>
      <trkpt lat="47.34193" lon="-1.32596">
        <ele>112</ele>
        <time>2014-10-31T09:26:09.000Z</time>
      </trkpt>
      <trkpt lat="47.34188" lon="-1.32586">
        <ele>111</ele>
        <time>2014-10-31T09:26:13.000Z</time>
      </trkpt>
      <trkpt lat="47.34188" lon="-1.32586">
        <ele>111</ele>
        <time>2014-10-31T09:26:15.000Z</time>
      </trkpt>
      <trkpt lat="47.34185" lon="-1.32576">
        <ele>108</ele>
        <time>2014-10-31T09:26:17.000Z</time>
      </trkpt>
      <trkpt lat="47.34185" lon="-1.32576">
        <ele>108</ele>
        <time>2014-10-31T09:26:19.000Z</time>
      </trkpt>
      <trkpt lat="47.34178" lon="-1.32567">
        <ele>109</ele>
        <time>2014-10-31T09:26:21.000Z</time>
      </trkpt>
      <trkpt lat="47.34171" lon="-1.3256">
        <ele>114</ele>
        <time>2014-10-31T09:26:25.000Z</time>
      </trkpt>
      <trkpt lat="47.34171" lon="-1.3256">
        <ele>114</ele>
        <time>2014-10-31T09:26:27.000Z</time>
      </trkpt>
      <trkpt lat="47.34165" lon="-1.32555">
        <ele>109</ele>
        <time>2014-10-31T09:26:29.000Z</time>
      </trkpt>
      <trkpt lat="47.34159" lon="-1.32545">
        <ele>106</ele>
        <time>2014-10-31T09:26:33.000Z</time>
      </trkpt>
      <trkpt lat="47.34157" lon="-1.3254">
        <ele>110</ele>
        <time>2014-10-31T09:26:37.000Z</time>
      </trkpt>
      <trkpt lat="47.34155" lon="-1.32536">
        <ele>110</ele>
        <time>2014-10-31T09:26:39.000Z</time>
      </trkpt>
      <trkpt lat="47.34152" lon="-1.3253">
        <ele>112</ele>
        <time>2014-10-31T09:26:41.000Z</time>
      </trkpt>
      <trkpt lat="47.34149" lon="-1.32524">
        <ele>112</ele>
        <time>2014-10-31T09:26:43.000Z</time>
      </trkpt>
      <trkpt lat="47.34145" lon="-1.32519">
        <ele>112</ele>
        <time>2014-10-31T09:26:45.000Z</time>
      </trkpt>
      <trkpt lat="47.34138" lon="-1.3251">
        <ele>112</ele>
        <time>2014-10-31T09:26:47.000Z</time>
      </trkpt>
      <trkpt lat="47.34138" lon="-1.3251">
        <ele>112</ele>
        <time>2014-10-31T09:26:49.000Z</time>
      </trkpt>
      <trkpt lat="47.34131" lon="-1.32502">
        <ele>113</ele>
        <time>2014-10-31T09:26:51.000Z</time>
      </trkpt>
      <trkpt lat="47.34131" lon="-1.32502">
        <ele>113</ele>
        <time>2014-10-31T09:26:53.000Z</time>
      </trkpt>
      <trkpt lat="47.34125" lon="-1.32492">
        <ele>113</ele>
        <time>2014-10-31T09:26:55.000Z</time>
      </trkpt>
      <trkpt lat="47.34122" lon="-1.32484">
        <ele>114</ele>
        <time>2014-10-31T09:26:57.000Z</time>
      </trkpt>
      <trkpt lat="47.34118" lon="-1.32476">
        <ele>113</ele>
        <time>2014-10-31T09:27:01.000Z</time>
      </trkpt>
      <trkpt lat="47.34118" lon="-1.32476">
        <ele>113</ele>
        <time>2014-10-31T09:27:03.000Z</time>
      </trkpt>
      <trkpt lat="47.34118" lon="-1.32476">
        <ele>113</ele>
        <time>2014-10-31T09:27:05.000Z</time>
      </trkpt>
      <trkpt lat="47.34118" lon="-1.32476">
        <ele>113</ele>
        <time>2014-10-31T09:27:07.000Z</time>
      </trkpt>
      <trkpt lat="47.34118" lon="-1.32476">
        <ele>113</ele>
        <time>2014-10-31T09:27:09.000Z</time>
      </trkpt>
      <trkpt lat="47.34118" lon="-1.32476">
        <ele>113</ele>
        <time>2014-10-31T09:27:11.000Z</time>
      </trkpt>
      <trkpt lat="47.34113" lon="-1.32469">
        <ele>118</ele>
        <time>2014-10-31T09:27:13.000Z</time>
      </trkpt>
      <trkpt lat="47.34113" lon="-1.32469">
        <ele>118</ele>
        <time>2014-10-31T09:27:15.000Z</time>
      </trkpt>
      <trkpt lat="47.34113" lon="-1.32469">
        <ele>118</ele>
        <time>2014-10-31T09:27:17.000Z</time>
      </trkpt>
      <trkpt lat="47.34107" lon="-1.32467">
        <ele>119</ele>
        <time>2014-10-31T09:27:19.000Z</time>
      </trkpt>
      <trkpt lat="47.341" lon="-1.32464">
        <ele>118</ele>
        <time>2014-10-31T09:27:25.000Z</time>
      </trkpt>
      <trkpt lat="47.34097" lon="-1.32457">
        <ele>120</ele>
        <time>2014-10-31T09:27:29.000Z</time>
      </trkpt>
      <trkpt lat="47.3409" lon="-1.32448">
        <ele>117</ele>
        <time>2014-10-31T09:27:33.000Z</time>
      </trkpt>
      <trkpt lat="47.34086" lon="-1.32442">
        <ele>117</ele>
        <time>2014-10-31T09:27:35.000Z</time>
      </trkpt>
      <trkpt lat="47.34081" lon="-1.32438">
        <ele>119</ele>
        <time>2014-10-31T09:27:37.000Z</time>
      </trkpt>
      <trkpt lat="47.34077" lon="-1.32431">
        <ele>121</ele>
        <time>2014-10-31T09:27:41.000Z</time>
      </trkpt>
      <trkpt lat="47.34077" lon="-1.32431">
        <ele>121</ele>
        <time>2014-10-31T09:27:43.000Z</time>
      </trkpt>
      <trkpt lat="47.3407" lon="-1.32428">
        <ele>125</ele>
        <time>2014-10-31T09:27:45.000Z</time>
      </trkpt>
      <trkpt lat="47.34059" lon="-1.3242">
        <ele>121</ele>
        <time>2014-10-31T09:27:49.000Z</time>
      </trkpt>
      <trkpt lat="47.34053" lon="-1.32415">
        <ele>121</ele>
        <time>2014-10-31T09:27:51.000Z</time>
      </trkpt>
      <trkpt lat="47.34048" lon="-1.3241">
        <ele>120</ele>
        <time>2014-10-31T09:27:53.000Z</time>
      </trkpt>
      <trkpt lat="47.34042" lon="-1.32405">
        <ele>121</ele>
        <time>2014-10-31T09:27:55.000Z</time>
      </trkpt>
      <trkpt lat="47.34037" lon="-1.324">
        <ele>118</ele>
        <time>2014-10-31T09:27:58.000Z</time>
      </trkpt>
      <trkpt lat="47.34033" lon="-1.32393">
        <ele>116</ele>
        <time>2014-10-31T09:27:59.000Z</time>
      </trkpt>
      <trkpt lat="47.34026" lon="-1.32383">
        <ele>114</ele>
        <time>2014-10-31T09:28:03.000Z</time>
      </trkpt>
      <trkpt lat="47.34026" lon="-1.32383">
        <ele>114</ele>
        <time>2014-10-31T09:28:05.000Z</time>
      </trkpt>
      <trkpt lat="47.34021" lon="-1.32372">
        <ele>113</ele>
        <time>2014-10-31T09:28:07.000Z</time>
      </trkpt>
      <trkpt lat="47.34019" lon="-1.32358">
        <ele>115</ele>
        <time>2014-10-31T09:28:11.000Z</time>
      </trkpt>
      <trkpt lat="47.34023" lon="-1.32342">
        <ele>115</ele>
        <time>2014-10-31T09:28:15.000Z</time>
      </trkpt>
      <trkpt lat="47.34025" lon="-1.32332">
        <ele>115</ele>
        <time>2014-10-31T09:28:17.000Z</time>
      </trkpt>
      <trkpt lat="47.34025" lon="-1.32322">
        <ele>116</ele>
        <time>2014-10-31T09:28:19.000Z</time>
      </trkpt>
      <trkpt lat="47.34024" lon="-1.32314">
        <ele>117</ele>
        <time>2014-10-31T09:28:21.000Z</time>
      </trkpt>
      <trkpt lat="47.34023" lon="-1.32305">
        <ele>118</ele>
        <time>2014-10-31T09:28:23.000Z</time>
      </trkpt>
      <trkpt lat="47.34021" lon="-1.32296">
        <ele>118</ele>
        <time>2014-10-31T09:28:25.000Z</time>
      </trkpt>
      <trkpt lat="47.34016" lon="-1.32289">
        <ele>118</ele>
        <time>2014-10-31T09:28:27.000Z</time>
      </trkpt>
      <trkpt lat="47.3401" lon="-1.32282">
        <ele>119</ele>
        <time>2014-10-31T09:28:29.000Z</time>
      </trkpt>
      <trkpt lat="47.34004" lon="-1.32273">
        <ele>119</ele>
        <time>2014-10-31T09:28:31.000Z</time>
      </trkpt>
      <trkpt lat="47.33999" lon="-1.32266">
        <ele>120</ele>
        <time>2014-10-31T09:28:33.000Z</time>
      </trkpt>
      <trkpt lat="47.33992" lon="-1.32259">
        <ele>120</ele>
        <time>2014-10-31T09:28:35.000Z</time>
      </trkpt>
      <trkpt lat="47.33988" lon="-1.32253">
        <ele>121</ele>
        <time>2014-10-31T09:28:37.000Z</time>
      </trkpt>
      <trkpt lat="47.33982" lon="-1.32245">
        <ele>122</ele>
        <time>2014-10-31T09:28:39.000Z</time>
      </trkpt>
      <trkpt lat="47.33976" lon="-1.32236">
        <ele>123</ele>
        <time>2014-10-31T09:28:41.000Z</time>
      </trkpt>
      <trkpt lat="47.33972" lon="-1.32228">
        <ele>123</ele>
        <time>2014-10-31T09:28:43.000Z</time>
      </trkpt>
      <trkpt lat="47.33972" lon="-1.32228">
        <ele>123</ele>
        <time>2014-10-31T09:28:45.000Z</time>
      </trkpt>
      <trkpt lat="47.33966" lon="-1.32217">
        <ele>123</ele>
        <time>2014-10-31T09:28:47.000Z</time>
      </trkpt>
      <trkpt lat="47.33966" lon="-1.32217">
        <ele>123</ele>
        <time>2014-10-31T09:28:49.000Z</time>
      </trkpt>
      <trkpt lat="47.33966" lon="-1.32217">
        <ele>123</ele>
        <time>2014-10-31T09:28:51.000Z</time>
      </trkpt>
      <trkpt lat="47.33964" lon="-1.32209">
        <ele>124</ele>
        <time>2014-10-31T09:28:53.000Z</time>
      </trkpt>
      <trkpt lat="47.33964" lon="-1.32209">
        <ele>124</ele>
        <time>2014-10-31T09:28:55.000Z</time>
      </trkpt>
      <trkpt lat="47.33964" lon="-1.32209">
        <ele>124</ele>
        <time>2014-10-31T09:28:57.000Z</time>
      </trkpt>
      <trkpt lat="47.33965" lon="-1.3222">
        <ele>126</ele>
        <time>2014-10-31T09:28:59.000Z</time>
      </trkpt>
      <trkpt lat="47.33956" lon="-1.32229">
        <ele>126</ele>
        <time>2014-10-31T09:29:03.000Z</time>
      </trkpt>
      <trkpt lat="47.33951" lon="-1.32235">
        <ele>125</ele>
        <time>2014-10-31T09:29:05.000Z</time>
      </trkpt>
      <trkpt lat="47.33947" lon="-1.3224">
        <ele>131</ele>
        <time>2014-10-31T09:29:07.000Z</time>
      </trkpt>
      <trkpt lat="47.33942" lon="-1.32246">
        <ele>130</ele>
        <time>2014-10-31T09:29:09.000Z</time>
      </trkpt>
      <trkpt lat="47.33932" lon="-1.32265">
        <ele>126</ele>
        <time>2014-10-31T09:29:12.000Z</time>
      </trkpt>
      <trkpt lat="47.33924" lon="-1.32273">
        <ele>125</ele>
        <time>2014-10-31T09:29:14.000Z</time>
      </trkpt>
      <trkpt lat="47.33918" lon="-1.32277">
        <ele>127</ele>
        <time>2014-10-31T09:29:16.000Z</time>
      </trkpt>
      <trkpt lat="47.33918" lon="-1.32277">
        <ele>127</ele>
        <time>2014-10-31T09:29:18.000Z</time>
      </trkpt>
      <trkpt lat="47.33912" lon="-1.32286">
        <ele>127</ele>
        <time>2014-10-31T09:29:20.000Z</time>
      </trkpt>
      <trkpt lat="47.33912" lon="-1.32286">
        <ele>127</ele>
        <time>2014-10-31T09:29:22.000Z</time>
      </trkpt>
      <trkpt lat="47.33905" lon="-1.32289">
        <ele>133</ele>
        <time>2014-10-31T09:29:24.000Z</time>
      </trkpt>
      <trkpt lat="47.33905" lon="-1.32289">
        <ele>133</ele>
        <time>2014-10-31T09:29:26.000Z</time>
      </trkpt>
      <trkpt lat="47.33905" lon="-1.32289">
        <ele>133</ele>
        <time>2014-10-31T09:29:29.000Z</time>
      </trkpt>
      <trkpt lat="47.33905" lon="-1.32289">
        <ele>133</ele>
        <time>2014-10-31T09:29:30.000Z</time>
      </trkpt>
      <trkpt lat="47.33905" lon="-1.32289">
        <ele>133</ele>
        <time>2014-10-31T09:29:32.000Z</time>
      </trkpt>
      <trkpt lat="47.33905" lon="-1.32289">
        <ele>133</ele>
        <time>2014-10-31T09:29:34.000Z</time>
      </trkpt>
      <trkpt lat="47.33905" lon="-1.32289">
        <ele>133</ele>
        <time>2014-10-31T09:29:36.000Z</time>
      </trkpt>
      <trkpt lat="47.33905" lon="-1.32289">
        <ele>133</ele>
        <time>2014-10-31T09:29:38.000Z</time>
      </trkpt>
      <trkpt lat="47.33905" lon="-1.32289">
        <ele>133</ele>
        <time>2014-10-31T09:29:40.000Z</time>
      </trkpt>
      <trkpt lat="47.33908" lon="-1.32291">
        <ele>119</ele>
        <time>2014-10-31T09:29:48.000Z</time>
      </trkpt>
      <trkpt lat="47.33912" lon="-1.32293">
        <ele>120</ele>
        <time>2014-10-31T09:29:50.000Z</time>
      </trkpt>
      <trkpt lat="47.33915" lon="-1.32293">
        <ele>119</ele>
        <time>2014-10-31T09:29:53.000Z</time>
      </trkpt>
      <trkpt lat="47.33918" lon="-1.32292">
        <ele>122</ele>
        <time>2014-10-31T09:29:54.000Z</time>
      </trkpt>
      <trkpt lat="47.33923" lon="-1.32289">
        <ele>123</ele>
        <time>2014-10-31T09:29:56.000Z</time>
      </trkpt>
      <trkpt lat="47.33932" lon="-1.32281">
        <ele>122</ele>
        <time>2014-10-31T09:29:58.000Z</time>
      </trkpt>
      <trkpt lat="47.33946" lon="-1.32267">
        <ele>128</ele>
        <time>2014-10-31T09:30:01.000Z</time>
      </trkpt>
      <trkpt lat="47.33952" lon="-1.32259">
        <ele>126</ele>
        <time>2014-10-31T09:30:03.000Z</time>
      </trkpt>
      <trkpt lat="47.33958" lon="-1.32251">
        <ele>125</ele>
        <time>2014-10-31T09:30:05.000Z</time>
      </trkpt>
      <trkpt lat="47.33965" lon="-1.32246">
        <ele>126</ele>
        <time>2014-10-31T09:30:07.000Z</time>
      </trkpt>
      <trkpt lat="47.33965" lon="-1.32246">
        <ele>126</ele>
        <time>2014-10-31T09:30:09.000Z</time>
      </trkpt>
      <trkpt lat="47.33971" lon="-1.32233">
        <ele>124</ele>
        <time>2014-10-31T09:30:11.000Z</time>
      </trkpt>
      <trkpt lat="47.3397" lon="-1.32224">
        <ele>122</ele>
        <time>2014-10-31T09:30:13.000Z</time>
      </trkpt>
      <trkpt lat="47.33966" lon="-1.32213">
        <ele>122</ele>
        <time>2014-10-31T09:30:15.000Z</time>
      </trkpt>
      <trkpt lat="47.33964" lon="-1.32202">
        <ele>120</ele>
        <time>2014-10-31T09:30:17.000Z</time>
      </trkpt>
      <trkpt lat="47.33963" lon="-1.32191">
        <ele>119</ele>
        <time>2014-10-31T09:30:19.000Z</time>
      </trkpt>
      <trkpt lat="47.33962" lon="-1.3218">
        <ele>120</ele>
        <time>2014-10-31T09:30:21.000Z</time>
      </trkpt>
      <trkpt lat="47.33958" lon="-1.32171">
        <ele>120</ele>
        <time>2014-10-31T09:30:23.000Z</time>
      </trkpt>
      <trkpt lat="47.3395" lon="-1.32163">
        <ele>120</ele>
        <time>2014-10-31T09:30:25.000Z</time>
      </trkpt>
      <trkpt lat="47.33943" lon="-1.32155">
        <ele>119</ele>
        <time>2014-10-31T09:30:27.000Z</time>
      </trkpt>
      <trkpt lat="47.33937" lon="-1.32146">
        <ele>118</ele>
        <time>2014-10-31T09:30:29.000Z</time>
      </trkpt>
      <trkpt lat="47.3393" lon="-1.32136">
        <ele>118</ele>
        <time>2014-10-31T09:30:31.000Z</time>
      </trkpt>
      <trkpt lat="47.33925" lon="-1.32126">
        <ele>118</ele>
        <time>2014-10-31T09:30:33.000Z</time>
      </trkpt>
      <trkpt lat="47.33921" lon="-1.32111">
        <ele>119</ele>
        <time>2014-10-31T09:30:35.000Z</time>
      </trkpt>
      <trkpt lat="47.33915" lon="-1.32097">
        <ele>120</ele>
        <time>2014-10-31T09:30:37.000Z</time>
      </trkpt>
      <trkpt lat="47.33908" lon="-1.32083">
        <ele>119</ele>
        <time>2014-10-31T09:30:39.000Z</time>
      </trkpt>
      <trkpt lat="47.33903" lon="-1.32069">
        <ele>119</ele>
        <time>2014-10-31T09:30:41.000Z</time>
      </trkpt>
      <trkpt lat="47.33897" lon="-1.32055">
        <ele>118</ele>
        <time>2014-10-31T09:30:43.000Z</time>
      </trkpt>
      <trkpt lat="47.33893" lon="-1.32041">
        <ele>119</ele>
        <time>2014-10-31T09:30:45.000Z</time>
      </trkpt>
      <trkpt lat="47.33893" lon="-1.3203">
        <ele>123</ele>
        <time>2014-10-31T09:30:47.000Z</time>
      </trkpt>
      <trkpt lat="47.33888" lon="-1.32015">
        <ele>122</ele>
        <time>2014-10-31T09:30:49.000Z</time>
      </trkpt>
      <trkpt lat="47.33885" lon="-1.32001">
        <ele>122</ele>
        <time>2014-10-31T09:30:51.000Z</time>
      </trkpt>
      <trkpt lat="47.33879" lon="-1.31991">
        <ele>122</ele>
        <time>2014-10-31T09:30:53.000Z</time>
      </trkpt>
      <trkpt lat="47.33872" lon="-1.3198">
        <ele>122</ele>
        <time>2014-10-31T09:30:55.000Z</time>
      </trkpt>
      <trkpt lat="47.33867" lon="-1.31972">
        <ele>122</ele>
        <time>2014-10-31T09:30:57.000Z</time>
      </trkpt>
      <trkpt lat="47.33855" lon="-1.31965">
        <ele>121</ele>
        <time>2014-10-31T09:30:59.000Z</time>
      </trkpt>
      <trkpt lat="47.33846" lon="-1.31959">
        <ele>121</ele>
        <time>2014-10-31T09:31:01.000Z</time>
      </trkpt>
      <trkpt lat="47.33837" lon="-1.31953">
        <ele>124</ele>
        <time>2014-10-31T09:31:03.000Z</time>
      </trkpt>
      <trkpt lat="47.33826" lon="-1.31947">
        <ele>124</ele>
        <time>2014-10-31T09:31:05.000Z</time>
      </trkpt>
      <trkpt lat="47.33818" lon="-1.31938">
        <ele>125</ele>
        <time>2014-10-31T09:31:07.000Z</time>
      </trkpt>
      <trkpt lat="47.33809" lon="-1.31933">
        <ele>122</ele>
        <time>2014-10-31T09:31:09.000Z</time>
      </trkpt>
      <trkpt lat="47.33797" lon="-1.31927">
        <ele>124</ele>
        <time>2014-10-31T09:31:11.000Z</time>
      </trkpt>
      <trkpt lat="47.33788" lon="-1.31919">
        <ele>123</ele>
        <time>2014-10-31T09:31:13.000Z</time>
      </trkpt>
      <trkpt lat="47.3378" lon="-1.3191">
        <ele>123</ele>
        <time>2014-10-31T09:31:15.000Z</time>
      </trkpt>
      <trkpt lat="47.33772" lon="-1.31904">
        <ele>123</ele>
        <time>2014-10-31T09:31:18.000Z</time>
      </trkpt>
      <trkpt lat="47.33764" lon="-1.31896">
        <ele>123</ele>
        <time>2014-10-31T09:31:19.000Z</time>
      </trkpt>
      <trkpt lat="47.33756" lon="-1.31889">
        <ele>121</ele>
        <time>2014-10-31T09:31:21.000Z</time>
      </trkpt>
      <trkpt lat="47.33748" lon="-1.31884">
        <ele>121</ele>
        <time>2014-10-31T09:31:23.000Z</time>
      </trkpt>
      <trkpt lat="47.33741" lon="-1.31877">
        <ele>122</ele>
        <time>2014-10-31T09:31:25.000Z</time>
      </trkpt>
      <trkpt lat="47.33732" lon="-1.31869">
        <ele>122</ele>
        <time>2014-10-31T09:31:27.000Z</time>
      </trkpt>
      <trkpt lat="47.33725" lon="-1.31863">
        <ele>122</ele>
        <time>2014-10-31T09:31:29.000Z</time>
      </trkpt>
      <trkpt lat="47.3372" lon="-1.31856">
        <ele>122</ele>
        <time>2014-10-31T09:31:31.000Z</time>
      </trkpt>
      <trkpt lat="47.33714" lon="-1.31851">
        <ele>121</ele>
        <time>2014-10-31T09:31:33.000Z</time>
      </trkpt>
      <trkpt lat="47.33714" lon="-1.31851">
        <ele>121</ele>
        <time>2014-10-31T09:31:35.000Z</time>
      </trkpt>
      <trkpt lat="47.33703" lon="-1.31853">
        <ele>120</ele>
        <time>2014-10-31T09:31:37.000Z</time>
      </trkpt>
      <trkpt lat="47.33696" lon="-1.31875">
        <ele>121</ele>
        <time>2014-10-31T09:31:40.000Z</time>
      </trkpt>
      <trkpt lat="47.33691" lon="-1.31885">
        <ele>119</ele>
        <time>2014-10-31T09:31:42.000Z</time>
      </trkpt>
      <trkpt lat="47.33684" lon="-1.31897">
        <ele>119</ele>
        <time>2014-10-31T09:31:44.000Z</time>
      </trkpt>
      <trkpt lat="47.33677" lon="-1.31908">
        <ele>119</ele>
        <time>2014-10-31T09:31:46.000Z</time>
      </trkpt>
      <trkpt lat="47.33669" lon="-1.3192">
        <ele>119</ele>
        <time>2014-10-31T09:31:48.000Z</time>
      </trkpt>
      <trkpt lat="47.33663" lon="-1.31933">
        <ele>118</ele>
        <time>2014-10-31T09:31:50.000Z</time>
      </trkpt>
      <trkpt lat="47.33656" lon="-1.31948">
        <ele>116</ele>
        <time>2014-10-31T09:31:52.000Z</time>
      </trkpt>
      <trkpt lat="47.33649" lon="-1.31963">
        <ele>115</ele>
        <time>2014-10-31T09:31:54.000Z</time>
      </trkpt>
      <trkpt lat="47.33643" lon="-1.31978">
        <ele>114</ele>
        <time>2014-10-31T09:31:56.000Z</time>
      </trkpt>
      <trkpt lat="47.33635" lon="-1.31994">
        <ele>113</ele>
        <time>2014-10-31T09:31:58.000Z</time>
      </trkpt>
      <trkpt lat="47.33625" lon="-1.32008">
        <ele>112</ele>
        <time>2014-10-31T09:32:00.000Z</time>
      </trkpt>
      <trkpt lat="47.33613" lon="-1.32021">
        <ele>113</ele>
        <time>2014-10-31T09:32:02.000Z</time>
      </trkpt>
      <trkpt lat="47.336" lon="-1.32027">
        <ele>113</ele>
        <time>2014-10-31T09:32:04.000Z</time>
      </trkpt>
      <trkpt lat="47.33585" lon="-1.32029">
        <ele>113</ele>
        <time>2014-10-31T09:32:06.000Z</time>
      </trkpt>
      <trkpt lat="47.33572" lon="-1.32031">
        <ele>111</ele>
        <time>2014-10-31T09:32:08.000Z</time>
      </trkpt>
      <trkpt lat="47.33558" lon="-1.3203">
        <ele>111</ele>
        <time>2014-10-31T09:32:10.000Z</time>
      </trkpt>
      <trkpt lat="47.33544" lon="-1.32027">
        <ele>110</ele>
        <time>2014-10-31T09:32:12.000Z</time>
      </trkpt>
      <trkpt lat="47.33534" lon="-1.3202">
        <ele>111</ele>
        <time>2014-10-31T09:32:14.000Z</time>
      </trkpt>
      <trkpt lat="47.33525" lon="-1.32011">
        <ele>109</ele>
        <time>2014-10-31T09:32:16.000Z</time>
      </trkpt>
      <trkpt lat="47.33515" lon="-1.32002">
        <ele>109</ele>
        <time>2014-10-31T09:32:18.000Z</time>
      </trkpt>
      <trkpt lat="47.33505" lon="-1.31994">
        <ele>110</ele>
        <time>2014-10-31T09:32:20.000Z</time>
      </trkpt>
      <trkpt lat="47.33496" lon="-1.31984">
        <ele>109</ele>
        <time>2014-10-31T09:32:22.000Z</time>
      </trkpt>
      <trkpt lat="47.33486" lon="-1.31979">
        <ele>110</ele>
        <time>2014-10-31T09:32:24.000Z</time>
      </trkpt>
      <trkpt lat="47.33474" lon="-1.31979">
        <ele>110</ele>
        <time>2014-10-31T09:32:26.000Z</time>
      </trkpt>
      <trkpt lat="47.33461" lon="-1.31987">
        <ele>108</ele>
        <time>2014-10-31T09:32:28.000Z</time>
      </trkpt>
      <trkpt lat="47.33451" lon="-1.32">
        <ele>108</ele>
        <time>2014-10-31T09:32:30.000Z</time>
      </trkpt>
      <trkpt lat="47.33443" lon="-1.32016">
        <ele>106</ele>
        <time>2014-10-31T09:32:32.000Z</time>
      </trkpt>
      <trkpt lat="47.33435" lon="-1.32032">
        <ele>106</ele>
        <time>2014-10-31T09:32:34.000Z</time>
      </trkpt>
      <trkpt lat="47.33427" lon="-1.32048">
        <ele>105</ele>
        <time>2014-10-31T09:32:36.000Z</time>
      </trkpt>
      <trkpt lat="47.3342" lon="-1.32063">
        <ele>104</ele>
        <time>2014-10-31T09:32:38.000Z</time>
      </trkpt>
      <trkpt lat="47.33413" lon="-1.32082">
        <ele>103</ele>
        <time>2014-10-31T09:32:40.000Z</time>
      </trkpt>
      <trkpt lat="47.33404" lon="-1.321">
        <ele>101</ele>
        <time>2014-10-31T09:32:42.000Z</time>
      </trkpt>
      <trkpt lat="47.33395" lon="-1.32116">
        <ele>100</ele>
        <time>2014-10-31T09:32:44.000Z</time>
      </trkpt>
      <trkpt lat="47.33384" lon="-1.32134">
        <ele>99</ele>
        <time>2014-10-31T09:32:46.000Z</time>
      </trkpt>
      <trkpt lat="47.33374" lon="-1.32148">
        <ele>99</ele>
        <time>2014-10-31T09:32:48.000Z</time>
      </trkpt>
      <trkpt lat="47.33361" lon="-1.32158">
        <ele>97</ele>
        <time>2014-10-31T09:32:50.000Z</time>
      </trkpt>
      <trkpt lat="47.33346" lon="-1.32156">
        <ele>97</ele>
        <time>2014-10-31T09:32:52.000Z</time>
      </trkpt>
      <trkpt lat="47.33333" lon="-1.32147">
        <ele>96</ele>
        <time>2014-10-31T09:32:54.000Z</time>
      </trkpt>
      <trkpt lat="47.33319" lon="-1.32149">
        <ele>96</ele>
        <time>2014-10-31T09:32:56.000Z</time>
      </trkpt>
      <trkpt lat="47.33307" lon="-1.32159">
        <ele>95</ele>
        <time>2014-10-31T09:32:58.000Z</time>
      </trkpt>
      <trkpt lat="47.33297" lon="-1.32171">
        <ele>94</ele>
        <time>2014-10-31T09:33:00.000Z</time>
      </trkpt>
      <trkpt lat="47.33287" lon="-1.3218">
        <ele>93</ele>
        <time>2014-10-31T09:33:02.000Z</time>
      </trkpt>
      <trkpt lat="47.33274" lon="-1.32185">
        <ele>92</ele>
        <time>2014-10-31T09:33:04.000Z</time>
      </trkpt>
      <trkpt lat="47.33263" lon="-1.32191">
        <ele>92</ele>
        <time>2014-10-31T09:33:06.000Z</time>
      </trkpt>
      <trkpt lat="47.33253" lon="-1.32198">
        <ele>88</ele>
        <time>2014-10-31T09:33:08.000Z</time>
      </trkpt>
      <trkpt lat="47.33241" lon="-1.32202">
        <ele>86</ele>
        <time>2014-10-31T09:33:10.000Z</time>
      </trkpt>
      <trkpt lat="47.33232" lon="-1.32205">
        <ele>87</ele>
        <time>2014-10-31T09:33:12.000Z</time>
      </trkpt>
      <trkpt lat="47.33223" lon="-1.32208">
        <ele>86</ele>
        <time>2014-10-31T09:33:14.000Z</time>
      </trkpt>
      <trkpt lat="47.33216" lon="-1.3221">
        <ele>85</ele>
        <time>2014-10-31T09:33:16.000Z</time>
      </trkpt>
      <trkpt lat="47.33209" lon="-1.32212">
        <ele>85</ele>
        <time>2014-10-31T09:33:18.000Z</time>
      </trkpt>
      <trkpt lat="47.33202" lon="-1.32211">
        <ele>80</ele>
        <time>2014-10-31T09:33:20.000Z</time>
      </trkpt>
      <trkpt lat="47.33195" lon="-1.32206">
        <ele>79</ele>
        <time>2014-10-31T09:33:22.000Z</time>
      </trkpt>
      <trkpt lat="47.3319" lon="-1.32199">
        <ele>78</ele>
        <time>2014-10-31T09:33:24.000Z</time>
      </trkpt>
      <trkpt lat="47.3319" lon="-1.32199">
        <ele>78</ele>
        <time>2014-10-31T09:33:26.000Z</time>
      </trkpt>
      <trkpt lat="47.33182" lon="-1.32193">
        <ele>77</ele>
        <time>2014-10-31T09:33:28.000Z</time>
      </trkpt>
      <trkpt lat="47.33182" lon="-1.32193">
        <ele>77</ele>
        <time>2014-10-31T09:33:30.000Z</time>
      </trkpt>
      <trkpt lat="47.33174" lon="-1.32188">
        <ele>75</ele>
        <time>2014-10-31T09:33:32.000Z</time>
      </trkpt>
      <trkpt lat="47.33174" lon="-1.32188">
        <ele>75</ele>
        <time>2014-10-31T09:33:34.000Z</time>
      </trkpt>
      <trkpt lat="47.33171" lon="-1.32179">
        <ele>76</ele>
        <time>2014-10-31T09:33:36.000Z</time>
      </trkpt>
      <trkpt lat="47.33171" lon="-1.32179">
        <ele>76</ele>
        <time>2014-10-31T09:33:38.000Z</time>
      </trkpt>
      <trkpt lat="47.3317" lon="-1.32168">
        <ele>72</ele>
        <time>2014-10-31T09:33:40.000Z</time>
      </trkpt>
      <trkpt lat="47.33157" lon="-1.32164">
        <ele>74</ele>
        <time>2014-10-31T09:33:44.000Z</time>
      </trkpt>
      <trkpt lat="47.3315" lon="-1.32165">
        <ele>72</ele>
        <time>2014-10-31T09:33:46.000Z</time>
      </trkpt>
      <trkpt lat="47.33144" lon="-1.32166">
        <ele>71</ele>
        <time>2014-10-31T09:33:48.000Z</time>
      </trkpt>
      <trkpt lat="47.33136" lon="-1.32166">
        <ele>71</ele>
        <time>2014-10-31T09:33:50.000Z</time>
      </trkpt>
      <trkpt lat="47.33105" lon="-1.32152">
        <ele>69</ele>
        <time>2014-10-31T09:33:54.000Z</time>
      </trkpt>
      <trkpt lat="47.33091" lon="-1.32155">
        <ele>67</ele>
        <time>2014-10-31T09:33:56.000Z</time>
      </trkpt>
      <trkpt lat="47.33068" lon="-1.3218">
        <ele>61</ele>
        <time>2014-10-31T09:33:59.000Z</time>
      </trkpt>
      <trkpt lat="47.33055" lon="-1.32197">
        <ele>60</ele>
        <time>2014-10-31T09:34:01.000Z</time>
      </trkpt>
      <trkpt lat="47.33046" lon="-1.32216">
        <ele>60</ele>
        <time>2014-10-31T09:34:03.000Z</time>
      </trkpt>
      <trkpt lat="47.33044" lon="-1.32237">
        <ele>60</ele>
        <time>2014-10-31T09:34:05.000Z</time>
      </trkpt>
      <trkpt lat="47.33053" lon="-1.32255">
        <ele>60</ele>
        <time>2014-10-31T09:34:07.000Z</time>
      </trkpt>
      <trkpt lat="47.33065" lon="-1.32265">
        <ele>60</ele>
        <time>2014-10-31T09:34:09.000Z</time>
      </trkpt>
      <trkpt lat="47.33077" lon="-1.32277">
        <ele>60</ele>
        <time>2014-10-31T09:34:12.000Z</time>
      </trkpt>
      <trkpt lat="47.3309" lon="-1.32283">
        <ele>58</ele>
        <time>2014-10-31T09:34:13.000Z</time>
      </trkpt>
      <trkpt lat="47.33105" lon="-1.32285">
        <ele>55</ele>
        <time>2014-10-31T09:34:15.000Z</time>
      </trkpt>
      <trkpt lat="47.33115" lon="-1.32291">
        <ele>54</ele>
        <time>2014-10-31T09:34:17.000Z</time>
      </trkpt>
      <trkpt lat="47.33125" lon="-1.323">
        <ele>55</ele>
        <time>2014-10-31T09:34:19.000Z</time>
      </trkpt>
      <trkpt lat="47.33134" lon="-1.32309">
        <ele>56</ele>
        <time>2014-10-31T09:34:21.000Z</time>
      </trkpt>
      <trkpt lat="47.33141" lon="-1.3232">
        <ele>57</ele>
        <time>2014-10-31T09:34:23.000Z</time>
      </trkpt>
      <trkpt lat="47.3315" lon="-1.32329">
        <ele>64</ele>
        <time>2014-10-31T09:34:25.000Z</time>
      </trkpt>
      <trkpt lat="47.33158" lon="-1.32341">
        <ele>64</ele>
        <time>2014-10-31T09:34:27.000Z</time>
      </trkpt>
      <trkpt lat="47.33167" lon="-1.32353">
        <ele>65</ele>
        <time>2014-10-31T09:34:29.000Z</time>
      </trkpt>
      <trkpt lat="47.33177" lon="-1.32361">
        <ele>69</ele>
        <time>2014-10-31T09:34:31.000Z</time>
      </trkpt>
      <trkpt lat="47.33186" lon="-1.32371">
        <ele>70</ele>
        <time>2014-10-31T09:34:33.000Z</time>
      </trkpt>
      <trkpt lat="47.33195" lon="-1.32378">
        <ele>70</ele>
        <time>2014-10-31T09:34:35.000Z</time>
      </trkpt>
      <trkpt lat="47.33204" lon="-1.32386">
        <ele>71</ele>
        <time>2014-10-31T09:34:37.000Z</time>
      </trkpt>
      <trkpt lat="47.33215" lon="-1.32398">
        <ele>75</ele>
        <time>2014-10-31T09:34:39.000Z</time>
      </trkpt>
      <trkpt lat="47.3322" lon="-1.32409">
        <ele>77</ele>
        <time>2014-10-31T09:34:41.000Z</time>
      </trkpt>
      <trkpt lat="47.33226" lon="-1.32415">
        <ele>85</ele>
        <time>2014-10-31T09:34:43.000Z</time>
      </trkpt>
      <trkpt lat="47.33231" lon="-1.32421">
        <ele>85</ele>
        <time>2014-10-31T09:34:45.000Z</time>
      </trkpt>
      <trkpt lat="47.33236" lon="-1.32429">
        <ele>85</ele>
        <time>2014-10-31T09:34:47.000Z</time>
      </trkpt>
      <trkpt lat="47.33249" lon="-1.32451">
        <ele>87</ele>
        <time>2014-10-31T09:34:50.000Z</time>
      </trkpt>
      <trkpt lat="47.33256" lon="-1.32463">
        <ele>88</ele>
        <time>2014-10-31T09:34:52.000Z</time>
      </trkpt>
      <trkpt lat="47.33276" lon="-1.32477">
        <ele>86</ele>
        <time>2014-10-31T09:34:55.000Z</time>
      </trkpt>
      <trkpt lat="47.33284" lon="-1.32491">
        <ele>86</ele>
        <time>2014-10-31T09:34:58.000Z</time>
      </trkpt>
      <trkpt lat="47.33291" lon="-1.32503">
        <ele>86</ele>
        <time>2014-10-31T09:35:00.000Z</time>
      </trkpt>
      <trkpt lat="47.33298" lon="-1.32513">
        <ele>86</ele>
        <time>2014-10-31T09:35:02.000Z</time>
      </trkpt>
      <trkpt lat="47.33311" lon="-1.32521">
        <ele>85</ele>
        <time>2014-10-31T09:35:04.000Z</time>
      </trkpt>
      <trkpt lat="47.33321" lon="-1.32528">
        <ele>84</ele>
        <time>2014-10-31T09:35:07.000Z</time>
      </trkpt>
      <trkpt lat="47.33321" lon="-1.32528">
        <ele>84</ele>
        <time>2014-10-31T09:35:09.000Z</time>
      </trkpt>
      <trkpt lat="47.33327" lon="-1.32531">
        <ele>83</ele>
        <time>2014-10-31T09:35:11.000Z</time>
      </trkpt>
      <trkpt lat="47.33327" lon="-1.32531">
        <ele>83</ele>
        <time>2014-10-31T09:35:13.000Z</time>
      </trkpt>
      <trkpt lat="47.33336" lon="-1.32542">
        <ele>86</ele>
        <time>2014-10-31T09:35:15.000Z</time>
      </trkpt>
      <trkpt lat="47.33343" lon="-1.32547">
        <ele>86</ele>
        <time>2014-10-31T09:35:17.000Z</time>
      </trkpt>
      <trkpt lat="47.3335" lon="-1.32552">
        <ele>86</ele>
        <time>2014-10-31T09:35:19.000Z</time>
      </trkpt>
      <trkpt lat="47.33358" lon="-1.32559">
        <ele>86</ele>
        <time>2014-10-31T09:35:21.000Z</time>
      </trkpt>
      <trkpt lat="47.33366" lon="-1.32568">
        <ele>86</ele>
        <time>2014-10-31T09:35:23.000Z</time>
      </trkpt>
      <trkpt lat="47.33375" lon="-1.32576">
        <ele>96</ele>
        <time>2014-10-31T09:35:25.000Z</time>
      </trkpt>
      <trkpt lat="47.33382" lon="-1.32586">
        <ele>93</ele>
        <time>2014-10-31T09:35:27.000Z</time>
      </trkpt>
      <trkpt lat="47.33382" lon="-1.32586">
        <ele>93</ele>
        <time>2014-10-31T09:35:29.000Z</time>
      </trkpt>
      <trkpt lat="47.33397" lon="-1.32589">
        <ele>98</ele>
        <time>2014-10-31T09:35:31.000Z</time>
      </trkpt>
      <trkpt lat="47.33409" lon="-1.32582">
        <ele>97</ele>
        <time>2014-10-31T09:35:33.000Z</time>
      </trkpt>
      <trkpt lat="47.33423" lon="-1.32576">
        <ele>93</ele>
        <time>2014-10-31T09:35:35.000Z</time>
      </trkpt>
      <trkpt lat="47.33434" lon="-1.32569">
        <ele>92</ele>
        <time>2014-10-31T09:35:37.000Z</time>
      </trkpt>
      <trkpt lat="47.33444" lon="-1.32572">
        <ele>88</ele>
        <time>2014-10-31T09:35:39.000Z</time>
      </trkpt>
      <trkpt lat="47.33451" lon="-1.32574">
        <ele>87</ele>
        <time>2014-10-31T09:35:41.000Z</time>
      </trkpt>
      <trkpt lat="47.33451" lon="-1.32574">
        <ele>87</ele>
        <time>2014-10-31T09:35:43.000Z</time>
      </trkpt>
      <trkpt lat="47.33458" lon="-1.32583">
        <ele>89</ele>
        <time>2014-10-31T09:35:45.000Z</time>
      </trkpt>
      <trkpt lat="47.33464" lon="-1.32589">
        <ele>88</ele>
        <time>2014-10-31T09:35:47.000Z</time>
      </trkpt>
      <trkpt lat="47.33469" lon="-1.32595">
        <ele>89</ele>
        <time>2014-10-31T09:35:49.000Z</time>
      </trkpt>
      <trkpt lat="47.33474" lon="-1.32603">
        <ele>88</ele>
        <time>2014-10-31T09:35:51.000Z</time>
      </trkpt>
      <trkpt lat="47.3348" lon="-1.32612">
        <ele>88</ele>
        <time>2014-10-31T09:35:53.000Z</time>
      </trkpt>
      <trkpt lat="47.33485" lon="-1.3262">
        <ele>87</ele>
        <time>2014-10-31T09:35:55.000Z</time>
      </trkpt>
      <trkpt lat="47.3349" lon="-1.32628">
        <ele>86</ele>
        <time>2014-10-31T09:35:57.000Z</time>
      </trkpt>
      <trkpt lat="47.33497" lon="-1.32637">
        <ele>79</ele>
        <time>2014-10-31T09:35:59.000Z</time>
      </trkpt>
      <trkpt lat="47.33505" lon="-1.32644">
        <ele>80</ele>
        <time>2014-10-31T09:36:01.000Z</time>
      </trkpt>
      <trkpt lat="47.33512" lon="-1.32647">
        <ele>84</ele>
        <time>2014-10-31T09:36:03.000Z</time>
      </trkpt>
      <trkpt lat="47.33521" lon="-1.3265">
        <ele>86</ele>
        <time>2014-10-31T09:36:05.000Z</time>
      </trkpt>
      <trkpt lat="47.33535" lon="-1.32654">
        <ele>96</ele>
        <time>2014-10-31T09:36:07.000Z</time>
      </trkpt>
      <trkpt lat="47.33545" lon="-1.32657">
        <ele>97</ele>
        <time>2014-10-31T09:36:10.000Z</time>
      </trkpt>
      <trkpt lat="47.33551" lon="-1.32666">
        <ele>95</ele>
        <time>2014-10-31T09:36:12.000Z</time>
      </trkpt>
      <trkpt lat="47.33556" lon="-1.32672">
        <ele>99</ele>
        <time>2014-10-31T09:36:14.000Z</time>
      </trkpt>
      <trkpt lat="47.33562" lon="-1.32678">
        <ele>101</ele>
        <time>2014-10-31T09:36:16.000Z</time>
      </trkpt>
      <trkpt lat="47.33566" lon="-1.32684">
        <ele>98</ele>
        <time>2014-10-31T09:36:18.000Z</time>
      </trkpt>
      <trkpt lat="47.33566" lon="-1.32695">
        <ele>94</ele>
        <time>2014-10-31T09:36:20.000Z</time>
      </trkpt>
      <trkpt lat="47.33567" lon="-1.32706">
        <ele>93</ele>
        <time>2014-10-31T09:36:22.000Z</time>
      </trkpt>
      <trkpt lat="47.33567" lon="-1.32706">
        <ele>93</ele>
        <time>2014-10-31T09:36:24.000Z</time>
      </trkpt>
      <trkpt lat="47.33577" lon="-1.32714">
        <ele>94</ele>
        <time>2014-10-31T09:36:26.000Z</time>
      </trkpt>
      <trkpt lat="47.33577" lon="-1.32714">
        <ele>94</ele>
        <time>2014-10-31T09:36:28.000Z</time>
      </trkpt>
      <trkpt lat="47.33577" lon="-1.32714">
        <ele>94</ele>
        <time>2014-10-31T09:36:30.000Z</time>
      </trkpt>
      <trkpt lat="47.33582" lon="-1.32719">
        <ele>89</ele>
        <time>2014-10-31T09:36:32.000Z</time>
      </trkpt>
      <trkpt lat="47.33582" lon="-1.32719">
        <ele>89</ele>
        <time>2014-10-31T09:36:34.000Z</time>
      </trkpt>
      <trkpt lat="47.33582" lon="-1.32719">
        <ele>89</ele>
        <time>2014-10-31T09:36:36.000Z</time>
      </trkpt>
      <trkpt lat="47.33582" lon="-1.32719">
        <ele>89</ele>
        <time>2014-10-31T09:36:38.000Z</time>
      </trkpt>
      <trkpt lat="47.33585" lon="-1.32728">
        <ele>79</ele>
        <time>2014-10-31T09:36:40.000Z</time>
      </trkpt>
      <trkpt lat="47.33585" lon="-1.32728">
        <ele>79</ele>
        <time>2014-10-31T09:36:42.000Z</time>
      </trkpt>
      <trkpt lat="47.33585" lon="-1.32728">
        <ele>79</ele>
        <time>2014-10-31T09:36:44.000Z</time>
      </trkpt>
      <trkpt lat="47.33585" lon="-1.32728">
        <ele>79</ele>
        <time>2014-10-31T09:36:46.000Z</time>
      </trkpt>
      <trkpt lat="47.33585" lon="-1.32728">
        <ele>79</ele>
        <time>2014-10-31T09:36:48.000Z</time>
      </trkpt>
      <trkpt lat="47.33585" lon="-1.32728">
        <ele>79</ele>
        <time>2014-10-31T09:36:50.000Z</time>
      </trkpt>
      <trkpt lat="47.33591" lon="-1.32726">
        <ele>82</ele>
        <time>2014-10-31T09:36:58.000Z</time>
      </trkpt>
      <trkpt lat="47.33591" lon="-1.32726">
        <ele>82</ele>
        <time>2014-10-31T09:37:00.000Z</time>
      </trkpt>
      <trkpt lat="47.33591" lon="-1.32726">
        <ele>82</ele>
        <time>2014-10-31T09:37:02.000Z</time>
      </trkpt>
      <trkpt lat="47.33591" lon="-1.32726">
        <ele>82</ele>
        <time>2014-10-31T09:37:04.000Z</time>
      </trkpt>
      <trkpt lat="47.33591" lon="-1.32726">
        <ele>82</ele>
        <time>2014-10-31T09:37:06.000Z</time>
      </trkpt>
      <trkpt lat="47.33591" lon="-1.32726">
        <ele>82</ele>
        <time>2014-10-31T09:37:08.000Z</time>
      </trkpt>
      <trkpt lat="47.33591" lon="-1.32726">
        <ele>82</ele>
        <time>2014-10-31T09:37:10.000Z</time>
      </trkpt>
      <trkpt lat="47.33591" lon="-1.32726">
        <ele>82</ele>
        <time>2014-10-31T09:37:12.000Z</time>
      </trkpt>
      <trkpt lat="47.33591" lon="-1.32726">
        <ele>82</ele>
        <time>2014-10-31T09:37:14.000Z</time>
      </trkpt>
      <trkpt lat="47.33591" lon="-1.32726">
        <ele>82</ele>
        <time>2014-10-31T09:37:16.000Z</time>
      </trkpt>
      <trkpt lat="47.33591" lon="-1.32726">
        <ele>82</ele>
        <time>2014-10-31T09:37:18.000Z</time>
      </trkpt>
      <trkpt lat="47.33591" lon="-1.32726">
        <ele>82</ele>
        <time>2014-10-31T09:37:20.000Z</time>
      </trkpt>
      <trkpt lat="47.33591" lon="-1.32726">
        <ele>82</ele>
        <time>2014-10-31T09:37:22.000Z</time>
      </trkpt>
      <trkpt lat="47.33595" lon="-1.32726">
        <ele>88</ele>
        <time>2014-10-31T09:37:28.000Z</time>
      </trkpt>
      <trkpt lat="47.33598" lon="-1.32724">
        <ele>88</ele>
        <time>2014-10-31T09:37:30.000Z</time>
      </trkpt>
      <trkpt lat="47.33598" lon="-1.32724">
        <ele>88</ele>
        <time>2014-10-31T09:37:32.000Z</time>
      </trkpt>
      <trkpt lat="47.33598" lon="-1.32724">
        <ele>88</ele>
        <time>2014-10-31T09:37:34.000Z</time>
      </trkpt>
      <trkpt lat="47.336" lon="-1.3272">
        <ele>88</ele>
        <time>2014-10-31T09:37:36.000Z</time>
      </trkpt>
      <trkpt lat="47.33603" lon="-1.32717">
        <ele>89</ele>
        <time>2014-10-31T09:37:40.000Z</time>
      </trkpt>
      <trkpt lat="47.33603" lon="-1.32717">
        <ele>89</ele>
        <time>2014-10-31T09:37:42.000Z</time>
      </trkpt>
      <trkpt lat="47.33605" lon="-1.32714">
        <ele>98</ele>
        <time>2014-10-31T09:37:44.000Z</time>
      </trkpt>
      <trkpt lat="47.33608" lon="-1.32712">
        <ele>99</ele>
        <time>2014-10-31T09:37:48.000Z</time>
      </trkpt>
      <trkpt lat="47.33611" lon="-1.3271">
        <ele>98</ele>
        <time>2014-10-31T09:37:52.000Z</time>
      </trkpt>
      <trkpt lat="47.33614" lon="-1.32708">
        <ele>100</ele>
        <time>2014-10-31T09:37:56.000Z</time>
      </trkpt>
      <trkpt lat="47.33614" lon="-1.32708">
        <ele>100</ele>
        <time>2014-10-31T09:37:58.000Z</time>
      </trkpt>
      <trkpt lat="47.33615" lon="-1.32704">
        <ele>102</ele>
        <time>2014-10-31T09:38:00.000Z</time>
      </trkpt>
      <trkpt lat="47.33615" lon="-1.32699">
        <ele>101</ele>
        <time>2014-10-31T09:38:06.000Z</time>
      </trkpt>
      <trkpt lat="47.33615" lon="-1.32699">
        <ele>101</ele>
        <time>2014-10-31T09:38:08.000Z</time>
      </trkpt>
      <trkpt lat="47.33615" lon="-1.32694">
        <ele>103</ele>
        <time>2014-10-31T09:38:10.000Z</time>
      </trkpt>
      <trkpt lat="47.33615" lon="-1.32694">
        <ele>103</ele>
        <time>2014-10-31T09:38:12.000Z</time>
      </trkpt>
      <trkpt lat="47.33615" lon="-1.32694">
        <ele>103</ele>
        <time>2014-10-31T09:38:14.000Z</time>
      </trkpt>
      <trkpt lat="47.33615" lon="-1.32689">
        <ele>102</ele>
        <time>2014-10-31T09:38:16.000Z</time>
      </trkpt>
      <trkpt lat="47.33614" lon="-1.32684">
        <ele>98</ele>
        <time>2014-10-31T09:38:20.000Z</time>
      </trkpt>
      <trkpt lat="47.33614" lon="-1.32684">
        <ele>98</ele>
        <time>2014-10-31T09:38:22.000Z</time>
      </trkpt>
      <trkpt lat="47.33615" lon="-1.32679">
        <ele>98</ele>
        <time>2014-10-31T09:38:25.000Z</time>
      </trkpt>
      <trkpt lat="47.33615" lon="-1.32679">
        <ele>98</ele>
        <time>2014-10-31T09:38:26.000Z</time>
      </trkpt>
      <trkpt lat="47.33615" lon="-1.32679">
        <ele>98</ele>
        <time>2014-10-31T09:38:28.000Z</time>
      </trkpt>
      <trkpt lat="47.33615" lon="-1.32675">
        <ele>94</ele>
        <time>2014-10-31T09:38:32.000Z</time>
      </trkpt>
      <trkpt lat="47.33614" lon="-1.3267">
        <ele>92</ele>
        <time>2014-10-31T09:38:34.000Z</time>
      </trkpt>
      <trkpt lat="47.33612" lon="-1.32666">
        <ele>93</ele>
        <time>2014-10-31T09:38:36.000Z</time>
      </trkpt>
      <trkpt lat="47.33611" lon="-1.32662">
        <ele>93</ele>
        <time>2014-10-31T09:38:38.000Z</time>
      </trkpt>
      <trkpt lat="47.33607" lon="-1.32659">
        <ele>93</ele>
        <time>2014-10-31T09:38:40.000Z</time>
      </trkpt>
      <trkpt lat="47.33601" lon="-1.32653">
        <ele>93</ele>
        <time>2014-10-31T09:38:42.000Z</time>
      </trkpt>
      <trkpt lat="47.33595" lon="-1.32648">
        <ele>94</ele>
        <time>2014-10-31T09:38:46.000Z</time>
      </trkpt>
      <trkpt lat="47.33595" lon="-1.32648">
        <ele>94</ele>
        <time>2014-10-31T09:38:48.000Z</time>
      </trkpt>
      <trkpt lat="47.33595" lon="-1.32648">
        <ele>94</ele>
        <time>2014-10-31T09:38:50.000Z</time>
      </trkpt>
      <trkpt lat="47.33591" lon="-1.32637">
        <ele>96</ele>
        <time>2014-10-31T09:38:52.000Z</time>
      </trkpt>
      <trkpt lat="47.33584" lon="-1.32629">
        <ele>97</ele>
        <time>2014-10-31T09:38:56.000Z</time>
      </trkpt>
      <trkpt lat="47.33577" lon="-1.32618">
        <ele>99</ele>
        <time>2014-10-31T09:39:01.000Z</time>
      </trkpt>
      <trkpt lat="47.33572" lon="-1.32609">
        <ele>100</ele>
        <time>2014-10-31T09:39:04.000Z</time>
      </trkpt>
      <trkpt lat="47.33572" lon="-1.32609">
        <ele>100</ele>
        <time>2014-10-31T09:39:06.000Z</time>
      </trkpt>
      <trkpt lat="47.33572" lon="-1.326">
        <ele>102</ele>
        <time>2014-10-31T09:39:08.000Z</time>
      </trkpt>
      <trkpt lat="47.33572" lon="-1.326">
        <ele>102</ele>
        <time>2014-10-31T09:39:10.000Z</time>
      </trkpt>
      <trkpt lat="47.33572" lon="-1.326">
        <ele>102</ele>
        <time>2014-10-31T09:39:12.000Z</time>
      </trkpt>
      <trkpt lat="47.33572" lon="-1.326">
        <ele>102</ele>
        <time>2014-10-31T09:39:14.000Z</time>
      </trkpt>
      <trkpt lat="47.33569" lon="-1.3259">
        <ele>100</ele>
        <time>2014-10-31T09:39:16.000Z</time>
      </trkpt>
      <trkpt lat="47.33569" lon="-1.3259">
        <ele>100</ele>
        <time>2014-10-31T09:39:18.000Z</time>
      </trkpt>
      <trkpt lat="47.33569" lon="-1.3259">
        <ele>100</ele>
        <time>2014-10-31T09:39:21.000Z</time>
      </trkpt>
      <trkpt lat="47.33569" lon="-1.3259">
        <ele>100</ele>
        <time>2014-10-31T09:39:22.000Z</time>
      </trkpt>
      <trkpt lat="47.33569" lon="-1.3259">
        <ele>100</ele>
        <time>2014-10-31T09:39:24.000Z</time>
      </trkpt>
      <trkpt lat="47.33569" lon="-1.3259">
        <ele>100</ele>
        <time>2014-10-31T09:39:26.000Z</time>
      </trkpt>
      <trkpt lat="47.33569" lon="-1.32579">
        <ele>104</ele>
        <time>2014-10-31T09:39:28.000Z</time>
      </trkpt>
      <trkpt lat="47.33569" lon="-1.32579">
        <ele>104</ele>
        <time>2014-10-31T09:39:36.000Z</time>
      </trkpt>
      <trkpt lat="47.33569" lon="-1.32579">
        <ele>104</ele>
        <time>2014-10-31T09:39:38.000Z</time>
      </trkpt>
      <trkpt lat="47.33573" lon="-1.32571">
        <ele>107</ele>
        <time>2014-10-31T09:39:40.000Z</time>
      </trkpt>
      <trkpt lat="47.33578" lon="-1.32565">
        <ele>107</ele>
        <time>2014-10-31T09:39:46.000Z</time>
      </trkpt>
      <trkpt lat="47.33583" lon="-1.32558">
        <ele>109</ele>
        <time>2014-10-31T09:39:56.000Z</time>
      </trkpt>
      <trkpt lat="47.33583" lon="-1.32558">
        <ele>109</ele>
        <time>2014-10-31T09:40:04.000Z</time>
      </trkpt>
      <trkpt lat="47.33583" lon="-1.32558">
        <ele>109</ele>
        <time>2014-10-31T09:40:07.000Z</time>
      </trkpt>
      <trkpt lat="47.33583" lon="-1.32558">
        <ele>109</ele>
        <time>2014-10-31T09:40:08.000Z</time>
      </trkpt>
      <trkpt lat="47.33583" lon="-1.32558">
        <ele>109</ele>
        <time>2014-10-31T09:40:10.000Z</time>
      </trkpt>
      <trkpt lat="47.33587" lon="-1.32557">
        <ele>109</ele>
        <time>2014-10-31T09:40:14.000Z</time>
      </trkpt>
      <trkpt lat="47.3359" lon="-1.32556">
        <ele>109</ele>
        <time>2014-10-31T09:40:16.000Z</time>
      </trkpt>
      <trkpt lat="47.33594" lon="-1.32556">
        <ele>105</ele>
        <time>2014-10-31T09:40:18.000Z</time>
      </trkpt>
      <trkpt lat="47.33598" lon="-1.32556">
        <ele>105</ele>
        <time>2014-10-31T09:40:22.000Z</time>
      </trkpt>
      <trkpt lat="47.33601" lon="-1.32556">
        <ele>106</ele>
        <time>2014-10-31T09:40:24.000Z</time>
      </trkpt>
      <trkpt lat="47.33604" lon="-1.32555">
        <ele>107</ele>
        <time>2014-10-31T09:40:26.000Z</time>
      </trkpt>
      <trkpt lat="47.33604" lon="-1.32555">
        <ele>107</ele>
        <time>2014-10-31T09:40:29.000Z</time>
      </trkpt>
      <trkpt lat="47.33609" lon="-1.32558">
        <ele>108</ele>
        <time>2014-10-31T09:40:30.000Z</time>
      </trkpt>
      <trkpt lat="47.33614" lon="-1.32561">
        <ele>107</ele>
        <time>2014-10-31T09:40:32.000Z</time>
      </trkpt>
      <trkpt lat="47.33618" lon="-1.32564">
        <ele>105</ele>
        <time>2014-10-31T09:40:34.000Z</time>
      </trkpt>
      <trkpt lat="47.33623" lon="-1.32567">
        <ele>109</ele>
        <time>2014-10-31T09:40:36.000Z</time>
      </trkpt>
      <trkpt lat="47.33627" lon="-1.3257">
        <ele>109</ele>
        <time>2014-10-31T09:40:38.000Z</time>
      </trkpt>
      <trkpt lat="47.33635" lon="-1.32576">
        <ele>105</ele>
        <time>2014-10-31T09:40:40.000Z</time>
      </trkpt>
      <trkpt lat="47.33645" lon="-1.32582">
        <ele>104</ele>
        <time>2014-10-31T09:40:44.000Z</time>
      </trkpt>
      <trkpt lat="47.33651" lon="-1.32585">
        <ele>101</ele>
        <time>2014-10-31T09:40:46.000Z</time>
      </trkpt>
      <trkpt lat="47.33659" lon="-1.32592">
        <ele>103</ele>
        <time>2014-10-31T09:40:50.000Z</time>
      </trkpt>
      <trkpt lat="47.33659" lon="-1.32592">
        <ele>103</ele>
        <time>2014-10-31T09:40:52.000Z</time>
      </trkpt>
      <trkpt lat="47.33666" lon="-1.32601">
        <ele>102</ele>
        <time>2014-10-31T09:40:54.000Z</time>
      </trkpt>
      <trkpt lat="47.33666" lon="-1.32601">
        <ele>102</ele>
        <time>2014-10-31T09:40:56.000Z</time>
      </trkpt>
      <trkpt lat="47.33674" lon="-1.32605">
        <ele>104</ele>
        <time>2014-10-31T09:40:58.000Z</time>
      </trkpt>
      <trkpt lat="47.33674" lon="-1.32605">
        <ele>104</ele>
        <time>2014-10-31T09:41:00.000Z</time>
      </trkpt>
      <trkpt lat="47.33674" lon="-1.32605">
        <ele>104</ele>
        <time>2014-10-31T09:41:02.000Z</time>
      </trkpt>
      <trkpt lat="47.33674" lon="-1.32605">
        <ele>104</ele>
        <time>2014-10-31T09:41:04.000Z</time>
      </trkpt>
      <trkpt lat="47.33674" lon="-1.32605">
        <ele>104</ele>
        <time>2014-10-31T09:41:06.000Z</time>
      </trkpt>
      <trkpt lat="47.33674" lon="-1.32605">
        <ele>104</ele>
        <time>2014-10-31T09:41:08.000Z</time>
      </trkpt>
      <trkpt lat="47.33674" lon="-1.32605">
        <ele>104</ele>
        <time>2014-10-31T09:41:10.000Z</time>
      </trkpt>
      <trkpt lat="47.33674" lon="-1.32605">
        <ele>104</ele>
        <time>2014-10-31T09:41:12.000Z</time>
      </trkpt>
      <trkpt lat="47.33674" lon="-1.32605">
        <ele>104</ele>
        <time>2014-10-31T09:41:14.000Z</time>
      </trkpt>
      <trkpt lat="47.33674" lon="-1.32605">
        <ele>104</ele>
        <time>2014-10-31T09:41:16.000Z</time>
      </trkpt>
      <trkpt lat="47.33674" lon="-1.32605">
        <ele>104</ele>
        <time>2014-10-31T09:41:18.000Z</time>
      </trkpt>
      <trkpt lat="47.3368" lon="-1.32608">
        <ele>113</ele>
        <time>2014-10-31T09:41:22.000Z</time>
      </trkpt>
      <trkpt lat="47.33686" lon="-1.32615">
        <ele>115</ele>
        <time>2014-10-31T09:41:26.000Z</time>
      </trkpt>
      <trkpt lat="47.33694" lon="-1.32627">
        <ele>116</ele>
        <time>2014-10-31T09:41:30.000Z</time>
      </trkpt>
      <trkpt lat="47.33698" lon="-1.32635">
        <ele>113</ele>
        <time>2014-10-31T09:41:32.000Z</time>
      </trkpt>
      <trkpt lat="47.33702" lon="-1.32642">
        <ele>117</ele>
        <time>2014-10-31T09:41:34.000Z</time>
      </trkpt>
      <trkpt lat="47.33707" lon="-1.3265">
        <ele>114</ele>
        <time>2014-10-31T09:41:36.000Z</time>
      </trkpt>
      <trkpt lat="47.33713" lon="-1.32656">
        <ele>117</ele>
        <time>2014-10-31T09:41:38.000Z</time>
      </trkpt>
      <trkpt lat="47.33719" lon="-1.32657">
        <ele>112</ele>
        <time>2014-10-31T09:41:40.000Z</time>
      </trkpt>
      <trkpt lat="47.33719" lon="-1.32657">
        <ele>112</ele>
        <time>2014-10-31T09:41:42.000Z</time>
      </trkpt>
      <trkpt lat="47.33725" lon="-1.32651">
        <ele>108</ele>
        <time>2014-10-31T09:41:44.000Z</time>
      </trkpt>
      <trkpt lat="47.33725" lon="-1.32651">
        <ele>108</ele>
        <time>2014-10-31T09:41:46.000Z</time>
      </trkpt>
      <trkpt lat="47.33728" lon="-1.32643">
        <ele>109</ele>
        <time>2014-10-31T09:41:48.000Z</time>
      </trkpt>
      <trkpt lat="47.33733" lon="-1.32632">
        <ele>108</ele>
        <time>2014-10-31T09:41:52.000Z</time>
      </trkpt>
      <trkpt lat="47.33738" lon="-1.32624">
        <ele>104</ele>
        <time>2014-10-31T09:41:57.000Z</time>
      </trkpt>
      <trkpt lat="47.33738" lon="-1.32624">
        <ele>104</ele>
        <time>2014-10-31T09:41:58.000Z</time>
      </trkpt>
      <trkpt lat="47.33743" lon="-1.32615">
        <ele>104</ele>
        <time>2014-10-31T09:42:00.000Z</time>
      </trkpt>
      <trkpt lat="47.33748" lon="-1.32606">
        <ele>107</ele>
        <time>2014-10-31T09:42:04.000Z</time>
      </trkpt>
      <trkpt lat="47.33754" lon="-1.32595">
        <ele>107</ele>
        <time>2014-10-31T09:42:08.000Z</time>
      </trkpt>
      <trkpt lat="47.33761" lon="-1.32583">
        <ele>108</ele>
        <time>2014-10-31T09:42:12.000Z</time>
      </trkpt>
      <trkpt lat="47.33764" lon="-1.32577">
        <ele>109</ele>
        <time>2014-10-31T09:42:14.000Z</time>
      </trkpt>
      <trkpt lat="47.33771" lon="-1.32565">
        <ele>108</ele>
        <time>2014-10-31T09:42:18.000Z</time>
      </trkpt>
      <trkpt lat="47.33771" lon="-1.32565">
        <ele>108</ele>
        <time>2014-10-31T09:42:20.000Z</time>
      </trkpt>
      <trkpt lat="47.33776" lon="-1.32556">
        <ele>108</ele>
        <time>2014-10-31T09:42:22.000Z</time>
      </trkpt>
      <trkpt lat="47.33776" lon="-1.32556">
        <ele>108</ele>
        <time>2014-10-31T09:42:24.000Z</time>
      </trkpt>
      <trkpt lat="47.33783" lon="-1.32544">
        <ele>108</ele>
        <time>2014-10-31T09:42:26.000Z</time>
      </trkpt>
      <trkpt lat="47.33788" lon="-1.32533">
        <ele>107</ele>
        <time>2014-10-31T09:42:30.000Z</time>
      </trkpt>
      <trkpt lat="47.33788" lon="-1.32533">
        <ele>107</ele>
        <time>2014-10-31T09:42:32.000Z</time>
      </trkpt>
      <trkpt lat="47.33791" lon="-1.32528">
        <ele>106</ele>
        <time>2014-10-31T09:42:34.000Z</time>
      </trkpt>
      <trkpt lat="47.33793" lon="-1.32523">
        <ele>106</ele>
        <time>2014-10-31T09:42:36.000Z</time>
      </trkpt>
      <trkpt lat="47.33796" lon="-1.32518">
        <ele>105</ele>
        <time>2014-10-31T09:42:38.000Z</time>
      </trkpt>
      <trkpt lat="47.33798" lon="-1.32513">
        <ele>106</ele>
        <time>2014-10-31T09:42:40.000Z</time>
      </trkpt>
      <trkpt lat="47.338" lon="-1.32509">
        <ele>108</ele>
        <time>2014-10-31T09:42:42.000Z</time>
      </trkpt>
      <trkpt lat="47.33804" lon="-1.32502">
        <ele>108</ele>
        <time>2014-10-31T09:42:44.000Z</time>
      </trkpt>
      <trkpt lat="47.33804" lon="-1.32502">
        <ele>108</ele>
        <time>2014-10-31T09:42:46.000Z</time>
      </trkpt>
      <trkpt lat="47.33804" lon="-1.32502">
        <ele>108</ele>
        <time>2014-10-31T09:42:48.000Z</time>
      </trkpt>
      <trkpt lat="47.33807" lon="-1.32493">
        <ele>110</ele>
        <time>2014-10-31T09:42:50.000Z</time>
      </trkpt>
      <trkpt lat="47.33807" lon="-1.32493">
        <ele>110</ele>
        <time>2014-10-31T09:42:53.000Z</time>
      </trkpt>
      <trkpt lat="47.33807" lon="-1.32493">
        <ele>110</ele>
        <time>2014-10-31T09:42:54.000Z</time>
      </trkpt>
      <trkpt lat="47.33812" lon="-1.32486">
        <ele>105</ele>
        <time>2014-10-31T09:42:56.000Z</time>
      </trkpt>
      <trkpt lat="47.33812" lon="-1.32486">
        <ele>105</ele>
        <time>2014-10-31T09:42:58.000Z</time>
      </trkpt>
      <trkpt lat="47.33812" lon="-1.32486">
        <ele>105</ele>
        <time>2014-10-31T09:43:00.000Z</time>
      </trkpt>
      <trkpt lat="47.33818" lon="-1.32479">
        <ele>105</ele>
        <time>2014-10-31T09:43:02.000Z</time>
      </trkpt>
      <trkpt lat="47.33824" lon="-1.32473">
        <ele>108</ele>
        <time>2014-10-31T09:43:06.000Z</time>
      </trkpt>
      <trkpt lat="47.3383" lon="-1.32471">
        <ele>114</ele>
        <time>2014-10-31T09:43:10.000Z</time>
      </trkpt>
      <trkpt lat="47.3383" lon="-1.32471">
        <ele>114</ele>
        <time>2014-10-31T09:43:12.000Z</time>
      </trkpt>
      <trkpt lat="47.33835" lon="-1.32467">
        <ele>117</ele>
        <time>2014-10-31T09:43:15.000Z</time>
      </trkpt>
      <trkpt lat="47.33839" lon="-1.32459">
        <ele>117</ele>
        <time>2014-10-31T09:43:18.000Z</time>
      </trkpt>
      <trkpt lat="47.33839" lon="-1.32459">
        <ele>117</ele>
        <time>2014-10-31T09:43:20.000Z</time>
      </trkpt>
      <trkpt lat="47.33839" lon="-1.32459">
        <ele>117</ele>
        <time>2014-10-31T09:43:22.000Z</time>
      </trkpt>
      <trkpt lat="47.33839" lon="-1.32459">
        <ele>117</ele>
        <time>2014-10-31T09:43:24.000Z</time>
      </trkpt>
      <trkpt lat="47.33839" lon="-1.32459">
        <ele>117</ele>
        <time>2014-10-31T09:43:26.000Z</time>
      </trkpt>
      <trkpt lat="47.33839" lon="-1.32459">
        <ele>117</ele>
        <time>2014-10-31T09:43:28.000Z</time>
      </trkpt>
      <trkpt lat="47.33839" lon="-1.32459">
        <ele>117</ele>
        <time>2014-10-31T09:43:30.000Z</time>
      </trkpt>
      <trkpt lat="47.33839" lon="-1.32459">
        <ele>117</ele>
        <time>2014-10-31T09:43:32.000Z</time>
      </trkpt>
      <trkpt lat="47.33839" lon="-1.32459">
        <ele>117</ele>
        <time>2014-10-31T09:43:34.000Z</time>
      </trkpt>
      <trkpt lat="47.33839" lon="-1.32459">
        <ele>117</ele>
        <time>2014-10-31T09:43:36.000Z</time>
      </trkpt>
      <trkpt lat="47.33831" lon="-1.32465">
        <ele>114</ele>
        <time>2014-10-31T09:43:46.000Z</time>
      </trkpt>
      <trkpt lat="47.3382" lon="-1.32474">
        <ele>117</ele>
        <time>2014-10-31T09:43:50.000Z</time>
      </trkpt>
      <trkpt lat="47.33814" lon="-1.32479">
        <ele>117</ele>
        <time>2014-10-31T09:43:52.000Z</time>
      </trkpt>
      <trkpt lat="47.33807" lon="-1.32485">
        <ele>116</ele>
        <time>2014-10-31T09:43:54.000Z</time>
      </trkpt>
      <trkpt lat="47.33801" lon="-1.32492">
        <ele>115</ele>
        <time>2014-10-31T09:43:56.000Z</time>
      </trkpt>
      <trkpt lat="47.33801" lon="-1.32492">
        <ele>115</ele>
        <time>2014-10-31T09:43:59.000Z</time>
      </trkpt>
      <trkpt lat="47.33801" lon="-1.32492">
        <ele>115</ele>
        <time>2014-10-31T09:44:01.000Z</time>
      </trkpt>
      <trkpt lat="47.33801" lon="-1.32492">
        <ele>115</ele>
        <time>2014-10-31T09:44:03.000Z</time>
      </trkpt>
      <trkpt lat="47.33801" lon="-1.32492">
        <ele>115</ele>
        <time>2014-10-31T09:44:05.000Z</time>
      </trkpt>
      <trkpt lat="47.33801" lon="-1.32492">
        <ele>115</ele>
        <time>2014-10-31T09:44:07.000Z</time>
      </trkpt>
      <trkpt lat="47.33804" lon="-1.32483">
        <ele>114</ele>
        <time>2014-10-31T09:44:09.000Z</time>
      </trkpt>
      <trkpt lat="47.33807" lon="-1.32479">
        <ele>120</ele>
        <time>2014-10-31T09:44:13.000Z</time>
      </trkpt>
      <trkpt lat="47.33811" lon="-1.32474">
        <ele>124</ele>
        <time>2014-10-31T09:44:15.000Z</time>
      </trkpt>
      <trkpt lat="47.33815" lon="-1.3247">
        <ele>124</ele>
        <time>2014-10-31T09:44:18.000Z</time>
      </trkpt>
      <trkpt lat="47.3382" lon="-1.32466">
        <ele>128</ele>
        <time>2014-10-31T09:44:19.000Z</time>
      </trkpt>
      <trkpt lat="47.33825" lon="-1.32463">
        <ele>131</ele>
        <time>2014-10-31T09:44:21.000Z</time>
      </trkpt>
      <trkpt lat="47.33834" lon="-1.32458">
        <ele>133</ele>
        <time>2014-10-31T09:44:23.000Z</time>
      </trkpt>
      <trkpt lat="47.33834" lon="-1.32458">
        <ele>133</ele>
        <time>2014-10-31T09:44:25.000Z</time>
      </trkpt>
      <trkpt lat="47.33841" lon="-1.32451">
        <ele>128</ele>
        <time>2014-10-31T09:44:27.000Z</time>
      </trkpt>
      <trkpt lat="47.3385" lon="-1.32438">
        <ele>131</ele>
        <time>2014-10-31T09:44:31.000Z</time>
      </trkpt>
      <trkpt lat="47.33854" lon="-1.32432">
        <ele>129</ele>
        <time>2014-10-31T09:44:33.000Z</time>
      </trkpt>
      <trkpt lat="47.33858" lon="-1.32426">
        <ele>129</ele>
        <time>2014-10-31T09:44:35.000Z</time>
      </trkpt>
      <trkpt lat="47.33858" lon="-1.32426">
        <ele>129</ele>
        <time>2014-10-31T09:44:37.000Z</time>
      </trkpt>
      <trkpt lat="47.33865" lon="-1.32413">
        <ele>134</ele>
        <time>2014-10-31T09:44:39.000Z</time>
      </trkpt>
      <trkpt lat="47.33865" lon="-1.32413">
        <ele>134</ele>
        <time>2014-10-31T09:44:41.000Z</time>
      </trkpt>
      <trkpt lat="47.33871" lon="-1.32395">
        <ele>133</ele>
        <time>2014-10-31T09:44:43.000Z</time>
      </trkpt>
      <trkpt lat="47.33883" lon="-1.32366">
        <ele>139</ele>
        <time>2014-10-31T09:44:46.000Z</time>
      </trkpt>
      <trkpt lat="47.33888" lon="-1.32349">
        <ele>142</ele>
        <time>2014-10-31T09:44:49.000Z</time>
      </trkpt>
      <trkpt lat="47.33893" lon="-1.32333">
        <ele>142</ele>
        <time>2014-10-31T09:44:50.000Z</time>
      </trkpt>
      <trkpt lat="47.33898" lon="-1.32321">
        <ele>141</ele>
        <time>2014-10-31T09:44:52.000Z</time>
      </trkpt>
      <trkpt lat="47.33907" lon="-1.32313">
        <ele>137</ele>
        <time>2014-10-31T09:44:54.000Z</time>
      </trkpt>
      <trkpt lat="47.33913" lon="-1.32305">
        <ele>135</ele>
        <time>2014-10-31T09:44:56.000Z</time>
      </trkpt>
      <trkpt lat="47.33923" lon="-1.32295">
        <ele>139</ele>
        <time>2014-10-31T09:44:58.000Z</time>
      </trkpt>
      <trkpt lat="47.33933" lon="-1.32286">
        <ele>144</ele>
        <time>2014-10-31T09:45:00.000Z</time>
      </trkpt>
      <trkpt lat="47.33941" lon="-1.32275">
        <ele>143</ele>
        <time>2014-10-31T09:45:02.000Z</time>
      </trkpt>
      <trkpt lat="47.33949" lon="-1.32269">
        <ele>145</ele>
        <time>2014-10-31T09:45:04.000Z</time>
      </trkpt>
      <trkpt lat="47.33953" lon="-1.3226">
        <ele>146</ele>
        <time>2014-10-31T09:45:06.000Z</time>
      </trkpt>
      <trkpt lat="47.33964" lon="-1.32241">
        <ele>149</ele>
        <time>2014-10-31T09:45:09.000Z</time>
      </trkpt>
      <trkpt lat="47.33963" lon="-1.32229">
        <ele>144</ele>
        <time>2014-10-31T09:45:11.000Z</time>
      </trkpt>
      <trkpt lat="47.33963" lon="-1.32219">
        <ele>141</ele>
        <time>2014-10-31T09:45:13.000Z</time>
      </trkpt>
      <trkpt lat="47.33959" lon="-1.32208">
        <ele>137</ele>
        <time>2014-10-31T09:45:15.000Z</time>
      </trkpt>
      <trkpt lat="47.33957" lon="-1.32197">
        <ele>135</ele>
        <time>2014-10-31T09:45:17.000Z</time>
      </trkpt>
      <trkpt lat="47.33958" lon="-1.32184">
        <ele>131</ele>
        <time>2014-10-31T09:45:19.000Z</time>
      </trkpt>
      <trkpt lat="47.33957" lon="-1.32172">
        <ele>129</ele>
        <time>2014-10-31T09:45:21.000Z</time>
      </trkpt>
      <trkpt lat="47.33953" lon="-1.32165">
        <ele>126</ele>
        <time>2014-10-31T09:45:23.000Z</time>
      </trkpt>
      <trkpt lat="47.33947" lon="-1.32159">
        <ele>124</ele>
        <time>2014-10-31T09:45:25.000Z</time>
      </trkpt>
      <trkpt lat="47.33941" lon="-1.32151">
        <ele>122</ele>
        <time>2014-10-31T09:45:27.000Z</time>
      </trkpt>
      <trkpt lat="47.33936" lon="-1.32142">
        <ele>121</ele>
        <time>2014-10-31T09:45:29.000Z</time>
      </trkpt>
      <trkpt lat="47.33931" lon="-1.32132">
        <ele>121</ele>
        <time>2014-10-31T09:45:31.000Z</time>
      </trkpt>
      <trkpt lat="47.33926" lon="-1.32122">
        <ele>121</ele>
        <time>2014-10-31T09:45:33.000Z</time>
      </trkpt>
      <trkpt lat="47.33921" lon="-1.32113">
        <ele>122</ele>
        <time>2014-10-31T09:45:35.000Z</time>
      </trkpt>
      <trkpt lat="47.33917" lon="-1.32104">
        <ele>123</ele>
        <time>2014-10-31T09:45:37.000Z</time>
      </trkpt>
      <trkpt lat="47.33913" lon="-1.32093">
        <ele>121</ele>
        <time>2014-10-31T09:45:39.000Z</time>
      </trkpt>
      <trkpt lat="47.33908" lon="-1.32082">
        <ele>121</ele>
        <time>2014-10-31T09:45:41.000Z</time>
      </trkpt>
      <trkpt lat="47.33904" lon="-1.32071">
        <ele>121</ele>
        <time>2014-10-31T09:45:43.000Z</time>
      </trkpt>
      <trkpt lat="47.339" lon="-1.3206">
        <ele>121</ele>
        <time>2014-10-31T09:45:45.000Z</time>
      </trkpt>
      <trkpt lat="47.33897" lon="-1.32049">
        <ele>121</ele>
        <time>2014-10-31T09:45:47.000Z</time>
      </trkpt>
      <trkpt lat="47.33894" lon="-1.32038">
        <ele>122</ele>
        <time>2014-10-31T09:45:49.000Z</time>
      </trkpt>
      <trkpt lat="47.33892" lon="-1.32026">
        <ele>123</ele>
        <time>2014-10-31T09:45:51.000Z</time>
      </trkpt>
      <trkpt lat="47.33889" lon="-1.32013">
        <ele>122</ele>
        <time>2014-10-31T09:45:53.000Z</time>
      </trkpt>
      <trkpt lat="47.33885" lon="-1.32002">
        <ele>121</ele>
        <time>2014-10-31T09:45:55.000Z</time>
      </trkpt>
      <trkpt lat="47.33881" lon="-1.31994">
        <ele>122</ele>
        <time>2014-10-31T09:45:57.000Z</time>
      </trkpt>
      <trkpt lat="47.33881" lon="-1.31994">
        <ele>122</ele>
        <time>2014-10-31T09:45:59.000Z</time>
      </trkpt>
      <trkpt lat="47.33886" lon="-1.3198">
        <ele>124</ele>
        <time>2014-10-31T09:46:01.000Z</time>
      </trkpt>
      <trkpt lat="47.33889" lon="-1.31972">
        <ele>125</ele>
        <time>2014-10-31T09:46:03.000Z</time>
      </trkpt>
      <trkpt lat="47.33893" lon="-1.31966">
        <ele>129</ele>
        <time>2014-10-31T09:46:05.000Z</time>
      </trkpt>
      <trkpt lat="47.33893" lon="-1.31966">
        <ele>129</ele>
        <time>2014-10-31T09:46:07.000Z</time>
      </trkpt>
      <trkpt lat="47.33899" lon="-1.31953">
        <ele>134</ele>
        <time>2014-10-31T09:46:09.000Z</time>
      </trkpt>
      <trkpt lat="47.33899" lon="-1.31953">
        <ele>134</ele>
        <time>2014-10-31T09:46:11.000Z</time>
      </trkpt>
      <trkpt lat="47.33905" lon="-1.31941">
        <ele>134</ele>
        <time>2014-10-31T09:46:13.000Z</time>
      </trkpt>
      <trkpt lat="47.33908" lon="-1.31934">
        <ele>133</ele>
        <time>2014-10-31T09:46:15.000Z</time>
      </trkpt>
      <trkpt lat="47.33912" lon="-1.31926">
        <ele>133</ele>
        <time>2014-10-31T09:46:17.000Z</time>
      </trkpt>
      <trkpt lat="47.33916" lon="-1.31919">
        <ele>134</ele>
        <time>2014-10-31T09:46:19.000Z</time>
      </trkpt>
      <trkpt lat="47.3392" lon="-1.31912">
        <ele>134</ele>
        <time>2014-10-31T09:46:22.000Z</time>
      </trkpt>
      <trkpt lat="47.33923" lon="-1.31905">
        <ele>134</ele>
        <time>2014-10-31T09:46:23.000Z</time>
      </trkpt>
      <trkpt lat="47.33923" lon="-1.31905">
        <ele>134</ele>
        <time>2014-10-31T09:46:25.000Z</time>
      </trkpt>
      <trkpt lat="47.33928" lon="-1.31894">
        <ele>136</ele>
        <time>2014-10-31T09:46:27.000Z</time>
      </trkpt>
      <trkpt lat="47.33931" lon="-1.31886">
        <ele>137</ele>
        <time>2014-10-31T09:46:29.000Z</time>
      </trkpt>
      <trkpt lat="47.33934" lon="-1.31876">
        <ele>135</ele>
        <time>2014-10-31T09:46:31.000Z</time>
      </trkpt>
      <trkpt lat="47.33938" lon="-1.31866">
        <ele>131</ele>
        <time>2014-10-31T09:46:33.000Z</time>
      </trkpt>
      <trkpt lat="47.33943" lon="-1.31856">
        <ele>131</ele>
        <time>2014-10-31T09:46:35.000Z</time>
      </trkpt>
      <trkpt lat="47.33947" lon="-1.31846">
        <ele>129</ele>
        <time>2014-10-31T09:46:37.000Z</time>
      </trkpt>
      <trkpt lat="47.33952" lon="-1.31835">
        <ele>129</ele>
        <time>2014-10-31T09:46:39.000Z</time>
      </trkpt>
      <trkpt lat="47.33956" lon="-1.31826">
        <ele>129</ele>
        <time>2014-10-31T09:46:41.000Z</time>
      </trkpt>
      <trkpt lat="47.3396" lon="-1.31816">
        <ele>128</ele>
        <time>2014-10-31T09:46:44.000Z</time>
      </trkpt>
      <trkpt lat="47.33964" lon="-1.31805">
        <ele>127</ele>
        <time>2014-10-31T09:46:45.000Z</time>
      </trkpt>
      <trkpt lat="47.33969" lon="-1.31796">
        <ele>126</ele>
        <time>2014-10-31T09:46:47.000Z</time>
      </trkpt>
      <trkpt lat="47.33975" lon="-1.31786">
        <ele>127</ele>
        <time>2014-10-31T09:46:49.000Z</time>
      </trkpt>
      <trkpt lat="47.33981" lon="-1.31777">
        <ele>126</ele>
        <time>2014-10-31T09:46:51.000Z</time>
      </trkpt>
      <trkpt lat="47.33986" lon="-1.31767">
        <ele>126</ele>
        <time>2014-10-31T09:46:53.000Z</time>
      </trkpt>
      <trkpt lat="47.33992" lon="-1.31759">
        <ele>127</ele>
        <time>2014-10-31T09:46:55.000Z</time>
      </trkpt>
      <trkpt lat="47.33997" lon="-1.3175">
        <ele>127</ele>
        <time>2014-10-31T09:46:57.000Z</time>
      </trkpt>
      <trkpt lat="47.34003" lon="-1.31742">
        <ele>126</ele>
        <time>2014-10-31T09:46:59.000Z</time>
      </trkpt>
      <trkpt lat="47.3401" lon="-1.31735">
        <ele>126</ele>
        <time>2014-10-31T09:47:01.000Z</time>
      </trkpt>
      <trkpt lat="47.34016" lon="-1.31729">
        <ele>126</ele>
        <time>2014-10-31T09:47:03.000Z</time>
      </trkpt>
      <trkpt lat="47.34022" lon="-1.31721">
        <ele>125</ele>
        <time>2014-10-31T09:47:05.000Z</time>
      </trkpt>
      <trkpt lat="47.34024" lon="-1.31711">
        <ele>125</ele>
        <time>2014-10-31T09:47:07.000Z</time>
      </trkpt>
      <trkpt lat="47.34017" lon="-1.31688">
        <ele>125</ele>
        <time>2014-10-31T09:47:10.000Z</time>
      </trkpt>
      <trkpt lat="47.34015" lon="-1.31675">
        <ele>124</ele>
        <time>2014-10-31T09:47:12.000Z</time>
      </trkpt>
      <trkpt lat="47.34011" lon="-1.31663">
        <ele>123</ele>
        <time>2014-10-31T09:47:14.000Z</time>
      </trkpt>
      <trkpt lat="47.34007" lon="-1.31648">
        <ele>123</ele>
        <time>2014-10-31T09:47:16.000Z</time>
      </trkpt>
      <trkpt lat="47.34003" lon="-1.31635">
        <ele>122</ele>
        <time>2014-10-31T09:47:18.000Z</time>
      </trkpt>
      <trkpt lat="47.33998" lon="-1.3162">
        <ele>122</ele>
        <time>2014-10-31T09:47:20.000Z</time>
      </trkpt>
      <trkpt lat="47.33992" lon="-1.31605">
        <ele>121</ele>
        <time>2014-10-31T09:47:22.000Z</time>
      </trkpt>
      <trkpt lat="47.33987" lon="-1.31589">
        <ele>121</ele>
        <time>2014-10-31T09:47:24.000Z</time>
      </trkpt>
      <trkpt lat="47.33982" lon="-1.3157">
        <ele>120</ele>
        <time>2014-10-31T09:47:27.000Z</time>
      </trkpt>
      <trkpt lat="47.33978" lon="-1.31551">
        <ele>120</ele>
        <time>2014-10-31T09:47:28.000Z</time>
      </trkpt>
      <trkpt lat="47.33971" lon="-1.31532">
        <ele>118</ele>
        <time>2014-10-31T09:47:30.000Z</time>
      </trkpt>
      <trkpt lat="47.33964" lon="-1.31512">
        <ele>118</ele>
        <time>2014-10-31T09:47:32.000Z</time>
      </trkpt>
      <trkpt lat="47.33955" lon="-1.31496">
        <ele>119</ele>
        <time>2014-10-31T09:47:34.000Z</time>
      </trkpt>
      <trkpt lat="47.33945" lon="-1.31482">
        <ele>117</ele>
        <time>2014-10-31T09:47:36.000Z</time>
      </trkpt>
      <trkpt lat="47.33933" lon="-1.31469">
        <ele>117</ele>
        <time>2014-10-31T09:47:39.000Z</time>
      </trkpt>
      <trkpt lat="47.33921" lon="-1.31461">
        <ele>117</ele>
        <time>2014-10-31T09:47:40.000Z</time>
      </trkpt>
      <trkpt lat="47.33911" lon="-1.31452">
        <ele>116</ele>
        <time>2014-10-31T09:47:42.000Z</time>
      </trkpt>
      <trkpt lat="47.33903" lon="-1.31438">
        <ele>115</ele>
        <time>2014-10-31T09:47:44.000Z</time>
      </trkpt>
      <trkpt lat="47.33898" lon="-1.31421">
        <ele>114</ele>
        <time>2014-10-31T09:47:46.000Z</time>
      </trkpt>
      <trkpt lat="47.33891" lon="-1.31406">
        <ele>114</ele>
        <time>2014-10-31T09:47:49.000Z</time>
      </trkpt>
      <trkpt lat="47.33883" lon="-1.31391">
        <ele>114</ele>
        <time>2014-10-31T09:47:51.000Z</time>
      </trkpt>
      <trkpt lat="47.33873" lon="-1.31379">
        <ele>113</ele>
        <time>2014-10-31T09:47:52.000Z</time>
      </trkpt>
      <trkpt lat="47.33863" lon="-1.31369">
        <ele>114</ele>
        <time>2014-10-31T09:47:54.000Z</time>
      </trkpt>
      <trkpt lat="47.33854" lon="-1.31357">
        <ele>113</ele>
        <time>2014-10-31T09:47:57.000Z</time>
      </trkpt>
      <trkpt lat="47.33847" lon="-1.31346">
        <ele>112</ele>
        <time>2014-10-31T09:47:58.000Z</time>
      </trkpt>
      <trkpt lat="47.33848" lon="-1.31336">
        <ele>114</ele>
        <time>2014-10-31T09:48:00.000Z</time>
      </trkpt>
      <trkpt lat="47.33852" lon="-1.31329">
        <ele>116</ele>
        <time>2014-10-31T09:48:02.000Z</time>
      </trkpt>
      <trkpt lat="47.33855" lon="-1.3132">
        <ele>117</ele>
        <time>2014-10-31T09:48:04.000Z</time>
      </trkpt>
      <trkpt lat="47.33863" lon="-1.31312">
        <ele>116</ele>
        <time>2014-10-31T09:48:06.000Z</time>
      </trkpt>
      <trkpt lat="47.33869" lon="-1.31304">
        <ele>115</ele>
        <time>2014-10-31T09:48:08.000Z</time>
      </trkpt>
      <trkpt lat="47.33875" lon="-1.31295">
        <ele>115</ele>
        <time>2014-10-31T09:48:10.000Z</time>
      </trkpt>
      <trkpt lat="47.3388" lon="-1.31287">
        <ele>115</ele>
        <time>2014-10-31T09:48:12.000Z</time>
      </trkpt>
      <trkpt lat="47.33886" lon="-1.31279">
        <ele>115</ele>
        <time>2014-10-31T09:48:14.000Z</time>
      </trkpt>
      <trkpt lat="47.33893" lon="-1.31271">
        <ele>115</ele>
        <time>2014-10-31T09:48:16.000Z</time>
      </trkpt>
      <trkpt lat="47.33899" lon="-1.31263">
        <ele>114</ele>
        <time>2014-10-31T09:48:18.000Z</time>
      </trkpt>
      <trkpt lat="47.33907" lon="-1.31253">
        <ele>113</ele>
        <time>2014-10-31T09:48:20.000Z</time>
      </trkpt>
      <trkpt lat="47.33913" lon="-1.31243">
        <ele>113</ele>
        <time>2014-10-31T09:48:22.000Z</time>
      </trkpt>
      <trkpt lat="47.33918" lon="-1.31233">
        <ele>112</ele>
        <time>2014-10-31T09:48:24.000Z</time>
      </trkpt>
      <trkpt lat="47.33925" lon="-1.31223">
        <ele>112</ele>
        <time>2014-10-31T09:48:26.000Z</time>
      </trkpt>
      <trkpt lat="47.3393" lon="-1.31214">
        <ele>111</ele>
        <time>2014-10-31T09:48:28.000Z</time>
      </trkpt>
      <trkpt lat="47.33935" lon="-1.31204">
        <ele>110</ele>
        <time>2014-10-31T09:48:30.000Z</time>
      </trkpt>
      <trkpt lat="47.33939" lon="-1.31192">
        <ele>107</ele>
        <time>2014-10-31T09:48:33.000Z</time>
      </trkpt>
      <trkpt lat="47.33944" lon="-1.31183">
        <ele>107</ele>
        <time>2014-10-31T09:48:34.000Z</time>
      </trkpt>
      <trkpt lat="47.33947" lon="-1.31174">
        <ele>108</ele>
        <time>2014-10-31T09:48:36.000Z</time>
      </trkpt>
      <trkpt lat="47.33952" lon="-1.31166">
        <ele>107</ele>
        <time>2014-10-31T09:48:38.000Z</time>
      </trkpt>
      <trkpt lat="47.33957" lon="-1.3116">
        <ele>107</ele>
        <time>2014-10-31T09:48:40.000Z</time>
      </trkpt>
      <trkpt lat="47.33962" lon="-1.31155">
        <ele>107</ele>
        <time>2014-10-31T09:48:42.000Z</time>
      </trkpt>
      <trkpt lat="47.33966" lon="-1.31148">
        <ele>104</ele>
        <time>2014-10-31T09:48:44.000Z</time>
      </trkpt>
      <trkpt lat="47.33968" lon="-1.3114">
        <ele>104</ele>
        <time>2014-10-31T09:48:46.000Z</time>
      </trkpt>
      <trkpt lat="47.33966" lon="-1.31129">
        <ele>104</ele>
        <time>2014-10-31T09:48:48.000Z</time>
      </trkpt>
      <trkpt lat="47.3396" lon="-1.31104">
        <ele>104</ele>
        <time>2014-10-31T09:48:51.000Z</time>
      </trkpt>
      <trkpt lat="47.3396" lon="-1.3109">
        <ele>104</ele>
        <time>2014-10-31T09:48:53.000Z</time>
      </trkpt>
      <trkpt lat="47.33963" lon="-1.31076">
        <ele>103</ele>
        <time>2014-10-31T09:48:55.000Z</time>
      </trkpt>
      <trkpt lat="47.33966" lon="-1.31061">
        <ele>103</ele>
        <time>2014-10-31T09:48:57.000Z</time>
      </trkpt>
      <trkpt lat="47.33968" lon="-1.31046">
        <ele>103</ele>
        <time>2014-10-31T09:48:59.000Z</time>
      </trkpt>
      <trkpt lat="47.33969" lon="-1.3103">
        <ele>102</ele>
        <time>2014-10-31T09:49:01.000Z</time>
      </trkpt>
      <trkpt lat="47.33969" lon="-1.31017">
        <ele>101</ele>
        <time>2014-10-31T09:49:03.000Z</time>
      </trkpt>
      <trkpt lat="47.3396" lon="-1.31009">
        <ele>103</ele>
        <time>2014-10-31T09:49:05.000Z</time>
      </trkpt>
      <trkpt lat="47.3395" lon="-1.31007">
        <ele>103</ele>
        <time>2014-10-31T09:49:07.000Z</time>
      </trkpt>
      <trkpt lat="47.33941" lon="-1.31004">
        <ele>102</ele>
        <time>2014-10-31T09:49:09.000Z</time>
      </trkpt>
      <trkpt lat="47.33931" lon="-1.31002">
        <ele>102</ele>
        <time>2014-10-31T09:49:11.000Z</time>
      </trkpt>
      <trkpt lat="47.33922" lon="-1.31">
        <ele>102</ele>
        <time>2014-10-31T09:49:13.000Z</time>
      </trkpt>
      <trkpt lat="47.33913" lon="-1.31">
        <ele>103</ele>
        <time>2014-10-31T09:49:15.000Z</time>
      </trkpt>
      <trkpt lat="47.33905" lon="-1.30998">
        <ele>104</ele>
        <time>2014-10-31T09:49:17.000Z</time>
      </trkpt>
      <trkpt lat="47.339" lon="-1.30991">
        <ele>103</ele>
        <time>2014-10-31T09:49:19.000Z</time>
      </trkpt>
      <trkpt lat="47.33895" lon="-1.30979">
        <ele>100</ele>
        <time>2014-10-31T09:49:21.000Z</time>
      </trkpt>
      <trkpt lat="47.33889" lon="-1.30964">
        <ele>98</ele>
        <time>2014-10-31T09:49:23.000Z</time>
      </trkpt>
      <trkpt lat="47.33884" lon="-1.30948">
        <ele>97</ele>
        <time>2014-10-31T09:49:25.000Z</time>
      </trkpt>
      <trkpt lat="47.33881" lon="-1.30938">
        <ele>97</ele>
        <time>2014-10-31T09:49:27.000Z</time>
      </trkpt>
      <trkpt lat="47.33878" lon="-1.3093">
        <ele>98</ele>
        <time>2014-10-31T09:49:29.000Z</time>
      </trkpt>
      <trkpt lat="47.33878" lon="-1.3093">
        <ele>98</ele>
        <time>2014-10-31T09:49:31.000Z</time>
      </trkpt>
      <trkpt lat="47.33881" lon="-1.30917">
        <ele>96</ele>
        <time>2014-10-31T09:49:33.000Z</time>
      </trkpt>
      <trkpt lat="47.33884" lon="-1.3091">
        <ele>97</ele>
        <time>2014-10-31T09:49:36.000Z</time>
      </trkpt>
      <trkpt lat="47.33884" lon="-1.3091">
        <ele>97</ele>
        <time>2014-10-31T09:49:37.000Z</time>
      </trkpt>
      <trkpt lat="47.33889" lon="-1.30901">
        <ele>97</ele>
        <time>2014-10-31T09:49:39.000Z</time>
      </trkpt>
      <trkpt lat="47.33889" lon="-1.30901">
        <ele>97</ele>
        <time>2014-10-31T09:49:41.000Z</time>
      </trkpt>
      <trkpt lat="47.33889" lon="-1.30901">
        <ele>97</ele>
        <time>2014-10-31T09:49:43.000Z</time>
      </trkpt>
      <trkpt lat="47.33889" lon="-1.30901">
        <ele>97</ele>
        <time>2014-10-31T09:49:45.000Z</time>
      </trkpt>
      <trkpt lat="47.33889" lon="-1.30901">
        <ele>97</ele>
        <time>2014-10-31T09:49:47.000Z</time>
      </trkpt>
      <trkpt lat="47.33894" lon="-1.30895">
        <ele>94</ele>
        <time>2014-10-31T09:49:50.000Z</time>
      </trkpt>
      <trkpt lat="47.33899" lon="-1.30887">
        <ele>95</ele>
        <time>2014-10-31T09:49:53.000Z</time>
      </trkpt>
      <trkpt lat="47.33904" lon="-1.30883">
        <ele>97</ele>
        <time>2014-10-31T09:49:55.000Z</time>
      </trkpt>
      <trkpt lat="47.33915" lon="-1.30879">
        <ele>96</ele>
        <time>2014-10-31T09:49:59.000Z</time>
      </trkpt>
      <trkpt lat="47.33921" lon="-1.30881">
        <ele>98</ele>
        <time>2014-10-31T09:50:01.000Z</time>
      </trkpt>
      <trkpt lat="47.33927" lon="-1.30877">
        <ele>99</ele>
        <time>2014-10-31T09:50:03.000Z</time>
      </trkpt>
      <trkpt lat="47.33932" lon="-1.30872">
        <ele>99</ele>
        <time>2014-10-31T09:50:05.000Z</time>
      </trkpt>
      <trkpt lat="47.33937" lon="-1.30867">
        <ele>97</ele>
        <time>2014-10-31T09:50:08.000Z</time>
      </trkpt>
      <trkpt lat="47.33942" lon="-1.30862">
        <ele>99</ele>
        <time>2014-10-31T09:50:10.000Z</time>
      </trkpt>
      <trkpt lat="47.33942" lon="-1.30862">
        <ele>99</ele>
        <time>2014-10-31T09:50:12.000Z</time>
      </trkpt>
      <trkpt lat="47.33942" lon="-1.30862">
        <ele>99</ele>
        <time>2014-10-31T09:50:13.000Z</time>
      </trkpt>
      <trkpt lat="47.33946" lon="-1.30855">
        <ele>100</ele>
        <time>2014-10-31T09:50:15.000Z</time>
      </trkpt>
      <trkpt lat="47.33946" lon="-1.30855">
        <ele>100</ele>
        <time>2014-10-31T09:50:17.000Z</time>
      </trkpt>
      <trkpt lat="47.33951" lon="-1.3085">
        <ele>99</ele>
        <time>2014-10-31T09:50:20.000Z</time>
      </trkpt>
      <trkpt lat="47.33961" lon="-1.30844">
        <ele>100</ele>
        <time>2014-10-31T09:50:23.000Z</time>
      </trkpt>
      <trkpt lat="47.33968" lon="-1.30842">
        <ele>99</ele>
        <time>2014-10-31T09:50:27.000Z</time>
      </trkpt>
      <trkpt lat="47.33968" lon="-1.30842">
        <ele>99</ele>
        <time>2014-10-31T09:50:29.000Z</time>
      </trkpt>
      <trkpt lat="47.33976" lon="-1.30838">
        <ele>92</ele>
        <time>2014-10-31T09:50:31.000Z</time>
      </trkpt>
      <trkpt lat="47.33986" lon="-1.30835">
        <ele>92</ele>
        <time>2014-10-31T09:50:35.000Z</time>
      </trkpt>
      <trkpt lat="47.33986" lon="-1.30835">
        <ele>92</ele>
        <time>2014-10-31T09:50:37.000Z</time>
      </trkpt>
      <trkpt lat="47.33991" lon="-1.30831">
        <ele>90</ele>
        <time>2014-10-31T09:50:39.000Z</time>
      </trkpt>
      <trkpt lat="47.33996" lon="-1.30825">
        <ele>88</ele>
        <time>2014-10-31T09:50:42.000Z</time>
      </trkpt>
      <trkpt lat="47.34" lon="-1.3082">
        <ele>82</ele>
        <time>2014-10-31T09:50:44.000Z</time>
      </trkpt>
      <trkpt lat="47.34006" lon="-1.30812">
        <ele>81</ele>
        <time>2014-10-31T09:50:47.000Z</time>
      </trkpt>
      <trkpt lat="47.34006" lon="-1.30812">
        <ele>81</ele>
        <time>2014-10-31T09:50:49.000Z</time>
      </trkpt>
      <trkpt lat="47.34004" lon="-1.30803">
        <ele>78</ele>
        <time>2014-10-31T09:50:52.000Z</time>
      </trkpt>
      <trkpt lat="47.34004" lon="-1.30803">
        <ele>78</ele>
        <time>2014-10-31T09:50:53.000Z</time>
      </trkpt>
      <trkpt lat="47.33997" lon="-1.30793">
        <ele>76</ele>
        <time>2014-10-31T09:50:55.000Z</time>
      </trkpt>
      <trkpt lat="47.33992" lon="-1.30788">
        <ele>76</ele>
        <time>2014-10-31T09:50:57.000Z</time>
      </trkpt>
      <trkpt lat="47.33984" lon="-1.30785">
        <ele>76</ele>
        <time>2014-10-31T09:51:01.000Z</time>
      </trkpt>
      <trkpt lat="47.33984" lon="-1.30785">
        <ele>76</ele>
        <time>2014-10-31T09:51:03.000Z</time>
      </trkpt>
      <trkpt lat="47.33984" lon="-1.30785">
        <ele>76</ele>
        <time>2014-10-31T09:51:06.000Z</time>
      </trkpt>
      <trkpt lat="47.33984" lon="-1.30785">
        <ele>76</ele>
        <time>2014-10-31T09:51:07.000Z</time>
      </trkpt>
      <trkpt lat="47.33984" lon="-1.30785">
        <ele>76</ele>
        <time>2014-10-31T09:51:09.000Z</time>
      </trkpt>
      <trkpt lat="47.33984" lon="-1.30785">
        <ele>76</ele>
        <time>2014-10-31T09:51:11.000Z</time>
      </trkpt>
      <trkpt lat="47.33981" lon="-1.30784">
        <ele>74</ele>
        <time>2014-10-31T09:51:13.000Z</time>
      </trkpt>
      <trkpt lat="47.33981" lon="-1.30784">
        <ele>74</ele>
        <time>2014-10-31T09:51:15.000Z</time>
      </trkpt>
      <trkpt lat="47.33981" lon="-1.30784">
        <ele>74</ele>
        <time>2014-10-31T09:51:17.000Z</time>
      </trkpt>
      <trkpt lat="47.33981" lon="-1.30784">
        <ele>74</ele>
        <time>2014-10-31T09:51:19.000Z</time>
      </trkpt>
      <trkpt lat="47.33979" lon="-1.3078">
        <ele>75</ele>
        <time>2014-10-31T09:51:37.000Z</time>
      </trkpt>
      <trkpt lat="47.3398" lon="-1.30776">
        <ele>73</ele>
        <time>2014-10-31T09:51:43.000Z</time>
      </trkpt>
      <trkpt lat="47.33983" lon="-1.30771">
        <ele>67</ele>
        <time>2014-10-31T09:51:48.000Z</time>
      </trkpt>
      <trkpt lat="47.33985" lon="-1.30767">
        <ele>67</ele>
        <time>2014-10-31T09:51:49.000Z</time>
      </trkpt>
      <trkpt lat="47.33987" lon="-1.30762">
        <ele>66</ele>
        <time>2014-10-31T09:51:51.000Z</time>
      </trkpt>
      <trkpt lat="47.33987" lon="-1.30755">
        <ele>63</ele>
        <time>2014-10-31T09:51:53.000Z</time>
      </trkpt>
      <trkpt lat="47.33987" lon="-1.30747">
        <ele>64</ele>
        <time>2014-10-31T09:51:55.000Z</time>
      </trkpt>
      <trkpt lat="47.33986" lon="-1.30727">
        <ele>64</ele>
        <time>2014-10-31T09:51:57.000Z</time>
      </trkpt>
      <trkpt lat="47.33984" lon="-1.30715">
        <ele>63</ele>
        <time>2014-10-31T09:51:59.000Z</time>
      </trkpt>
      <trkpt lat="47.33982" lon="-1.30707">
        <ele>62</ele>
        <time>2014-10-31T09:52:01.000Z</time>
      </trkpt>
      <trkpt lat="47.33982" lon="-1.30707">
        <ele>62</ele>
        <time>2014-10-31T09:52:03.000Z</time>
      </trkpt>
      <trkpt lat="47.33982" lon="-1.30707">
        <ele>62</ele>
        <time>2014-10-31T09:52:05.000Z</time>
      </trkpt>
      <trkpt lat="47.33982" lon="-1.30707">
        <ele>62</ele>
        <time>2014-10-31T09:52:07.000Z</time>
      </trkpt>
      <trkpt lat="47.33982" lon="-1.30707">
        <ele>62</ele>
        <time>2014-10-31T09:52:09.000Z</time>
      </trkpt>
      <trkpt lat="47.33982" lon="-1.30707">
        <ele>62</ele>
        <time>2014-10-31T09:52:11.000Z</time>
      </trkpt>
      <trkpt lat="47.33982" lon="-1.30707">
        <ele>62</ele>
        <time>2014-10-31T09:52:13.000Z</time>
      </trkpt>
      <trkpt lat="47.33982" lon="-1.30707">
        <ele>62</ele>
        <time>2014-10-31T09:52:15.000Z</time>
      </trkpt>
      <trkpt lat="47.33977" lon="-1.30696">
        <ele>60</ele>
        <time>2014-10-31T09:52:19.000Z</time>
      </trkpt>
      <trkpt lat="47.3397" lon="-1.30686">
        <ele>58</ele>
        <time>2014-10-31T09:52:23.000Z</time>
      </trkpt>
      <trkpt lat="47.33966" lon="-1.30679">
        <ele>58</ele>
        <time>2014-10-31T09:52:25.000Z</time>
      </trkpt>
      <trkpt lat="47.33963" lon="-1.30669">
        <ele>60</ele>
        <time>2014-10-31T09:52:29.000Z</time>
      </trkpt>
      <trkpt lat="47.33963" lon="-1.30669">
        <ele>60</ele>
        <time>2014-10-31T09:52:32.000Z</time>
      </trkpt>
      <trkpt lat="47.33971" lon="-1.30658">
        <ele>60</ele>
        <time>2014-10-31T09:52:33.000Z</time>
      </trkpt>
      <trkpt lat="47.33976" lon="-1.30652">
        <ele>60</ele>
        <time>2014-10-31T09:52:35.000Z</time>
      </trkpt>
      <trkpt lat="47.33982" lon="-1.30642">
        <ele>70</ele>
        <time>2014-10-31T09:52:39.000Z</time>
      </trkpt>
      <trkpt lat="47.33996" lon="-1.30614">
        <ele>70</ele>
        <time>2014-10-31T09:52:44.000Z</time>
      </trkpt>
      <trkpt lat="47.34" lon="-1.306">
        <ele>72</ele>
        <time>2014-10-31T09:52:46.000Z</time>
      </trkpt>
      <trkpt lat="47.34006" lon="-1.30585">
        <ele>72</ele>
        <time>2014-10-31T09:52:48.000Z</time>
      </trkpt>
      <trkpt lat="47.3401" lon="-1.30571">
        <ele>70</ele>
        <time>2014-10-31T09:52:50.000Z</time>
      </trkpt>
      <trkpt lat="47.34015" lon="-1.3056">
        <ele>69</ele>
        <time>2014-10-31T09:52:52.000Z</time>
      </trkpt>
      <trkpt lat="47.34016" lon="-1.30542">
        <ele>68</ele>
        <time>2014-10-31T09:52:54.000Z</time>
      </trkpt>
      <trkpt lat="47.34017" lon="-1.30522">
        <ele>67</ele>
        <time>2014-10-31T09:52:57.000Z</time>
      </trkpt>
      <trkpt lat="47.34023" lon="-1.30491">
        <ele>65</ele>
        <time>2014-10-31T09:53:00.000Z</time>
      </trkpt>
      <trkpt lat="47.34021" lon="-1.30467">
        <ele>65</ele>
        <time>2014-10-31T09:53:02.000Z</time>
      </trkpt>
      <trkpt lat="47.34022" lon="-1.30449">
        <ele>63</ele>
        <time>2014-10-31T09:53:04.000Z</time>
      </trkpt>
      <trkpt lat="47.34024" lon="-1.30432">
        <ele>63</ele>
        <time>2014-10-31T09:53:06.000Z</time>
      </trkpt>
      <trkpt lat="47.34031" lon="-1.30416">
        <ele>65</ele>
        <time>2014-10-31T09:53:08.000Z</time>
      </trkpt>
      <trkpt lat="47.34034" lon="-1.30404">
        <ele>63</ele>
        <time>2014-10-31T09:53:11.000Z</time>
      </trkpt>
      <trkpt lat="47.34038" lon="-1.30396">
        <ele>63</ele>
        <time>2014-10-31T09:53:12.000Z</time>
      </trkpt>
      <trkpt lat="47.34061" lon="-1.30373">
        <ele>69</ele>
        <time>2014-10-31T09:53:16.000Z</time>
      </trkpt>
      <trkpt lat="47.34069" lon="-1.30364">
        <ele>67</ele>
        <time>2014-10-31T09:53:18.000Z</time>
      </trkpt>
      <trkpt lat="47.34082" lon="-1.30335">
        <ele>67</ele>
        <time>2014-10-31T09:53:21.000Z</time>
      </trkpt>
      <trkpt lat="47.34093" lon="-1.30317">
        <ele>65</ele>
        <time>2014-10-31T09:53:23.000Z</time>
      </trkpt>
      <trkpt lat="47.34108" lon="-1.30302">
        <ele>65</ele>
        <time>2014-10-31T09:53:27.000Z</time>
      </trkpt>
      <trkpt lat="47.34112" lon="-1.30286">
        <ele>64</ele>
        <time>2014-10-31T09:53:30.000Z</time>
      </trkpt>
      <trkpt lat="47.34117" lon="-1.30267">
        <ele>65</ele>
        <time>2014-10-31T09:53:31.000Z</time>
      </trkpt>
      <trkpt lat="47.34119" lon="-1.30252">
        <ele>61</ele>
        <time>2014-10-31T09:53:33.000Z</time>
      </trkpt>
      <trkpt lat="47.34123" lon="-1.30234">
        <ele>59</ele>
        <time>2014-10-31T09:53:35.000Z</time>
      </trkpt>
      <trkpt lat="47.34127" lon="-1.30216">
        <ele>57</ele>
        <time>2014-10-31T09:53:37.000Z</time>
      </trkpt>
      <trkpt lat="47.3413" lon="-1.30198">
        <ele>54</ele>
        <time>2014-10-31T09:53:39.000Z</time>
      </trkpt>
      <trkpt lat="47.34135" lon="-1.30179">
        <ele>53</ele>
        <time>2014-10-31T09:53:41.000Z</time>
      </trkpt>
      <trkpt lat="47.3414" lon="-1.3016">
        <ele>52</ele>
        <time>2014-10-31T09:53:43.000Z</time>
      </trkpt>
      <trkpt lat="47.34145" lon="-1.3014">
        <ele>51</ele>
        <time>2014-10-31T09:53:45.000Z</time>
      </trkpt>
      <trkpt lat="47.34144" lon="-1.30123">
        <ele>50</ele>
        <time>2014-10-31T09:53:47.000Z</time>
      </trkpt>
      <trkpt lat="47.34144" lon="-1.30105">
        <ele>50</ele>
        <time>2014-10-31T09:53:49.000Z</time>
      </trkpt>
      <trkpt lat="47.34144" lon="-1.3009">
        <ele>50</ele>
        <time>2014-10-31T09:53:51.000Z</time>
      </trkpt>
      <trkpt lat="47.34143" lon="-1.30081">
        <ele>50</ele>
        <time>2014-10-31T09:53:55.000Z</time>
      </trkpt>
      <trkpt lat="47.34151" lon="-1.3008">
        <ele>50</ele>
        <time>2014-10-31T09:53:59.000Z</time>
      </trkpt>
      <trkpt lat="47.34156" lon="-1.30072">
        <ele>49</ele>
        <time>2014-10-31T09:54:01.000Z</time>
      </trkpt>
      <trkpt lat="47.34158" lon="-1.3006">
        <ele>50</ele>
        <time>2014-10-31T09:54:03.000Z</time>
      </trkpt>
      <trkpt lat="47.34158" lon="-1.30043">
        <ele>49</ele>
        <time>2014-10-31T09:54:05.000Z</time>
      </trkpt>
      <trkpt lat="47.34159" lon="-1.3003">
        <ele>48</ele>
        <time>2014-10-31T09:54:07.000Z</time>
      </trkpt>
      <trkpt lat="47.34161" lon="-1.30012">
        <ele>47</ele>
        <time>2014-10-31T09:54:10.000Z</time>
      </trkpt>
      <trkpt lat="47.34162" lon="-1.29997">
        <ele>49</ele>
        <time>2014-10-31T09:54:12.000Z</time>
      </trkpt>
      <trkpt lat="47.34163" lon="-1.29982">
        <ele>50</ele>
        <time>2014-10-31T09:54:13.000Z</time>
      </trkpt>
      <trkpt lat="47.34164" lon="-1.29968">
        <ele>51</ele>
        <time>2014-10-31T09:54:15.000Z</time>
      </trkpt>
      <trkpt lat="47.34166" lon="-1.29954">
        <ele>51</ele>
        <time>2014-10-31T09:54:17.000Z</time>
      </trkpt>
      <trkpt lat="47.34167" lon="-1.2994">
        <ele>52</ele>
        <time>2014-10-31T09:54:19.000Z</time>
      </trkpt>
      <trkpt lat="47.34171" lon="-1.29924">
        <ele>52</ele>
        <time>2014-10-31T09:54:21.000Z</time>
      </trkpt>
      <trkpt lat="47.34172" lon="-1.29912">
        <ele>51</ele>
        <time>2014-10-31T09:54:23.000Z</time>
      </trkpt>
      <trkpt lat="47.34174" lon="-1.29898">
        <ele>51</ele>
        <time>2014-10-31T09:54:25.000Z</time>
      </trkpt>
      <trkpt lat="47.34174" lon="-1.29885">
        <ele>51</ele>
        <time>2014-10-31T09:54:27.000Z</time>
      </trkpt>
      <trkpt lat="47.34174" lon="-1.29871">
        <ele>50</ele>
        <time>2014-10-31T09:54:29.000Z</time>
      </trkpt>
      <trkpt lat="47.34174" lon="-1.29861">
        <ele>49</ele>
        <time>2014-10-31T09:54:31.000Z</time>
      </trkpt>
      <trkpt lat="47.34175" lon="-1.29849">
        <ele>50</ele>
        <time>2014-10-31T09:54:34.000Z</time>
      </trkpt>
      <trkpt lat="47.34175" lon="-1.29837">
        <ele>50</ele>
        <time>2014-10-31T09:54:35.000Z</time>
      </trkpt>
      <trkpt lat="47.34177" lon="-1.29825">
        <ele>49</ele>
        <time>2014-10-31T09:54:37.000Z</time>
      </trkpt>
      <trkpt lat="47.34179" lon="-1.29812">
        <ele>48</ele>
        <time>2014-10-31T09:54:39.000Z</time>
      </trkpt>
      <trkpt lat="47.34181" lon="-1.298">
        <ele>49</ele>
        <time>2014-10-31T09:54:41.000Z</time>
      </trkpt>
      <trkpt lat="47.34182" lon="-1.29789">
        <ele>50</ele>
        <time>2014-10-31T09:54:43.000Z</time>
      </trkpt>
      <trkpt lat="47.34182" lon="-1.29775">
        <ele>50</ele>
        <time>2014-10-31T09:54:46.000Z</time>
      </trkpt>
      <trkpt lat="47.34183" lon="-1.29763">
        <ele>50</ele>
        <time>2014-10-31T09:54:47.000Z</time>
      </trkpt>
      <trkpt lat="47.34183" lon="-1.29749">
        <ele>51</ele>
        <time>2014-10-31T09:54:49.000Z</time>
      </trkpt>
      <trkpt lat="47.34183" lon="-1.29736">
        <ele>51</ele>
        <time>2014-10-31T09:54:51.000Z</time>
      </trkpt>
      <trkpt lat="47.34184" lon="-1.29723">
        <ele>50</ele>
        <time>2014-10-31T09:54:53.000Z</time>
      </trkpt>
      <trkpt lat="47.34184" lon="-1.29709">
        <ele>50</ele>
        <time>2014-10-31T09:54:56.000Z</time>
      </trkpt>
      <trkpt lat="47.34184" lon="-1.29697">
        <ele>50</ele>
        <time>2014-10-31T09:54:57.000Z</time>
      </trkpt>
      <trkpt lat="47.34186" lon="-1.29687">
        <ele>50</ele>
        <time>2014-10-31T09:54:59.000Z</time>
      </trkpt>
      <trkpt lat="47.34186" lon="-1.29687">
        <ele>50</ele>
        <time>2014-10-31T09:55:01.000Z</time>
      </trkpt>
      <trkpt lat="47.34187" lon="-1.29674">
        <ele>50</ele>
        <time>2014-10-31T09:55:03.000Z</time>
      </trkpt>
      <trkpt lat="47.34187" lon="-1.29674">
        <ele>50</ele>
        <time>2014-10-31T09:55:06.000Z</time>
      </trkpt>
      <trkpt lat="47.34187" lon="-1.29674">
        <ele>50</ele>
        <time>2014-10-31T09:55:07.000Z</time>
      </trkpt>
      <trkpt lat="47.34187" lon="-1.29674">
        <ele>50</ele>
        <time>2014-10-31T09:55:09.000Z</time>
      </trkpt>
      <trkpt lat="47.34187" lon="-1.29674">
        <ele>50</ele>
        <time>2014-10-31T09:55:11.000Z</time>
      </trkpt>
      <trkpt lat="47.34187" lon="-1.29674">
        <ele>50</ele>
        <time>2014-10-31T09:55:13.000Z</time>
      </trkpt>
      <trkpt lat="47.34187" lon="-1.29674">
        <ele>50</ele>
        <time>2014-10-31T09:55:16.000Z</time>
      </trkpt>
      <trkpt lat="47.34187" lon="-1.29674">
        <ele>50</ele>
        <time>2014-10-31T09:55:17.000Z</time>
      </trkpt>
      <trkpt lat="47.34187" lon="-1.29674">
        <ele>50</ele>
        <time>2014-10-31T09:55:19.000Z</time>
      </trkpt>
      <trkpt lat="47.34184" lon="-1.29681">
        <ele>50</ele>
        <time>2014-10-31T09:55:27.000Z</time>
      </trkpt>
      <trkpt lat="47.34184" lon="-1.29681">
        <ele>50</ele>
        <time>2014-10-31T09:55:33.000Z</time>
      </trkpt>
      <trkpt lat="47.34184" lon="-1.29681">
        <ele>50</ele>
        <time>2014-10-31T09:55:35.000Z</time>
      </trkpt>
      <trkpt lat="47.34181" lon="-1.29681">
        <ele>50</ele>
        <time>2014-10-31T09:55:37.000Z</time>
      </trkpt>
      <trkpt lat="47.34181" lon="-1.29681">
        <ele>50</ele>
        <time>2014-10-31T09:55:39.000Z</time>
      </trkpt>
      <trkpt lat="47.34181" lon="-1.29681">
        <ele>50</ele>
        <time>2014-10-31T09:55:41.000Z</time>
      </trkpt>
      <trkpt lat="47.34181" lon="-1.29681">
        <ele>50</ele>
        <time>2014-10-31T09:55:43.000Z</time>
      </trkpt>
      <trkpt lat="47.34181" lon="-1.29681">
        <ele>50</ele>
        <time>2014-10-31T09:55:45.000Z</time>
      </trkpt>
      <trkpt lat="47.34181" lon="-1.29681">
        <ele>50</ele>
        <time>2014-10-31T09:55:47.000Z</time>
      </trkpt>
      <trkpt lat="47.34181" lon="-1.29681">
        <ele>50</ele>
        <time>2014-10-31T09:55:49.000Z</time>
      </trkpt>
      <trkpt lat="47.34181" lon="-1.29681">
        <ele>50</ele>
        <time>2014-10-31T09:55:51.000Z</time>
      </trkpt>
      <trkpt lat="47.34181" lon="-1.29681">
        <ele>50</ele>
        <time>2014-10-31T09:55:53.000Z</time>
      </trkpt>
      <trkpt lat="47.34181" lon="-1.29681">
        <ele>50</ele>
        <time>2014-10-31T09:55:55.000Z</time>
      </trkpt>
      <trkpt lat="47.34181" lon="-1.29681">
        <ele>50</ele>
        <time>2014-10-31T09:55:57.000Z</time>
      </trkpt>
      <trkpt lat="47.34181" lon="-1.29681">
        <ele>50</ele>
        <time>2014-10-31T09:55:59.000Z</time>
      </trkpt>
      <trkpt lat="47.34178" lon="-1.29678">
        <ele>52</ele>
        <time>2014-10-31T09:56:09.000Z</time>
      </trkpt>
      <trkpt lat="47.34173" lon="-1.29676">
        <ele>52</ele>
        <time>2014-10-31T09:56:12.000Z</time>
      </trkpt>
      <trkpt lat="47.34169" lon="-1.29676">
        <ele>50</ele>
        <time>2014-10-31T09:56:13.000Z</time>
      </trkpt>
      <trkpt lat="47.34166" lon="-1.29676">
        <ele>49</ele>
        <time>2014-10-31T09:56:15.000Z</time>
      </trkpt>
      <trkpt lat="47.34166" lon="-1.29676">
        <ele>49</ele>
        <time>2014-10-31T09:56:17.000Z</time>
      </trkpt>
      <trkpt lat="47.34162" lon="-1.29676">
        <ele>49</ele>
        <time>2014-10-31T09:56:19.000Z</time>
      </trkpt>
      <trkpt lat="47.34158" lon="-1.29676">
        <ele>49</ele>
        <time>2014-10-31T09:56:22.000Z</time>
      </trkpt>
      <trkpt lat="47.34155" lon="-1.29676">
        <ele>47</ele>
        <time>2014-10-31T09:56:25.000Z</time>
      </trkpt>
      <trkpt lat="47.34155" lon="-1.29676">
        <ele>47</ele>
        <time>2014-10-31T09:56:27.000Z</time>
      </trkpt>
      <trkpt lat="47.34152" lon="-1.29675">
        <ele>49</ele>
        <time>2014-10-31T09:56:29.000Z</time>
      </trkpt>
      <trkpt lat="47.34149" lon="-1.29674">
        <ele>49</ele>
        <time>2014-10-31T09:56:33.000Z</time>
      </trkpt>
      <trkpt lat="47.34146" lon="-1.29673">
        <ele>48</ele>
        <time>2014-10-31T09:56:36.000Z</time>
      </trkpt>
      <trkpt lat="47.34143" lon="-1.29672">
        <ele>49</ele>
        <time>2014-10-31T09:56:39.000Z</time>
      </trkpt>
      <trkpt lat="47.34143" lon="-1.29672">
        <ele>49</ele>
        <time>2014-10-31T09:56:41.000Z</time>
      </trkpt>
      <trkpt lat="47.34143" lon="-1.29672">
        <ele>49</ele>
        <time>2014-10-31T09:56:43.000Z</time>
      </trkpt>
      <trkpt lat="47.34143" lon="-1.29672">
        <ele>49</ele>
        <time>2014-10-31T09:56:45.000Z</time>
      </trkpt>
      <trkpt lat="47.34143" lon="-1.29672">
        <ele>49</ele>
        <time>2014-10-31T09:56:47.000Z</time>
      </trkpt>
      <trkpt lat="47.3414" lon="-1.29672">
        <ele>48</ele>
        <time>2014-10-31T09:56:50.000Z</time>
      </trkpt>
      <trkpt lat="47.3414" lon="-1.29672">
        <ele>48</ele>
        <time>2014-10-31T09:56:51.000Z</time>
      </trkpt>
      <trkpt lat="47.3414" lon="-1.29672">
        <ele>48</ele>
        <time>2014-10-31T09:56:53.000Z</time>
      </trkpt>
      <trkpt lat="47.3414" lon="-1.29672">
        <ele>48</ele>
        <time>2014-10-31T09:56:55.000Z</time>
      </trkpt>
      <trkpt lat="47.3414" lon="-1.29672">
        <ele>48</ele>
        <time>2014-10-31T09:56:57.000Z</time>
      </trkpt>
      <trkpt lat="47.34137" lon="-1.29671">
        <ele>49</ele>
        <time>2014-10-31T09:57:01.000Z</time>
      </trkpt>
      <trkpt lat="47.34134" lon="-1.2967">
        <ele>51</ele>
        <time>2014-10-31T09:57:05.000Z</time>
      </trkpt>
      <trkpt lat="47.34134" lon="-1.2967">
        <ele>51</ele>
        <time>2014-10-31T09:57:07.000Z</time>
      </trkpt>
      <trkpt lat="47.34134" lon="-1.2967">
        <ele>51</ele>
        <time>2014-10-31T09:57:09.000Z</time>
      </trkpt>
      <trkpt lat="47.34134" lon="-1.2967">
        <ele>51</ele>
        <time>2014-10-31T09:57:11.000Z</time>
      </trkpt>
      <trkpt lat="47.34134" lon="-1.2967">
        <ele>51</ele>
        <time>2014-10-31T09:57:13.000Z</time>
      </trkpt>
      <trkpt lat="47.34131" lon="-1.29669">
        <ele>51</ele>
        <time>2014-10-31T09:57:15.000Z</time>
      </trkpt>
      <trkpt lat="47.34131" lon="-1.29669">
        <ele>51</ele>
        <time>2014-10-31T09:57:17.000Z</time>
      </trkpt>
      <trkpt lat="47.34131" lon="-1.29669">
        <ele>51</ele>
        <time>2014-10-31T09:57:19.000Z</time>
      </trkpt>
      <trkpt lat="47.34131" lon="-1.29669">
        <ele>51</ele>
        <time>2014-10-31T09:57:21.000Z</time>
      </trkpt>
      <trkpt lat="47.34131" lon="-1.29669">
        <ele>51</ele>
        <time>2014-10-31T09:57:23.000Z</time>
      </trkpt>
      <trkpt lat="47.34131" lon="-1.29669">
        <ele>51</ele>
        <time>2014-10-31T09:57:25.000Z</time>
      </trkpt>
      <trkpt lat="47.34131" lon="-1.29669">
        <ele>51</ele>
        <time>2014-10-31T09:57:27.000Z</time>
      </trkpt>
      <trkpt lat="47.34131" lon="-1.29669">
        <ele>51</ele>
        <time>2014-10-31T09:57:29.000Z</time>
      </trkpt>
      <trkpt lat="47.34131" lon="-1.29669">
        <ele>51</ele>
        <time>2014-10-31T09:57:31.000Z</time>
      </trkpt>
      <trkpt lat="47.34131" lon="-1.29669">
        <ele>51</ele>
        <time>2014-10-31T09:57:33.000Z</time>
      </trkpt>
      <trkpt lat="47.34131" lon="-1.29669">
        <ele>51</ele>
        <time>2014-10-31T09:57:35.000Z</time>
      </trkpt>
      <trkpt lat="47.34131" lon="-1.29669">
        <ele>51</ele>
        <time>2014-10-31T09:57:37.000Z</time>
      </trkpt>
      <trkpt lat="47.34131" lon="-1.29669">
        <ele>51</ele>
        <time>2014-10-31T09:57:39.000Z</time>
      </trkpt>
      <trkpt lat="47.34127" lon="-1.29668">
        <ele>50</ele>
        <time>2014-10-31T09:57:44.000Z</time>
      </trkpt>
      <trkpt lat="47.34124" lon="-1.29667">
        <ele>49</ele>
        <time>2014-10-31T09:57:47.000Z</time>
      </trkpt>
      <trkpt lat="47.34124" lon="-1.29667">
        <ele>49</ele>
        <time>2014-10-31T09:57:53.000Z</time>
      </trkpt>
      <trkpt lat="47.34124" lon="-1.29667">
        <ele>49</ele>
        <time>2014-10-31T09:57:55.000Z</time>
      </trkpt>
      <trkpt lat="47.34124" lon="-1.29667">
        <ele>49</ele>
        <time>2014-10-31T09:57:57.000Z</time>
      </trkpt>
      <trkpt lat="47.34121" lon="-1.29665">
        <ele>48</ele>
        <time>2014-10-31T09:58:07.000Z</time>
      </trkpt>
      <trkpt lat="47.34121" lon="-1.29665">
        <ele>48</ele>
        <time>2014-10-31T09:58:09.000Z</time>
      </trkpt>
      <trkpt lat="47.34121" lon="-1.29665">
        <ele>48</ele>
        <time>2014-10-31T09:58:11.000Z</time>
      </trkpt>
      <trkpt lat="47.34121" lon="-1.29665">
        <ele>48</ele>
        <time>2014-10-31T09:58:13.000Z</time>
      </trkpt>
      <trkpt lat="47.34121" lon="-1.29665">
        <ele>48</ele>
        <time>2014-10-31T09:58:15.000Z</time>
      </trkpt>
      <trkpt lat="47.34121" lon="-1.29665">
        <ele>48</ele>
        <time>2014-10-31T09:58:17.000Z</time>
      </trkpt>
      <trkpt lat="47.34121" lon="-1.29665">
        <ele>48</ele>
        <time>2014-10-31T09:58:19.000Z</time>
      </trkpt>
      <trkpt lat="47.34121" lon="-1.29665">
        <ele>48</ele>
        <time>2014-10-31T09:58:21.000Z</time>
      </trkpt>
      <trkpt lat="47.34121" lon="-1.29665">
        <ele>48</ele>
        <time>2014-10-31T09:58:23.000Z</time>
      </trkpt>
      <trkpt lat="47.34121" lon="-1.29665">
        <ele>48</ele>
        <time>2014-10-31T09:58:26.000Z</time>
      </trkpt>
      <trkpt lat="47.34121" lon="-1.29665">
        <ele>48</ele>
        <time>2014-10-31T09:58:27.000Z</time>
      </trkpt>
      <trkpt lat="47.34121" lon="-1.29665">
        <ele>48</ele>
        <time>2014-10-31T09:58:29.000Z</time>
      </trkpt>
      <trkpt lat="47.34121" lon="-1.29665">
        <ele>48</ele>
        <time>2014-10-31T09:58:31.000Z</time>
      </trkpt>
      <trkpt lat="47.34121" lon="-1.29665">
        <ele>48</ele>
        <time>2014-10-31T09:58:33.000Z</time>
      </trkpt>
      <trkpt lat="47.34121" lon="-1.29665">
        <ele>48</ele>
        <time>2014-10-31T09:58:36.000Z</time>
      </trkpt>
      <trkpt lat="47.34121" lon="-1.29665">
        <ele>48</ele>
        <time>2014-10-31T09:58:38.000Z</time>
      </trkpt>
      <trkpt lat="47.34121" lon="-1.29665">
        <ele>48</ele>
        <time>2014-10-31T09:58:39.000Z</time>
      </trkpt>
      <trkpt lat="47.34121" lon="-1.29665">
        <ele>48</ele>
        <time>2014-10-31T09:58:41.000Z</time>
      </trkpt>
      <trkpt lat="47.34121" lon="-1.29665">
        <ele>48</ele>
        <time>2014-10-31T09:58:46.000Z</time>
      </trkpt>
      <trkpt lat="47.34124" lon="-1.29665">
        <ele>46</ele>
        <time>2014-10-31T10:00:37.000Z</time>
      </trkpt>
      <trkpt lat="47.34127" lon="-1.29665">
        <ele>45</ele>
        <time>2014-10-31T10:00:43.000Z</time>
      </trkpt>
      <trkpt lat="47.34131" lon="-1.29665">
        <ele>46</ele>
        <time>2014-10-31T10:00:51.000Z</time>
      </trkpt>
      <trkpt lat="47.34135" lon="-1.29666">
        <ele>45</ele>
        <time>2014-10-31T10:00:55.000Z</time>
      </trkpt>
      <trkpt lat="47.34138" lon="-1.29668">
        <ele>44</ele>
        <time>2014-10-31T10:00:57.000Z</time>
      </trkpt>
      <trkpt lat="47.34138" lon="-1.29668">
        <ele>44</ele>
        <time>2014-10-31T10:01:00.000Z</time>
      </trkpt>
      <trkpt lat="47.34141" lon="-1.29668">
        <ele>44</ele>
        <time>2014-10-31T10:01:01.000Z</time>
      </trkpt>
      <trkpt lat="47.34144" lon="-1.29669">
        <ele>45</ele>
        <time>2014-10-31T10:01:03.000Z</time>
      </trkpt>
      <trkpt lat="47.34147" lon="-1.2967">
        <ele>43</ele>
        <time>2014-10-31T10:01:07.000Z</time>
      </trkpt>
      <trkpt lat="47.34147" lon="-1.2967">
        <ele>43</ele>
        <time>2014-10-31T10:01:09.000Z</time>
      </trkpt>
      <trkpt lat="47.3415" lon="-1.2967">
        <ele>42</ele>
        <time>2014-10-31T10:01:11.000Z</time>
      </trkpt>
      <trkpt lat="47.3415" lon="-1.2967">
        <ele>42</ele>
        <time>2014-10-31T10:01:13.000Z</time>
      </trkpt>
      <trkpt lat="47.3415" lon="-1.2967">
        <ele>42</ele>
        <time>2014-10-31T10:01:15.000Z</time>
      </trkpt>
      <trkpt lat="47.34155" lon="-1.29671">
        <ele>44</ele>
        <time>2014-10-31T10:01:17.000Z</time>
      </trkpt>
      <trkpt lat="47.34158" lon="-1.29673">
        <ele>41</ele>
        <time>2014-10-31T10:01:19.000Z</time>
      </trkpt>
      <trkpt lat="47.34161" lon="-1.29675">
        <ele>42</ele>
        <time>2014-10-31T10:01:21.000Z</time>
      </trkpt>
      <trkpt lat="47.34161" lon="-1.29675">
        <ele>42</ele>
        <time>2014-10-31T10:01:23.000Z</time>
      </trkpt>
      <trkpt lat="47.34161" lon="-1.29675">
        <ele>42</ele>
        <time>2014-10-31T10:01:25.000Z</time>
      </trkpt>
      <trkpt lat="47.34161" lon="-1.29675">
        <ele>42</ele>
        <time>2014-10-31T10:01:27.000Z</time>
      </trkpt>
      <trkpt lat="47.34164" lon="-1.29677">
        <ele>47</ele>
        <time>2014-10-31T10:01:29.000Z</time>
      </trkpt>
      <trkpt lat="47.34164" lon="-1.29677">
        <ele>47</ele>
        <time>2014-10-31T10:01:31.000Z</time>
      </trkpt>
      <trkpt lat="47.34164" lon="-1.29677">
        <ele>47</ele>
        <time>2014-10-31T10:01:33.000Z</time>
      </trkpt>
      <trkpt lat="47.34164" lon="-1.29677">
        <ele>47</ele>
        <time>2014-10-31T10:01:35.000Z</time>
      </trkpt>
      <trkpt lat="47.34167" lon="-1.29678">
        <ele>52</ele>
        <time>2014-10-31T10:01:37.000Z</time>
      </trkpt>
      <trkpt lat="47.34167" lon="-1.29678">
        <ele>52</ele>
        <time>2014-10-31T10:01:39.000Z</time>
      </trkpt>
      <trkpt lat="47.34167" lon="-1.29678">
        <ele>52</ele>
        <time>2014-10-31T10:01:42.000Z</time>
      </trkpt>
      <trkpt lat="47.34167" lon="-1.29678">
        <ele>52</ele>
        <time>2014-10-31T10:01:43.000Z</time>
      </trkpt>
      <trkpt lat="47.34171" lon="-1.2968">
        <ele>49</ele>
        <time>2014-10-31T10:01:45.000Z</time>
      </trkpt>
      <trkpt lat="47.34174" lon="-1.29679">
        <ele>51</ele>
        <time>2014-10-31T10:01:49.000Z</time>
      </trkpt>
      <trkpt lat="47.34178" lon="-1.29679">
        <ele>49</ele>
        <time>2014-10-31T10:01:51.000Z</time>
      </trkpt>
      <trkpt lat="47.34181" lon="-1.29678">
        <ele>49</ele>
        <time>2014-10-31T10:01:53.000Z</time>
      </trkpt>
      <trkpt lat="47.34181" lon="-1.29678">
        <ele>49</ele>
        <time>2014-10-31T10:01:55.000Z</time>
      </trkpt>
      <trkpt lat="47.34183" lon="-1.29681">
        <ele>49</ele>
        <time>2014-10-31T10:01:57.000Z</time>
      </trkpt>
      <trkpt lat="47.34183" lon="-1.29681">
        <ele>49</ele>
        <time>2014-10-31T10:01:59.000Z</time>
      </trkpt>
      <trkpt lat="47.34183" lon="-1.29681">
        <ele>49</ele>
        <time>2014-10-31T10:02:01.000Z</time>
      </trkpt>
      <trkpt lat="47.34183" lon="-1.29681">
        <ele>49</ele>
        <time>2014-10-31T10:02:03.000Z</time>
      </trkpt>
      <trkpt lat="47.34183" lon="-1.29681">
        <ele>49</ele>
        <time>2014-10-31T10:02:06.000Z</time>
      </trkpt>
      <trkpt lat="47.34183" lon="-1.29681">
        <ele>49</ele>
        <time>2014-10-31T10:02:07.000Z</time>
      </trkpt>
      <trkpt lat="47.34183" lon="-1.29681">
        <ele>49</ele>
        <time>2014-10-31T10:02:09.000Z</time>
      </trkpt>
      <trkpt lat="47.34183" lon="-1.29681">
        <ele>49</ele>
        <time>2014-10-31T10:02:11.000Z</time>
      </trkpt>
      <trkpt lat="47.34184" lon="-1.29687">
        <ele>50</ele>
        <time>2014-10-31T10:02:18.000Z</time>
      </trkpt>
      <trkpt lat="47.34183" lon="-1.29691">
        <ele>51</ele>
        <time>2014-10-31T10:02:19.000Z</time>
      </trkpt>
      <trkpt lat="47.34183" lon="-1.29697">
        <ele>50</ele>
        <time>2014-10-31T10:02:22.000Z</time>
      </trkpt>
      <trkpt lat="47.34182" lon="-1.29704">
        <ele>51</ele>
        <time>2014-10-31T10:02:23.000Z</time>
      </trkpt>
      <trkpt lat="47.34182" lon="-1.29712">
        <ele>52</ele>
        <time>2014-10-31T10:02:25.000Z</time>
      </trkpt>
      <trkpt lat="47.3418" lon="-1.2973">
        <ele>53</ele>
        <time>2014-10-31T10:02:28.000Z</time>
      </trkpt>
      <trkpt lat="47.3418" lon="-1.29739">
        <ele>54</ele>
        <time>2014-10-31T10:02:29.000Z</time>
      </trkpt>
      <trkpt lat="47.3418" lon="-1.29748">
        <ele>55</ele>
        <time>2014-10-31T10:02:31.000Z</time>
      </trkpt>
      <trkpt lat="47.34179" lon="-1.29758">
        <ele>56</ele>
        <time>2014-10-31T10:02:33.000Z</time>
      </trkpt>
      <trkpt lat="47.34179" lon="-1.29768">
        <ele>55</ele>
        <time>2014-10-31T10:02:35.000Z</time>
      </trkpt>
      <trkpt lat="47.34179" lon="-1.29777">
        <ele>56</ele>
        <time>2014-10-31T10:02:37.000Z</time>
      </trkpt>
      <trkpt lat="47.34179" lon="-1.29788">
        <ele>56</ele>
        <time>2014-10-31T10:02:39.000Z</time>
      </trkpt>
      <trkpt lat="47.34178" lon="-1.29801">
        <ele>57</ele>
        <time>2014-10-31T10:02:41.000Z</time>
      </trkpt>
      <trkpt lat="47.34176" lon="-1.29812">
        <ele>58</ele>
        <time>2014-10-31T10:02:43.000Z</time>
      </trkpt>
      <trkpt lat="47.34174" lon="-1.29824">
        <ele>58</ele>
        <time>2014-10-31T10:02:45.000Z</time>
      </trkpt>
      <trkpt lat="47.34172" lon="-1.29835">
        <ele>59</ele>
        <time>2014-10-31T10:02:47.000Z</time>
      </trkpt>
      <trkpt lat="47.34171" lon="-1.29847">
        <ele>58</ele>
        <time>2014-10-31T10:02:49.000Z</time>
      </trkpt>
      <trkpt lat="47.3417" lon="-1.29859">
        <ele>59</ele>
        <time>2014-10-31T10:02:51.000Z</time>
      </trkpt>
      <trkpt lat="47.3417" lon="-1.29871">
        <ele>59</ele>
        <time>2014-10-31T10:02:53.000Z</time>
      </trkpt>
      <trkpt lat="47.34171" lon="-1.29884">
        <ele>59</ele>
        <time>2014-10-31T10:02:55.000Z</time>
      </trkpt>
      <trkpt lat="47.34169" lon="-1.29897">
        <ele>58</ele>
        <time>2014-10-31T10:02:58.000Z</time>
      </trkpt>
      <trkpt lat="47.34166" lon="-1.29908">
        <ele>58</ele>
        <time>2014-10-31T10:03:00.000Z</time>
      </trkpt>
      <trkpt lat="47.34164" lon="-1.29919">
        <ele>59</ele>
        <time>2014-10-31T10:03:01.000Z</time>
      </trkpt>
      <trkpt lat="47.34163" lon="-1.29929">
        <ele>59</ele>
        <time>2014-10-31T10:03:03.000Z</time>
      </trkpt>
      <trkpt lat="47.34162" lon="-1.29939">
        <ele>58</ele>
        <time>2014-10-31T10:03:06.000Z</time>
      </trkpt>
      <trkpt lat="47.34161" lon="-1.29952">
        <ele>58</ele>
        <time>2014-10-31T10:03:07.000Z</time>
      </trkpt>
      <trkpt lat="47.34159" lon="-1.29962">
        <ele>58</ele>
        <time>2014-10-31T10:03:10.000Z</time>
      </trkpt>
      <trkpt lat="47.34159" lon="-1.29974">
        <ele>58</ele>
        <time>2014-10-31T10:03:11.000Z</time>
      </trkpt>
      <trkpt lat="47.34159" lon="-1.29986">
        <ele>60</ele>
        <time>2014-10-31T10:03:13.000Z</time>
      </trkpt>
      <trkpt lat="47.34158" lon="-1.3">
        <ele>59</ele>
        <time>2014-10-31T10:03:15.000Z</time>
      </trkpt>
      <trkpt lat="47.34156" lon="-1.30013">
        <ele>59</ele>
        <time>2014-10-31T10:03:17.000Z</time>
      </trkpt>
      <trkpt lat="47.34155" lon="-1.30026">
        <ele>59</ele>
        <time>2014-10-31T10:03:20.000Z</time>
      </trkpt>
      <trkpt lat="47.34154" lon="-1.30038">
        <ele>58</ele>
        <time>2014-10-31T10:03:21.000Z</time>
      </trkpt>
      <trkpt lat="47.34152" lon="-1.3005">
        <ele>58</ele>
        <time>2014-10-31T10:03:24.000Z</time>
      </trkpt>
      <trkpt lat="47.34151" lon="-1.30062">
        <ele>58</ele>
        <time>2014-10-31T10:03:26.000Z</time>
      </trkpt>
      <trkpt lat="47.3415" lon="-1.30072">
        <ele>59</ele>
        <time>2014-10-31T10:03:27.000Z</time>
      </trkpt>
      <trkpt lat="47.34149" lon="-1.30081">
        <ele>58</ele>
        <time>2014-10-31T10:03:29.000Z</time>
      </trkpt>
      <trkpt lat="47.34149" lon="-1.30081">
        <ele>58</ele>
        <time>2014-10-31T10:03:31.000Z</time>
      </trkpt>
      <trkpt lat="47.34149" lon="-1.30081">
        <ele>58</ele>
        <time>2014-10-31T10:03:33.000Z</time>
      </trkpt>
      <trkpt lat="47.34149" lon="-1.30081">
        <ele>58</ele>
        <time>2014-10-31T10:03:35.000Z</time>
      </trkpt>
      <trkpt lat="47.34149" lon="-1.30081">
        <ele>58</ele>
        <time>2014-10-31T10:03:37.000Z</time>
      </trkpt>
      <trkpt lat="47.34143" lon="-1.30081">
        <ele>61</ele>
        <time>2014-10-31T10:03:41.000Z</time>
      </trkpt>
      <trkpt lat="47.34145" lon="-1.30124">
        <ele>58</ele>
        <time>2014-10-31T10:03:47.000Z</time>
      </trkpt>
      <trkpt lat="47.34143" lon="-1.3014">
        <ele>58</ele>
        <time>2014-10-31T10:03:48.000Z</time>
      </trkpt>
      <trkpt lat="47.34139" lon="-1.30152">
        <ele>58</ele>
        <time>2014-10-31T10:03:50.000Z</time>
      </trkpt>
      <trkpt lat="47.34135" lon="-1.30167">
        <ele>59</ele>
        <time>2014-10-31T10:03:53.000Z</time>
      </trkpt>
      <trkpt lat="47.3413" lon="-1.30184">
        <ele>59</ele>
        <time>2014-10-31T10:03:55.000Z</time>
      </trkpt>
      <trkpt lat="47.34126" lon="-1.30201">
        <ele>59</ele>
        <time>2014-10-31T10:03:56.000Z</time>
      </trkpt>
      <trkpt lat="47.3412" lon="-1.3022">
        <ele>59</ele>
        <time>2014-10-31T10:03:58.000Z</time>
      </trkpt>
      <trkpt lat="47.34114" lon="-1.3024">
        <ele>59</ele>
        <time>2014-10-31T10:04:00.000Z</time>
      </trkpt>
      <trkpt lat="47.34106" lon="-1.30262">
        <ele>58</ele>
        <time>2014-10-31T10:04:02.000Z</time>
      </trkpt>
      <trkpt lat="47.34102" lon="-1.30283">
        <ele>57</ele>
        <time>2014-10-31T10:04:04.000Z</time>
      </trkpt>
      <trkpt lat="47.34095" lon="-1.30303">
        <ele>58</ele>
        <time>2014-10-31T10:04:06.000Z</time>
      </trkpt>
      <trkpt lat="47.34087" lon="-1.30314">
        <ele>58</ele>
        <time>2014-10-31T10:04:08.000Z</time>
      </trkpt>
      <trkpt lat="47.34077" lon="-1.30325">
        <ele>59</ele>
        <time>2014-10-31T10:04:10.000Z</time>
      </trkpt>
      <trkpt lat="47.3407" lon="-1.30335">
        <ele>60</ele>
        <time>2014-10-31T10:04:12.000Z</time>
      </trkpt>
      <trkpt lat="47.34066" lon="-1.30349">
        <ele>60</ele>
        <time>2014-10-31T10:04:14.000Z</time>
      </trkpt>
      <trkpt lat="47.34061" lon="-1.30362">
        <ele>61</ele>
        <time>2014-10-31T10:04:16.000Z</time>
      </trkpt>
      <trkpt lat="47.34044" lon="-1.30377">
        <ele>61</ele>
        <time>2014-10-31T10:04:19.000Z</time>
      </trkpt>
      <trkpt lat="47.34035" lon="-1.30382">
        <ele>61</ele>
        <time>2014-10-31T10:04:21.000Z</time>
      </trkpt>
      <trkpt lat="47.34028" lon="-1.30392">
        <ele>62</ele>
        <time>2014-10-31T10:04:23.000Z</time>
      </trkpt>
      <trkpt lat="47.3402" lon="-1.30409">
        <ele>64</ele>
        <time>2014-10-31T10:04:25.000Z</time>
      </trkpt>
      <trkpt lat="47.34016" lon="-1.30424">
        <ele>64</ele>
        <time>2014-10-31T10:04:28.000Z</time>
      </trkpt>
      <trkpt lat="47.34014" lon="-1.30442">
        <ele>65</ele>
        <time>2014-10-31T10:04:29.000Z</time>
      </trkpt>
      <trkpt lat="47.34012" lon="-1.30459">
        <ele>66</ele>
        <time>2014-10-31T10:04:31.000Z</time>
      </trkpt>
      <trkpt lat="47.34011" lon="-1.30472">
        <ele>65</ele>
        <time>2014-10-31T10:04:33.000Z</time>
      </trkpt>
      <trkpt lat="47.34011" lon="-1.30487">
        <ele>65</ele>
        <time>2014-10-31T10:04:35.000Z</time>
      </trkpt>
      <trkpt lat="47.34013" lon="-1.30506">
        <ele>65</ele>
        <time>2014-10-31T10:04:38.000Z</time>
      </trkpt>
      <trkpt lat="47.34015" lon="-1.30521">
        <ele>67</ele>
        <time>2014-10-31T10:04:39.000Z</time>
      </trkpt>
      <trkpt lat="47.34012" lon="-1.30541">
        <ele>66</ele>
        <time>2014-10-31T10:04:42.000Z</time>
      </trkpt>
      <trkpt lat="47.34006" lon="-1.30561">
        <ele>64</ele>
        <time>2014-10-31T10:04:43.000Z</time>
      </trkpt>
      <trkpt lat="47.34001" lon="-1.30576">
        <ele>64</ele>
        <time>2014-10-31T10:04:45.000Z</time>
      </trkpt>
      <trkpt lat="47.33994" lon="-1.30589">
        <ele>61</ele>
        <time>2014-10-31T10:04:48.000Z</time>
      </trkpt>
      <trkpt lat="47.33992" lon="-1.30604">
        <ele>63</ele>
        <time>2014-10-31T10:04:49.000Z</time>
      </trkpt>
      <trkpt lat="47.33987" lon="-1.30615">
        <ele>64</ele>
        <time>2014-10-31T10:04:52.000Z</time>
      </trkpt>
      <trkpt lat="47.33982" lon="-1.30627">
        <ele>64</ele>
        <time>2014-10-31T10:04:54.000Z</time>
      </trkpt>
      <trkpt lat="47.33976" lon="-1.30639">
        <ele>65</ele>
        <time>2014-10-31T10:04:55.000Z</time>
      </trkpt>
      <trkpt lat="47.33971" lon="-1.30649">
        <ele>64</ele>
        <time>2014-10-31T10:04:57.000Z</time>
      </trkpt>
      <trkpt lat="47.33965" lon="-1.30656">
        <ele>64</ele>
        <time>2014-10-31T10:04:59.000Z</time>
      </trkpt>
      <trkpt lat="47.33959" lon="-1.30663">
        <ele>63</ele>
        <time>2014-10-31T10:05:01.000Z</time>
      </trkpt>
      <trkpt lat="47.33952" lon="-1.30672">
        <ele>62</ele>
        <time>2014-10-31T10:05:04.000Z</time>
      </trkpt>
      <trkpt lat="47.33948" lon="-1.30688">
        <ele>63</ele>
        <time>2014-10-31T10:05:05.000Z</time>
      </trkpt>
      <trkpt lat="47.33939" lon="-1.30698">
        <ele>62</ele>
        <time>2014-10-31T10:05:07.000Z</time>
      </trkpt>
      <trkpt lat="47.33931" lon="-1.3071">
        <ele>62</ele>
        <time>2014-10-31T10:05:10.000Z</time>
      </trkpt>
      <trkpt lat="47.33926" lon="-1.3072">
        <ele>61</ele>
        <time>2014-10-31T10:05:11.000Z</time>
      </trkpt>
      <trkpt lat="47.33919" lon="-1.30732">
        <ele>63</ele>
        <time>2014-10-31T10:05:13.000Z</time>
      </trkpt>
      <trkpt lat="47.33912" lon="-1.30738">
        <ele>62</ele>
        <time>2014-10-31T10:05:15.000Z</time>
      </trkpt>
      <trkpt lat="47.33907" lon="-1.30746">
        <ele>62</ele>
        <time>2014-10-31T10:05:17.000Z</time>
      </trkpt>
      <trkpt lat="47.33899" lon="-1.30753">
        <ele>62</ele>
        <time>2014-10-31T10:05:19.000Z</time>
      </trkpt>
      <trkpt lat="47.33893" lon="-1.3076">
        <ele>62</ele>
        <time>2014-10-31T10:05:21.000Z</time>
      </trkpt>
      <trkpt lat="47.33885" lon="-1.30767">
        <ele>63</ele>
        <time>2014-10-31T10:05:24.000Z</time>
      </trkpt>
      <trkpt lat="47.33878" lon="-1.30775">
        <ele>64</ele>
        <time>2014-10-31T10:05:25.000Z</time>
      </trkpt>
      <trkpt lat="47.3387" lon="-1.30784">
        <ele>63</ele>
        <time>2014-10-31T10:05:27.000Z</time>
      </trkpt>
      <trkpt lat="47.3386" lon="-1.30791">
        <ele>64</ele>
        <time>2014-10-31T10:05:29.000Z</time>
      </trkpt>
      <trkpt lat="47.33852" lon="-1.30799">
        <ele>64</ele>
        <time>2014-10-31T10:05:31.000Z</time>
      </trkpt>
      <trkpt lat="47.33843" lon="-1.30807">
        <ele>63</ele>
        <time>2014-10-31T10:05:33.000Z</time>
      </trkpt>
      <trkpt lat="47.33834" lon="-1.30817">
        <ele>62</ele>
        <time>2014-10-31T10:05:36.000Z</time>
      </trkpt>
      <trkpt lat="47.33825" lon="-1.30826">
        <ele>62</ele>
        <time>2014-10-31T10:05:37.000Z</time>
      </trkpt>
      <trkpt lat="47.33817" lon="-1.30833">
        <ele>65</ele>
        <time>2014-10-31T10:05:39.000Z</time>
      </trkpt>
      <trkpt lat="47.33809" lon="-1.30842">
        <ele>64</ele>
        <time>2014-10-31T10:05:41.000Z</time>
      </trkpt>
      <trkpt lat="47.338" lon="-1.30852">
        <ele>64</ele>
        <time>2014-10-31T10:05:43.000Z</time>
      </trkpt>
      <trkpt lat="47.33791" lon="-1.30859">
        <ele>64</ele>
        <time>2014-10-31T10:05:46.000Z</time>
      </trkpt>
      <trkpt lat="47.33781" lon="-1.30868">
        <ele>64</ele>
        <time>2014-10-31T10:05:48.000Z</time>
      </trkpt>
      <trkpt lat="47.33773" lon="-1.30874">
        <ele>65</ele>
        <time>2014-10-31T10:05:49.000Z</time>
      </trkpt>
      <trkpt lat="47.33764" lon="-1.30885">
        <ele>65</ele>
        <time>2014-10-31T10:05:51.000Z</time>
      </trkpt>
      <trkpt lat="47.33756" lon="-1.30893">
        <ele>65</ele>
        <time>2014-10-31T10:05:53.000Z</time>
      </trkpt>
      <trkpt lat="47.33747" lon="-1.30901">
        <ele>65</ele>
        <time>2014-10-31T10:05:56.000Z</time>
      </trkpt>
      <trkpt lat="47.33738" lon="-1.30909">
        <ele>69</ele>
        <time>2014-10-31T10:05:57.000Z</time>
      </trkpt>
      <trkpt lat="47.33731" lon="-1.30917">
        <ele>70</ele>
        <time>2014-10-31T10:06:00.000Z</time>
      </trkpt>
      <trkpt lat="47.33725" lon="-1.30927">
        <ele>68</ele>
        <time>2014-10-31T10:06:01.000Z</time>
      </trkpt>
      <trkpt lat="47.33717" lon="-1.30936">
        <ele>70</ele>
        <time>2014-10-31T10:06:03.000Z</time>
      </trkpt>
      <trkpt lat="47.3371" lon="-1.30946">
        <ele>69</ele>
        <time>2014-10-31T10:06:05.000Z</time>
      </trkpt>
      <trkpt lat="47.33703" lon="-1.30957">
        <ele>67</ele>
        <time>2014-10-31T10:06:08.000Z</time>
      </trkpt>
      <trkpt lat="47.33694" lon="-1.30966">
        <ele>67</ele>
        <time>2014-10-31T10:06:10.000Z</time>
      </trkpt>
      <trkpt lat="47.33686" lon="-1.30972">
        <ele>68</ele>
        <time>2014-10-31T10:06:11.000Z</time>
      </trkpt>
      <trkpt lat="47.33679" lon="-1.30982">
        <ele>68</ele>
        <time>2014-10-31T10:06:13.000Z</time>
      </trkpt>
      <trkpt lat="47.33673" lon="-1.3099">
        <ele>69</ele>
        <time>2014-10-31T10:06:15.000Z</time>
      </trkpt>
      <trkpt lat="47.33665" lon="-1.31005">
        <ele>70</ele>
        <time>2014-10-31T10:06:17.000Z</time>
      </trkpt>
      <trkpt lat="47.33656" lon="-1.31015">
        <ele>71</ele>
        <time>2014-10-31T10:06:20.000Z</time>
      </trkpt>
      <trkpt lat="47.33648" lon="-1.31028">
        <ele>71</ele>
        <time>2014-10-31T10:06:21.000Z</time>
      </trkpt>
      <trkpt lat="47.33641" lon="-1.31038">
        <ele>72</ele>
        <time>2014-10-31T10:06:23.000Z</time>
      </trkpt>
      <trkpt lat="47.33633" lon="-1.31049">
        <ele>70</ele>
        <time>2014-10-31T10:06:25.000Z</time>
      </trkpt>
      <trkpt lat="47.33625" lon="-1.31062">
        <ele>69</ele>
        <time>2014-10-31T10:06:27.000Z</time>
      </trkpt>
      <trkpt lat="47.33617" lon="-1.31073">
        <ele>69</ele>
        <time>2014-10-31T10:06:29.000Z</time>
      </trkpt>
      <trkpt lat="47.33609" lon="-1.31087">
        <ele>69</ele>
        <time>2014-10-31T10:06:31.000Z</time>
      </trkpt>
      <trkpt lat="47.33602" lon="-1.311">
        <ele>69</ele>
        <time>2014-10-31T10:06:33.000Z</time>
      </trkpt>
      <trkpt lat="47.33593" lon="-1.31112">
        <ele>69</ele>
        <time>2014-10-31T10:06:35.000Z</time>
      </trkpt>
      <trkpt lat="47.33587" lon="-1.31126">
        <ele>67</ele>
        <time>2014-10-31T10:06:37.000Z</time>
      </trkpt>
      <trkpt lat="47.33579" lon="-1.31139">
        <ele>68</ele>
        <time>2014-10-31T10:06:39.000Z</time>
      </trkpt>
      <trkpt lat="47.3357" lon="-1.31154">
        <ele>67</ele>
        <time>2014-10-31T10:06:41.000Z</time>
      </trkpt>
      <trkpt lat="47.33564" lon="-1.31168">
        <ele>67</ele>
        <time>2014-10-31T10:06:44.000Z</time>
      </trkpt>
      <trkpt lat="47.33558" lon="-1.31182">
        <ele>66</ele>
        <time>2014-10-31T10:06:45.000Z</time>
      </trkpt>
      <trkpt lat="47.33553" lon="-1.31197">
        <ele>65</ele>
        <time>2014-10-31T10:06:47.000Z</time>
      </trkpt>
      <trkpt lat="47.33547" lon="-1.31207">
        <ele>65</ele>
        <time>2014-10-31T10:06:49.000Z</time>
      </trkpt>
      <trkpt lat="47.33539" lon="-1.3122">
        <ele>64</ele>
        <time>2014-10-31T10:06:51.000Z</time>
      </trkpt>
      <trkpt lat="47.33531" lon="-1.31232">
        <ele>63</ele>
        <time>2014-10-31T10:06:53.000Z</time>
      </trkpt>
      <trkpt lat="47.33525" lon="-1.31243">
        <ele>63</ele>
        <time>2014-10-31T10:06:55.000Z</time>
      </trkpt>
      <trkpt lat="47.33519" lon="-1.31254">
        <ele>63</ele>
        <time>2014-10-31T10:06:57.000Z</time>
      </trkpt>
      <trkpt lat="47.33513" lon="-1.31264">
        <ele>64</ele>
        <time>2014-10-31T10:06:59.000Z</time>
      </trkpt>
      <trkpt lat="47.33507" lon="-1.31273">
        <ele>64</ele>
        <time>2014-10-31T10:07:01.000Z</time>
      </trkpt>
      <trkpt lat="47.33503" lon="-1.31285">
        <ele>65</ele>
        <time>2014-10-31T10:07:03.000Z</time>
      </trkpt>
      <trkpt lat="47.33496" lon="-1.31296">
        <ele>65</ele>
        <time>2014-10-31T10:07:05.000Z</time>
      </trkpt>
      <trkpt lat="47.33492" lon="-1.31309">
        <ele>64</ele>
        <time>2014-10-31T10:07:07.000Z</time>
      </trkpt>
      <trkpt lat="47.33485" lon="-1.31323">
        <ele>63</ele>
        <time>2014-10-31T10:07:09.000Z</time>
      </trkpt>
      <trkpt lat="47.33478" lon="-1.31336">
        <ele>62</ele>
        <time>2014-10-31T10:07:12.000Z</time>
      </trkpt>
      <trkpt lat="47.33471" lon="-1.31352">
        <ele>61</ele>
        <time>2014-10-31T10:07:14.000Z</time>
      </trkpt>
      <trkpt lat="47.33464" lon="-1.31367">
        <ele>60</ele>
        <time>2014-10-31T10:07:15.000Z</time>
      </trkpt>
      <trkpt lat="47.33458" lon="-1.3138">
        <ele>61</ele>
        <time>2014-10-31T10:07:17.000Z</time>
      </trkpt>
      <trkpt lat="47.33451" lon="-1.31395">
        <ele>60</ele>
        <time>2014-10-31T10:07:19.000Z</time>
      </trkpt>
      <trkpt lat="47.33445" lon="-1.31407">
        <ele>61</ele>
        <time>2014-10-31T10:07:22.000Z</time>
      </trkpt>
      <trkpt lat="47.3344" lon="-1.31419">
        <ele>61</ele>
        <time>2014-10-31T10:07:23.000Z</time>
      </trkpt>
      <trkpt lat="47.33433" lon="-1.3143">
        <ele>64</ele>
        <time>2014-10-31T10:07:25.000Z</time>
      </trkpt>
      <trkpt lat="47.33426" lon="-1.31442">
        <ele>63</ele>
        <time>2014-10-31T10:07:27.000Z</time>
      </trkpt>
      <trkpt lat="47.3342" lon="-1.31456">
        <ele>60</ele>
        <time>2014-10-31T10:07:29.000Z</time>
      </trkpt>
      <trkpt lat="47.33414" lon="-1.31471">
        <ele>59</ele>
        <time>2014-10-31T10:07:31.000Z</time>
      </trkpt>
      <trkpt lat="47.33411" lon="-1.31483">
        <ele>58</ele>
        <time>2014-10-31T10:07:33.000Z</time>
      </trkpt>
      <trkpt lat="47.33402" lon="-1.31496">
        <ele>58</ele>
        <time>2014-10-31T10:07:35.000Z</time>
      </trkpt>
      <trkpt lat="47.33395" lon="-1.3151">
        <ele>58</ele>
        <time>2014-10-31T10:07:37.000Z</time>
      </trkpt>
      <trkpt lat="47.33387" lon="-1.31522">
        <ele>59</ele>
        <time>2014-10-31T10:07:39.000Z</time>
      </trkpt>
      <trkpt lat="47.33381" lon="-1.31538">
        <ele>61</ele>
        <time>2014-10-31T10:07:41.000Z</time>
      </trkpt>
      <trkpt lat="47.33373" lon="-1.31554">
        <ele>62</ele>
        <time>2014-10-31T10:07:43.000Z</time>
      </trkpt>
      <trkpt lat="47.33366" lon="-1.31568">
        <ele>62</ele>
        <time>2014-10-31T10:07:45.000Z</time>
      </trkpt>
      <trkpt lat="47.33358" lon="-1.31581">
        <ele>63</ele>
        <time>2014-10-31T10:07:47.000Z</time>
      </trkpt>
      <trkpt lat="47.33351" lon="-1.31593">
        <ele>63</ele>
        <time>2014-10-31T10:07:49.000Z</time>
      </trkpt>
      <trkpt lat="47.33344" lon="-1.31607">
        <ele>63</ele>
        <time>2014-10-31T10:07:51.000Z</time>
      </trkpt>
      <trkpt lat="47.33335" lon="-1.3162">
        <ele>62</ele>
        <time>2014-10-31T10:07:53.000Z</time>
      </trkpt>
      <trkpt lat="47.33329" lon="-1.31631">
        <ele>64</ele>
        <time>2014-10-31T10:07:56.000Z</time>
      </trkpt>
      <trkpt lat="47.33324" lon="-1.31643">
        <ele>65</ele>
        <time>2014-10-31T10:07:58.000Z</time>
      </trkpt>
      <trkpt lat="47.33317" lon="-1.31656">
        <ele>65</ele>
        <time>2014-10-31T10:08:00.000Z</time>
      </trkpt>
      <trkpt lat="47.33311" lon="-1.31672">
        <ele>65</ele>
        <time>2014-10-31T10:08:01.000Z</time>
      </trkpt>
      <trkpt lat="47.33304" lon="-1.31685">
        <ele>65</ele>
        <time>2014-10-31T10:08:03.000Z</time>
      </trkpt>
      <trkpt lat="47.33297" lon="-1.31697">
        <ele>66</ele>
        <time>2014-10-31T10:08:06.000Z</time>
      </trkpt>
      <trkpt lat="47.3329" lon="-1.31711">
        <ele>65</ele>
        <time>2014-10-31T10:08:08.000Z</time>
      </trkpt>
      <trkpt lat="47.33282" lon="-1.31723">
        <ele>66</ele>
        <time>2014-10-31T10:08:10.000Z</time>
      </trkpt>
      <trkpt lat="47.33276" lon="-1.31735">
        <ele>65</ele>
        <time>2014-10-31T10:08:11.000Z</time>
      </trkpt>
      <trkpt lat="47.3327" lon="-1.31748">
        <ele>65</ele>
        <time>2014-10-31T10:08:13.000Z</time>
      </trkpt>
      <trkpt lat="47.33264" lon="-1.31759">
        <ele>65</ele>
        <time>2014-10-31T10:08:15.000Z</time>
      </trkpt>
      <trkpt lat="47.33257" lon="-1.31771">
        <ele>65</ele>
        <time>2014-10-31T10:08:18.000Z</time>
      </trkpt>
      <trkpt lat="47.33252" lon="-1.31785">
        <ele>64</ele>
        <time>2014-10-31T10:08:20.000Z</time>
      </trkpt>
      <trkpt lat="47.33244" lon="-1.31799">
        <ele>63</ele>
        <time>2014-10-31T10:08:22.000Z</time>
      </trkpt>
      <trkpt lat="47.33237" lon="-1.31811">
        <ele>63</ele>
        <time>2014-10-31T10:08:23.000Z</time>
      </trkpt>
      <trkpt lat="47.3323" lon="-1.31822">
        <ele>63</ele>
        <time>2014-10-31T10:08:26.000Z</time>
      </trkpt>
      <trkpt lat="47.33224" lon="-1.31834">
        <ele>63</ele>
        <time>2014-10-31T10:08:28.000Z</time>
      </trkpt>
      <trkpt lat="47.33219" lon="-1.31844">
        <ele>62</ele>
        <time>2014-10-31T10:08:29.000Z</time>
      </trkpt>
      <trkpt lat="47.33213" lon="-1.31859">
        <ele>61</ele>
        <time>2014-10-31T10:08:32.000Z</time>
      </trkpt>
      <trkpt lat="47.33206" lon="-1.31872">
        <ele>61</ele>
        <time>2014-10-31T10:08:33.000Z</time>
      </trkpt>
      <trkpt lat="47.332" lon="-1.31885">
        <ele>61</ele>
        <time>2014-10-31T10:08:35.000Z</time>
      </trkpt>
      <trkpt lat="47.33194" lon="-1.31897">
        <ele>61</ele>
        <time>2014-10-31T10:08:37.000Z</time>
      </trkpt>
      <trkpt lat="47.33187" lon="-1.31909">
        <ele>61</ele>
        <time>2014-10-31T10:08:40.000Z</time>
      </trkpt>
      <trkpt lat="47.33181" lon="-1.31921">
        <ele>62</ele>
        <time>2014-10-31T10:08:42.000Z</time>
      </trkpt>
      <trkpt lat="47.33175" lon="-1.31933">
        <ele>61</ele>
        <time>2014-10-31T10:08:44.000Z</time>
      </trkpt>
      <trkpt lat="47.33169" lon="-1.31945">
        <ele>61</ele>
        <time>2014-10-31T10:08:45.000Z</time>
      </trkpt>
      <trkpt lat="47.33164" lon="-1.31955">
        <ele>61</ele>
        <time>2014-10-31T10:08:47.000Z</time>
      </trkpt>
      <trkpt lat="47.33158" lon="-1.31965">
        <ele>62</ele>
        <time>2014-10-31T10:08:49.000Z</time>
      </trkpt>
      <trkpt lat="47.33152" lon="-1.31973">
        <ele>63</ele>
        <time>2014-10-31T10:08:51.000Z</time>
      </trkpt>
      <trkpt lat="47.33145" lon="-1.31978">
        <ele>63</ele>
        <time>2014-10-31T10:08:53.000Z</time>
      </trkpt>
      <trkpt lat="47.33138" lon="-1.31982">
        <ele>63</ele>
        <time>2014-10-31T10:08:55.000Z</time>
      </trkpt>
      <trkpt lat="47.33129" lon="-1.31987">
        <ele>63</ele>
        <time>2014-10-31T10:08:57.000Z</time>
      </trkpt>
      <trkpt lat="47.33121" lon="-1.31994">
        <ele>63</ele>
        <time>2014-10-31T10:08:59.000Z</time>
      </trkpt>
      <trkpt lat="47.33114" lon="-1.32002">
        <ele>63</ele>
        <time>2014-10-31T10:09:01.000Z</time>
      </trkpt>
      <trkpt lat="47.33108" lon="-1.32011">
        <ele>63</ele>
        <time>2014-10-31T10:09:04.000Z</time>
      </trkpt>
      <trkpt lat="47.33103" lon="-1.32022">
        <ele>64</ele>
        <time>2014-10-31T10:09:05.000Z</time>
      </trkpt>
      <trkpt lat="47.33099" lon="-1.3203">
        <ele>64</ele>
        <time>2014-10-31T10:09:07.000Z</time>
      </trkpt>
      <trkpt lat="47.33092" lon="-1.32037">
        <ele>64</ele>
        <time>2014-10-31T10:09:09.000Z</time>
      </trkpt>
      <trkpt lat="47.3309" lon="-1.32047">
        <ele>64</ele>
        <time>2014-10-31T10:09:11.000Z</time>
      </trkpt>
      <trkpt lat="47.3309" lon="-1.32057">
        <ele>63</ele>
        <time>2014-10-31T10:09:13.000Z</time>
      </trkpt>
      <trkpt lat="47.33092" lon="-1.32074">
        <ele>62</ele>
        <time>2014-10-31T10:09:16.000Z</time>
      </trkpt>
      <trkpt lat="47.33088" lon="-1.3209">
        <ele>60</ele>
        <time>2014-10-31T10:09:18.000Z</time>
      </trkpt>
      <trkpt lat="47.33083" lon="-1.32099">
        <ele>63</ele>
        <time>2014-10-31T10:09:20.000Z</time>
      </trkpt>
      <trkpt lat="47.33055" lon="-1.32142">
        <ele>66</ele>
        <time>2014-10-31T10:09:26.000Z</time>
      </trkpt>
      <trkpt lat="47.33049" lon="-1.3216">
        <ele>64</ele>
        <time>2014-10-31T10:09:28.000Z</time>
      </trkpt>
      <trkpt lat="47.33042" lon="-1.32177">
        <ele>63</ele>
        <time>2014-10-31T10:09:29.000Z</time>
      </trkpt>
      <trkpt lat="47.33034" lon="-1.32193">
        <ele>64</ele>
        <time>2014-10-31T10:09:31.000Z</time>
      </trkpt>
      <trkpt lat="47.33025" lon="-1.32211">
        <ele>63</ele>
        <time>2014-10-31T10:09:34.000Z</time>
      </trkpt>
      <trkpt lat="47.33017" lon="-1.32228">
        <ele>62</ele>
        <time>2014-10-31T10:09:36.000Z</time>
      </trkpt>
      <trkpt lat="47.33009" lon="-1.32245">
        <ele>63</ele>
        <time>2014-10-31T10:09:38.000Z</time>
      </trkpt>
      <trkpt lat="47.33" lon="-1.32262">
        <ele>64</ele>
        <time>2014-10-31T10:09:40.000Z</time>
      </trkpt>
      <trkpt lat="47.32992" lon="-1.32278">
        <ele>63</ele>
        <time>2014-10-31T10:09:41.000Z</time>
      </trkpt>
      <trkpt lat="47.32983" lon="-1.32297">
        <ele>63</ele>
        <time>2014-10-31T10:09:43.000Z</time>
      </trkpt>
      <trkpt lat="47.32973" lon="-1.32314">
        <ele>62</ele>
        <time>2014-10-31T10:09:45.000Z</time>
      </trkpt>
      <trkpt lat="47.32963" lon="-1.32333">
        <ele>62</ele>
        <time>2014-10-31T10:09:48.000Z</time>
      </trkpt>
      <trkpt lat="47.32954" lon="-1.32351">
        <ele>63</ele>
        <time>2014-10-31T10:09:49.000Z</time>
      </trkpt>
      <trkpt lat="47.32945" lon="-1.32369">
        <ele>63</ele>
        <time>2014-10-31T10:09:51.000Z</time>
      </trkpt>
      <trkpt lat="47.32937" lon="-1.32388">
        <ele>64</ele>
        <time>2014-10-31T10:09:54.000Z</time>
      </trkpt>
      <trkpt lat="47.32928" lon="-1.32404">
        <ele>65</ele>
        <time>2014-10-31T10:09:55.000Z</time>
      </trkpt>
      <trkpt lat="47.32919" lon="-1.3242">
        <ele>66</ele>
        <time>2014-10-31T10:09:57.000Z</time>
      </trkpt>
      <trkpt lat="47.32911" lon="-1.32436">
        <ele>67</ele>
        <time>2014-10-31T10:09:59.000Z</time>
      </trkpt>
      <trkpt lat="47.32903" lon="-1.32452">
        <ele>66</ele>
        <time>2014-10-31T10:10:02.000Z</time>
      </trkpt>
      <trkpt lat="47.32895" lon="-1.32468">
        <ele>66</ele>
        <time>2014-10-31T10:10:03.000Z</time>
      </trkpt>
      <trkpt lat="47.32887" lon="-1.32484">
        <ele>66</ele>
        <time>2014-10-31T10:10:05.000Z</time>
      </trkpt>
      <trkpt lat="47.32878" lon="-1.32499">
        <ele>66</ele>
        <time>2014-10-31T10:10:08.000Z</time>
      </trkpt>
      <trkpt lat="47.32872" lon="-1.32516">
        <ele>65</ele>
        <time>2014-10-31T10:10:10.000Z</time>
      </trkpt>
      <trkpt lat="47.32864" lon="-1.3253">
        <ele>64</ele>
        <time>2014-10-31T10:10:12.000Z</time>
      </trkpt>
      <trkpt lat="47.32856" lon="-1.32545">
        <ele>64</ele>
        <time>2014-10-31T10:10:13.000Z</time>
      </trkpt>
      <trkpt lat="47.32848" lon="-1.32558">
        <ele>65</ele>
        <time>2014-10-31T10:10:15.000Z</time>
      </trkpt>
      <trkpt lat="47.32841" lon="-1.32572">
        <ele>65</ele>
        <time>2014-10-31T10:10:18.000Z</time>
      </trkpt>
      <trkpt lat="47.32835" lon="-1.32583">
        <ele>65</ele>
        <time>2014-10-31T10:10:20.000Z</time>
      </trkpt>
      <trkpt lat="47.32827" lon="-1.32596">
        <ele>67</ele>
        <time>2014-10-31T10:10:21.000Z</time>
      </trkpt>
      <trkpt lat="47.32821" lon="-1.3261">
        <ele>66</ele>
        <time>2014-10-31T10:10:23.000Z</time>
      </trkpt>
      <trkpt lat="47.32815" lon="-1.32618">
        <ele>65</ele>
        <time>2014-10-31T10:10:25.000Z</time>
      </trkpt>
      <trkpt lat="47.32808" lon="-1.32628">
        <ele>65</ele>
        <time>2014-10-31T10:10:27.000Z</time>
      </trkpt>
      <trkpt lat="47.32801" lon="-1.32637">
        <ele>64</ele>
        <time>2014-10-31T10:10:29.000Z</time>
      </trkpt>
      <trkpt lat="47.32794" lon="-1.32648">
        <ele>65</ele>
        <time>2014-10-31T10:10:31.000Z</time>
      </trkpt>
      <trkpt lat="47.32787" lon="-1.32659">
        <ele>65</ele>
        <time>2014-10-31T10:10:33.000Z</time>
      </trkpt>
      <trkpt lat="47.32782" lon="-1.32674">
        <ele>64</ele>
        <time>2014-10-31T10:10:35.000Z</time>
      </trkpt>
      <trkpt lat="47.32777" lon="-1.32686">
        <ele>66</ele>
        <time>2014-10-31T10:10:37.000Z</time>
      </trkpt>
      <trkpt lat="47.32774" lon="-1.32699">
        <ele>67</ele>
        <time>2014-10-31T10:10:39.000Z</time>
      </trkpt>
      <trkpt lat="47.32768" lon="-1.32711">
        <ele>67</ele>
        <time>2014-10-31T10:10:41.000Z</time>
      </trkpt>
      <trkpt lat="47.32762" lon="-1.32722">
        <ele>68</ele>
        <time>2014-10-31T10:10:43.000Z</time>
      </trkpt>
      <trkpt lat="47.32756" lon="-1.32733">
        <ele>68</ele>
        <time>2014-10-31T10:10:45.000Z</time>
      </trkpt>
      <trkpt lat="47.32751" lon="-1.32745">
        <ele>68</ele>
        <time>2014-10-31T10:10:47.000Z</time>
      </trkpt>
      <trkpt lat="47.32744" lon="-1.32756">
        <ele>68</ele>
        <time>2014-10-31T10:10:49.000Z</time>
      </trkpt>
      <trkpt lat="47.32738" lon="-1.32766">
        <ele>69</ele>
        <time>2014-10-31T10:10:52.000Z</time>
      </trkpt>
      <trkpt lat="47.32732" lon="-1.32777">
        <ele>69</ele>
        <time>2014-10-31T10:10:53.000Z</time>
      </trkpt>
      <trkpt lat="47.32726" lon="-1.32789">
        <ele>68</ele>
        <time>2014-10-31T10:10:56.000Z</time>
      </trkpt>
      <trkpt lat="47.32719" lon="-1.32801">
        <ele>68</ele>
        <time>2014-10-31T10:10:57.000Z</time>
      </trkpt>
      <trkpt lat="47.32711" lon="-1.32809">
        <ele>68</ele>
        <time>2014-10-31T10:10:59.000Z</time>
      </trkpt>
      <trkpt lat="47.32705" lon="-1.3282">
        <ele>67</ele>
        <time>2014-10-31T10:11:02.000Z</time>
      </trkpt>
      <trkpt lat="47.32699" lon="-1.32832">
        <ele>66</ele>
        <time>2014-10-31T10:11:03.000Z</time>
      </trkpt>
      <trkpt lat="47.32692" lon="-1.32841">
        <ele>67</ele>
        <time>2014-10-31T10:11:06.000Z</time>
      </trkpt>
      <trkpt lat="47.32686" lon="-1.3285">
        <ele>67</ele>
        <time>2014-10-31T10:11:07.000Z</time>
      </trkpt>
      <trkpt lat="47.3268" lon="-1.3286">
        <ele>68</ele>
        <time>2014-10-31T10:11:09.000Z</time>
      </trkpt>
      <trkpt lat="47.32673" lon="-1.3287">
        <ele>68</ele>
        <time>2014-10-31T10:11:11.000Z</time>
      </trkpt>
      <trkpt lat="47.32666" lon="-1.32882">
        <ele>67</ele>
        <time>2014-10-31T10:11:13.000Z</time>
      </trkpt>
      <trkpt lat="47.3266" lon="-1.32893">
        <ele>67</ele>
        <time>2014-10-31T10:11:15.000Z</time>
      </trkpt>
      <trkpt lat="47.32655" lon="-1.32902">
        <ele>66</ele>
        <time>2014-10-31T10:11:17.000Z</time>
      </trkpt>
      <trkpt lat="47.32648" lon="-1.32912">
        <ele>66</ele>
        <time>2014-10-31T10:11:19.000Z</time>
      </trkpt>
      <trkpt lat="47.32639" lon="-1.3292">
        <ele>65</ele>
        <time>2014-10-31T10:11:21.000Z</time>
      </trkpt>
      <trkpt lat="47.3263" lon="-1.32924">
        <ele>63</ele>
        <time>2014-10-31T10:11:23.000Z</time>
      </trkpt>
      <trkpt lat="47.32621" lon="-1.3293">
        <ele>64</ele>
        <time>2014-10-31T10:11:26.000Z</time>
      </trkpt>
      <trkpt lat="47.32613" lon="-1.3294">
        <ele>64</ele>
        <time>2014-10-31T10:11:28.000Z</time>
      </trkpt>
      <trkpt lat="47.32607" lon="-1.32952">
        <ele>63</ele>
        <time>2014-10-31T10:11:30.000Z</time>
      </trkpt>
      <trkpt lat="47.32601" lon="-1.32962">
        <ele>63</ele>
        <time>2014-10-31T10:11:31.000Z</time>
      </trkpt>
      <trkpt lat="47.32594" lon="-1.32973">
        <ele>63</ele>
        <time>2014-10-31T10:11:33.000Z</time>
      </trkpt>
      <trkpt lat="47.32588" lon="-1.32983">
        <ele>64</ele>
        <time>2014-10-31T10:11:35.000Z</time>
      </trkpt>
      <trkpt lat="47.32581" lon="-1.32992">
        <ele>66</ele>
        <time>2014-10-31T10:11:38.000Z</time>
      </trkpt>
      <trkpt lat="47.32575" lon="-1.32998">
        <ele>66</ele>
        <time>2014-10-31T10:11:40.000Z</time>
      </trkpt>
      <trkpt lat="47.32568" lon="-1.33002">
        <ele>66</ele>
        <time>2014-10-31T10:11:41.000Z</time>
      </trkpt>
      <trkpt lat="47.32562" lon="-1.33009">
        <ele>66</ele>
        <time>2014-10-31T10:11:43.000Z</time>
      </trkpt>
      <trkpt lat="47.32555" lon="-1.33016">
        <ele>65</ele>
        <time>2014-10-31T10:11:46.000Z</time>
      </trkpt>
      <trkpt lat="47.32548" lon="-1.33023">
        <ele>65</ele>
        <time>2014-10-31T10:11:48.000Z</time>
      </trkpt>
      <trkpt lat="47.32538" lon="-1.33031">
        <ele>63</ele>
        <time>2014-10-31T10:11:50.000Z</time>
      </trkpt>
      <trkpt lat="47.32528" lon="-1.33039">
        <ele>62</ele>
        <time>2014-10-31T10:11:51.000Z</time>
      </trkpt>
      <trkpt lat="47.32516" lon="-1.33049">
        <ele>61</ele>
        <time>2014-10-31T10:11:53.000Z</time>
      </trkpt>
      <trkpt lat="47.32505" lon="-1.33059">
        <ele>61</ele>
        <time>2014-10-31T10:11:55.000Z</time>
      </trkpt>
      <trkpt lat="47.32494" lon="-1.33069">
        <ele>61</ele>
        <time>2014-10-31T10:11:57.000Z</time>
      </trkpt>
      <trkpt lat="47.32484" lon="-1.3308">
        <ele>60</ele>
        <time>2014-10-31T10:12:00.000Z</time>
      </trkpt>
      <trkpt lat="47.32475" lon="-1.33089">
        <ele>59</ele>
        <time>2014-10-31T10:12:01.000Z</time>
      </trkpt>
      <trkpt lat="47.32467" lon="-1.33099">
        <ele>59</ele>
        <time>2014-10-31T10:12:04.000Z</time>
      </trkpt>
      <trkpt lat="47.32459" lon="-1.33109">
        <ele>61</ele>
        <time>2014-10-31T10:12:05.000Z</time>
      </trkpt>
      <trkpt lat="47.32451" lon="-1.3312">
        <ele>61</ele>
        <time>2014-10-31T10:12:08.000Z</time>
      </trkpt>
      <trkpt lat="47.32444" lon="-1.33131">
        <ele>60</ele>
        <time>2014-10-31T10:12:10.000Z</time>
      </trkpt>
      <trkpt lat="47.32436" lon="-1.33135">
        <ele>61</ele>
        <time>2014-10-31T10:12:11.000Z</time>
      </trkpt>
      <trkpt lat="47.32428" lon="-1.33138">
        <ele>64</ele>
        <time>2014-10-31T10:12:13.000Z</time>
      </trkpt>
      <trkpt lat="47.3242" lon="-1.33137">
        <ele>65</ele>
        <time>2014-10-31T10:12:15.000Z</time>
      </trkpt>
      <trkpt lat="47.32413" lon="-1.33139">
        <ele>65</ele>
        <time>2014-10-31T10:12:17.000Z</time>
      </trkpt>
      <trkpt lat="47.32407" lon="-1.33149">
        <ele>65</ele>
        <time>2014-10-31T10:12:19.000Z</time>
      </trkpt>
      <trkpt lat="47.32399" lon="-1.33159">
        <ele>65</ele>
        <time>2014-10-31T10:12:21.000Z</time>
      </trkpt>
      <trkpt lat="47.32392" lon="-1.33169">
        <ele>66</ele>
        <time>2014-10-31T10:12:24.000Z</time>
      </trkpt>
      <trkpt lat="47.32385" lon="-1.33178">
        <ele>66</ele>
        <time>2014-10-31T10:12:25.000Z</time>
      </trkpt>
      <trkpt lat="47.3238" lon="-1.33188">
        <ele>66</ele>
        <time>2014-10-31T10:12:27.000Z</time>
      </trkpt>
      <trkpt lat="47.32373" lon="-1.33193">
        <ele>67</ele>
        <time>2014-10-31T10:12:30.000Z</time>
      </trkpt>
      <trkpt lat="47.32367" lon="-1.33203">
        <ele>68</ele>
        <time>2014-10-31T10:12:31.000Z</time>
      </trkpt>
      <trkpt lat="47.32362" lon="-1.33212">
        <ele>70</ele>
        <time>2014-10-31T10:12:34.000Z</time>
      </trkpt>
      <trkpt lat="47.32357" lon="-1.33221">
        <ele>70</ele>
        <time>2014-10-31T10:12:36.000Z</time>
      </trkpt>
      <trkpt lat="47.32351" lon="-1.33234">
        <ele>69</ele>
        <time>2014-10-31T10:12:37.000Z</time>
      </trkpt>
      <trkpt lat="47.32347" lon="-1.33248">
        <ele>68</ele>
        <time>2014-10-31T10:12:39.000Z</time>
      </trkpt>
      <trkpt lat="47.32341" lon="-1.33264">
        <ele>68</ele>
        <time>2014-10-31T10:12:41.000Z</time>
      </trkpt>
      <trkpt lat="47.32335" lon="-1.33278">
        <ele>68</ele>
        <time>2014-10-31T10:12:44.000Z</time>
      </trkpt>
      <trkpt lat="47.32329" lon="-1.33291">
        <ele>69</ele>
        <time>2014-10-31T10:12:45.000Z</time>
      </trkpt>
      <trkpt lat="47.32322" lon="-1.3331">
        <ele>69</ele>
        <time>2014-10-31T10:12:47.000Z</time>
      </trkpt>
      <trkpt lat="47.32316" lon="-1.33325">
        <ele>69</ele>
        <time>2014-10-31T10:12:49.000Z</time>
      </trkpt>
      <trkpt lat="47.32311" lon="-1.33341">
        <ele>70</ele>
        <time>2014-10-31T10:12:52.000Z</time>
      </trkpt>
      <trkpt lat="47.32304" lon="-1.33355">
        <ele>69</ele>
        <time>2014-10-31T10:12:53.000Z</time>
      </trkpt>
      <trkpt lat="47.32298" lon="-1.3337">
        <ele>68</ele>
        <time>2014-10-31T10:12:55.000Z</time>
      </trkpt>
      <trkpt lat="47.32291" lon="-1.33382">
        <ele>67</ele>
        <time>2014-10-31T10:12:57.000Z</time>
      </trkpt>
      <trkpt lat="47.32285" lon="-1.33397">
        <ele>69</ele>
        <time>2014-10-31T10:12:59.000Z</time>
      </trkpt>
      <trkpt lat="47.3228" lon="-1.33409">
        <ele>68</ele>
        <time>2014-10-31T10:13:01.000Z</time>
      </trkpt>
      <trkpt lat="47.32274" lon="-1.33422">
        <ele>67</ele>
        <time>2014-10-31T10:13:03.000Z</time>
      </trkpt>
      <trkpt lat="47.32269" lon="-1.33435">
        <ele>66</ele>
        <time>2014-10-31T10:13:05.000Z</time>
      </trkpt>
      <trkpt lat="47.32262" lon="-1.33446">
        <ele>67</ele>
        <time>2014-10-31T10:13:07.000Z</time>
      </trkpt>
      <trkpt lat="47.32256" lon="-1.33459">
        <ele>66</ele>
        <time>2014-10-31T10:13:10.000Z</time>
      </trkpt>
      <trkpt lat="47.32251" lon="-1.33471">
        <ele>66</ele>
        <time>2014-10-31T10:13:11.000Z</time>
      </trkpt>
      <trkpt lat="47.32245" lon="-1.33484">
        <ele>65</ele>
        <time>2014-10-31T10:13:13.000Z</time>
      </trkpt>
      <trkpt lat="47.32238" lon="-1.33498">
        <ele>65</ele>
        <time>2014-10-31T10:13:16.000Z</time>
      </trkpt>
      <trkpt lat="47.32231" lon="-1.3351">
        <ele>64</ele>
        <time>2014-10-31T10:13:18.000Z</time>
      </trkpt>
      <trkpt lat="47.32225" lon="-1.33524">
        <ele>65</ele>
        <time>2014-10-31T10:13:20.000Z</time>
      </trkpt>
      <trkpt lat="47.32219" lon="-1.33537">
        <ele>65</ele>
        <time>2014-10-31T10:13:21.000Z</time>
      </trkpt>
      <trkpt lat="47.32214" lon="-1.33551">
        <ele>65</ele>
        <time>2014-10-31T10:13:23.000Z</time>
      </trkpt>
      <trkpt lat="47.32208" lon="-1.33566">
        <ele>65</ele>
        <time>2014-10-31T10:13:26.000Z</time>
      </trkpt>
      <trkpt lat="47.32203" lon="-1.33579">
        <ele>64</ele>
        <time>2014-10-31T10:13:28.000Z</time>
      </trkpt>
      <trkpt lat="47.32198" lon="-1.33593">
        <ele>63</ele>
        <time>2014-10-31T10:13:30.000Z</time>
      </trkpt>
      <trkpt lat="47.32191" lon="-1.33606">
        <ele>65</ele>
        <time>2014-10-31T10:13:31.000Z</time>
      </trkpt>
      <trkpt lat="47.32185" lon="-1.33618">
        <ele>65</ele>
        <time>2014-10-31T10:13:33.000Z</time>
      </trkpt>
      <trkpt lat="47.3218" lon="-1.3363">
        <ele>65</ele>
        <time>2014-10-31T10:13:36.000Z</time>
      </trkpt>
      <trkpt lat="47.32176" lon="-1.33645">
        <ele>66</ele>
        <time>2014-10-31T10:13:38.000Z</time>
      </trkpt>
      <trkpt lat="47.32171" lon="-1.3366">
        <ele>65</ele>
        <time>2014-10-31T10:13:40.000Z</time>
      </trkpt>
      <trkpt lat="47.32166" lon="-1.33675">
        <ele>66</ele>
        <time>2014-10-31T10:13:41.000Z</time>
      </trkpt>
      <trkpt lat="47.32162" lon="-1.33691">
        <ele>67</ele>
        <time>2014-10-31T10:13:43.000Z</time>
      </trkpt>
      <trkpt lat="47.32157" lon="-1.33703">
        <ele>68</ele>
        <time>2014-10-31T10:13:45.000Z</time>
      </trkpt>
      <trkpt lat="47.32149" lon="-1.33714">
        <ele>69</ele>
        <time>2014-10-31T10:13:48.000Z</time>
      </trkpt>
      <trkpt lat="47.32144" lon="-1.33727">
        <ele>69</ele>
        <time>2014-10-31T10:13:50.000Z</time>
      </trkpt>
      <trkpt lat="47.32137" lon="-1.33741">
        <ele>68</ele>
        <time>2014-10-31T10:13:52.000Z</time>
      </trkpt>
      <trkpt lat="47.32131" lon="-1.33755">
        <ele>69</ele>
        <time>2014-10-31T10:13:53.000Z</time>
      </trkpt>
      <trkpt lat="47.32125" lon="-1.33766">
        <ele>69</ele>
        <time>2014-10-31T10:13:56.000Z</time>
      </trkpt>
      <trkpt lat="47.32121" lon="-1.33777">
        <ele>68</ele>
        <time>2014-10-31T10:13:58.000Z</time>
      </trkpt>
      <trkpt lat="47.32113" lon="-1.3379">
        <ele>68</ele>
        <time>2014-10-31T10:13:59.000Z</time>
      </trkpt>
      <trkpt lat="47.32107" lon="-1.33804">
        <ele>68</ele>
        <time>2014-10-31T10:14:01.000Z</time>
      </trkpt>
      <trkpt lat="47.32102" lon="-1.33816">
        <ele>69</ele>
        <time>2014-10-31T10:14:03.000Z</time>
      </trkpt>
      <trkpt lat="47.32096" lon="-1.33828">
        <ele>69</ele>
        <time>2014-10-31T10:14:05.000Z</time>
      </trkpt>
      <trkpt lat="47.32089" lon="-1.33841">
        <ele>68</ele>
        <time>2014-10-31T10:14:07.000Z</time>
      </trkpt>
      <trkpt lat="47.32083" lon="-1.33854">
        <ele>67</ele>
        <time>2014-10-31T10:14:10.000Z</time>
      </trkpt>
      <trkpt lat="47.32077" lon="-1.33865">
        <ele>67</ele>
        <time>2014-10-31T10:14:12.000Z</time>
      </trkpt>
      <trkpt lat="47.32072" lon="-1.33878">
        <ele>67</ele>
        <time>2014-10-31T10:14:13.000Z</time>
      </trkpt>
      <trkpt lat="47.32064" lon="-1.3389">
        <ele>67</ele>
        <time>2014-10-31T10:14:15.000Z</time>
      </trkpt>
      <trkpt lat="47.32057" lon="-1.33904">
        <ele>66</ele>
        <time>2014-10-31T10:14:18.000Z</time>
      </trkpt>
      <trkpt lat="47.3205" lon="-1.33914">
        <ele>65</ele>
        <time>2014-10-31T10:14:20.000Z</time>
      </trkpt>
      <trkpt lat="47.32042" lon="-1.33925">
        <ele>63</ele>
        <time>2014-10-31T10:14:22.000Z</time>
      </trkpt>
      <trkpt lat="47.32036" lon="-1.33939">
        <ele>63</ele>
        <time>2014-10-31T10:14:23.000Z</time>
      </trkpt>
      <trkpt lat="47.32031" lon="-1.3395">
        <ele>63</ele>
        <time>2014-10-31T10:14:25.000Z</time>
      </trkpt>
      <trkpt lat="47.32027" lon="-1.33959">
        <ele>65</ele>
        <time>2014-10-31T10:14:27.000Z</time>
      </trkpt>
      <trkpt lat="47.32022" lon="-1.33968">
        <ele>65</ele>
        <time>2014-10-31T10:14:29.000Z</time>
      </trkpt>
      <trkpt lat="47.32015" lon="-1.33977">
        <ele>65</ele>
        <time>2014-10-31T10:14:32.000Z</time>
      </trkpt>
      <trkpt lat="47.3201" lon="-1.33987">
        <ele>64</ele>
        <time>2014-10-31T10:14:33.000Z</time>
      </trkpt>
      <trkpt lat="47.32002" lon="-1.33998">
        <ele>63</ele>
        <time>2014-10-31T10:14:35.000Z</time>
      </trkpt>
      <trkpt lat="47.31995" lon="-1.34007">
        <ele>63</ele>
        <time>2014-10-31T10:14:37.000Z</time>
      </trkpt>
      <trkpt lat="47.3199" lon="-1.34016">
        <ele>63</ele>
        <time>2014-10-31T10:14:39.000Z</time>
      </trkpt>
      <trkpt lat="47.31985" lon="-1.34026">
        <ele>63</ele>
        <time>2014-10-31T10:14:41.000Z</time>
      </trkpt>
      <trkpt lat="47.31978" lon="-1.34035">
        <ele>63</ele>
        <time>2014-10-31T10:14:43.000Z</time>
      </trkpt>
      <trkpt lat="47.31974" lon="-1.34044">
        <ele>63</ele>
        <time>2014-10-31T10:14:46.000Z</time>
      </trkpt>
      <trkpt lat="47.31967" lon="-1.34056">
        <ele>64</ele>
        <time>2014-10-31T10:14:47.000Z</time>
      </trkpt>
      <trkpt lat="47.31961" lon="-1.34064">
        <ele>65</ele>
        <time>2014-10-31T10:14:49.000Z</time>
      </trkpt>
      <trkpt lat="47.31956" lon="-1.34075">
        <ele>65</ele>
        <time>2014-10-31T10:14:51.000Z</time>
      </trkpt>
      <trkpt lat="47.31948" lon="-1.34084">
        <ele>66</ele>
        <time>2014-10-31T10:14:53.000Z</time>
      </trkpt>
      <trkpt lat="47.31942" lon="-1.34097">
        <ele>66</ele>
        <time>2014-10-31T10:14:56.000Z</time>
      </trkpt>
      <trkpt lat="47.31936" lon="-1.34108">
        <ele>66</ele>
        <time>2014-10-31T10:14:57.000Z</time>
      </trkpt>
      <trkpt lat="47.31931" lon="-1.34117">
        <ele>66</ele>
        <time>2014-10-31T10:14:59.000Z</time>
      </trkpt>
      <trkpt lat="47.31925" lon="-1.34124">
        <ele>64</ele>
        <time>2014-10-31T10:15:01.000Z</time>
      </trkpt>
      <trkpt lat="47.31919" lon="-1.34134">
        <ele>65</ele>
        <time>2014-10-31T10:15:03.000Z</time>
      </trkpt>
      <trkpt lat="47.31908" lon="-1.34148">
        <ele>65</ele>
        <time>2014-10-31T10:15:06.000Z</time>
      </trkpt>
      <trkpt lat="47.31902" lon="-1.34157">
        <ele>65</ele>
        <time>2014-10-31T10:15:08.000Z</time>
      </trkpt>
      <trkpt lat="47.31893" lon="-1.34169">
        <ele>64</ele>
        <time>2014-10-31T10:15:10.000Z</time>
      </trkpt>
      <trkpt lat="47.31884" lon="-1.34182">
        <ele>64</ele>
        <time>2014-10-31T10:15:13.000Z</time>
      </trkpt>
      <trkpt lat="47.31876" lon="-1.34194">
        <ele>63</ele>
        <time>2014-10-31T10:15:14.000Z</time>
      </trkpt>
      <trkpt lat="47.31868" lon="-1.34207">
        <ele>64</ele>
        <time>2014-10-31T10:15:16.000Z</time>
      </trkpt>
      <trkpt lat="47.31858" lon="-1.34221">
        <ele>63</ele>
        <time>2014-10-31T10:15:19.000Z</time>
      </trkpt>
      <trkpt lat="47.31849" lon="-1.34229">
        <ele>62</ele>
        <time>2014-10-31T10:15:20.000Z</time>
      </trkpt>
      <trkpt lat="47.31841" lon="-1.34243">
        <ele>63</ele>
        <time>2014-10-31T10:15:22.000Z</time>
      </trkpt>
      <trkpt lat="47.31834" lon="-1.34257">
        <ele>65</ele>
        <time>2014-10-31T10:15:26.000Z</time>
      </trkpt>
      <trkpt lat="47.31826" lon="-1.34269">
        <ele>65</ele>
        <time>2014-10-31T10:15:27.000Z</time>
      </trkpt>
      <trkpt lat="47.31818" lon="-1.34282">
        <ele>64</ele>
        <time>2014-10-31T10:15:30.000Z</time>
      </trkpt>
      <trkpt lat="47.31812" lon="-1.34294">
        <ele>64</ele>
        <time>2014-10-31T10:15:31.000Z</time>
      </trkpt>
      <trkpt lat="47.31804" lon="-1.34304">
        <ele>64</ele>
        <time>2014-10-31T10:15:33.000Z</time>
      </trkpt>
      <trkpt lat="47.31797" lon="-1.34316">
        <ele>66</ele>
        <time>2014-10-31T10:15:36.000Z</time>
      </trkpt>
      <trkpt lat="47.31789" lon="-1.34328">
        <ele>65</ele>
        <time>2014-10-31T10:15:38.000Z</time>
      </trkpt>
      <trkpt lat="47.31782" lon="-1.3434">
        <ele>66</ele>
        <time>2014-10-31T10:15:39.000Z</time>
      </trkpt>
      <trkpt lat="47.31777" lon="-1.34349">
        <ele>65</ele>
        <time>2014-10-31T10:15:42.000Z</time>
      </trkpt>
      <trkpt lat="47.31771" lon="-1.34358">
        <ele>67</ele>
        <time>2014-10-31T10:15:43.000Z</time>
      </trkpt>
      <trkpt lat="47.31765" lon="-1.3437">
        <ele>66</ele>
        <time>2014-10-31T10:15:45.000Z</time>
      </trkpt>
      <trkpt lat="47.31758" lon="-1.3438">
        <ele>65</ele>
        <time>2014-10-31T10:15:48.000Z</time>
      </trkpt>
      <trkpt lat="47.3175" lon="-1.34392">
        <ele>68</ele>
        <time>2014-10-31T10:15:49.000Z</time>
      </trkpt>
      <trkpt lat="47.31743" lon="-1.34401">
        <ele>65</ele>
        <time>2014-10-31T10:15:52.000Z</time>
      </trkpt>
      <trkpt lat="47.31737" lon="-1.34411">
        <ele>64</ele>
        <time>2014-10-31T10:15:54.000Z</time>
      </trkpt>
      <trkpt lat="47.3173" lon="-1.34421">
        <ele>65</ele>
        <time>2014-10-31T10:15:56.000Z</time>
      </trkpt>
      <trkpt lat="47.31724" lon="-1.3443">
        <ele>64</ele>
        <time>2014-10-31T10:15:57.000Z</time>
      </trkpt>
      <trkpt lat="47.31719" lon="-1.3444">
        <ele>66</ele>
        <time>2014-10-31T10:16:00.000Z</time>
      </trkpt>
      <trkpt lat="47.31711" lon="-1.34452">
        <ele>66</ele>
        <time>2014-10-31T10:16:02.000Z</time>
      </trkpt>
      <trkpt lat="47.31705" lon="-1.34463">
        <ele>65</ele>
        <time>2014-10-31T10:16:04.000Z</time>
      </trkpt>
      <trkpt lat="47.31699" lon="-1.34473">
        <ele>64</ele>
        <time>2014-10-31T10:16:05.000Z</time>
      </trkpt>
      <trkpt lat="47.31692" lon="-1.34483">
        <ele>64</ele>
        <time>2014-10-31T10:16:07.000Z</time>
      </trkpt>
      <trkpt lat="47.31686" lon="-1.34493">
        <ele>63</ele>
        <time>2014-10-31T10:16:10.000Z</time>
      </trkpt>
      <trkpt lat="47.31678" lon="-1.34503">
        <ele>64</ele>
        <time>2014-10-31T10:16:11.000Z</time>
      </trkpt>
      <trkpt lat="47.31672" lon="-1.34513">
        <ele>64</ele>
        <time>2014-10-31T10:16:14.000Z</time>
      </trkpt>
      <trkpt lat="47.31665" lon="-1.34523">
        <ele>63</ele>
        <time>2014-10-31T10:16:16.000Z</time>
      </trkpt>
      <trkpt lat="47.31659" lon="-1.34534">
        <ele>60</ele>
        <time>2014-10-31T10:16:18.000Z</time>
      </trkpt>
      <trkpt lat="47.31653" lon="-1.34543">
        <ele>60</ele>
        <time>2014-10-31T10:16:19.000Z</time>
      </trkpt>
      <trkpt lat="47.31653" lon="-1.34543">
        <ele>60</ele>
        <time>2014-10-31T10:16:21.000Z</time>
      </trkpt>
      <trkpt lat="47.3165" lon="-1.34555">
        <ele>59</ele>
        <time>2014-10-31T10:16:23.000Z</time>
      </trkpt>
      <trkpt lat="47.31655" lon="-1.3456">
        <ele>60</ele>
        <time>2014-10-31T10:16:25.000Z</time>
      </trkpt>
      <trkpt lat="47.31655" lon="-1.3456">
        <ele>60</ele>
        <time>2014-10-31T10:16:27.000Z</time>
      </trkpt>
      <trkpt lat="47.31659" lon="-1.34568">
        <ele>60</ele>
        <time>2014-10-31T10:16:29.000Z</time>
      </trkpt>
      <trkpt lat="47.31659" lon="-1.34568">
        <ele>60</ele>
        <time>2014-10-31T10:16:32.000Z</time>
      </trkpt>
      <trkpt lat="47.31669" lon="-1.34571">
        <ele>62</ele>
        <time>2014-10-31T10:16:34.000Z</time>
      </trkpt>
      <trkpt lat="47.31678" lon="-1.34565">
        <ele>63</ele>
        <time>2014-10-31T10:16:37.000Z</time>
      </trkpt>
      <trkpt lat="47.31687" lon="-1.3456">
        <ele>64</ele>
        <time>2014-10-31T10:16:41.000Z</time>
      </trkpt>
      <trkpt lat="47.31693" lon="-1.34555">
        <ele>65</ele>
        <time>2014-10-31T10:16:45.000Z</time>
      </trkpt>
      <trkpt lat="47.31693" lon="-1.34555">
        <ele>65</ele>
        <time>2014-10-31T10:16:47.000Z</time>
      </trkpt>
      <trkpt lat="47.31699" lon="-1.34548">
        <ele>68</ele>
        <time>2014-10-31T10:16:49.000Z</time>
      </trkpt>
      <trkpt lat="47.31706" lon="-1.34542">
        <ele>70</ele>
        <time>2014-10-31T10:16:54.000Z</time>
      </trkpt>
      <trkpt lat="47.31713" lon="-1.34537">
        <ele>72</ele>
        <time>2014-10-31T10:16:57.000Z</time>
      </trkpt>
      <trkpt lat="47.31713" lon="-1.34537">
        <ele>72</ele>
        <time>2014-10-31T10:16:59.000Z</time>
      </trkpt>
      <trkpt lat="47.31719" lon="-1.34535">
        <ele>73</ele>
        <time>2014-10-31T10:17:01.000Z</time>
      </trkpt>
      <trkpt lat="47.31719" lon="-1.34535">
        <ele>73</ele>
        <time>2014-10-31T10:17:03.000Z</time>
      </trkpt>
      <trkpt lat="47.31719" lon="-1.34535">
        <ele>73</ele>
        <time>2014-10-31T10:17:06.000Z</time>
      </trkpt>
      <trkpt lat="47.31728" lon="-1.34537">
        <ele>74</ele>
        <time>2014-10-31T10:17:07.000Z</time>
      </trkpt>
      <trkpt lat="47.31728" lon="-1.34537">
        <ele>74</ele>
        <time>2014-10-31T10:17:09.000Z</time>
      </trkpt>
      <trkpt lat="47.31734" lon="-1.34539">
        <ele>77</ele>
        <time>2014-10-31T10:17:11.000Z</time>
      </trkpt>
      <trkpt lat="47.3174" lon="-1.34542">
        <ele>75</ele>
        <time>2014-10-31T10:17:15.000Z</time>
      </trkpt>
      <trkpt lat="47.31745" lon="-1.34548">
        <ele>77</ele>
        <time>2014-10-31T10:17:20.000Z</time>
      </trkpt>
      <trkpt lat="47.3175" lon="-1.34553">
        <ele>77</ele>
        <time>2014-10-31T10:17:23.000Z</time>
      </trkpt>
      <trkpt lat="47.31754" lon="-1.34559">
        <ele>77</ele>
        <time>2014-10-31T10:17:28.000Z</time>
      </trkpt>
      <trkpt lat="47.31759" lon="-1.34565">
        <ele>79</ele>
        <time>2014-10-31T10:17:31.000Z</time>
      </trkpt>
      <trkpt lat="47.31764" lon="-1.34572">
        <ele>81</ele>
        <time>2014-10-31T10:17:36.000Z</time>
      </trkpt>
      <trkpt lat="47.31769" lon="-1.34578">
        <ele>81</ele>
        <time>2014-10-31T10:17:39.000Z</time>
      </trkpt>
      <trkpt lat="47.31773" lon="-1.34584">
        <ele>83</ele>
        <time>2014-10-31T10:17:43.000Z</time>
      </trkpt>
      <trkpt lat="47.31773" lon="-1.34584">
        <ele>83</ele>
        <time>2014-10-31T10:17:45.000Z</time>
      </trkpt>
      <trkpt lat="47.31777" lon="-1.3459">
        <ele>84</ele>
        <time>2014-10-31T10:17:47.000Z</time>
      </trkpt>
      <trkpt lat="47.31781" lon="-1.34598">
        <ele>85</ele>
        <time>2014-10-31T10:17:51.000Z</time>
      </trkpt>
      <trkpt lat="47.31785" lon="-1.34604">
        <ele>87</ele>
        <time>2014-10-31T10:17:55.000Z</time>
      </trkpt>
      <trkpt lat="47.31787" lon="-1.34609">
        <ele>87</ele>
        <time>2014-10-31T10:18:02.000Z</time>
      </trkpt>
      <trkpt lat="47.31789" lon="-1.34613">
        <ele>88</ele>
        <time>2014-10-31T10:18:04.000Z</time>
      </trkpt>
      <trkpt lat="47.31791" lon="-1.34617">
        <ele>88</ele>
        <time>2014-10-31T10:18:06.000Z</time>
      </trkpt>
      <trkpt lat="47.31792" lon="-1.34621">
        <ele>89</ele>
        <time>2014-10-31T10:18:07.000Z</time>
      </trkpt>
      <trkpt lat="47.31794" lon="-1.34624">
        <ele>89</ele>
        <time>2014-10-31T10:18:09.000Z</time>
      </trkpt>
      <trkpt lat="47.31798" lon="-1.34631">
        <ele>89</ele>
        <time>2014-10-31T10:18:11.000Z</time>
      </trkpt>
      <trkpt lat="47.31798" lon="-1.34631">
        <ele>89</ele>
        <time>2014-10-31T10:18:13.000Z</time>
      </trkpt>
      <trkpt lat="47.31802" lon="-1.34637">
        <ele>90</ele>
        <time>2014-10-31T10:18:16.000Z</time>
      </trkpt>
      <trkpt lat="47.31802" lon="-1.34637">
        <ele>90</ele>
        <time>2014-10-31T10:18:18.000Z</time>
      </trkpt>
      <trkpt lat="47.31807" lon="-1.34645">
        <ele>90</ele>
        <time>2014-10-31T10:18:19.000Z</time>
      </trkpt>
      <trkpt lat="47.31812" lon="-1.34652">
        <ele>90</ele>
        <time>2014-10-31T10:18:23.000Z</time>
      </trkpt>
      <trkpt lat="47.31816" lon="-1.34658">
        <ele>93</ele>
        <time>2014-10-31T10:18:27.000Z</time>
      </trkpt>
      <trkpt lat="47.3182" lon="-1.34666">
        <ele>93</ele>
        <time>2014-10-31T10:18:31.000Z</time>
      </trkpt>
      <trkpt lat="47.3182" lon="-1.34666">
        <ele>93</ele>
        <time>2014-10-31T10:18:33.000Z</time>
      </trkpt>
      <trkpt lat="47.3182" lon="-1.34666">
        <ele>93</ele>
        <time>2014-10-31T10:18:35.000Z</time>
      </trkpt>
      <trkpt lat="47.31817" lon="-1.34677">
        <ele>103</ele>
        <time>2014-10-31T10:18:37.000Z</time>
      </trkpt>
      <trkpt lat="47.31817" lon="-1.34677">
        <ele>103</ele>
        <time>2014-10-31T10:18:39.000Z</time>
      </trkpt>
      <trkpt lat="47.31817" lon="-1.34677">
        <ele>103</ele>
        <time>2014-10-31T10:18:41.000Z</time>
      </trkpt>
      <trkpt lat="47.31823" lon="-1.34679">
        <ele>101</ele>
        <time>2014-10-31T10:18:44.000Z</time>
      </trkpt>
      <trkpt lat="47.3183" lon="-1.34673">
        <ele>100</ele>
        <time>2014-10-31T10:18:47.000Z</time>
      </trkpt>
      <trkpt lat="47.31836" lon="-1.34667">
        <ele>98</ele>
        <time>2014-10-31T10:18:51.000Z</time>
      </trkpt>
      <trkpt lat="47.31843" lon="-1.3466">
        <ele>99</ele>
        <time>2014-10-31T10:18:56.000Z</time>
      </trkpt>
      <trkpt lat="47.31851" lon="-1.34655">
        <ele>100</ele>
        <time>2014-10-31T10:18:59.000Z</time>
      </trkpt>
      <trkpt lat="47.31851" lon="-1.34655">
        <ele>100</ele>
        <time>2014-10-31T10:19:01.000Z</time>
      </trkpt>
      <trkpt lat="47.31857" lon="-1.3466">
        <ele>102</ele>
        <time>2014-10-31T10:19:03.000Z</time>
      </trkpt>
      <trkpt lat="47.31857" lon="-1.3466">
        <ele>102</ele>
        <time>2014-10-31T10:19:05.000Z</time>
      </trkpt>
      <trkpt lat="47.31858" lon="-1.34674">
        <ele>102</ele>
        <time>2014-10-31T10:19:07.000Z</time>
      </trkpt>
      <trkpt lat="47.31859" lon="-1.34687">
        <ele>104</ele>
        <time>2014-10-31T10:19:11.000Z</time>
      </trkpt>
      <trkpt lat="47.31859" lon="-1.34687">
        <ele>104</ele>
        <time>2014-10-31T10:19:13.000Z</time>
      </trkpt>
      <trkpt lat="47.31859" lon="-1.34687">
        <ele>104</ele>
        <time>2014-10-31T10:19:15.000Z</time>
      </trkpt>
      <trkpt lat="47.31859" lon="-1.34687">
        <ele>104</ele>
        <time>2014-10-31T10:19:17.000Z</time>
      </trkpt>
      <trkpt lat="47.31859" lon="-1.34687">
        <ele>104</ele>
        <time>2014-10-31T10:19:19.000Z</time>
      </trkpt>
      <trkpt lat="47.31859" lon="-1.34687">
        <ele>104</ele>
        <time>2014-10-31T10:19:21.000Z</time>
      </trkpt>
      <trkpt lat="47.31859" lon="-1.34687">
        <ele>104</ele>
        <time>2014-10-31T10:19:23.000Z</time>
      </trkpt>
      <trkpt lat="47.31859" lon="-1.34687">
        <ele>104</ele>
        <time>2014-10-31T10:19:25.000Z</time>
      </trkpt>
      <trkpt lat="47.31859" lon="-1.34687">
        <ele>104</ele>
        <time>2014-10-31T10:19:28.000Z</time>
      </trkpt>
      <trkpt lat="47.31859" lon="-1.34687">
        <ele>104</ele>
        <time>2014-10-31T10:19:29.000Z</time>
      </trkpt>
      <trkpt lat="47.31859" lon="-1.34687">
        <ele>104</ele>
        <time>2014-10-31T10:19:31.000Z</time>
      </trkpt>
      <trkpt lat="47.31859" lon="-1.34687">
        <ele>104</ele>
        <time>2014-10-31T10:19:33.000Z</time>
      </trkpt>
      <trkpt lat="47.31859" lon="-1.34687">
        <ele>104</ele>
        <time>2014-10-31T10:19:35.000Z</time>
      </trkpt>
      <trkpt lat="47.31859" lon="-1.34687">
        <ele>104</ele>
        <time>2014-10-31T10:19:37.000Z</time>
      </trkpt>
      <trkpt lat="47.31859" lon="-1.34687">
        <ele>104</ele>
        <time>2014-10-31T10:19:39.000Z</time>
      </trkpt>
      <trkpt lat="47.3186" lon="-1.34691">
        <ele>104</ele>
        <time>2014-10-31T10:19:44.000Z</time>
      </trkpt>
      <trkpt lat="47.3186" lon="-1.34696">
        <ele>103</ele>
        <time>2014-10-31T10:19:45.000Z</time>
      </trkpt>
      <trkpt lat="47.31861" lon="-1.34703">
        <ele>102</ele>
        <time>2014-10-31T10:19:47.000Z</time>
      </trkpt>
      <trkpt lat="47.31861" lon="-1.34709">
        <ele>103</ele>
        <time>2014-10-31T10:19:49.000Z</time>
      </trkpt>
      <trkpt lat="47.31862" lon="-1.34716">
        <ele>104</ele>
        <time>2014-10-31T10:19:51.000Z</time>
      </trkpt>
      <trkpt lat="47.31863" lon="-1.34731">
        <ele>105</ele>
        <time>2014-10-31T10:19:53.000Z</time>
      </trkpt>
      <trkpt lat="47.31864" lon="-1.34747">
        <ele>106</ele>
        <time>2014-10-31T10:19:57.000Z</time>
      </trkpt>
      <trkpt lat="47.31865" lon="-1.34759">
        <ele>106</ele>
        <time>2014-10-31T10:19:59.000Z</time>
      </trkpt>
      <trkpt lat="47.31866" lon="-1.34771">
        <ele>106</ele>
        <time>2014-10-31T10:20:01.000Z</time>
      </trkpt>
      <trkpt lat="47.31868" lon="-1.34782">
        <ele>106</ele>
        <time>2014-10-31T10:20:04.000Z</time>
      </trkpt>
      <trkpt lat="47.3187" lon="-1.34791">
        <ele>105</ele>
        <time>2014-10-31T10:20:05.000Z</time>
      </trkpt>
      <trkpt lat="47.31871" lon="-1.34801">
        <ele>104</ele>
        <time>2014-10-31T10:20:07.000Z</time>
      </trkpt>
      <trkpt lat="47.31873" lon="-1.34809">
        <ele>105</ele>
        <time>2014-10-31T10:20:09.000Z</time>
      </trkpt>
      <trkpt lat="47.31873" lon="-1.34809">
        <ele>105</ele>
        <time>2014-10-31T10:20:11.000Z</time>
      </trkpt>
      <trkpt lat="47.31876" lon="-1.34825">
        <ele>106</ele>
        <time>2014-10-31T10:20:13.000Z</time>
      </trkpt>
      <trkpt lat="47.31878" lon="-1.34834">
        <ele>106</ele>
        <time>2014-10-31T10:20:15.000Z</time>
      </trkpt>
      <trkpt lat="47.31879" lon="-1.34843">
        <ele>105</ele>
        <time>2014-10-31T10:20:17.000Z</time>
      </trkpt>
      <trkpt lat="47.31881" lon="-1.34851">
        <ele>106</ele>
        <time>2014-10-31T10:20:19.000Z</time>
      </trkpt>
      <trkpt lat="47.31881" lon="-1.34851">
        <ele>106</ele>
        <time>2014-10-31T10:20:21.000Z</time>
      </trkpt>
      <trkpt lat="47.31876" lon="-1.34862">
        <ele>106</ele>
        <time>2014-10-31T10:20:23.000Z</time>
      </trkpt>
      <trkpt lat="47.31876" lon="-1.34862">
        <ele>106</ele>
        <time>2014-10-31T10:20:25.000Z</time>
      </trkpt>
      <trkpt lat="47.31876" lon="-1.34862">
        <ele>106</ele>
        <time>2014-10-31T10:20:27.000Z</time>
      </trkpt>
      <trkpt lat="47.31876" lon="-1.34862">
        <ele>106</ele>
        <time>2014-10-31T10:20:29.000Z</time>
      </trkpt>
      <trkpt lat="47.31876" lon="-1.34862">
        <ele>106</ele>
        <time>2014-10-31T10:20:31.000Z</time>
      </trkpt>
      <trkpt lat="47.31876" lon="-1.34862">
        <ele>106</ele>
        <time>2014-10-31T10:20:33.000Z</time>
      </trkpt>
      <trkpt lat="47.31876" lon="-1.34862">
        <ele>106</ele>
        <time>2014-10-31T10:20:35.000Z</time>
      </trkpt>
      <trkpt lat="47.31876" lon="-1.34862">
        <ele>106</ele>
        <time>2014-10-31T10:20:37.000Z</time>
      </trkpt>
      <trkpt lat="47.31876" lon="-1.34862">
        <ele>106</ele>
        <time>2014-10-31T10:20:39.000Z</time>
      </trkpt>
      <trkpt lat="47.31876" lon="-1.34862">
        <ele>106</ele>
        <time>2014-10-31T10:20:41.000Z</time>
      </trkpt>
      <trkpt lat="47.31876" lon="-1.34862">
        <ele>106</ele>
        <time>2014-10-31T10:20:43.000Z</time>
      </trkpt>
      <trkpt lat="47.31876" lon="-1.34862">
        <ele>106</ele>
        <time>2014-10-31T10:20:45.000Z</time>
      </trkpt>
      <trkpt lat="47.31876" lon="-1.34862">
        <ele>106</ele>
        <time>2014-10-31T10:20:47.000Z</time>
      </trkpt>
      <trkpt lat="47.31876" lon="-1.34862">
        <ele>106</ele>
        <time>2014-10-31T10:20:49.000Z</time>
      </trkpt>
      <trkpt lat="47.31876" lon="-1.34862">
        <ele>106</ele>
        <time>2014-10-31T10:20:51.000Z</time>
      </trkpt>
      <trkpt lat="47.31876" lon="-1.34862">
        <ele>106</ele>
        <time>2014-10-31T10:20:53.000Z</time>
      </trkpt>
      <trkpt lat="47.31876" lon="-1.34862">
        <ele>106</ele>
        <time>2014-10-31T10:20:55.000Z</time>
      </trkpt>
      <trkpt lat="47.31876" lon="-1.34862">
        <ele>106</ele>
        <time>2014-10-31T10:20:57.000Z</time>
      </trkpt>
      <trkpt lat="47.31876" lon="-1.34862">
        <ele>106</ele>
        <time>2014-10-31T10:20:59.000Z</time>
      </trkpt>
      <trkpt lat="47.31876" lon="-1.34862">
        <ele>106</ele>
        <time>2014-10-31T10:21:01.000Z</time>
      </trkpt>
      <trkpt lat="47.31877" lon="-1.34872">
        <ele>106</ele>
        <time>2014-10-31T10:21:07.000Z</time>
      </trkpt>
      <trkpt lat="47.31881" lon="-1.34882">
        <ele>103</ele>
        <time>2014-10-31T10:21:11.000Z</time>
      </trkpt>
      <trkpt lat="47.31882" lon="-1.34893">
        <ele>102</ele>
        <time>2014-10-31T10:21:13.000Z</time>
      </trkpt>
      <trkpt lat="47.31884" lon="-1.34904">
        <ele>100</ele>
        <time>2014-10-31T10:21:15.000Z</time>
      </trkpt>
      <trkpt lat="47.31884" lon="-1.34916">
        <ele>94</ele>
        <time>2014-10-31T10:21:18.000Z</time>
      </trkpt>
      <trkpt lat="47.31876" lon="-1.34931">
        <ele>93</ele>
        <time>2014-10-31T10:21:19.000Z</time>
      </trkpt>
      <trkpt lat="47.31868" lon="-1.34937">
        <ele>93</ele>
        <time>2014-10-31T10:21:22.000Z</time>
      </trkpt>
      <trkpt lat="47.31868" lon="-1.34937">
        <ele>93</ele>
        <time>2014-10-31T10:21:24.000Z</time>
      </trkpt>
      <trkpt lat="47.31852" lon="-1.34954">
        <ele>92</ele>
        <time>2014-10-31T10:21:28.000Z</time>
      </trkpt>
      <trkpt lat="47.31848" lon="-1.34961">
        <ele>92</ele>
        <time>2014-10-31T10:21:29.000Z</time>
      </trkpt>
      <trkpt lat="47.31839" lon="-1.34963">
        <ele>95</ele>
        <time>2014-10-31T10:21:31.000Z</time>
      </trkpt>
      <trkpt lat="47.31834" lon="-1.3497">
        <ele>98</ele>
        <time>2014-10-31T10:21:34.000Z</time>
      </trkpt>
      <trkpt lat="47.31834" lon="-1.3497">
        <ele>98</ele>
        <time>2014-10-31T10:21:36.000Z</time>
      </trkpt>
      <trkpt lat="47.31827" lon="-1.34981">
        <ele>98</ele>
        <time>2014-10-31T10:21:37.000Z</time>
      </trkpt>
      <trkpt lat="47.31827" lon="-1.34981">
        <ele>98</ele>
        <time>2014-10-31T10:21:39.000Z</time>
      </trkpt>
      <trkpt lat="47.3182" lon="-1.34991">
        <ele>97</ele>
        <time>2014-10-31T10:21:41.000Z</time>
      </trkpt>
      <trkpt lat="47.31814" lon="-1.34997">
        <ele>94</ele>
        <time>2014-10-31T10:21:43.000Z</time>
      </trkpt>
      <trkpt lat="47.31807" lon="-1.35005">
        <ele>92</ele>
        <time>2014-10-31T10:21:46.000Z</time>
      </trkpt>
      <trkpt lat="47.31802" lon="-1.35012">
        <ele>91</ele>
        <time>2014-10-31T10:21:47.000Z</time>
      </trkpt>
      <trkpt lat="47.318" lon="-1.35026">
        <ele>89</ele>
        <time>2014-10-31T10:21:49.000Z</time>
      </trkpt>
      <trkpt lat="47.31795" lon="-1.35037">
        <ele>89</ele>
        <time>2014-10-31T10:21:51.000Z</time>
      </trkpt>
      <trkpt lat="47.31789" lon="-1.35044">
        <ele>88</ele>
        <time>2014-10-31T10:21:53.000Z</time>
      </trkpt>
      <trkpt lat="47.31784" lon="-1.35051">
        <ele>86</ele>
        <time>2014-10-31T10:21:55.000Z</time>
      </trkpt>
      <trkpt lat="47.31779" lon="-1.35059">
        <ele>85</ele>
        <time>2014-10-31T10:21:57.000Z</time>
      </trkpt>
      <trkpt lat="47.31773" lon="-1.35066">
        <ele>81</ele>
        <time>2014-10-31T10:21:59.000Z</time>
      </trkpt>
      <trkpt lat="47.31763" lon="-1.35076">
        <ele>83</ele>
        <time>2014-10-31T10:22:01.000Z</time>
      </trkpt>
      <trkpt lat="47.31755" lon="-1.35082">
        <ele>84</ele>
        <time>2014-10-31T10:22:03.000Z</time>
      </trkpt>
      <trkpt lat="47.31748" lon="-1.35085">
        <ele>85</ele>
        <time>2014-10-31T10:22:05.000Z</time>
      </trkpt>
      <trkpt lat="47.3174" lon="-1.35087">
        <ele>87</ele>
        <time>2014-10-31T10:22:07.000Z</time>
      </trkpt>
      <trkpt lat="47.31729" lon="-1.35091">
        <ele>91</ele>
        <time>2014-10-31T10:22:09.000Z</time>
      </trkpt>
      <trkpt lat="47.31717" lon="-1.35099">
        <ele>91</ele>
        <time>2014-10-31T10:22:11.000Z</time>
      </trkpt>
      <trkpt lat="47.31706" lon="-1.3511">
        <ele>91</ele>
        <time>2014-10-31T10:22:13.000Z</time>
      </trkpt>
      <trkpt lat="47.31699" lon="-1.35123">
        <ele>94</ele>
        <time>2014-10-31T10:22:15.000Z</time>
      </trkpt>
      <trkpt lat="47.31697" lon="-1.35135">
        <ele>95</ele>
        <time>2014-10-31T10:22:17.000Z</time>
      </trkpt>
      <trkpt lat="47.31698" lon="-1.35148">
        <ele>94</ele>
        <time>2014-10-31T10:22:19.000Z</time>
      </trkpt>
      <trkpt lat="47.31698" lon="-1.35148">
        <ele>94</ele>
        <time>2014-10-31T10:22:21.000Z</time>
      </trkpt>
      <trkpt lat="47.31701" lon="-1.35167">
        <ele>94</ele>
        <time>2014-10-31T10:22:24.000Z</time>
      </trkpt>
      <trkpt lat="47.31701" lon="-1.35167">
        <ele>94</ele>
        <time>2014-10-31T10:22:26.000Z</time>
      </trkpt>
      <trkpt lat="47.31701" lon="-1.35167">
        <ele>94</ele>
        <time>2014-10-31T10:22:29.000Z</time>
      </trkpt>
      <trkpt lat="47.31701" lon="-1.35171">
        <ele>89</ele>
        <time>2014-10-31T10:22:30.000Z</time>
      </trkpt>
      <trkpt lat="47.31701" lon="-1.35171">
        <ele>89</ele>
        <time>2014-10-31T10:22:32.000Z</time>
      </trkpt>
      <trkpt lat="47.31701" lon="-1.35171">
        <ele>89</ele>
        <time>2014-10-31T10:22:34.000Z</time>
      </trkpt>
      <trkpt lat="47.31704" lon="-1.35178">
        <ele>82</ele>
        <time>2014-10-31T10:22:37.000Z</time>
      </trkpt>
      <trkpt lat="47.31705" lon="-1.35182">
        <ele>82</ele>
        <time>2014-10-31T10:22:38.000Z</time>
      </trkpt>
      <trkpt lat="47.31705" lon="-1.35182">
        <ele>82</ele>
        <time>2014-10-31T10:22:40.000Z</time>
      </trkpt>
      <trkpt lat="47.31707" lon="-1.35186">
        <ele>81</ele>
        <time>2014-10-31T10:22:42.000Z</time>
      </trkpt>
      <trkpt lat="47.31707" lon="-1.35186">
        <ele>81</ele>
        <time>2014-10-31T10:22:44.000Z</time>
      </trkpt>
      <trkpt lat="47.31707" lon="-1.35186">
        <ele>81</ele>
        <time>2014-10-31T10:22:47.000Z</time>
      </trkpt>
      <trkpt lat="47.31707" lon="-1.35186">
        <ele>81</ele>
        <time>2014-10-31T10:22:49.000Z</time>
      </trkpt>
      <trkpt lat="47.31707" lon="-1.35186">
        <ele>81</ele>
        <time>2014-10-31T10:22:51.000Z</time>
      </trkpt>
      <trkpt lat="47.31707" lon="-1.35186">
        <ele>81</ele>
        <time>2014-10-31T10:22:52.000Z</time>
      </trkpt>
      <trkpt lat="47.31707" lon="-1.35186">
        <ele>81</ele>
        <time>2014-10-31T10:22:54.000Z</time>
      </trkpt>
      <trkpt lat="47.31707" lon="-1.35186">
        <ele>81</ele>
        <time>2014-10-31T10:22:56.000Z</time>
      </trkpt>
      <trkpt lat="47.31707" lon="-1.35186">
        <ele>81</ele>
        <time>2014-10-31T10:22:58.000Z</time>
      </trkpt>
      <trkpt lat="47.31707" lon="-1.35186">
        <ele>81</ele>
        <time>2014-10-31T10:23:00.000Z</time>
      </trkpt>
      <trkpt lat="47.31706" lon="-1.3519">
        <ele>75</ele>
        <time>2014-10-31T10:23:04.000Z</time>
      </trkpt>
      <trkpt lat="47.31706" lon="-1.3519">
        <ele>75</ele>
        <time>2014-10-31T10:23:08.000Z</time>
      </trkpt>
      <trkpt lat="47.31706" lon="-1.3519">
        <ele>75</ele>
        <time>2014-10-31T10:23:10.000Z</time>
      </trkpt>
      <trkpt lat="47.31706" lon="-1.3519">
        <ele>75</ele>
        <time>2014-10-31T10:23:12.000Z</time>
      </trkpt>
      <trkpt lat="47.31706" lon="-1.3519">
        <ele>75</ele>
        <time>2014-10-31T10:23:14.000Z</time>
      </trkpt>
      <trkpt lat="47.31706" lon="-1.3519">
        <ele>75</ele>
        <time>2014-10-31T10:23:16.000Z</time>
      </trkpt>
      <trkpt lat="47.31706" lon="-1.3519">
        <ele>75</ele>
        <time>2014-10-31T10:23:18.000Z</time>
      </trkpt>
      <trkpt lat="47.31706" lon="-1.3519">
        <ele>75</ele>
        <time>2014-10-31T10:23:21.000Z</time>
      </trkpt>
      <trkpt lat="47.31706" lon="-1.3519">
        <ele>75</ele>
        <time>2014-10-31T10:23:22.000Z</time>
      </trkpt>
      <trkpt lat="47.31706" lon="-1.3519">
        <ele>75</ele>
        <time>2014-10-31T10:23:24.000Z</time>
      </trkpt>
      <trkpt lat="47.31705" lon="-1.35195">
        <ele>71</ele>
        <time>2014-10-31T10:23:30.000Z</time>
      </trkpt>
      <trkpt lat="47.31703" lon="-1.35199">
        <ele>70</ele>
        <time>2014-10-31T10:23:34.000Z</time>
      </trkpt>
      <trkpt lat="47.31703" lon="-1.35199">
        <ele>70</ele>
        <time>2014-10-31T10:23:36.000Z</time>
      </trkpt>
      <trkpt lat="47.31703" lon="-1.35199">
        <ele>70</ele>
        <time>2014-10-31T10:23:38.000Z</time>
      </trkpt>
      <trkpt lat="47.31702" lon="-1.35203">
        <ele>69</ele>
        <time>2014-10-31T10:23:40.000Z</time>
      </trkpt>
      <trkpt lat="47.31702" lon="-1.35203">
        <ele>69</ele>
        <time>2014-10-31T10:23:42.000Z</time>
      </trkpt>
      <trkpt lat="47.31702" lon="-1.35203">
        <ele>69</ele>
        <time>2014-10-31T10:23:45.000Z</time>
      </trkpt>
      <trkpt lat="47.317" lon="-1.35198">
        <ele>67</ele>
        <time>2014-10-31T10:23:52.000Z</time>
      </trkpt>
      <trkpt lat="47.31702" lon="-1.35202">
        <ele>64</ele>
        <time>2014-10-31T10:24:03.000Z</time>
      </trkpt>
      <trkpt lat="47.31702" lon="-1.35202">
        <ele>64</ele>
        <time>2014-10-31T10:24:05.000Z</time>
      </trkpt>
      <trkpt lat="47.31702" lon="-1.35202">
        <ele>64</ele>
        <time>2014-10-31T10:24:07.000Z</time>
      </trkpt>
      <trkpt lat="47.31704" lon="-1.35207">
        <ele>67</ele>
        <time>2014-10-31T10:24:09.000Z</time>
      </trkpt>
      <trkpt lat="47.31705" lon="-1.35211">
        <ele>68</ele>
        <time>2014-10-31T10:24:13.000Z</time>
      </trkpt>
      <trkpt lat="47.31705" lon="-1.35215">
        <ele>70</ele>
        <time>2014-10-31T10:24:14.000Z</time>
      </trkpt>
      <trkpt lat="47.31705" lon="-1.3522">
        <ele>73</ele>
        <time>2014-10-31T10:24:17.000Z</time>
      </trkpt>
      <trkpt lat="47.31705" lon="-1.35226">
        <ele>71</ele>
        <time>2014-10-31T10:24:18.000Z</time>
      </trkpt>
      <trkpt lat="47.31704" lon="-1.35232">
        <ele>72</ele>
        <time>2014-10-31T10:24:20.000Z</time>
      </trkpt>
      <trkpt lat="47.31705" lon="-1.35245">
        <ele>72</ele>
        <time>2014-10-31T10:24:22.000Z</time>
      </trkpt>
      <trkpt lat="47.31707" lon="-1.35254">
        <ele>71</ele>
        <time>2014-10-31T10:24:25.000Z</time>
      </trkpt>
      <trkpt lat="47.31708" lon="-1.35262">
        <ele>69</ele>
        <time>2014-10-31T10:24:26.000Z</time>
      </trkpt>
      <trkpt lat="47.31709" lon="-1.35271">
        <ele>71</ele>
        <time>2014-10-31T10:24:29.000Z</time>
      </trkpt>
      <trkpt lat="47.31712" lon="-1.35286">
        <ele>74</ele>
        <time>2014-10-31T10:24:32.000Z</time>
      </trkpt>
      <trkpt lat="47.31715" lon="-1.35295">
        <ele>72</ele>
        <time>2014-10-31T10:24:34.000Z</time>
      </trkpt>
      <trkpt lat="47.31718" lon="-1.35307">
        <ele>73</ele>
        <time>2014-10-31T10:24:36.000Z</time>
      </trkpt>
      <trkpt lat="47.3172" lon="-1.35319">
        <ele>73</ele>
        <time>2014-10-31T10:24:38.000Z</time>
      </trkpt>
      <trkpt lat="47.31722" lon="-1.3533">
        <ele>73</ele>
        <time>2014-10-31T10:24:41.000Z</time>
      </trkpt>
      <trkpt lat="47.31724" lon="-1.3536">
        <ele>66</ele>
        <time>2014-10-31T10:24:43.000Z</time>
      </trkpt>
      <trkpt lat="47.31723" lon="-1.35373">
        <ele>74</ele>
        <time>2014-10-31T10:24:49.000Z</time>
      </trkpt>
      <trkpt lat="47.31722" lon="-1.35382">
        <ele>75</ele>
        <time>2014-10-31T10:24:50.000Z</time>
      </trkpt>
      <trkpt lat="47.31722" lon="-1.35392">
        <ele>75</ele>
        <time>2014-10-31T10:24:52.000Z</time>
      </trkpt>
      <trkpt lat="47.31726" lon="-1.35401">
        <ele>77</ele>
        <time>2014-10-31T10:24:55.000Z</time>
      </trkpt>
      <trkpt lat="47.31726" lon="-1.35401">
        <ele>77</ele>
        <time>2014-10-31T10:24:57.000Z</time>
      </trkpt>
      <trkpt lat="47.31728" lon="-1.35418">
        <ele>79</ele>
        <time>2014-10-31T10:24:59.000Z</time>
      </trkpt>
      <trkpt lat="47.31728" lon="-1.35427">
        <ele>79</ele>
        <time>2014-10-31T10:25:01.000Z</time>
      </trkpt>
      <trkpt lat="47.31729" lon="-1.35437">
        <ele>82</ele>
        <time>2014-10-31T10:25:03.000Z</time>
      </trkpt>
      <trkpt lat="47.31729" lon="-1.35437">
        <ele>82</ele>
        <time>2014-10-31T10:25:04.000Z</time>
      </trkpt>
      <trkpt lat="47.31728" lon="-1.35448">
        <ele>84</ele>
        <time>2014-10-31T10:25:06.000Z</time>
      </trkpt>
      <trkpt lat="47.31728" lon="-1.35448">
        <ele>84</ele>
        <time>2014-10-31T10:25:08.000Z</time>
      </trkpt>
      <trkpt lat="47.31728" lon="-1.35448">
        <ele>84</ele>
        <time>2014-10-31T10:25:11.000Z</time>
      </trkpt>
      <trkpt lat="47.31728" lon="-1.35448">
        <ele>84</ele>
        <time>2014-10-31T10:25:13.000Z</time>
      </trkpt>
      <trkpt lat="47.31728" lon="-1.35448">
        <ele>84</ele>
        <time>2014-10-31T10:25:15.000Z</time>
      </trkpt>
      <trkpt lat="47.3173" lon="-1.35458">
        <ele>83</ele>
        <time>2014-10-31T10:25:17.000Z</time>
      </trkpt>
      <trkpt lat="47.3173" lon="-1.35458">
        <ele>83</ele>
        <time>2014-10-31T10:25:19.000Z</time>
      </trkpt>
      <trkpt lat="47.3173" lon="-1.35458">
        <ele>83</ele>
        <time>2014-10-31T10:25:21.000Z</time>
      </trkpt>
      <trkpt lat="47.31731" lon="-1.35471">
        <ele>85</ele>
        <time>2014-10-31T10:25:24.000Z</time>
      </trkpt>
      <trkpt lat="47.31731" lon="-1.35484">
        <ele>82</ele>
        <time>2014-10-31T10:25:29.000Z</time>
      </trkpt>
      <trkpt lat="47.31734" lon="-1.35495">
        <ele>83</ele>
        <time>2014-10-31T10:25:32.000Z</time>
      </trkpt>
      <trkpt lat="47.31739" lon="-1.35512">
        <ele>83</ele>
        <time>2014-10-31T10:25:37.000Z</time>
      </trkpt>
      <trkpt lat="47.31741" lon="-1.35521">
        <ele>85</ele>
        <time>2014-10-31T10:25:39.000Z</time>
      </trkpt>
      <trkpt lat="47.31746" lon="-1.35534">
        <ele>94</ele>
        <time>2014-10-31T10:25:42.000Z</time>
      </trkpt>
      <trkpt lat="47.31746" lon="-1.35534">
        <ele>94</ele>
        <time>2014-10-31T10:25:44.000Z</time>
      </trkpt>
      <trkpt lat="47.31754" lon="-1.35545">
        <ele>96</ele>
        <time>2014-10-31T10:25:47.000Z</time>
      </trkpt>
      <trkpt lat="47.31758" lon="-1.35552">
        <ele>96</ele>
        <time>2014-10-31T10:25:48.000Z</time>
      </trkpt>
      <trkpt lat="47.31762" lon="-1.35559">
        <ele>96</ele>
        <time>2014-10-31T10:25:50.000Z</time>
      </trkpt>
      <trkpt lat="47.31766" lon="-1.3557">
        <ele>94</ele>
        <time>2014-10-31T10:25:55.000Z</time>
      </trkpt>
      <trkpt lat="47.31766" lon="-1.3557">
        <ele>94</ele>
        <time>2014-10-31T10:25:56.000Z</time>
      </trkpt>
      <trkpt lat="47.31771" lon="-1.3558">
        <ele>98</ele>
        <time>2014-10-31T10:25:58.000Z</time>
      </trkpt>
      <trkpt lat="47.31771" lon="-1.3558">
        <ele>98</ele>
        <time>2014-10-31T10:26:00.000Z</time>
      </trkpt>
      <trkpt lat="47.31771" lon="-1.3558">
        <ele>98</ele>
        <time>2014-10-31T10:26:02.000Z</time>
      </trkpt>
      <trkpt lat="47.31777" lon="-1.35589">
        <ele>96</ele>
        <time>2014-10-31T10:26:05.000Z</time>
      </trkpt>
      <trkpt lat="47.31777" lon="-1.35589">
        <ele>96</ele>
        <time>2014-10-31T10:26:06.000Z</time>
      </trkpt>
      <trkpt lat="47.31782" lon="-1.35595">
        <ele>98</ele>
        <time>2014-10-31T10:26:08.000Z</time>
      </trkpt>
      <trkpt lat="47.31782" lon="-1.35595">
        <ele>98</ele>
        <time>2014-10-31T10:26:10.000Z</time>
      </trkpt>
      <trkpt lat="47.31788" lon="-1.35603">
        <ele>104</ele>
        <time>2014-10-31T10:26:12.000Z</time>
      </trkpt>
      <trkpt lat="47.31792" lon="-1.35609">
        <ele>107</ele>
        <time>2014-10-31T10:26:15.000Z</time>
      </trkpt>
      <trkpt lat="47.318" lon="-1.35619">
        <ele>109</ele>
        <time>2014-10-31T10:26:18.000Z</time>
      </trkpt>
      <trkpt lat="47.318" lon="-1.35619">
        <ele>109</ele>
        <time>2014-10-31T10:26:20.000Z</time>
      </trkpt>
      <trkpt lat="47.31805" lon="-1.35627">
        <ele>114</ele>
        <time>2014-10-31T10:26:22.000Z</time>
      </trkpt>
      <trkpt lat="47.31805" lon="-1.35627">
        <ele>114</ele>
        <time>2014-10-31T10:26:24.000Z</time>
      </trkpt>
      <trkpt lat="47.31807" lon="-1.3564">
        <ele>118</ele>
        <time>2014-10-31T10:26:26.000Z</time>
      </trkpt>
      <trkpt lat="47.31807" lon="-1.3564">
        <ele>118</ele>
        <time>2014-10-31T10:26:28.000Z</time>
      </trkpt>
      <trkpt lat="47.31812" lon="-1.35647">
        <ele>125</ele>
        <time>2014-10-31T10:26:30.000Z</time>
      </trkpt>
      <trkpt lat="47.31812" lon="-1.35647">
        <ele>125</ele>
        <time>2014-10-31T10:26:32.000Z</time>
      </trkpt>
      <trkpt lat="47.31821" lon="-1.35654">
        <ele>123</ele>
        <time>2014-10-31T10:26:34.000Z</time>
      </trkpt>
      <trkpt lat="47.31826" lon="-1.35661">
        <ele>126</ele>
        <time>2014-10-31T10:26:38.000Z</time>
      </trkpt>
      <trkpt lat="47.31826" lon="-1.35661">
        <ele>126</ele>
        <time>2014-10-31T10:26:40.000Z</time>
      </trkpt>
      <trkpt lat="47.31826" lon="-1.35661">
        <ele>126</ele>
        <time>2014-10-31T10:26:42.000Z</time>
      </trkpt>
      <trkpt lat="47.31829" lon="-1.35669">
        <ele>125</ele>
        <time>2014-10-31T10:26:44.000Z</time>
      </trkpt>
      <trkpt lat="47.31829" lon="-1.35669">
        <ele>125</ele>
        <time>2014-10-31T10:26:46.000Z</time>
      </trkpt>
      <trkpt lat="47.31829" lon="-1.35669">
        <ele>125</ele>
        <time>2014-10-31T10:26:48.000Z</time>
      </trkpt>
      <trkpt lat="47.31832" lon="-1.35673">
        <ele>119</ele>
        <time>2014-10-31T10:26:50.000Z</time>
      </trkpt>
      <trkpt lat="47.31834" lon="-1.35676">
        <ele>117</ele>
        <time>2014-10-31T10:26:52.000Z</time>
      </trkpt>
      <trkpt lat="47.31836" lon="-1.35681">
        <ele>115</ele>
        <time>2014-10-31T10:26:54.000Z</time>
      </trkpt>
      <trkpt lat="47.31838" lon="-1.35686">
        <ele>114</ele>
        <time>2014-10-31T10:26:56.000Z</time>
      </trkpt>
      <trkpt lat="47.3184" lon="-1.35692">
        <ele>110</ele>
        <time>2014-10-31T10:26:58.000Z</time>
      </trkpt>
      <trkpt lat="47.31845" lon="-1.35705">
        <ele>107</ele>
        <time>2014-10-31T10:27:00.000Z</time>
      </trkpt>
      <trkpt lat="47.31849" lon="-1.35713">
        <ele>106</ele>
        <time>2014-10-31T10:27:02.000Z</time>
      </trkpt>
      <trkpt lat="47.31854" lon="-1.35724">
        <ele>107</ele>
        <time>2014-10-31T10:27:06.000Z</time>
      </trkpt>
      <trkpt lat="47.31854" lon="-1.35724">
        <ele>107</ele>
        <time>2014-10-31T10:27:08.000Z</time>
      </trkpt>
      <trkpt lat="47.31858" lon="-1.35734">
        <ele>110</ele>
        <time>2014-10-31T10:27:10.000Z</time>
      </trkpt>
      <trkpt lat="47.31862" lon="-1.35748">
        <ele>112</ele>
        <time>2014-10-31T10:27:14.000Z</time>
      </trkpt>
      <trkpt lat="47.31862" lon="-1.35748">
        <ele>112</ele>
        <time>2014-10-31T10:27:16.000Z</time>
      </trkpt>
      <trkpt lat="47.31865" lon="-1.35756">
        <ele>110</ele>
        <time>2014-10-31T10:27:18.000Z</time>
      </trkpt>
      <trkpt lat="47.31865" lon="-1.35756">
        <ele>110</ele>
        <time>2014-10-31T10:27:20.000Z</time>
      </trkpt>
      <trkpt lat="47.31866" lon="-1.35771">
        <ele>112</ele>
        <time>2014-10-31T10:27:22.000Z</time>
      </trkpt>
      <trkpt lat="47.31868" lon="-1.35782">
        <ele>112</ele>
        <time>2014-10-31T10:27:24.000Z</time>
      </trkpt>
      <trkpt lat="47.31871" lon="-1.35794">
        <ele>111</ele>
        <time>2014-10-31T10:27:28.000Z</time>
      </trkpt>
      <trkpt lat="47.31874" lon="-1.35802">
        <ele>111</ele>
        <time>2014-10-31T10:27:30.000Z</time>
      </trkpt>
      <trkpt lat="47.31878" lon="-1.35811">
        <ele>110</ele>
        <time>2014-10-31T10:27:33.000Z</time>
      </trkpt>
      <trkpt lat="47.31883" lon="-1.3582">
        <ele>110</ele>
        <time>2014-10-31T10:27:34.000Z</time>
      </trkpt>
      <trkpt lat="47.31888" lon="-1.35829">
        <ele>111</ele>
        <time>2014-10-31T10:27:36.000Z</time>
      </trkpt>
      <trkpt lat="47.31892" lon="-1.35836">
        <ele>111</ele>
        <time>2014-10-31T10:27:39.000Z</time>
      </trkpt>
      <trkpt lat="47.31892" lon="-1.35836">
        <ele>111</ele>
        <time>2014-10-31T10:27:40.000Z</time>
      </trkpt>
      <trkpt lat="47.31901" lon="-1.35842">
        <ele>108</ele>
        <time>2014-10-31T10:27:42.000Z</time>
      </trkpt>
      <trkpt lat="47.31901" lon="-1.35842">
        <ele>108</ele>
        <time>2014-10-31T10:27:44.000Z</time>
      </trkpt>
      <trkpt lat="47.3191" lon="-1.35848">
        <ele>112</ele>
        <time>2014-10-31T10:27:46.000Z</time>
      </trkpt>
      <trkpt lat="47.3191" lon="-1.35848">
        <ele>112</ele>
        <time>2014-10-31T10:27:48.000Z</time>
      </trkpt>
      <trkpt lat="47.31914" lon="-1.35858">
        <ele>115</ele>
        <time>2014-10-31T10:27:50.000Z</time>
      </trkpt>
      <trkpt lat="47.31914" lon="-1.35858">
        <ele>115</ele>
        <time>2014-10-31T10:27:52.000Z</time>
      </trkpt>
      <trkpt lat="47.31918" lon="-1.35867">
        <ele>115</ele>
        <time>2014-10-31T10:27:55.000Z</time>
      </trkpt>
      <trkpt lat="47.31918" lon="-1.35867">
        <ele>115</ele>
        <time>2014-10-31T10:27:56.000Z</time>
      </trkpt>
      <trkpt lat="47.31923" lon="-1.35878">
        <ele>115</ele>
        <time>2014-10-31T10:27:58.000Z</time>
      </trkpt>
      <trkpt lat="47.31927" lon="-1.35886">
        <ele>116</ele>
        <time>2014-10-31T10:28:02.000Z</time>
      </trkpt>
      <trkpt lat="47.31927" lon="-1.35886">
        <ele>116</ele>
        <time>2014-10-31T10:28:04.000Z</time>
      </trkpt>
      <trkpt lat="47.31932" lon="-1.35893">
        <ele>110</ele>
        <time>2014-10-31T10:28:06.000Z</time>
      </trkpt>
      <trkpt lat="47.31937" lon="-1.35906">
        <ele>103</ele>
        <time>2014-10-31T10:28:11.000Z</time>
      </trkpt>
      <trkpt lat="47.31943" lon="-1.3592">
        <ele>103</ele>
        <time>2014-10-31T10:28:14.000Z</time>
      </trkpt>
      <trkpt lat="47.31945" lon="-1.35928">
        <ele>102</ele>
        <time>2014-10-31T10:28:16.000Z</time>
      </trkpt>
      <trkpt lat="47.31947" lon="-1.35939">
        <ele>99</ele>
        <time>2014-10-31T10:28:18.000Z</time>
      </trkpt>
      <trkpt lat="47.3195" lon="-1.35953">
        <ele>94</ele>
        <time>2014-10-31T10:28:20.000Z</time>
      </trkpt>
      <trkpt lat="47.31954" lon="-1.35967">
        <ele>93</ele>
        <time>2014-10-31T10:28:22.000Z</time>
      </trkpt>
      <trkpt lat="47.31959" lon="-1.35979">
        <ele>98</ele>
        <time>2014-10-31T10:28:24.000Z</time>
      </trkpt>
      <trkpt lat="47.31964" lon="-1.35987">
        <ele>98</ele>
        <time>2014-10-31T10:28:27.000Z</time>
      </trkpt>
      <trkpt lat="47.31968" lon="-1.35994">
        <ele>99</ele>
        <time>2014-10-31T10:28:28.000Z</time>
      </trkpt>
      <trkpt lat="47.31972" lon="-1.36001">
        <ele>100</ele>
        <time>2014-10-31T10:28:30.000Z</time>
      </trkpt>
      <trkpt lat="47.31977" lon="-1.36009">
        <ele>100</ele>
        <time>2014-10-31T10:28:32.000Z</time>
      </trkpt>
      <trkpt lat="47.31983" lon="-1.3602">
        <ele>97</ele>
        <time>2014-10-31T10:28:34.000Z</time>
      </trkpt>
      <trkpt lat="47.31988" lon="-1.36032">
        <ele>99</ele>
        <time>2014-10-31T10:28:39.000Z</time>
      </trkpt>
      <trkpt lat="47.31988" lon="-1.36032">
        <ele>99</ele>
        <time>2014-10-31T10:28:40.000Z</time>
      </trkpt>
      <trkpt lat="47.31997" lon="-1.36039">
        <ele>97</ele>
        <time>2014-10-31T10:28:42.000Z</time>
      </trkpt>
      <trkpt lat="47.31997" lon="-1.36039">
        <ele>97</ele>
        <time>2014-10-31T10:28:44.000Z</time>
      </trkpt>
      <trkpt lat="47.32007" lon="-1.36041">
        <ele>95</ele>
        <time>2014-10-31T10:28:46.000Z</time>
      </trkpt>
      <trkpt lat="47.32014" lon="-1.3604">
        <ele>92</ele>
        <time>2014-10-31T10:28:48.000Z</time>
      </trkpt>
      <trkpt lat="47.32021" lon="-1.36038">
        <ele>92</ele>
        <time>2014-10-31T10:28:50.000Z</time>
      </trkpt>
      <trkpt lat="47.32027" lon="-1.36035">
        <ele>93</ele>
        <time>2014-10-31T10:28:52.000Z</time>
      </trkpt>
      <trkpt lat="47.32038" lon="-1.36032">
        <ele>101</ele>
        <time>2014-10-31T10:28:56.000Z</time>
      </trkpt>
      <trkpt lat="47.32044" lon="-1.36034">
        <ele>104</ele>
        <time>2014-10-31T10:28:59.000Z</time>
      </trkpt>
      <trkpt lat="47.32051" lon="-1.36034">
        <ele>105</ele>
        <time>2014-10-31T10:29:01.000Z</time>
      </trkpt>
      <trkpt lat="47.32058" lon="-1.36033">
        <ele>107</ele>
        <time>2014-10-31T10:29:02.000Z</time>
      </trkpt>
      <trkpt lat="47.32064" lon="-1.36032">
        <ele>109</ele>
        <time>2014-10-31T10:29:04.000Z</time>
      </trkpt>
      <trkpt lat="47.32064" lon="-1.36032">
        <ele>109</ele>
        <time>2014-10-31T10:29:06.000Z</time>
      </trkpt>
      <trkpt lat="47.32076" lon="-1.36029">
        <ele>105</ele>
        <time>2014-10-31T10:29:08.000Z</time>
      </trkpt>
      <trkpt lat="47.32084" lon="-1.36027">
        <ele>107</ele>
        <time>2014-10-31T10:29:10.000Z</time>
      </trkpt>
      <trkpt lat="47.3209" lon="-1.36026">
        <ele>109</ele>
        <time>2014-10-31T10:29:12.000Z</time>
      </trkpt>
      <trkpt lat="47.32095" lon="-1.36026">
        <ele>109</ele>
        <time>2014-10-31T10:29:14.000Z</time>
      </trkpt>
      <trkpt lat="47.32101" lon="-1.36026">
        <ele>109</ele>
        <time>2014-10-31T10:29:16.000Z</time>
      </trkpt>
      <trkpt lat="47.32107" lon="-1.36026">
        <ele>110</ele>
        <time>2014-10-31T10:29:18.000Z</time>
      </trkpt>
      <trkpt lat="47.32107" lon="-1.36026">
        <ele>110</ele>
        <time>2014-10-31T10:29:20.000Z</time>
      </trkpt>
      <trkpt lat="47.32117" lon="-1.36025">
        <ele>111</ele>
        <time>2014-10-31T10:29:22.000Z</time>
      </trkpt>
      <trkpt lat="47.32117" lon="-1.36025">
        <ele>111</ele>
        <time>2014-10-31T10:29:24.000Z</time>
      </trkpt>
      <trkpt lat="47.32128" lon="-1.36025">
        <ele>111</ele>
        <time>2014-10-31T10:29:26.000Z</time>
      </trkpt>
      <trkpt lat="47.32135" lon="-1.36023">
        <ele>111</ele>
        <time>2014-10-31T10:29:28.000Z</time>
      </trkpt>
      <trkpt lat="47.32143" lon="-1.36019">
        <ele>116</ele>
        <time>2014-10-31T10:29:31.000Z</time>
      </trkpt>
      <trkpt lat="47.32156" lon="-1.36015">
        <ele>120</ele>
        <time>2014-10-31T10:29:33.000Z</time>
      </trkpt>
      <trkpt lat="47.32167" lon="-1.36016">
        <ele>121</ele>
        <time>2014-10-31T10:29:35.000Z</time>
      </trkpt>
      <trkpt lat="47.32174" lon="-1.36014">
        <ele>122</ele>
        <time>2014-10-31T10:29:37.000Z</time>
      </trkpt>
      <trkpt lat="47.32184" lon="-1.36015">
        <ele>122</ele>
        <time>2014-10-31T10:29:39.000Z</time>
      </trkpt>
      <trkpt lat="47.32191" lon="-1.36017">
        <ele>122</ele>
        <time>2014-10-31T10:29:41.000Z</time>
      </trkpt>
      <trkpt lat="47.32197" lon="-1.36018">
        <ele>121</ele>
        <time>2014-10-31T10:29:43.000Z</time>
      </trkpt>
      <trkpt lat="47.32203" lon="-1.36019">
        <ele>120</ele>
        <time>2014-10-31T10:29:45.000Z</time>
      </trkpt>
      <trkpt lat="47.32209" lon="-1.36018">
        <ele>119</ele>
        <time>2014-10-31T10:29:47.000Z</time>
      </trkpt>
      <trkpt lat="47.32209" lon="-1.36018">
        <ele>119</ele>
        <time>2014-10-31T10:29:49.000Z</time>
      </trkpt>
      <trkpt lat="47.32219" lon="-1.36015">
        <ele>117</ele>
        <time>2014-10-31T10:29:51.000Z</time>
      </trkpt>
      <trkpt lat="47.32219" lon="-1.36015">
        <ele>117</ele>
        <time>2014-10-31T10:29:53.000Z</time>
      </trkpt>
      <trkpt lat="47.3223" lon="-1.36019">
        <ele>125</ele>
        <time>2014-10-31T10:29:56.000Z</time>
      </trkpt>
      <trkpt lat="47.32237" lon="-1.36024">
        <ele>124</ele>
        <time>2014-10-31T10:29:57.000Z</time>
      </trkpt>
      <trkpt lat="47.32245" lon="-1.36028">
        <ele>122</ele>
        <time>2014-10-31T10:29:59.000Z</time>
      </trkpt>
      <trkpt lat="47.32253" lon="-1.36035">
        <ele>120</ele>
        <time>2014-10-31T10:30:01.000Z</time>
      </trkpt>
      <trkpt lat="47.3226" lon="-1.36044">
        <ele>115</ele>
        <time>2014-10-31T10:30:03.000Z</time>
      </trkpt>
      <trkpt lat="47.32265" lon="-1.36053">
        <ele>115</ele>
        <time>2014-10-31T10:30:05.000Z</time>
      </trkpt>
      <trkpt lat="47.32269" lon="-1.3606">
        <ele>116</ele>
        <time>2014-10-31T10:30:07.000Z</time>
      </trkpt>
      <trkpt lat="47.32274" lon="-1.36067">
        <ele>117</ele>
        <time>2014-10-31T10:30:09.000Z</time>
      </trkpt>
      <trkpt lat="47.3228" lon="-1.36073">
        <ele>119</ele>
        <time>2014-10-31T10:30:11.000Z</time>
      </trkpt>
      <trkpt lat="47.32285" lon="-1.3608">
        <ele>122</ele>
        <time>2014-10-31T10:30:13.000Z</time>
      </trkpt>
      <trkpt lat="47.32291" lon="-1.36084">
        <ele>125</ele>
        <time>2014-10-31T10:30:15.000Z</time>
      </trkpt>
      <trkpt lat="47.32296" lon="-1.36088">
        <ele>128</ele>
        <time>2014-10-31T10:30:18.000Z</time>
      </trkpt>
      <trkpt lat="47.32302" lon="-1.36092">
        <ele>129</ele>
        <time>2014-10-31T10:30:19.000Z</time>
      </trkpt>
      <trkpt lat="47.32309" lon="-1.36098">
        <ele>126</ele>
        <time>2014-10-31T10:30:21.000Z</time>
      </trkpt>
      <trkpt lat="47.32318" lon="-1.36102">
        <ele>124</ele>
        <time>2014-10-31T10:30:23.000Z</time>
      </trkpt>
      <trkpt lat="47.32327" lon="-1.36104">
        <ele>121</ele>
        <time>2014-10-31T10:30:25.000Z</time>
      </trkpt>
      <trkpt lat="47.32335" lon="-1.36104">
        <ele>124</ele>
        <time>2014-10-31T10:30:27.000Z</time>
      </trkpt>
      <trkpt lat="47.32343" lon="-1.36103">
        <ele>122</ele>
        <time>2014-10-31T10:30:29.000Z</time>
      </trkpt>
      <trkpt lat="47.32352" lon="-1.36103">
        <ele>122</ele>
        <time>2014-10-31T10:30:31.000Z</time>
      </trkpt>
      <trkpt lat="47.3236" lon="-1.36101">
        <ele>119</ele>
        <time>2014-10-31T10:30:33.000Z</time>
      </trkpt>
      <trkpt lat="47.32369" lon="-1.36097">
        <ele>117</ele>
        <time>2014-10-31T10:30:35.000Z</time>
      </trkpt>
      <trkpt lat="47.32381" lon="-1.36094">
        <ele>118</ele>
        <time>2014-10-31T10:30:37.000Z</time>
      </trkpt>
      <trkpt lat="47.32393" lon="-1.36093">
        <ele>115</ele>
        <time>2014-10-31T10:30:41.000Z</time>
      </trkpt>
      <trkpt lat="47.32401" lon="-1.36091">
        <ele>114</ele>
        <time>2014-10-31T10:30:42.000Z</time>
      </trkpt>
      <trkpt lat="47.32409" lon="-1.36082">
        <ele>115</ele>
        <time>2014-10-31T10:30:44.000Z</time>
      </trkpt>
      <trkpt lat="47.32416" lon="-1.36078">
        <ele>113</ele>
        <time>2014-10-31T10:30:46.000Z</time>
      </trkpt>
      <trkpt lat="47.32422" lon="-1.36077">
        <ele>114</ele>
        <time>2014-10-31T10:30:48.000Z</time>
      </trkpt>
      <trkpt lat="47.32428" lon="-1.36075">
        <ele>112</ele>
        <time>2014-10-31T10:30:51.000Z</time>
      </trkpt>
      <trkpt lat="47.32434" lon="-1.36072">
        <ele>109</ele>
        <time>2014-10-31T10:30:52.000Z</time>
      </trkpt>
      <trkpt lat="47.32441" lon="-1.36068">
        <ele>112</ele>
        <time>2014-10-31T10:30:54.000Z</time>
      </trkpt>
      <trkpt lat="47.32447" lon="-1.36065">
        <ele>112</ele>
        <time>2014-10-31T10:30:56.000Z</time>
      </trkpt>
      <trkpt lat="47.32456" lon="-1.36061">
        <ele>109</ele>
        <time>2014-10-31T10:30:58.000Z</time>
      </trkpt>
      <trkpt lat="47.32464" lon="-1.36055">
        <ele>109</ele>
        <time>2014-10-31T10:31:00.000Z</time>
      </trkpt>
      <trkpt lat="47.32473" lon="-1.36051">
        <ele>107</ele>
        <time>2014-10-31T10:31:02.000Z</time>
      </trkpt>
      <trkpt lat="47.3248" lon="-1.36048">
        <ele>106</ele>
        <time>2014-10-31T10:31:04.000Z</time>
      </trkpt>
      <trkpt lat="47.3248" lon="-1.36048">
        <ele>106</ele>
        <time>2014-10-31T10:31:06.000Z</time>
      </trkpt>
      <trkpt lat="47.32489" lon="-1.36047">
        <ele>121</ele>
        <time>2014-10-31T10:31:08.000Z</time>
      </trkpt>
      <trkpt lat="47.32497" lon="-1.36045">
        <ele>121</ele>
        <time>2014-10-31T10:31:10.000Z</time>
      </trkpt>
      <trkpt lat="47.32507" lon="-1.36041">
        <ele>118</ele>
        <time>2014-10-31T10:31:13.000Z</time>
      </trkpt>
      <trkpt lat="47.32514" lon="-1.36039">
        <ele>116</ele>
        <time>2014-10-31T10:31:15.000Z</time>
      </trkpt>
      <trkpt lat="47.32521" lon="-1.36036">
        <ele>115</ele>
        <time>2014-10-31T10:31:17.000Z</time>
      </trkpt>
      <trkpt lat="47.32531" lon="-1.36034">
        <ele>114</ele>
        <time>2014-10-31T10:31:19.000Z</time>
      </trkpt>
      <trkpt lat="47.32539" lon="-1.36032">
        <ele>114</ele>
        <time>2014-10-31T10:31:21.000Z</time>
      </trkpt>
      <trkpt lat="47.32547" lon="-1.36029">
        <ele>111</ele>
        <time>2014-10-31T10:31:23.000Z</time>
      </trkpt>
      <trkpt lat="47.32552" lon="-1.36024">
        <ele>112</ele>
        <time>2014-10-31T10:31:25.000Z</time>
      </trkpt>
      <trkpt lat="47.32552" lon="-1.36024">
        <ele>112</ele>
        <time>2014-10-31T10:31:27.000Z</time>
      </trkpt>
      <trkpt lat="47.32552" lon="-1.36024">
        <ele>112</ele>
        <time>2014-10-31T10:31:29.000Z</time>
      </trkpt>
      <trkpt lat="47.32552" lon="-1.36024">
        <ele>112</ele>
        <time>2014-10-31T10:31:31.000Z</time>
      </trkpt>
      <trkpt lat="47.32559" lon="-1.36025">
        <ele>105</ele>
        <time>2014-10-31T10:31:33.000Z</time>
      </trkpt>
      <trkpt lat="47.32559" lon="-1.36025">
        <ele>105</ele>
        <time>2014-10-31T10:31:35.000Z</time>
      </trkpt>
      <trkpt lat="47.32559" lon="-1.36025">
        <ele>105</ele>
        <time>2014-10-31T10:31:37.000Z</time>
      </trkpt>
      <trkpt lat="47.32559" lon="-1.36025">
        <ele>105</ele>
        <time>2014-10-31T10:31:39.000Z</time>
      </trkpt>
      <trkpt lat="47.32559" lon="-1.36025">
        <ele>105</ele>
        <time>2014-10-31T10:31:41.000Z</time>
      </trkpt>
      <trkpt lat="47.32559" lon="-1.36025">
        <ele>105</ele>
        <time>2014-10-31T10:31:43.000Z</time>
      </trkpt>
      <trkpt lat="47.32559" lon="-1.36025">
        <ele>105</ele>
        <time>2014-10-31T10:31:46.000Z</time>
      </trkpt>
      <trkpt lat="47.32559" lon="-1.36025">
        <ele>105</ele>
        <time>2014-10-31T10:31:48.000Z</time>
      </trkpt>
      <trkpt lat="47.32559" lon="-1.36025">
        <ele>105</ele>
        <time>2014-10-31T10:31:49.000Z</time>
      </trkpt>
      <trkpt lat="47.32559" lon="-1.36025">
        <ele>105</ele>
        <time>2014-10-31T10:31:51.000Z</time>
      </trkpt>
      <trkpt lat="47.32559" lon="-1.36025">
        <ele>105</ele>
        <time>2014-10-31T10:31:53.000Z</time>
      </trkpt>
      <trkpt lat="47.32559" lon="-1.36025">
        <ele>105</ele>
        <time>2014-10-31T10:31:56.000Z</time>
      </trkpt>
      <trkpt lat="47.32559" lon="-1.36025">
        <ele>105</ele>
        <time>2014-10-31T10:31:58.000Z</time>
      </trkpt>
      <trkpt lat="47.32559" lon="-1.36025">
        <ele>105</ele>
        <time>2014-10-31T10:31:59.000Z</time>
      </trkpt>
      <trkpt lat="47.32559" lon="-1.36025">
        <ele>105</ele>
        <time>2014-10-31T10:32:02.000Z</time>
      </trkpt>
      <trkpt lat="47.32559" lon="-1.36025">
        <ele>105</ele>
        <time>2014-10-31T10:32:04.000Z</time>
      </trkpt>
      <trkpt lat="47.3256" lon="-1.3602">
        <ele>103</ele>
        <time>2014-10-31T10:32:15.000Z</time>
      </trkpt>
      <trkpt lat="47.32561" lon="-1.36016">
        <ele>105</ele>
        <time>2014-10-31T10:32:20.000Z</time>
      </trkpt>
      <trkpt lat="47.32561" lon="-1.36012">
        <ele>108</ele>
        <time>2014-10-31T10:32:25.000Z</time>
      </trkpt>
      <trkpt lat="47.32561" lon="-1.36012">
        <ele>108</ele>
        <time>2014-10-31T10:32:27.000Z</time>
      </trkpt>
      <trkpt lat="47.32561" lon="-1.36012">
        <ele>108</ele>
        <time>2014-10-31T10:32:30.000Z</time>
      </trkpt>
      <trkpt lat="47.32561" lon="-1.36012">
        <ele>108</ele>
        <time>2014-10-31T10:32:31.000Z</time>
      </trkpt>
      <trkpt lat="47.32561" lon="-1.36012">
        <ele>108</ele>
        <time>2014-10-31T10:32:34.000Z</time>
      </trkpt>
      <trkpt lat="47.32564" lon="-1.36011">
        <ele>114</ele>
        <time>2014-10-31T10:32:45.000Z</time>
      </trkpt>
      <trkpt lat="47.32567" lon="-1.36012">
        <ele>117</ele>
        <time>2014-10-31T10:32:47.000Z</time>
      </trkpt>
      <trkpt lat="47.32571" lon="-1.36014">
        <ele>120</ele>
        <time>2014-10-31T10:32:49.000Z</time>
      </trkpt>
      <trkpt lat="47.32576" lon="-1.36014">
        <ele>123</ele>
        <time>2014-10-31T10:32:52.000Z</time>
      </trkpt>
      <trkpt lat="47.3258" lon="-1.36014">
        <ele>125</ele>
        <time>2014-10-31T10:32:53.000Z</time>
      </trkpt>
      <trkpt lat="47.32588" lon="-1.36015">
        <ele>125</ele>
        <time>2014-10-31T10:32:55.000Z</time>
      </trkpt>
      <trkpt lat="47.32588" lon="-1.36015">
        <ele>125</ele>
        <time>2014-10-31T10:32:57.000Z</time>
      </trkpt>
      <trkpt lat="47.32588" lon="-1.36015">
        <ele>125</ele>
        <time>2014-10-31T10:32:59.000Z</time>
      </trkpt>
      <trkpt lat="47.32597" lon="-1.3602">
        <ele>127</ele>
        <time>2014-10-31T10:33:01.000Z</time>
      </trkpt>
      <trkpt lat="47.32606" lon="-1.36023">
        <ele>127</ele>
        <time>2014-10-31T10:33:06.000Z</time>
      </trkpt>
      <trkpt lat="47.3261" lon="-1.36031">
        <ele>129</ele>
        <time>2014-10-31T10:33:07.000Z</time>
      </trkpt>
      <trkpt lat="47.32613" lon="-1.36041">
        <ele>129</ele>
        <time>2014-10-31T10:33:09.000Z</time>
      </trkpt>
      <trkpt lat="47.32618" lon="-1.3605">
        <ele>127</ele>
        <time>2014-10-31T10:33:11.000Z</time>
      </trkpt>
      <trkpt lat="47.32623" lon="-1.36057">
        <ele>126</ele>
        <time>2014-10-31T10:33:14.000Z</time>
      </trkpt>
      <trkpt lat="47.32628" lon="-1.36065">
        <ele>125</ele>
        <time>2014-10-31T10:33:16.000Z</time>
      </trkpt>
      <trkpt lat="47.32628" lon="-1.36065">
        <ele>125</ele>
        <time>2014-10-31T10:33:18.000Z</time>
      </trkpt>
      <trkpt lat="47.32634" lon="-1.36069">
        <ele>121</ele>
        <time>2014-10-31T10:33:20.000Z</time>
      </trkpt>
      <trkpt lat="47.32634" lon="-1.36069">
        <ele>121</ele>
        <time>2014-10-31T10:33:22.000Z</time>
      </trkpt>
      <trkpt lat="47.3264" lon="-1.36076">
        <ele>120</ele>
        <time>2014-10-31T10:33:25.000Z</time>
      </trkpt>
      <trkpt lat="47.3264" lon="-1.36076">
        <ele>120</ele>
        <time>2014-10-31T10:33:26.000Z</time>
      </trkpt>
      <trkpt lat="47.32646" lon="-1.36089">
        <ele>117</ele>
        <time>2014-10-31T10:33:28.000Z</time>
      </trkpt>
      <trkpt lat="47.32651" lon="-1.361">
        <ele>112</ele>
        <time>2014-10-31T10:33:32.000Z</time>
      </trkpt>
      <trkpt lat="47.32655" lon="-1.3611">
        <ele>109</ele>
        <time>2014-10-31T10:33:34.000Z</time>
      </trkpt>
      <trkpt lat="47.32658" lon="-1.36119">
        <ele>116</ele>
        <time>2014-10-31T10:33:36.000Z</time>
      </trkpt>
      <trkpt lat="47.32663" lon="-1.3613">
        <ele>115</ele>
        <time>2014-10-31T10:33:38.000Z</time>
      </trkpt>
      <trkpt lat="47.32668" lon="-1.36142">
        <ele>119</ele>
        <time>2014-10-31T10:33:42.000Z</time>
      </trkpt>
      <trkpt lat="47.32673" lon="-1.3615">
        <ele>113</ele>
        <time>2014-10-31T10:33:44.000Z</time>
      </trkpt>
      <trkpt lat="47.32678" lon="-1.36157">
        <ele>115</ele>
        <time>2014-10-31T10:33:46.000Z</time>
      </trkpt>
      <trkpt lat="47.32678" lon="-1.36157">
        <ele>115</ele>
        <time>2014-10-31T10:33:49.000Z</time>
      </trkpt>
      <trkpt lat="47.32687" lon="-1.36165">
        <ele>116</ele>
        <time>2014-10-31T10:33:50.000Z</time>
      </trkpt>
      <trkpt lat="47.32687" lon="-1.36165">
        <ele>116</ele>
        <time>2014-10-31T10:33:52.000Z</time>
      </trkpt>
      <trkpt lat="47.32697" lon="-1.36173">
        <ele>118</ele>
        <time>2014-10-31T10:33:54.000Z</time>
      </trkpt>
      <trkpt lat="47.32697" lon="-1.36173">
        <ele>118</ele>
        <time>2014-10-31T10:33:56.000Z</time>
      </trkpt>
      <trkpt lat="47.32705" lon="-1.36182">
        <ele>118</ele>
        <time>2014-10-31T10:33:58.000Z</time>
      </trkpt>
      <trkpt lat="47.32711" lon="-1.36187">
        <ele>123</ele>
        <time>2014-10-31T10:34:00.000Z</time>
      </trkpt>
      <trkpt lat="47.32716" lon="-1.3619">
        <ele>122</ele>
        <time>2014-10-31T10:34:02.000Z</time>
      </trkpt>
      <trkpt lat="47.32721" lon="-1.36197">
        <ele>121</ele>
        <time>2014-10-31T10:34:05.000Z</time>
      </trkpt>
      <trkpt lat="47.32728" lon="-1.36208">
        <ele>120</ele>
        <time>2014-10-31T10:34:06.000Z</time>
      </trkpt>
      <trkpt lat="47.32734" lon="-1.36216">
        <ele>120</ele>
        <time>2014-10-31T10:34:08.000Z</time>
      </trkpt>
      <trkpt lat="47.32739" lon="-1.3622">
        <ele>120</ele>
        <time>2014-10-31T10:34:11.000Z</time>
      </trkpt>
      <trkpt lat="47.32739" lon="-1.3622">
        <ele>120</ele>
        <time>2014-10-31T10:34:12.000Z</time>
      </trkpt>
      <trkpt lat="47.32747" lon="-1.36227">
        <ele>120</ele>
        <time>2014-10-31T10:34:14.000Z</time>
      </trkpt>
      <trkpt lat="47.32747" lon="-1.36227">
        <ele>120</ele>
        <time>2014-10-31T10:34:17.000Z</time>
      </trkpt>
      <trkpt lat="47.32752" lon="-1.36238">
        <ele>120</ele>
        <time>2014-10-31T10:34:19.000Z</time>
      </trkpt>
      <trkpt lat="47.32752" lon="-1.36238">
        <ele>120</ele>
        <time>2014-10-31T10:34:21.000Z</time>
      </trkpt>
      <trkpt lat="47.32761" lon="-1.36248">
        <ele>117</ele>
        <time>2014-10-31T10:34:23.000Z</time>
      </trkpt>
      <trkpt lat="47.32766" lon="-1.36252">
        <ele>116</ele>
        <time>2014-10-31T10:34:24.000Z</time>
      </trkpt>
      <trkpt lat="47.32772" lon="-1.36258">
        <ele>117</ele>
        <time>2014-10-31T10:34:26.000Z</time>
      </trkpt>
      <trkpt lat="47.32777" lon="-1.36265">
        <ele>122</ele>
        <time>2014-10-31T10:34:29.000Z</time>
      </trkpt>
      <trkpt lat="47.32782" lon="-1.36275">
        <ele>119</ele>
        <time>2014-10-31T10:34:30.000Z</time>
      </trkpt>
      <trkpt lat="47.32786" lon="-1.36282">
        <ele>118</ele>
        <time>2014-10-31T10:34:32.000Z</time>
      </trkpt>
      <trkpt lat="47.32793" lon="-1.36292">
        <ele>118</ele>
        <time>2014-10-31T10:34:35.000Z</time>
      </trkpt>
      <trkpt lat="47.32798" lon="-1.36298">
        <ele>118</ele>
        <time>2014-10-31T10:34:36.000Z</time>
      </trkpt>
      <trkpt lat="47.32798" lon="-1.36298">
        <ele>118</ele>
        <time>2014-10-31T10:34:38.000Z</time>
      </trkpt>
      <trkpt lat="47.32806" lon="-1.36308">
        <ele>114</ele>
        <time>2014-10-31T10:34:41.000Z</time>
      </trkpt>
      <trkpt lat="47.32813" lon="-1.36317">
        <ele>113</ele>
        <time>2014-10-31T10:34:43.000Z</time>
      </trkpt>
      <trkpt lat="47.32819" lon="-1.36329">
        <ele>112</ele>
        <time>2014-10-31T10:34:45.000Z</time>
      </trkpt>
      <trkpt lat="47.32824" lon="-1.3634">
        <ele>113</ele>
        <time>2014-10-31T10:34:46.000Z</time>
      </trkpt>
      <trkpt lat="47.32829" lon="-1.3635">
        <ele>115</ele>
        <time>2014-10-31T10:34:49.000Z</time>
      </trkpt>
      <trkpt lat="47.32832" lon="-1.3636">
        <ele>115</ele>
        <time>2014-10-31T10:34:50.000Z</time>
      </trkpt>
      <trkpt lat="47.32835" lon="-1.36369">
        <ele>116</ele>
        <time>2014-10-31T10:34:53.000Z</time>
      </trkpt>
      <trkpt lat="47.32838" lon="-1.36377">
        <ele>120</ele>
        <time>2014-10-31T10:34:55.000Z</time>
      </trkpt>
      <trkpt lat="47.32842" lon="-1.36386">
        <ele>120</ele>
        <time>2014-10-31T10:34:57.000Z</time>
      </trkpt>
      <trkpt lat="47.32842" lon="-1.36386">
        <ele>120</ele>
        <time>2014-10-31T10:34:58.000Z</time>
      </trkpt>
      <trkpt lat="47.32848" lon="-1.36399">
        <ele>120</ele>
        <time>2014-10-31T10:35:00.000Z</time>
      </trkpt>
      <trkpt lat="47.32851" lon="-1.36409">
        <ele>126</ele>
        <time>2014-10-31T10:35:02.000Z</time>
      </trkpt>
      <trkpt lat="47.32853" lon="-1.36423">
        <ele>126</ele>
        <time>2014-10-31T10:35:04.000Z</time>
      </trkpt>
      <trkpt lat="47.32854" lon="-1.36437">
        <ele>125</ele>
        <time>2014-10-31T10:35:07.000Z</time>
      </trkpt>
      <trkpt lat="47.32856" lon="-1.36449">
        <ele>131</ele>
        <time>2014-10-31T10:35:08.000Z</time>
      </trkpt>
      <trkpt lat="47.32859" lon="-1.36461">
        <ele>133</ele>
        <time>2014-10-31T10:35:10.000Z</time>
      </trkpt>
      <trkpt lat="47.32861" lon="-1.36472">
        <ele>133</ele>
        <time>2014-10-31T10:35:12.000Z</time>
      </trkpt>
      <trkpt lat="47.32863" lon="-1.36483">
        <ele>133</ele>
        <time>2014-10-31T10:35:14.000Z</time>
      </trkpt>
      <trkpt lat="47.32866" lon="-1.36493">
        <ele>134</ele>
        <time>2014-10-31T10:35:16.000Z</time>
      </trkpt>
      <trkpt lat="47.32871" lon="-1.36504">
        <ele>137</ele>
        <time>2014-10-31T10:35:18.000Z</time>
      </trkpt>
      <trkpt lat="47.32876" lon="-1.36512">
        <ele>133</ele>
        <time>2014-10-31T10:35:20.000Z</time>
      </trkpt>
      <trkpt lat="47.32882" lon="-1.3652">
        <ele>133</ele>
        <time>2014-10-31T10:35:22.000Z</time>
      </trkpt>
      <trkpt lat="47.32887" lon="-1.36527">
        <ele>134</ele>
        <time>2014-10-31T10:35:25.000Z</time>
      </trkpt>
      <trkpt lat="47.32893" lon="-1.36532">
        <ele>135</ele>
        <time>2014-10-31T10:35:26.000Z</time>
      </trkpt>
      <trkpt lat="47.329" lon="-1.36538">
        <ele>135</ele>
        <time>2014-10-31T10:35:29.000Z</time>
      </trkpt>
      <trkpt lat="47.32907" lon="-1.36542">
        <ele>133</ele>
        <time>2014-10-31T10:35:30.000Z</time>
      </trkpt>
      <trkpt lat="47.32914" lon="-1.36546">
        <ele>132</ele>
        <time>2014-10-31T10:35:32.000Z</time>
      </trkpt>
      <trkpt lat="47.32919" lon="-1.36553">
        <ele>140</ele>
        <time>2014-10-31T10:35:34.000Z</time>
      </trkpt>
      <trkpt lat="47.32923" lon="-1.36563">
        <ele>141</ele>
        <time>2014-10-31T10:35:37.000Z</time>
      </trkpt>
      <trkpt lat="47.32928" lon="-1.36574">
        <ele>138</ele>
        <time>2014-10-31T10:35:38.000Z</time>
      </trkpt>
      <trkpt lat="47.32932" lon="-1.36585">
        <ele>139</ele>
        <time>2014-10-31T10:35:40.000Z</time>
      </trkpt>
      <trkpt lat="47.32937" lon="-1.36597">
        <ele>138</ele>
        <time>2014-10-31T10:35:42.000Z</time>
      </trkpt>
      <trkpt lat="47.32948" lon="-1.36624">
        <ele>137</ele>
        <time>2014-10-31T10:35:45.000Z</time>
      </trkpt>
      <trkpt lat="47.32956" lon="-1.36644">
        <ele>136</ele>
        <time>2014-10-31T10:35:49.000Z</time>
      </trkpt>
      <trkpt lat="47.32971" lon="-1.36664">
        <ele>129</ele>
        <time>2014-10-31T10:35:51.000Z</time>
      </trkpt>
      <trkpt lat="47.32981" lon="-1.36672">
        <ele>126</ele>
        <time>2014-10-31T10:35:54.000Z</time>
      </trkpt>
      <trkpt lat="47.32987" lon="-1.36678">
        <ele>126</ele>
        <time>2014-10-31T10:35:56.000Z</time>
      </trkpt>
      <trkpt lat="47.32987" lon="-1.36678">
        <ele>126</ele>
        <time>2014-10-31T10:35:58.000Z</time>
      </trkpt>
      <trkpt lat="47.32992" lon="-1.36687">
        <ele>123</ele>
        <time>2014-10-31T10:36:00.000Z</time>
      </trkpt>
      <trkpt lat="47.32992" lon="-1.36687">
        <ele>123</ele>
        <time>2014-10-31T10:36:02.000Z</time>
      </trkpt>
      <trkpt lat="47.32999" lon="-1.36696">
        <ele>123</ele>
        <time>2014-10-31T10:36:04.000Z</time>
      </trkpt>
      <trkpt lat="47.33005" lon="-1.36702">
        <ele>120</ele>
        <time>2014-10-31T10:36:06.000Z</time>
      </trkpt>
      <trkpt lat="47.3301" lon="-1.36708">
        <ele>124</ele>
        <time>2014-10-31T10:36:09.000Z</time>
      </trkpt>
      <trkpt lat="47.3301" lon="-1.36708">
        <ele>124</ele>
        <time>2014-10-31T10:36:11.000Z</time>
      </trkpt>
      <trkpt lat="47.33021" lon="-1.36718">
        <ele>122</ele>
        <time>2014-10-31T10:36:12.000Z</time>
      </trkpt>
      <trkpt lat="47.33036" lon="-1.36736">
        <ele>122</ele>
        <time>2014-10-31T10:36:16.000Z</time>
      </trkpt>
      <trkpt lat="47.33046" lon="-1.36743">
        <ele>120</ele>
        <time>2014-10-31T10:36:17.000Z</time>
      </trkpt>
      <trkpt lat="47.33057" lon="-1.36751">
        <ele>121</ele>
        <time>2014-10-31T10:36:19.000Z</time>
      </trkpt>
      <trkpt lat="47.33064" lon="-1.36756">
        <ele>121</ele>
        <time>2014-10-31T10:36:21.000Z</time>
      </trkpt>
      <trkpt lat="47.33069" lon="-1.36761">
        <ele>121</ele>
        <time>2014-10-31T10:36:24.000Z</time>
      </trkpt>
      <trkpt lat="47.33075" lon="-1.36767">
        <ele>123</ele>
        <time>2014-10-31T10:36:25.000Z</time>
      </trkpt>
      <trkpt lat="47.3308" lon="-1.36773">
        <ele>123</ele>
        <time>2014-10-31T10:36:27.000Z</time>
      </trkpt>
      <trkpt lat="47.33085" lon="-1.36778">
        <ele>124</ele>
        <time>2014-10-31T10:36:30.000Z</time>
      </trkpt>
      <trkpt lat="47.33091" lon="-1.36782">
        <ele>124</ele>
        <time>2014-10-31T10:36:32.000Z</time>
      </trkpt>
      <trkpt lat="47.33091" lon="-1.36782">
        <ele>124</ele>
        <time>2014-10-31T10:36:33.000Z</time>
      </trkpt>
      <trkpt lat="47.33102" lon="-1.36788">
        <ele>127</ele>
        <time>2014-10-31T10:36:36.000Z</time>
      </trkpt>
      <trkpt lat="47.33107" lon="-1.36792">
        <ele>128</ele>
        <time>2014-10-31T10:36:38.000Z</time>
      </trkpt>
      <trkpt lat="47.33112" lon="-1.36797">
        <ele>129</ele>
        <time>2014-10-31T10:36:40.000Z</time>
      </trkpt>
      <trkpt lat="47.33116" lon="-1.36803">
        <ele>131</ele>
        <time>2014-10-31T10:36:42.000Z</time>
      </trkpt>
      <trkpt lat="47.3312" lon="-1.36813">
        <ele>131</ele>
        <time>2014-10-31T10:36:44.000Z</time>
      </trkpt>
      <trkpt lat="47.33125" lon="-1.36824">
        <ele>131</ele>
        <time>2014-10-31T10:36:45.000Z</time>
      </trkpt>
      <trkpt lat="47.33131" lon="-1.36834">
        <ele>125</ele>
        <time>2014-10-31T10:36:47.000Z</time>
      </trkpt>
      <trkpt lat="47.33137" lon="-1.36843">
        <ele>125</ele>
        <time>2014-10-31T10:36:49.000Z</time>
      </trkpt>
      <trkpt lat="47.33139" lon="-1.36851">
        <ele>128</ele>
        <time>2014-10-31T10:36:52.000Z</time>
      </trkpt>
      <trkpt lat="47.33141" lon="-1.36861">
        <ele>126</ele>
        <time>2014-10-31T10:36:53.000Z</time>
      </trkpt>
      <trkpt lat="47.33144" lon="-1.36869">
        <ele>123</ele>
        <time>2014-10-31T10:36:56.000Z</time>
      </trkpt>
      <trkpt lat="47.33149" lon="-1.36877">
        <ele>123</ele>
        <time>2014-10-31T10:36:57.000Z</time>
      </trkpt>
      <trkpt lat="47.33156" lon="-1.36883">
        <ele>123</ele>
        <time>2014-10-31T10:36:59.000Z</time>
      </trkpt>
      <trkpt lat="47.33163" lon="-1.36887">
        <ele>122</ele>
        <time>2014-10-31T10:37:02.000Z</time>
      </trkpt>
      <trkpt lat="47.33163" lon="-1.36887">
        <ele>122</ele>
        <time>2014-10-31T10:37:04.000Z</time>
      </trkpt>
      <trkpt lat="47.33167" lon="-1.36897">
        <ele>120</ele>
        <time>2014-10-31T10:37:05.000Z</time>
      </trkpt>
      <trkpt lat="47.33167" lon="-1.36897">
        <ele>120</ele>
        <time>2014-10-31T10:37:08.000Z</time>
      </trkpt>
      <trkpt lat="47.33168" lon="-1.36906">
        <ele>120</ele>
        <time>2014-10-31T10:37:10.000Z</time>
      </trkpt>
      <trkpt lat="47.33168" lon="-1.36906">
        <ele>120</ele>
        <time>2014-10-31T10:37:11.000Z</time>
      </trkpt>
      <trkpt lat="47.33168" lon="-1.36906">
        <ele>120</ele>
        <time>2014-10-31T10:37:13.000Z</time>
      </trkpt>
      <trkpt lat="47.33176" lon="-1.36913">
        <ele>121</ele>
        <time>2014-10-31T10:37:15.000Z</time>
      </trkpt>
      <trkpt lat="47.33176" lon="-1.36913">
        <ele>121</ele>
        <time>2014-10-31T10:37:17.000Z</time>
      </trkpt>
      <trkpt lat="47.33176" lon="-1.36913">
        <ele>121</ele>
        <time>2014-10-31T10:37:19.000Z</time>
      </trkpt>
      <trkpt lat="47.33182" lon="-1.36914">
        <ele>121</ele>
        <time>2014-10-31T10:37:21.000Z</time>
      </trkpt>
      <trkpt lat="47.33182" lon="-1.36914">
        <ele>121</ele>
        <time>2014-10-31T10:37:23.000Z</time>
      </trkpt>
      <trkpt lat="47.33189" lon="-1.36925">
        <ele>120</ele>
        <time>2014-10-31T10:37:25.000Z</time>
      </trkpt>
      <trkpt lat="47.33199" lon="-1.36931">
        <ele>120</ele>
        <time>2014-10-31T10:37:30.000Z</time>
      </trkpt>
      <trkpt lat="47.33199" lon="-1.36931">
        <ele>120</ele>
        <time>2014-10-31T10:37:31.000Z</time>
      </trkpt>
      <trkpt lat="47.33202" lon="-1.36934">
        <ele>122</ele>
        <time>2014-10-31T10:37:34.000Z</time>
      </trkpt>
      <trkpt lat="47.33206" lon="-1.36937">
        <ele>122</ele>
        <time>2014-10-31T10:37:35.000Z</time>
      </trkpt>
      <trkpt lat="47.3321" lon="-1.36941">
        <ele>122</ele>
        <time>2014-10-31T10:37:37.000Z</time>
      </trkpt>
      <trkpt lat="47.33214" lon="-1.36946">
        <ele>121</ele>
        <time>2014-10-31T10:37:39.000Z</time>
      </trkpt>
      <trkpt lat="47.33218" lon="-1.36951">
        <ele>122</ele>
        <time>2014-10-31T10:37:41.000Z</time>
      </trkpt>
      <trkpt lat="47.33224" lon="-1.3696">
        <ele>124</ele>
        <time>2014-10-31T10:37:43.000Z</time>
      </trkpt>
      <trkpt lat="47.33224" lon="-1.3696">
        <ele>124</ele>
        <time>2014-10-31T10:37:45.000Z</time>
      </trkpt>
      <trkpt lat="47.33228" lon="-1.3697">
        <ele>123</ele>
        <time>2014-10-31T10:37:48.000Z</time>
      </trkpt>
      <trkpt lat="47.33228" lon="-1.3697">
        <ele>123</ele>
        <time>2014-10-31T10:37:50.000Z</time>
      </trkpt>
      <trkpt lat="47.33238" lon="-1.36983">
        <ele>129</ele>
        <time>2014-10-31T10:37:51.000Z</time>
      </trkpt>
      <trkpt lat="47.33244" lon="-1.3699">
        <ele>129</ele>
        <time>2014-10-31T10:37:54.000Z</time>
      </trkpt>
      <trkpt lat="47.33249" lon="-1.36997">
        <ele>128</ele>
        <time>2014-10-31T10:37:55.000Z</time>
      </trkpt>
      <trkpt lat="47.33252" lon="-1.37003">
        <ele>127</ele>
        <time>2014-10-31T10:37:57.000Z</time>
      </trkpt>
      <trkpt lat="47.33256" lon="-1.37013">
        <ele>128</ele>
        <time>2014-10-31T10:37:59.000Z</time>
      </trkpt>
      <trkpt lat="47.33262" lon="-1.37025">
        <ele>128</ele>
        <time>2014-10-31T10:38:04.000Z</time>
      </trkpt>
      <trkpt lat="47.33262" lon="-1.37025">
        <ele>128</ele>
        <time>2014-10-31T10:38:06.000Z</time>
      </trkpt>
      <trkpt lat="47.33269" lon="-1.37037">
        <ele>125</ele>
        <time>2014-10-31T10:38:08.000Z</time>
      </trkpt>
      <trkpt lat="47.33274" lon="-1.37043">
        <ele>125</ele>
        <time>2014-10-31T10:38:09.000Z</time>
      </trkpt>
      <trkpt lat="47.33278" lon="-1.3705">
        <ele>127</ele>
        <time>2014-10-31T10:38:11.000Z</time>
      </trkpt>
      <trkpt lat="47.33278" lon="-1.3705">
        <ele>127</ele>
        <time>2014-10-31T10:38:13.000Z</time>
      </trkpt>
      <trkpt lat="47.33285" lon="-1.37062">
        <ele>126</ele>
        <time>2014-10-31T10:38:15.000Z</time>
      </trkpt>
      <trkpt lat="47.33287" lon="-1.37072">
        <ele>124</ele>
        <time>2014-10-31T10:38:17.000Z</time>
      </trkpt>
      <trkpt lat="47.33293" lon="-1.37087">
        <ele>122</ele>
        <time>2014-10-31T10:38:21.000Z</time>
      </trkpt>
      <trkpt lat="47.33293" lon="-1.37087">
        <ele>122</ele>
        <time>2014-10-31T10:38:23.000Z</time>
      </trkpt>
      <trkpt lat="47.33297" lon="-1.37096">
        <ele>121</ele>
        <time>2014-10-31T10:38:26.000Z</time>
      </trkpt>
      <trkpt lat="47.33297" lon="-1.37096">
        <ele>121</ele>
        <time>2014-10-31T10:38:27.000Z</time>
      </trkpt>
      <trkpt lat="47.33303" lon="-1.37104">
        <ele>123</ele>
        <time>2014-10-31T10:38:29.000Z</time>
      </trkpt>
      <trkpt lat="47.33309" lon="-1.37105">
        <ele>120</ele>
        <time>2014-10-31T10:38:31.000Z</time>
      </trkpt>
      <trkpt lat="47.33313" lon="-1.37113">
        <ele>117</ele>
        <time>2014-10-31T10:38:35.000Z</time>
      </trkpt>
      <trkpt lat="47.33316" lon="-1.37122">
        <ele>117</ele>
        <time>2014-10-31T10:38:37.000Z</time>
      </trkpt>
      <trkpt lat="47.33318" lon="-1.37132">
        <ele>121</ele>
        <time>2014-10-31T10:38:39.000Z</time>
      </trkpt>
      <trkpt lat="47.33319" lon="-1.37146">
        <ele>123</ele>
        <time>2014-10-31T10:38:42.000Z</time>
      </trkpt>
      <trkpt lat="47.33321" lon="-1.37159">
        <ele>123</ele>
        <time>2014-10-31T10:38:43.000Z</time>
      </trkpt>
      <trkpt lat="47.33323" lon="-1.37171">
        <ele>123</ele>
        <time>2014-10-31T10:38:45.000Z</time>
      </trkpt>
      <trkpt lat="47.33327" lon="-1.37183">
        <ele>122</ele>
        <time>2014-10-31T10:38:48.000Z</time>
      </trkpt>
      <trkpt lat="47.33331" lon="-1.37192">
        <ele>123</ele>
        <time>2014-10-31T10:38:49.000Z</time>
      </trkpt>
      <trkpt lat="47.33334" lon="-1.37201">
        <ele>123</ele>
        <time>2014-10-31T10:38:51.000Z</time>
      </trkpt>
      <trkpt lat="47.3334" lon="-1.37209">
        <ele>122</ele>
        <time>2014-10-31T10:38:53.000Z</time>
      </trkpt>
      <trkpt lat="47.33345" lon="-1.37219">
        <ele>121</ele>
        <time>2014-10-31T10:38:55.000Z</time>
      </trkpt>
      <trkpt lat="47.33347" lon="-1.37229">
        <ele>121</ele>
        <time>2014-10-31T10:38:58.000Z</time>
      </trkpt>
      <trkpt lat="47.33347" lon="-1.37238">
        <ele>121</ele>
        <time>2014-10-31T10:38:59.000Z</time>
      </trkpt>
      <trkpt lat="47.33347" lon="-1.37238">
        <ele>121</ele>
        <time>2014-10-31T10:39:01.000Z</time>
      </trkpt>
      <trkpt lat="47.33351" lon="-1.37251">
        <ele>126</ele>
        <time>2014-10-31T10:39:03.000Z</time>
      </trkpt>
      <trkpt lat="47.33355" lon="-1.3726">
        <ele>128</ele>
        <time>2014-10-31T10:39:05.000Z</time>
      </trkpt>
      <trkpt lat="47.33358" lon="-1.3727">
        <ele>130</ele>
        <time>2014-10-31T10:39:07.000Z</time>
      </trkpt>
      <trkpt lat="47.33361" lon="-1.37282">
        <ele>133</ele>
        <time>2014-10-31T10:39:09.000Z</time>
      </trkpt>
      <trkpt lat="47.33363" lon="-1.37293">
        <ele>132</ele>
        <time>2014-10-31T10:39:11.000Z</time>
      </trkpt>
      <trkpt lat="47.33363" lon="-1.37293">
        <ele>132</ele>
        <time>2014-10-31T10:39:13.000Z</time>
      </trkpt>
      <trkpt lat="47.33367" lon="-1.37308">
        <ele>129</ele>
        <time>2014-10-31T10:39:15.000Z</time>
      </trkpt>
      <trkpt lat="47.3337" lon="-1.37317">
        <ele>129</ele>
        <time>2014-10-31T10:39:18.000Z</time>
      </trkpt>
      <trkpt lat="47.33374" lon="-1.37329">
        <ele>125</ele>
        <time>2014-10-31T10:39:20.000Z</time>
      </trkpt>
      <trkpt lat="47.33376" lon="-1.37341">
        <ele>124</ele>
        <time>2014-10-31T10:39:21.000Z</time>
      </trkpt>
      <trkpt lat="47.33379" lon="-1.37356">
        <ele>125</ele>
        <time>2014-10-31T10:39:23.000Z</time>
      </trkpt>
      <trkpt lat="47.33387" lon="-1.37372">
        <ele>130</ele>
        <time>2014-10-31T10:39:25.000Z</time>
      </trkpt>
      <trkpt lat="47.33386" lon="-1.37388">
        <ele>139</ele>
        <time>2014-10-31T10:39:28.000Z</time>
      </trkpt>
      <trkpt lat="47.3339" lon="-1.37399">
        <ele>135</ele>
        <time>2014-10-31T10:39:30.000Z</time>
      </trkpt>
      <trkpt lat="47.33392" lon="-1.37407">
        <ele>133</ele>
        <time>2014-10-31T10:39:32.000Z</time>
      </trkpt>
      <trkpt lat="47.33397" lon="-1.37416">
        <ele>134</ele>
        <time>2014-10-31T10:39:34.000Z</time>
      </trkpt>
      <trkpt lat="47.33397" lon="-1.37416">
        <ele>134</ele>
        <time>2014-10-31T10:39:37.000Z</time>
      </trkpt>
      <trkpt lat="47.33401" lon="-1.37425">
        <ele>133</ele>
        <time>2014-10-31T10:39:38.000Z</time>
      </trkpt>
      <trkpt lat="47.33407" lon="-1.37433">
        <ele>130</ele>
        <time>2014-10-31T10:39:41.000Z</time>
      </trkpt>
      <trkpt lat="47.33413" lon="-1.3744">
        <ele>130</ele>
        <time>2014-10-31T10:39:42.000Z</time>
      </trkpt>
      <trkpt lat="47.33419" lon="-1.37446">
        <ele>134</ele>
        <time>2014-10-31T10:39:45.000Z</time>
      </trkpt>
      <trkpt lat="47.33423" lon="-1.37455">
        <ele>138</ele>
        <time>2014-10-31T10:39:47.000Z</time>
      </trkpt>
      <trkpt lat="47.33426" lon="-1.37465">
        <ele>134</ele>
        <time>2014-10-31T10:39:48.000Z</time>
      </trkpt>
      <trkpt lat="47.3343" lon="-1.37472">
        <ele>132</ele>
        <time>2014-10-31T10:39:50.000Z</time>
      </trkpt>
      <trkpt lat="47.3343" lon="-1.37472">
        <ele>132</ele>
        <time>2014-10-31T10:39:52.000Z</time>
      </trkpt>
      <trkpt lat="47.33435" lon="-1.37478">
        <ele>129</ele>
        <time>2014-10-31T10:39:54.000Z</time>
      </trkpt>
      <trkpt lat="47.33435" lon="-1.37478">
        <ele>129</ele>
        <time>2014-10-31T10:39:57.000Z</time>
      </trkpt>
      <trkpt lat="47.33435" lon="-1.37478">
        <ele>129</ele>
        <time>2014-10-31T10:39:59.000Z</time>
      </trkpt>
      <trkpt lat="47.33435" lon="-1.37478">
        <ele>129</ele>
        <time>2014-10-31T10:40:01.000Z</time>
      </trkpt>
      <trkpt lat="47.33435" lon="-1.37478">
        <ele>129</ele>
        <time>2014-10-31T10:40:03.000Z</time>
      </trkpt>
      <trkpt lat="47.33435" lon="-1.37478">
        <ele>129</ele>
        <time>2014-10-31T10:40:04.000Z</time>
      </trkpt>
      <trkpt lat="47.33435" lon="-1.37478">
        <ele>129</ele>
        <time>2014-10-31T10:40:06.000Z</time>
      </trkpt>
      <trkpt lat="47.33435" lon="-1.37478">
        <ele>129</ele>
        <time>2014-10-31T10:40:09.000Z</time>
      </trkpt>
      <trkpt lat="47.33435" lon="-1.37478">
        <ele>129</ele>
        <time>2014-10-31T10:40:10.000Z</time>
      </trkpt>
      <trkpt lat="47.33435" lon="-1.37478">
        <ele>129</ele>
        <time>2014-10-31T10:40:12.000Z</time>
      </trkpt>
      <trkpt lat="47.33435" lon="-1.37478">
        <ele>129</ele>
        <time>2014-10-31T10:40:15.000Z</time>
      </trkpt>
      <trkpt lat="47.33442" lon="-1.37479">
        <ele>127</ele>
        <time>2014-10-31T10:40:19.000Z</time>
      </trkpt>
      <trkpt lat="47.33447" lon="-1.37475">
        <ele>125</ele>
        <time>2014-10-31T10:40:21.000Z</time>
      </trkpt>
      <trkpt lat="47.33452" lon="-1.37471">
        <ele>123</ele>
        <time>2014-10-31T10:40:22.000Z</time>
      </trkpt>
      <trkpt lat="47.33458" lon="-1.37467">
        <ele>125</ele>
        <time>2014-10-31T10:40:24.000Z</time>
      </trkpt>
      <trkpt lat="47.33463" lon="-1.37463">
        <ele>125</ele>
        <time>2014-10-31T10:40:27.000Z</time>
      </trkpt>
      <trkpt lat="47.33469" lon="-1.37461">
        <ele>125</ele>
        <time>2014-10-31T10:40:29.000Z</time>
      </trkpt>
      <trkpt lat="47.33476" lon="-1.3746">
        <ele>126</ele>
        <time>2014-10-31T10:40:30.000Z</time>
      </trkpt>
      <trkpt lat="47.33483" lon="-1.37462">
        <ele>127</ele>
        <time>2014-10-31T10:40:32.000Z</time>
      </trkpt>
      <trkpt lat="47.3349" lon="-1.37464">
        <ele>128</ele>
        <time>2014-10-31T10:40:34.000Z</time>
      </trkpt>
      <trkpt lat="47.33497" lon="-1.37466">
        <ele>126</ele>
        <time>2014-10-31T10:40:36.000Z</time>
      </trkpt>
      <trkpt lat="47.33504" lon="-1.37466">
        <ele>125</ele>
        <time>2014-10-31T10:40:39.000Z</time>
      </trkpt>
      <trkpt lat="47.33511" lon="-1.37466">
        <ele>124</ele>
        <time>2014-10-31T10:40:40.000Z</time>
      </trkpt>
      <trkpt lat="47.33518" lon="-1.37465">
        <ele>124</ele>
        <time>2014-10-31T10:40:43.000Z</time>
      </trkpt>
      <trkpt lat="47.33525" lon="-1.37462">
        <ele>124</ele>
        <time>2014-10-31T10:40:45.000Z</time>
      </trkpt>
      <trkpt lat="47.33533" lon="-1.37458">
        <ele>123</ele>
        <time>2014-10-31T10:40:46.000Z</time>
      </trkpt>
      <trkpt lat="47.33541" lon="-1.3745">
        <ele>122</ele>
        <time>2014-10-31T10:40:48.000Z</time>
      </trkpt>
      <trkpt lat="47.33548" lon="-1.37441">
        <ele>122</ele>
        <time>2014-10-31T10:40:50.000Z</time>
      </trkpt>
      <trkpt lat="47.33554" lon="-1.37431">
        <ele>122</ele>
        <time>2014-10-31T10:40:53.000Z</time>
      </trkpt>
      <trkpt lat="47.33559" lon="-1.3742">
        <ele>121</ele>
        <time>2014-10-31T10:40:54.000Z</time>
      </trkpt>
      <trkpt lat="47.33564" lon="-1.37409">
        <ele>120</ele>
        <time>2014-10-31T10:40:57.000Z</time>
      </trkpt>
      <trkpt lat="47.33569" lon="-1.37399">
        <ele>120</ele>
        <time>2014-10-31T10:40:59.000Z</time>
      </trkpt>
      <trkpt lat="47.33574" lon="-1.37388">
        <ele>121</ele>
        <time>2014-10-31T10:41:00.000Z</time>
      </trkpt>
      <trkpt lat="47.33579" lon="-1.37377">
        <ele>121</ele>
        <time>2014-10-31T10:41:02.000Z</time>
      </trkpt>
      <trkpt lat="47.33584" lon="-1.37367">
        <ele>121</ele>
        <time>2014-10-31T10:41:04.000Z</time>
      </trkpt>
      <trkpt lat="47.33591" lon="-1.37356">
        <ele>121</ele>
        <time>2014-10-31T10:41:06.000Z</time>
      </trkpt>
      <trkpt lat="47.33597" lon="-1.37347">
        <ele>121</ele>
        <time>2014-10-31T10:41:08.000Z</time>
      </trkpt>
      <trkpt lat="47.33605" lon="-1.37339">
        <ele>120</ele>
        <time>2014-10-31T10:41:10.000Z</time>
      </trkpt>
      <trkpt lat="47.33612" lon="-1.37333">
        <ele>120</ele>
        <time>2014-10-31T10:41:12.000Z</time>
      </trkpt>
      <trkpt lat="47.3362" lon="-1.3733">
        <ele>119</ele>
        <time>2014-10-31T10:41:14.000Z</time>
      </trkpt>
      <trkpt lat="47.33628" lon="-1.37327">
        <ele>119</ele>
        <time>2014-10-31T10:41:16.000Z</time>
      </trkpt>
      <trkpt lat="47.33636" lon="-1.37325">
        <ele>118</ele>
        <time>2014-10-31T10:41:19.000Z</time>
      </trkpt>
      <trkpt lat="47.33644" lon="-1.37324">
        <ele>118</ele>
        <time>2014-10-31T10:41:21.000Z</time>
      </trkpt>
      <trkpt lat="47.33652" lon="-1.37323">
        <ele>118</ele>
        <time>2014-10-31T10:41:22.000Z</time>
      </trkpt>
      <trkpt lat="47.3366" lon="-1.37321">
        <ele>118</ele>
        <time>2014-10-31T10:41:25.000Z</time>
      </trkpt>
      <trkpt lat="47.33667" lon="-1.37317">
        <ele>119</ele>
        <time>2014-10-31T10:41:26.000Z</time>
      </trkpt>
      <trkpt lat="47.33674" lon="-1.37313">
        <ele>119</ele>
        <time>2014-10-31T10:41:28.000Z</time>
      </trkpt>
      <trkpt lat="47.33681" lon="-1.37307">
        <ele>119</ele>
        <time>2014-10-31T10:41:31.000Z</time>
      </trkpt>
      <trkpt lat="47.33688" lon="-1.37302">
        <ele>119</ele>
        <time>2014-10-31T10:41:32.000Z</time>
      </trkpt>
      <trkpt lat="47.33696" lon="-1.37295">
        <ele>119</ele>
        <time>2014-10-31T10:41:34.000Z</time>
      </trkpt>
      <trkpt lat="47.33703" lon="-1.37289">
        <ele>120</ele>
        <time>2014-10-31T10:41:36.000Z</time>
      </trkpt>
      <trkpt lat="47.3371" lon="-1.37284">
        <ele>120</ele>
        <time>2014-10-31T10:41:38.000Z</time>
      </trkpt>
      <trkpt lat="47.33718" lon="-1.37279">
        <ele>120</ele>
        <time>2014-10-31T10:41:41.000Z</time>
      </trkpt>
      <trkpt lat="47.33726" lon="-1.37277">
        <ele>120</ele>
        <time>2014-10-31T10:41:42.000Z</time>
      </trkpt>
      <trkpt lat="47.33734" lon="-1.37277">
        <ele>120</ele>
        <time>2014-10-31T10:41:44.000Z</time>
      </trkpt>
      <trkpt lat="47.33743" lon="-1.37277">
        <ele>120</ele>
        <time>2014-10-31T10:41:46.000Z</time>
      </trkpt>
      <trkpt lat="47.33751" lon="-1.37278">
        <ele>120</ele>
        <time>2014-10-31T10:41:48.000Z</time>
      </trkpt>
      <trkpt lat="47.33758" lon="-1.37279">
        <ele>120</ele>
        <time>2014-10-31T10:41:51.000Z</time>
      </trkpt>
      <trkpt lat="47.33766" lon="-1.37279">
        <ele>120</ele>
        <time>2014-10-31T10:41:52.000Z</time>
      </trkpt>
      <trkpt lat="47.33774" lon="-1.37278">
        <ele>120</ele>
        <time>2014-10-31T10:41:54.000Z</time>
      </trkpt>
      <trkpt lat="47.33782" lon="-1.37278">
        <ele>120</ele>
        <time>2014-10-31T10:41:56.000Z</time>
      </trkpt>
      <trkpt lat="47.3379" lon="-1.37279">
        <ele>119</ele>
        <time>2014-10-31T10:41:58.000Z</time>
      </trkpt>
      <trkpt lat="47.33797" lon="-1.3728">
        <ele>120</ele>
        <time>2014-10-31T10:42:01.000Z</time>
      </trkpt>
      <trkpt lat="47.33804" lon="-1.3728">
        <ele>120</ele>
        <time>2014-10-31T10:42:02.000Z</time>
      </trkpt>
      <trkpt lat="47.33812" lon="-1.37279">
        <ele>120</ele>
        <time>2014-10-31T10:42:04.000Z</time>
      </trkpt>
      <trkpt lat="47.3382" lon="-1.37279">
        <ele>120</ele>
        <time>2014-10-31T10:42:06.000Z</time>
      </trkpt>
      <trkpt lat="47.33829" lon="-1.3728">
        <ele>121</ele>
        <time>2014-10-31T10:42:08.000Z</time>
      </trkpt>
      <trkpt lat="47.33837" lon="-1.3728">
        <ele>121</ele>
        <time>2014-10-31T10:42:10.000Z</time>
      </trkpt>
      <trkpt lat="47.33844" lon="-1.3728">
        <ele>119</ele>
        <time>2014-10-31T10:42:13.000Z</time>
      </trkpt>
      <trkpt lat="47.33852" lon="-1.3728">
        <ele>119</ele>
        <time>2014-10-31T10:42:14.000Z</time>
      </trkpt>
      <trkpt lat="47.3386" lon="-1.3728">
        <ele>119</ele>
        <time>2014-10-31T10:42:16.000Z</time>
      </trkpt>
      <trkpt lat="47.33869" lon="-1.37279">
        <ele>119</ele>
        <time>2014-10-31T10:42:18.000Z</time>
      </trkpt>
      <trkpt lat="47.33877" lon="-1.37276">
        <ele>119</ele>
        <time>2014-10-31T10:42:20.000Z</time>
      </trkpt>
      <trkpt lat="47.33886" lon="-1.37272">
        <ele>119</ele>
        <time>2014-10-31T10:42:22.000Z</time>
      </trkpt>
      <trkpt lat="47.33893" lon="-1.37266">
        <ele>119</ele>
        <time>2014-10-31T10:42:25.000Z</time>
      </trkpt>
      <trkpt lat="47.339" lon="-1.37261">
        <ele>120</ele>
        <time>2014-10-31T10:42:26.000Z</time>
      </trkpt>
      <trkpt lat="47.33907" lon="-1.37257">
        <ele>121</ele>
        <time>2014-10-31T10:42:28.000Z</time>
      </trkpt>
      <trkpt lat="47.33914" lon="-1.37252">
        <ele>120</ele>
        <time>2014-10-31T10:42:30.000Z</time>
      </trkpt>
      <trkpt lat="47.33922" lon="-1.37247">
        <ele>121</ele>
        <time>2014-10-31T10:42:32.000Z</time>
      </trkpt>
      <trkpt lat="47.3393" lon="-1.37242">
        <ele>122</ele>
        <time>2014-10-31T10:42:35.000Z</time>
      </trkpt>
      <trkpt lat="47.33937" lon="-1.37237">
        <ele>121</ele>
        <time>2014-10-31T10:42:37.000Z</time>
      </trkpt>
      <trkpt lat="47.33945" lon="-1.37233">
        <ele>121</ele>
        <time>2014-10-31T10:42:38.000Z</time>
      </trkpt>
      <trkpt lat="47.33952" lon="-1.37233">
        <ele>121</ele>
        <time>2014-10-31T10:42:40.000Z</time>
      </trkpt>
      <trkpt lat="47.33958" lon="-1.3724">
        <ele>121</ele>
        <time>2014-10-31T10:42:42.000Z</time>
      </trkpt>
      <trkpt lat="47.33965" lon="-1.37248">
        <ele>120</ele>
        <time>2014-10-31T10:42:44.000Z</time>
      </trkpt>
      <trkpt lat="47.33971" lon="-1.37256">
        <ele>120</ele>
        <time>2014-10-31T10:42:47.000Z</time>
      </trkpt>
      <trkpt lat="47.33975" lon="-1.37263">
        <ele>124</ele>
        <time>2014-10-31T10:42:49.000Z</time>
      </trkpt>
      <trkpt lat="47.33978" lon="-1.3727">
        <ele>123</ele>
        <time>2014-10-31T10:42:51.000Z</time>
      </trkpt>
      <trkpt lat="47.33978" lon="-1.3727">
        <ele>123</ele>
        <time>2014-10-31T10:42:52.000Z</time>
      </trkpt>
      <trkpt lat="47.33985" lon="-1.37279">
        <ele>121</ele>
        <time>2014-10-31T10:42:54.000Z</time>
      </trkpt>
      <trkpt lat="47.33985" lon="-1.37279">
        <ele>121</ele>
        <time>2014-10-31T10:42:56.000Z</time>
      </trkpt>
      <trkpt lat="47.34005" lon="-1.37308">
        <ele>124</ele>
        <time>2014-10-31T10:43:01.000Z</time>
      </trkpt>
      <trkpt lat="47.3401" lon="-1.3732">
        <ele>124</ele>
        <time>2014-10-31T10:43:02.000Z</time>
      </trkpt>
      <trkpt lat="47.34018" lon="-1.37334">
        <ele>124</ele>
        <time>2014-10-31T10:43:04.000Z</time>
      </trkpt>
      <trkpt lat="47.34022" lon="-1.37341">
        <ele>125</ele>
        <time>2014-10-31T10:43:07.000Z</time>
      </trkpt>
      <trkpt lat="47.34037" lon="-1.37354">
        <ele>123</ele>
        <time>2014-10-31T10:43:09.000Z</time>
      </trkpt>
      <trkpt lat="47.34045" lon="-1.37368">
        <ele>125</ele>
        <time>2014-10-31T10:43:12.000Z</time>
      </trkpt>
      <trkpt lat="47.3405" lon="-1.3738">
        <ele>126</ele>
        <time>2014-10-31T10:43:13.000Z</time>
      </trkpt>
      <trkpt lat="47.34056" lon="-1.37386">
        <ele>126</ele>
        <time>2014-10-31T10:43:15.000Z</time>
      </trkpt>
      <trkpt lat="47.34062" lon="-1.37395">
        <ele>129</ele>
        <time>2014-10-31T10:43:17.000Z</time>
      </trkpt>
      <trkpt lat="47.34069" lon="-1.37402">
        <ele>130</ele>
        <time>2014-10-31T10:43:19.000Z</time>
      </trkpt>
      <trkpt lat="47.34069" lon="-1.37402">
        <ele>130</ele>
        <time>2014-10-31T10:43:22.000Z</time>
      </trkpt>
      <trkpt lat="47.34071" lon="-1.37416">
        <ele>130</ele>
        <time>2014-10-31T10:43:24.000Z</time>
      </trkpt>
      <trkpt lat="47.34071" lon="-1.37416">
        <ele>130</ele>
        <time>2014-10-31T10:43:26.000Z</time>
      </trkpt>
      <trkpt lat="47.34071" lon="-1.37426">
        <ele>134</ele>
        <time>2014-10-31T10:43:28.000Z</time>
      </trkpt>
      <trkpt lat="47.34071" lon="-1.37426">
        <ele>134</ele>
        <time>2014-10-31T10:43:30.000Z</time>
      </trkpt>
      <trkpt lat="47.34063" lon="-1.37438">
        <ele>134</ele>
        <time>2014-10-31T10:43:31.000Z</time>
      </trkpt>
      <trkpt lat="47.34058" lon="-1.3745">
        <ele>135</ele>
        <time>2014-10-31T10:43:33.000Z</time>
      </trkpt>
      <trkpt lat="47.34055" lon="-1.37462">
        <ele>136</ele>
        <time>2014-10-31T10:43:35.000Z</time>
      </trkpt>
      <trkpt lat="47.34052" lon="-1.37476">
        <ele>136</ele>
        <time>2014-10-31T10:43:37.000Z</time>
      </trkpt>
      <trkpt lat="47.34047" lon="-1.37491">
        <ele>136</ele>
        <time>2014-10-31T10:43:40.000Z</time>
      </trkpt>
      <trkpt lat="47.34043" lon="-1.375">
        <ele>134</ele>
        <time>2014-10-31T10:43:42.000Z</time>
      </trkpt>
      <trkpt lat="47.34041" lon="-1.37509">
        <ele>133</ele>
        <time>2014-10-31T10:43:44.000Z</time>
      </trkpt>
      <trkpt lat="47.34039" lon="-1.3752">
        <ele>132</ele>
        <time>2014-10-31T10:43:46.000Z</time>
      </trkpt>
      <trkpt lat="47.34036" lon="-1.37531">
        <ele>134</ele>
        <time>2014-10-31T10:43:47.000Z</time>
      </trkpt>
      <trkpt lat="47.34034" lon="-1.37542">
        <ele>136</ele>
        <time>2014-10-31T10:43:49.000Z</time>
      </trkpt>
      <trkpt lat="47.34031" lon="-1.37554">
        <ele>134</ele>
        <time>2014-10-31T10:43:52.000Z</time>
      </trkpt>
      <trkpt lat="47.34028" lon="-1.37565">
        <ele>133</ele>
        <time>2014-10-31T10:43:54.000Z</time>
      </trkpt>
      <trkpt lat="47.34025" lon="-1.37576">
        <ele>132</ele>
        <time>2014-10-31T10:43:55.000Z</time>
      </trkpt>
      <trkpt lat="47.34023" lon="-1.37589">
        <ele>132</ele>
        <time>2014-10-31T10:43:57.000Z</time>
      </trkpt>
      <trkpt lat="47.34019" lon="-1.37599">
        <ele>132</ele>
        <time>2014-10-31T10:44:00.000Z</time>
      </trkpt>
      <trkpt lat="47.34019" lon="-1.3761">
        <ele>131</ele>
        <time>2014-10-31T10:44:02.000Z</time>
      </trkpt>
      <trkpt lat="47.34019" lon="-1.3761">
        <ele>131</ele>
        <time>2014-10-31T10:44:04.000Z</time>
      </trkpt>
      <trkpt lat="47.34023" lon="-1.37613">
        <ele>131</ele>
        <time>2014-10-31T10:44:06.000Z</time>
      </trkpt>
      <trkpt lat="47.34026" lon="-1.37612">
        <ele>129</ele>
        <time>2014-10-31T10:44:07.000Z</time>
      </trkpt>
      <trkpt lat="47.34029" lon="-1.37607">
        <ele>131</ele>
        <time>2014-10-31T10:44:09.000Z</time>
      </trkpt>
      <trkpt lat="47.34032" lon="-1.376">
        <ele>130</ele>
        <time>2014-10-31T10:44:11.000Z</time>
      </trkpt>
      <trkpt lat="47.34035" lon="-1.37592">
        <ele>130</ele>
        <time>2014-10-31T10:44:13.000Z</time>
      </trkpt>
      <trkpt lat="47.3404" lon="-1.37577">
        <ele>130</ele>
        <time>2014-10-31T10:44:15.000Z</time>
      </trkpt>
      <trkpt lat="47.34042" lon="-1.37569">
        <ele>130</ele>
        <time>2014-10-31T10:44:18.000Z</time>
      </trkpt>
      <trkpt lat="47.34044" lon="-1.37561">
        <ele>130</ele>
        <time>2014-10-31T10:44:19.000Z</time>
      </trkpt>
      <trkpt lat="47.34046" lon="-1.37553">
        <ele>131</ele>
        <time>2014-10-31T10:44:21.000Z</time>
      </trkpt>
      <trkpt lat="47.34048" lon="-1.37544">
        <ele>131</ele>
        <time>2014-10-31T10:44:24.000Z</time>
      </trkpt>
      <trkpt lat="47.34049" lon="-1.37534">
        <ele>132</ele>
        <time>2014-10-31T10:44:25.000Z</time>
      </trkpt>
      <trkpt lat="47.3405" lon="-1.37525">
        <ele>132</ele>
        <time>2014-10-31T10:44:27.000Z</time>
      </trkpt>
      <trkpt lat="47.34052" lon="-1.37515">
        <ele>133</ele>
        <time>2014-10-31T10:44:29.000Z</time>
      </trkpt>
      <trkpt lat="47.34053" lon="-1.37505">
        <ele>134</ele>
        <time>2014-10-31T10:44:31.000Z</time>
      </trkpt>
      <trkpt lat="47.34055" lon="-1.37495">
        <ele>134</ele>
        <time>2014-10-31T10:44:34.000Z</time>
      </trkpt>
      <trkpt lat="47.34057" lon="-1.37486">
        <ele>134</ele>
        <time>2014-10-31T10:44:36.000Z</time>
      </trkpt>
      <trkpt lat="47.3406" lon="-1.37477">
        <ele>134</ele>
        <time>2014-10-31T10:44:38.000Z</time>
      </trkpt>
      <trkpt lat="47.34062" lon="-1.37467">
        <ele>134</ele>
        <time>2014-10-31T10:44:40.000Z</time>
      </trkpt>
      <trkpt lat="47.34065" lon="-1.37458">
        <ele>134</ele>
        <time>2014-10-31T10:44:42.000Z</time>
      </trkpt>
      <trkpt lat="47.34069" lon="-1.37449">
        <ele>134</ele>
        <time>2014-10-31T10:44:44.000Z</time>
      </trkpt>
      <trkpt lat="47.34073" lon="-1.37439">
        <ele>135</ele>
        <time>2014-10-31T10:44:45.000Z</time>
      </trkpt>
      <trkpt lat="47.34077" lon="-1.3743">
        <ele>135</ele>
        <time>2014-10-31T10:44:48.000Z</time>
      </trkpt>
      <trkpt lat="47.34082" lon="-1.37421">
        <ele>135</ele>
        <time>2014-10-31T10:44:50.000Z</time>
      </trkpt>
      <trkpt lat="47.34087" lon="-1.37412">
        <ele>134</ele>
        <time>2014-10-31T10:44:52.000Z</time>
      </trkpt>
      <trkpt lat="47.34092" lon="-1.37405">
        <ele>133</ele>
        <time>2014-10-31T10:44:54.000Z</time>
      </trkpt>
      <trkpt lat="47.34098" lon="-1.37398">
        <ele>134</ele>
        <time>2014-10-31T10:44:56.000Z</time>
      </trkpt>
      <trkpt lat="47.34105" lon="-1.37392">
        <ele>135</ele>
        <time>2014-10-31T10:44:58.000Z</time>
      </trkpt>
      <trkpt lat="47.34112" lon="-1.37386">
        <ele>133</ele>
        <time>2014-10-31T10:45:00.000Z</time>
      </trkpt>
      <trkpt lat="47.34119" lon="-1.37381">
        <ele>133</ele>
        <time>2014-10-31T10:45:02.000Z</time>
      </trkpt>
      <trkpt lat="47.34126" lon="-1.37377">
        <ele>133</ele>
        <time>2014-10-31T10:45:04.000Z</time>
      </trkpt>
      <trkpt lat="47.34134" lon="-1.37374">
        <ele>133</ele>
        <time>2014-10-31T10:45:06.000Z</time>
      </trkpt>
      <trkpt lat="47.34141" lon="-1.3737">
        <ele>132</ele>
        <time>2014-10-31T10:45:08.000Z</time>
      </trkpt>
      <trkpt lat="47.3415" lon="-1.37368">
        <ele>132</ele>
        <time>2014-10-31T10:45:09.000Z</time>
      </trkpt>
      <trkpt lat="47.34158" lon="-1.37366">
        <ele>132</ele>
        <time>2014-10-31T10:45:12.000Z</time>
      </trkpt>
      <trkpt lat="47.34167" lon="-1.37365">
        <ele>132</ele>
        <time>2014-10-31T10:45:14.000Z</time>
      </trkpt>
      <trkpt lat="47.34177" lon="-1.37366">
        <ele>132</ele>
        <time>2014-10-31T10:45:15.000Z</time>
      </trkpt>
      <trkpt lat="47.34188" lon="-1.37365">
        <ele>130</ele>
        <time>2014-10-31T10:45:18.000Z</time>
      </trkpt>
      <trkpt lat="47.34198" lon="-1.37365">
        <ele>131</ele>
        <time>2014-10-31T10:45:19.000Z</time>
      </trkpt>
      <trkpt lat="47.34209" lon="-1.37365">
        <ele>130</ele>
        <time>2014-10-31T10:45:21.000Z</time>
      </trkpt>
      <trkpt lat="47.3422" lon="-1.37365">
        <ele>130</ele>
        <time>2014-10-31T10:45:24.000Z</time>
      </trkpt>
      <trkpt lat="47.34233" lon="-1.37365">
        <ele>130</ele>
        <time>2014-10-31T10:45:26.000Z</time>
      </trkpt>
      <trkpt lat="47.34247" lon="-1.37364">
        <ele>130</ele>
        <time>2014-10-31T10:45:28.000Z</time>
      </trkpt>
      <trkpt lat="47.34262" lon="-1.37364">
        <ele>128</ele>
        <time>2014-10-31T10:45:30.000Z</time>
      </trkpt>
      <trkpt lat="47.34279" lon="-1.37361">
        <ele>127</ele>
        <time>2014-10-31T10:45:32.000Z</time>
      </trkpt>
      <trkpt lat="47.34296" lon="-1.37358">
        <ele>126</ele>
        <time>2014-10-31T10:45:34.000Z</time>
      </trkpt>
      <trkpt lat="47.34314" lon="-1.37351">
        <ele>125</ele>
        <time>2014-10-31T10:45:36.000Z</time>
      </trkpt>
      <trkpt lat="47.34333" lon="-1.37342">
        <ele>125</ele>
        <time>2014-10-31T10:45:38.000Z</time>
      </trkpt>
      <trkpt lat="47.34352" lon="-1.37331">
        <ele>124</ele>
        <time>2014-10-31T10:45:40.000Z</time>
      </trkpt>
      <trkpt lat="47.34371" lon="-1.37317">
        <ele>123</ele>
        <time>2014-10-31T10:45:42.000Z</time>
      </trkpt>
      <trkpt lat="47.34389" lon="-1.37301">
        <ele>122</ele>
        <time>2014-10-31T10:45:44.000Z</time>
      </trkpt>
      <trkpt lat="47.34408" lon="-1.37284">
        <ele>122</ele>
        <time>2014-10-31T10:45:45.000Z</time>
      </trkpt>
      <trkpt lat="47.34426" lon="-1.37268">
        <ele>121</ele>
        <time>2014-10-31T10:45:47.000Z</time>
      </trkpt>
      <trkpt lat="47.34442" lon="-1.37253">
        <ele>120</ele>
        <time>2014-10-31T10:45:50.000Z</time>
      </trkpt>
      <trkpt lat="47.34458" lon="-1.37238">
        <ele>120</ele>
        <time>2014-10-31T10:45:51.000Z</time>
      </trkpt>
      <trkpt lat="47.34475" lon="-1.37222">
        <ele>121</ele>
        <time>2014-10-31T10:45:54.000Z</time>
      </trkpt>
      <trkpt lat="47.3449" lon="-1.37208">
        <ele>120</ele>
        <time>2014-10-31T10:45:55.000Z</time>
      </trkpt>
      <trkpt lat="47.34506" lon="-1.37195">
        <ele>120</ele>
        <time>2014-10-31T10:45:57.000Z</time>
      </trkpt>
      <trkpt lat="47.34519" lon="-1.37181">
        <ele>119</ele>
        <time>2014-10-31T10:46:00.000Z</time>
      </trkpt>
      <trkpt lat="47.34533" lon="-1.37167">
        <ele>119</ele>
        <time>2014-10-31T10:46:01.000Z</time>
      </trkpt>
      <trkpt lat="47.34547" lon="-1.37156">
        <ele>118</ele>
        <time>2014-10-31T10:46:03.000Z</time>
      </trkpt>
      <trkpt lat="47.34558" lon="-1.37145">
        <ele>118</ele>
        <time>2014-10-31T10:46:06.000Z</time>
      </trkpt>
      <trkpt lat="47.34571" lon="-1.37133">
        <ele>119</ele>
        <time>2014-10-31T10:46:08.000Z</time>
      </trkpt>
      <trkpt lat="47.34582" lon="-1.37122">
        <ele>119</ele>
        <time>2014-10-31T10:46:09.000Z</time>
      </trkpt>
      <trkpt lat="47.34593" lon="-1.3711">
        <ele>120</ele>
        <time>2014-10-31T10:46:11.000Z</time>
      </trkpt>
      <trkpt lat="47.34603" lon="-1.37101">
        <ele>119</ele>
        <time>2014-10-31T10:46:13.000Z</time>
      </trkpt>
      <trkpt lat="47.34613" lon="-1.37089">
        <ele>120</ele>
        <time>2014-10-31T10:46:16.000Z</time>
      </trkpt>
      <trkpt lat="47.34624" lon="-1.37078">
        <ele>119</ele>
        <time>2014-10-31T10:46:18.000Z</time>
      </trkpt>
      <trkpt lat="47.34633" lon="-1.37068">
        <ele>120</ele>
        <time>2014-10-31T10:46:19.000Z</time>
      </trkpt>
      <trkpt lat="47.34644" lon="-1.37059">
        <ele>120</ele>
        <time>2014-10-31T10:46:21.000Z</time>
      </trkpt>
      <trkpt lat="47.34653" lon="-1.37047">
        <ele>120</ele>
        <time>2014-10-31T10:46:23.000Z</time>
      </trkpt>
      <trkpt lat="47.34663" lon="-1.37034">
        <ele>121</ele>
        <time>2014-10-31T10:46:25.000Z</time>
      </trkpt>
      <trkpt lat="47.34672" lon="-1.3702">
        <ele>121</ele>
        <time>2014-10-31T10:46:27.000Z</time>
      </trkpt>
      <trkpt lat="47.34681" lon="-1.37008">
        <ele>120</ele>
        <time>2014-10-31T10:46:29.000Z</time>
      </trkpt>
      <trkpt lat="47.34689" lon="-1.36995">
        <ele>120</ele>
        <time>2014-10-31T10:46:31.000Z</time>
      </trkpt>
      <trkpt lat="47.34698" lon="-1.36982">
        <ele>121</ele>
        <time>2014-10-31T10:46:33.000Z</time>
      </trkpt>
      <trkpt lat="47.34707" lon="-1.36969">
        <ele>122</ele>
        <time>2014-10-31T10:46:36.000Z</time>
      </trkpt>
      <trkpt lat="47.34716" lon="-1.36955">
        <ele>121</ele>
        <time>2014-10-31T10:46:37.000Z</time>
      </trkpt>
      <trkpt lat="47.34725" lon="-1.36945">
        <ele>121</ele>
        <time>2014-10-31T10:46:40.000Z</time>
      </trkpt>
      <trkpt lat="47.34734" lon="-1.36933">
        <ele>121</ele>
        <time>2014-10-31T10:46:41.000Z</time>
      </trkpt>
      <trkpt lat="47.34743" lon="-1.3692">
        <ele>121</ele>
        <time>2014-10-31T10:46:43.000Z</time>
      </trkpt>
      <trkpt lat="47.34752" lon="-1.36906">
        <ele>122</ele>
        <time>2014-10-31T10:46:45.000Z</time>
      </trkpt>
      <trkpt lat="47.34761" lon="-1.36892">
        <ele>122</ele>
        <time>2014-10-31T10:46:48.000Z</time>
      </trkpt>
      <trkpt lat="47.34769" lon="-1.3688">
        <ele>123</ele>
        <time>2014-10-31T10:46:49.000Z</time>
      </trkpt>
      <trkpt lat="47.34776" lon="-1.36867">
        <ele>123</ele>
        <time>2014-10-31T10:46:52.000Z</time>
      </trkpt>
      <trkpt lat="47.34782" lon="-1.36852">
        <ele>125</ele>
        <time>2014-10-31T10:46:54.000Z</time>
      </trkpt>
      <trkpt lat="47.34791" lon="-1.36839">
        <ele>124</ele>
        <time>2014-10-31T10:46:55.000Z</time>
      </trkpt>
      <trkpt lat="47.348" lon="-1.36826">
        <ele>124</ele>
        <time>2014-10-31T10:46:57.000Z</time>
      </trkpt>
      <trkpt lat="47.34808" lon="-1.36816">
        <ele>126</ele>
        <time>2014-10-31T10:46:59.000Z</time>
      </trkpt>
      <trkpt lat="47.34815" lon="-1.36807">
        <ele>127</ele>
        <time>2014-10-31T10:47:02.000Z</time>
      </trkpt>
      <trkpt lat="47.34822" lon="-1.36796">
        <ele>128</ele>
        <time>2014-10-31T10:47:04.000Z</time>
      </trkpt>
      <trkpt lat="47.34831" lon="-1.36783">
        <ele>129</ele>
        <time>2014-10-31T10:47:05.000Z</time>
      </trkpt>
      <trkpt lat="47.3484" lon="-1.36773">
        <ele>130</ele>
        <time>2014-10-31T10:47:07.000Z</time>
      </trkpt>
      <trkpt lat="47.34846" lon="-1.36764">
        <ele>131</ele>
        <time>2014-10-31T10:47:10.000Z</time>
      </trkpt>
      <trkpt lat="47.34851" lon="-1.36756">
        <ele>133</ele>
        <time>2014-10-31T10:47:12.000Z</time>
      </trkpt>
      <trkpt lat="47.34861" lon="-1.36743">
        <ele>135</ele>
        <time>2014-10-31T10:47:14.000Z</time>
      </trkpt>
      <trkpt lat="47.34866" lon="-1.36733">
        <ele>137</ele>
        <time>2014-10-31T10:47:16.000Z</time>
      </trkpt>
      <trkpt lat="47.34872" lon="-1.36723">
        <ele>139</ele>
        <time>2014-10-31T10:47:17.000Z</time>
      </trkpt>
      <trkpt lat="47.34878" lon="-1.36713">
        <ele>140</ele>
        <time>2014-10-31T10:47:20.000Z</time>
      </trkpt>
      <trkpt lat="47.34885" lon="-1.36704">
        <ele>142</ele>
        <time>2014-10-31T10:47:22.000Z</time>
      </trkpt>
      <trkpt lat="47.34893" lon="-1.36695">
        <ele>144</ele>
        <time>2014-10-31T10:47:24.000Z</time>
      </trkpt>
      <trkpt lat="47.349" lon="-1.36687">
        <ele>147</ele>
        <time>2014-10-31T10:47:25.000Z</time>
      </trkpt>
      <trkpt lat="47.34909" lon="-1.36675">
        <ele>147</ele>
        <time>2014-10-31T10:47:27.000Z</time>
      </trkpt>
      <trkpt lat="47.34916" lon="-1.36662">
        <ele>146</ele>
        <time>2014-10-31T10:47:30.000Z</time>
      </trkpt>
      <trkpt lat="47.34924" lon="-1.36651">
        <ele>146</ele>
        <time>2014-10-31T10:47:32.000Z</time>
      </trkpt>
      <trkpt lat="47.34933" lon="-1.36637">
        <ele>145</ele>
        <time>2014-10-31T10:47:34.000Z</time>
      </trkpt>
      <trkpt lat="47.34944" lon="-1.36623">
        <ele>142</ele>
        <time>2014-10-31T10:47:36.000Z</time>
      </trkpt>
      <trkpt lat="47.34954" lon="-1.36607">
        <ele>141</ele>
        <time>2014-10-31T10:47:38.000Z</time>
      </trkpt>
      <trkpt lat="47.34961" lon="-1.36596">
        <ele>141</ele>
        <time>2014-10-31T10:47:40.000Z</time>
      </trkpt>
      <trkpt lat="47.34969" lon="-1.36584">
        <ele>139</ele>
        <time>2014-10-31T10:47:42.000Z</time>
      </trkpt>
      <trkpt lat="47.34978" lon="-1.36572">
        <ele>138</ele>
        <time>2014-10-31T10:47:44.000Z</time>
      </trkpt>
      <trkpt lat="47.34986" lon="-1.3656">
        <ele>137</ele>
        <time>2014-10-31T10:47:46.000Z</time>
      </trkpt>
      <trkpt lat="47.34994" lon="-1.36551">
        <ele>136</ele>
        <time>2014-10-31T10:47:48.000Z</time>
      </trkpt>
      <trkpt lat="47.35002" lon="-1.3654">
        <ele>135</ele>
        <time>2014-10-31T10:47:50.000Z</time>
      </trkpt>
      <trkpt lat="47.35008" lon="-1.36529">
        <ele>134</ele>
        <time>2014-10-31T10:47:52.000Z</time>
      </trkpt>
      <trkpt lat="47.35014" lon="-1.36519">
        <ele>132</ele>
        <time>2014-10-31T10:47:53.000Z</time>
      </trkpt>
      <trkpt lat="47.35022" lon="-1.36511">
        <ele>131</ele>
        <time>2014-10-31T10:47:55.000Z</time>
      </trkpt>
      <trkpt lat="47.35027" lon="-1.36502">
        <ele>130</ele>
        <time>2014-10-31T10:47:58.000Z</time>
      </trkpt>
      <trkpt lat="47.35033" lon="-1.36494">
        <ele>130</ele>
        <time>2014-10-31T10:47:59.000Z</time>
      </trkpt>
      <trkpt lat="47.35033" lon="-1.36494">
        <ele>130</ele>
        <time>2014-10-31T10:48:01.000Z</time>
      </trkpt>
      <trkpt lat="47.3504" lon="-1.36484">
        <ele>129</ele>
        <time>2014-10-31T10:48:03.000Z</time>
      </trkpt>
      <trkpt lat="47.3504" lon="-1.36484">
        <ele>129</ele>
        <time>2014-10-31T10:48:05.000Z</time>
      </trkpt>
      <trkpt lat="47.35052" lon="-1.36478">
        <ele>129</ele>
        <time>2014-10-31T10:48:07.000Z</time>
      </trkpt>
      <trkpt lat="47.35058" lon="-1.3647">
        <ele>129</ele>
        <time>2014-10-31T10:48:09.000Z</time>
      </trkpt>
      <trkpt lat="47.35062" lon="-1.3646">
        <ele>131</ele>
        <time>2014-10-31T10:48:11.000Z</time>
      </trkpt>
      <trkpt lat="47.35065" lon="-1.36449">
        <ele>132</ele>
        <time>2014-10-31T10:48:13.000Z</time>
      </trkpt>
      <trkpt lat="47.3507" lon="-1.3644">
        <ele>132</ele>
        <time>2014-10-31T10:48:16.000Z</time>
      </trkpt>
      <trkpt lat="47.35075" lon="-1.36432">
        <ele>135</ele>
        <time>2014-10-31T10:48:18.000Z</time>
      </trkpt>
      <trkpt lat="47.35082" lon="-1.36427">
        <ele>136</ele>
        <time>2014-10-31T10:48:20.000Z</time>
      </trkpt>
      <trkpt lat="47.35089" lon="-1.36425">
        <ele>137</ele>
        <time>2014-10-31T10:48:22.000Z</time>
      </trkpt>
      <trkpt lat="47.35096" lon="-1.36424">
        <ele>139</ele>
        <time>2014-10-31T10:48:23.000Z</time>
      </trkpt>
      <trkpt lat="47.35104" lon="-1.36423">
        <ele>140</ele>
        <time>2014-10-31T10:48:25.000Z</time>
      </trkpt>
      <trkpt lat="47.35114" lon="-1.36422">
        <ele>141</ele>
        <time>2014-10-31T10:48:27.000Z</time>
      </trkpt>
      <trkpt lat="47.35122" lon="-1.36422">
        <ele>142</ele>
        <time>2014-10-31T10:48:30.000Z</time>
      </trkpt>
      <trkpt lat="47.35128" lon="-1.36425">
        <ele>143</ele>
        <time>2014-10-31T10:48:32.000Z</time>
      </trkpt>
      <trkpt lat="47.35135" lon="-1.3643">
        <ele>144</ele>
        <time>2014-10-31T10:48:34.000Z</time>
      </trkpt>
      <trkpt lat="47.35142" lon="-1.36437">
        <ele>143</ele>
        <time>2014-10-31T10:48:36.000Z</time>
      </trkpt>
      <trkpt lat="47.3515" lon="-1.3644">
        <ele>144</ele>
        <time>2014-10-31T10:48:37.000Z</time>
      </trkpt>
      <trkpt lat="47.35168" lon="-1.36427">
        <ele>150</ele>
        <time>2014-10-31T10:48:41.000Z</time>
      </trkpt>
      <trkpt lat="47.35177" lon="-1.36419">
        <ele>152</ele>
        <time>2014-10-31T10:48:42.000Z</time>
      </trkpt>
      <trkpt lat="47.35186" lon="-1.3641">
        <ele>151</ele>
        <time>2014-10-31T10:48:44.000Z</time>
      </trkpt>
      <trkpt lat="47.35193" lon="-1.36403">
        <ele>154</ele>
        <time>2014-10-31T10:48:47.000Z</time>
      </trkpt>
      <trkpt lat="47.35202" lon="-1.36397">
        <ele>153</ele>
        <time>2014-10-31T10:48:48.000Z</time>
      </trkpt>
      <trkpt lat="47.3521" lon="-1.36389">
        <ele>150</ele>
        <time>2014-10-31T10:48:51.000Z</time>
      </trkpt>
      <trkpt lat="47.35219" lon="-1.36382">
        <ele>150</ele>
        <time>2014-10-31T10:48:53.000Z</time>
      </trkpt>
      <trkpt lat="47.35231" lon="-1.36372">
        <ele>150</ele>
        <time>2014-10-31T10:48:55.000Z</time>
      </trkpt>
      <trkpt lat="47.35242" lon="-1.36363">
        <ele>150</ele>
        <time>2014-10-31T10:48:56.000Z</time>
      </trkpt>
      <trkpt lat="47.35254" lon="-1.36351">
        <ele>149</ele>
        <time>2014-10-31T10:48:59.000Z</time>
      </trkpt>
      <trkpt lat="47.35268" lon="-1.36341">
        <ele>147</ele>
        <time>2014-10-31T10:49:01.000Z</time>
      </trkpt>
      <trkpt lat="47.35284" lon="-1.36326">
        <ele>143</ele>
        <time>2014-10-31T10:49:03.000Z</time>
      </trkpt>
      <trkpt lat="47.35299" lon="-1.36314">
        <ele>137</ele>
        <time>2014-10-31T10:49:05.000Z</time>
      </trkpt>
      <trkpt lat="47.3531" lon="-1.36305">
        <ele>136</ele>
        <time>2014-10-31T10:49:07.000Z</time>
      </trkpt>
      <trkpt lat="47.3532" lon="-1.36298">
        <ele>136</ele>
        <time>2014-10-31T10:49:08.000Z</time>
      </trkpt>
      <trkpt lat="47.3533" lon="-1.36292">
        <ele>136</ele>
        <time>2014-10-31T10:49:11.000Z</time>
      </trkpt>
      <trkpt lat="47.35338" lon="-1.36285">
        <ele>136</ele>
        <time>2014-10-31T10:49:13.000Z</time>
      </trkpt>
      <trkpt lat="47.35345" lon="-1.36277">
        <ele>137</ele>
        <time>2014-10-31T10:49:15.000Z</time>
      </trkpt>
      <trkpt lat="47.35358" lon="-1.36266">
        <ele>135</ele>
        <time>2014-10-31T10:49:16.000Z</time>
      </trkpt>
      <trkpt lat="47.35369" lon="-1.36251">
        <ele>134</ele>
        <time>2014-10-31T10:49:18.000Z</time>
      </trkpt>
      <trkpt lat="47.35382" lon="-1.36237">
        <ele>131</ele>
        <time>2014-10-31T10:49:20.000Z</time>
      </trkpt>
      <trkpt lat="47.35392" lon="-1.3623">
        <ele>131</ele>
        <time>2014-10-31T10:49:23.000Z</time>
      </trkpt>
      <trkpt lat="47.354" lon="-1.3622">
        <ele>132</ele>
        <time>2014-10-31T10:49:24.000Z</time>
      </trkpt>
      <trkpt lat="47.35411" lon="-1.3621">
        <ele>131</ele>
        <time>2014-10-31T10:49:26.000Z</time>
      </trkpt>
      <trkpt lat="47.35422" lon="-1.36203">
        <ele>131</ele>
        <time>2014-10-31T10:49:28.000Z</time>
      </trkpt>
      <trkpt lat="47.35432" lon="-1.36194">
        <ele>131</ele>
        <time>2014-10-31T10:49:30.000Z</time>
      </trkpt>
      <trkpt lat="47.35441" lon="-1.36184">
        <ele>131</ele>
        <time>2014-10-31T10:49:33.000Z</time>
      </trkpt>
      <trkpt lat="47.35452" lon="-1.36173">
        <ele>131</ele>
        <time>2014-10-31T10:49:34.000Z</time>
      </trkpt>
      <trkpt lat="47.35463" lon="-1.36163">
        <ele>131</ele>
        <time>2014-10-31T10:49:36.000Z</time>
      </trkpt>
      <trkpt lat="47.35471" lon="-1.36157">
        <ele>131</ele>
        <time>2014-10-31T10:49:38.000Z</time>
      </trkpt>
      <trkpt lat="47.35479" lon="-1.36149">
        <ele>134</ele>
        <time>2014-10-31T10:49:41.000Z</time>
      </trkpt>
      <trkpt lat="47.35487" lon="-1.36144">
        <ele>134</ele>
        <time>2014-10-31T10:49:42.000Z</time>
      </trkpt>
      <trkpt lat="47.35496" lon="-1.36134">
        <ele>134</ele>
        <time>2014-10-31T10:49:44.000Z</time>
      </trkpt>
      <trkpt lat="47.35506" lon="-1.36126">
        <ele>134</ele>
        <time>2014-10-31T10:49:46.000Z</time>
      </trkpt>
      <trkpt lat="47.35516" lon="-1.36115">
        <ele>135</ele>
        <time>2014-10-31T10:49:48.000Z</time>
      </trkpt>
      <trkpt lat="47.35527" lon="-1.36102">
        <ele>133</ele>
        <time>2014-10-31T10:49:50.000Z</time>
      </trkpt>
      <trkpt lat="47.35538" lon="-1.3609">
        <ele>132</ele>
        <time>2014-10-31T10:49:52.000Z</time>
      </trkpt>
      <trkpt lat="47.35548" lon="-1.36081">
        <ele>130</ele>
        <time>2014-10-31T10:49:55.000Z</time>
      </trkpt>
      <trkpt lat="47.35558" lon="-1.36073">
        <ele>130</ele>
        <time>2014-10-31T10:49:56.000Z</time>
      </trkpt>
      <trkpt lat="47.35566" lon="-1.36065">
        <ele>135</ele>
        <time>2014-10-31T10:49:58.000Z</time>
      </trkpt>
      <trkpt lat="47.35575" lon="-1.36054">
        <ele>138</ele>
        <time>2014-10-31T10:50:00.000Z</time>
      </trkpt>
      <trkpt lat="47.35585" lon="-1.36046">
        <ele>138</ele>
        <time>2014-10-31T10:50:02.000Z</time>
      </trkpt>
      <trkpt lat="47.35595" lon="-1.3604">
        <ele>138</ele>
        <time>2014-10-31T10:50:05.000Z</time>
      </trkpt>
      <trkpt lat="47.35607" lon="-1.36032">
        <ele>137</ele>
        <time>2014-10-31T10:50:07.000Z</time>
      </trkpt>
      <trkpt lat="47.35619" lon="-1.36017">
        <ele>134</ele>
        <time>2014-10-31T10:50:09.000Z</time>
      </trkpt>
      <trkpt lat="47.35628" lon="-1.36008">
        <ele>133</ele>
        <time>2014-10-31T10:50:11.000Z</time>
      </trkpt>
      <trkpt lat="47.35638" lon="-1.35996">
        <ele>133</ele>
        <time>2014-10-31T10:50:13.000Z</time>
      </trkpt>
      <trkpt lat="47.35648" lon="-1.35985">
        <ele>132</ele>
        <time>2014-10-31T10:50:15.000Z</time>
      </trkpt>
      <trkpt lat="47.35658" lon="-1.35974">
        <ele>129</ele>
        <time>2014-10-31T10:50:16.000Z</time>
      </trkpt>
      <trkpt lat="47.35668" lon="-1.35969">
        <ele>129</ele>
        <time>2014-10-31T10:50:19.000Z</time>
      </trkpt>
      <trkpt lat="47.35678" lon="-1.35965">
        <ele>129</ele>
        <time>2014-10-31T10:50:20.000Z</time>
      </trkpt>
      <trkpt lat="47.35689" lon="-1.35959">
        <ele>129</ele>
        <time>2014-10-31T10:50:22.000Z</time>
      </trkpt>
      <trkpt lat="47.35699" lon="-1.35949">
        <ele>128</ele>
        <time>2014-10-31T10:50:24.000Z</time>
      </trkpt>
      <trkpt lat="47.3571" lon="-1.35937">
        <ele>127</ele>
        <time>2014-10-31T10:50:26.000Z</time>
      </trkpt>
      <trkpt lat="47.3572" lon="-1.35919">
        <ele>126</ele>
        <time>2014-10-31T10:50:28.000Z</time>
      </trkpt>
      <trkpt lat="47.3573" lon="-1.35908">
        <ele>126</ele>
        <time>2014-10-31T10:50:30.000Z</time>
      </trkpt>
      <trkpt lat="47.35742" lon="-1.35893">
        <ele>126</ele>
        <time>2014-10-31T10:50:32.000Z</time>
      </trkpt>
      <trkpt lat="47.35754" lon="-1.35878">
        <ele>124</ele>
        <time>2014-10-31T10:50:34.000Z</time>
      </trkpt>
      <trkpt lat="47.35767" lon="-1.35866">
        <ele>126</ele>
        <time>2014-10-31T10:50:38.000Z</time>
      </trkpt>
      <trkpt lat="47.35777" lon="-1.35855">
        <ele>126</ele>
        <time>2014-10-31T10:50:40.000Z</time>
      </trkpt>
      <trkpt lat="47.35787" lon="-1.35845">
        <ele>125</ele>
        <time>2014-10-31T10:50:41.000Z</time>
      </trkpt>
      <trkpt lat="47.35798" lon="-1.35833">
        <ele>125</ele>
        <time>2014-10-31T10:50:43.000Z</time>
      </trkpt>
      <trkpt lat="47.35808" lon="-1.35821">
        <ele>125</ele>
        <time>2014-10-31T10:50:45.000Z</time>
      </trkpt>
      <trkpt lat="47.3582" lon="-1.35809">
        <ele>124</ele>
        <time>2014-10-31T10:50:47.000Z</time>
      </trkpt>
      <trkpt lat="47.3583" lon="-1.35797">
        <ele>123</ele>
        <time>2014-10-31T10:50:49.000Z</time>
      </trkpt>
      <trkpt lat="47.3584" lon="-1.35787">
        <ele>122</ele>
        <time>2014-10-31T10:50:51.000Z</time>
      </trkpt>
      <trkpt lat="47.3585" lon="-1.35775">
        <ele>121</ele>
        <time>2014-10-31T10:50:53.000Z</time>
      </trkpt>
      <trkpt lat="47.35857" lon="-1.35763">
        <ele>121</ele>
        <time>2014-10-31T10:50:55.000Z</time>
      </trkpt>
      <trkpt lat="47.35867" lon="-1.35753">
        <ele>122</ele>
        <time>2014-10-31T10:50:58.000Z</time>
      </trkpt>
      <trkpt lat="47.35877" lon="-1.3574">
        <ele>121</ele>
        <time>2014-10-31T10:50:59.000Z</time>
      </trkpt>
      <trkpt lat="47.35888" lon="-1.35732">
        <ele>121</ele>
        <time>2014-10-31T10:51:02.000Z</time>
      </trkpt>
      <trkpt lat="47.359" lon="-1.35722">
        <ele>120</ele>
        <time>2014-10-31T10:51:03.000Z</time>
      </trkpt>
      <trkpt lat="47.35909" lon="-1.3571">
        <ele>119</ele>
        <time>2014-10-31T10:51:05.000Z</time>
      </trkpt>
      <trkpt lat="47.35918" lon="-1.35702">
        <ele>119</ele>
        <time>2014-10-31T10:51:07.000Z</time>
      </trkpt>
      <trkpt lat="47.35926" lon="-1.35694">
        <ele>119</ele>
        <time>2014-10-31T10:51:09.000Z</time>
      </trkpt>
      <trkpt lat="47.35934" lon="-1.35684">
        <ele>118</ele>
        <time>2014-10-31T10:51:12.000Z</time>
      </trkpt>
      <trkpt lat="47.35942" lon="-1.35678">
        <ele>117</ele>
        <time>2014-10-31T10:51:14.000Z</time>
      </trkpt>
      <trkpt lat="47.35948" lon="-1.35681">
        <ele>118</ele>
        <time>2014-10-31T10:51:16.000Z</time>
      </trkpt>
      <trkpt lat="47.35953" lon="-1.35689">
        <ele>119</ele>
        <time>2014-10-31T10:51:17.000Z</time>
      </trkpt>
      <trkpt lat="47.35958" lon="-1.35697">
        <ele>120</ele>
        <time>2014-10-31T10:51:19.000Z</time>
      </trkpt>
      <trkpt lat="47.35964" lon="-1.35709">
        <ele>119</ele>
        <time>2014-10-31T10:51:21.000Z</time>
      </trkpt>
      <trkpt lat="47.3597" lon="-1.3572">
        <ele>119</ele>
        <time>2014-10-31T10:51:24.000Z</time>
      </trkpt>
      <trkpt lat="47.35979" lon="-1.35731">
        <ele>117</ele>
        <time>2014-10-31T10:51:26.000Z</time>
      </trkpt>
      <trkpt lat="47.35987" lon="-1.35741">
        <ele>115</ele>
        <time>2014-10-31T10:51:27.000Z</time>
      </trkpt>
      <trkpt lat="47.35994" lon="-1.35749">
        <ele>115</ele>
        <time>2014-10-31T10:51:30.000Z</time>
      </trkpt>
      <trkpt lat="47.36" lon="-1.35758">
        <ele>117</ele>
        <time>2014-10-31T10:51:31.000Z</time>
      </trkpt>
      <trkpt lat="47.36015" lon="-1.35779">
        <ele>120</ele>
        <time>2014-10-31T10:51:34.000Z</time>
      </trkpt>
      <trkpt lat="47.36024" lon="-1.35787">
        <ele>120</ele>
        <time>2014-10-31T10:51:36.000Z</time>
      </trkpt>
      <trkpt lat="47.36034" lon="-1.35799">
        <ele>120</ele>
        <time>2014-10-31T10:51:39.000Z</time>
      </trkpt>
      <trkpt lat="47.36042" lon="-1.35809">
        <ele>124</ele>
        <time>2014-10-31T10:51:40.000Z</time>
      </trkpt>
      <trkpt lat="47.3605" lon="-1.35816">
        <ele>124</ele>
        <time>2014-10-31T10:51:42.000Z</time>
      </trkpt>
      <trkpt lat="47.36059" lon="-1.35825">
        <ele>125</ele>
        <time>2014-10-31T10:51:44.000Z</time>
      </trkpt>
      <trkpt lat="47.36068" lon="-1.35833">
        <ele>125</ele>
        <time>2014-10-31T10:51:46.000Z</time>
      </trkpt>
      <trkpt lat="47.3608" lon="-1.35846">
        <ele>125</ele>
        <time>2014-10-31T10:51:49.000Z</time>
      </trkpt>
      <trkpt lat="47.36092" lon="-1.35861">
        <ele>127</ele>
        <time>2014-10-31T10:51:50.000Z</time>
      </trkpt>
      <trkpt lat="47.36102" lon="-1.35873">
        <ele>129</ele>
        <time>2014-10-31T10:51:52.000Z</time>
      </trkpt>
      <trkpt lat="47.36111" lon="-1.35884">
        <ele>128</ele>
        <time>2014-10-31T10:51:55.000Z</time>
      </trkpt>
      <trkpt lat="47.36127" lon="-1.35895">
        <ele>127</ele>
        <time>2014-10-31T10:51:57.000Z</time>
      </trkpt>
      <trkpt lat="47.3614" lon="-1.35903">
        <ele>127</ele>
        <time>2014-10-31T10:51:58.000Z</time>
      </trkpt>
      <trkpt lat="47.3615" lon="-1.35912">
        <ele>126</ele>
        <time>2014-10-31T10:52:00.000Z</time>
      </trkpt>
      <trkpt lat="47.36163" lon="-1.3592">
        <ele>126</ele>
        <time>2014-10-31T10:52:02.000Z</time>
      </trkpt>
      <trkpt lat="47.36176" lon="-1.35932">
        <ele>124</ele>
        <time>2014-10-31T10:52:04.000Z</time>
      </trkpt>
      <trkpt lat="47.36189" lon="-1.35945">
        <ele>124</ele>
        <time>2014-10-31T10:52:07.000Z</time>
      </trkpt>
      <trkpt lat="47.36201" lon="-1.35956">
        <ele>124</ele>
        <time>2014-10-31T10:52:09.000Z</time>
      </trkpt>
      <trkpt lat="47.36213" lon="-1.35965">
        <ele>124</ele>
        <time>2014-10-31T10:52:11.000Z</time>
      </trkpt>
      <trkpt lat="47.36227" lon="-1.35975">
        <ele>122</ele>
        <time>2014-10-31T10:52:13.000Z</time>
      </trkpt>
      <trkpt lat="47.36243" lon="-1.35984">
        <ele>119</ele>
        <time>2014-10-31T10:52:14.000Z</time>
      </trkpt>
      <trkpt lat="47.36257" lon="-1.35993">
        <ele>117</ele>
        <time>2014-10-31T10:52:17.000Z</time>
      </trkpt>
      <trkpt lat="47.36269" lon="-1.36001">
        <ele>118</ele>
        <time>2014-10-31T10:52:19.000Z</time>
      </trkpt>
      <trkpt lat="47.3628" lon="-1.3601">
        <ele>118</ele>
        <time>2014-10-31T10:52:21.000Z</time>
      </trkpt>
      <trkpt lat="47.36292" lon="-1.36021">
        <ele>120</ele>
        <time>2014-10-31T10:52:23.000Z</time>
      </trkpt>
      <trkpt lat="47.36304" lon="-1.36028">
        <ele>119</ele>
        <time>2014-10-31T10:52:25.000Z</time>
      </trkpt>
      <trkpt lat="47.36317" lon="-1.36038">
        <ele>119</ele>
        <time>2014-10-31T10:52:27.000Z</time>
      </trkpt>
      <trkpt lat="47.36331" lon="-1.36043">
        <ele>119</ele>
        <time>2014-10-31T10:52:29.000Z</time>
      </trkpt>
      <trkpt lat="47.36343" lon="-1.36051">
        <ele>123</ele>
        <time>2014-10-31T10:52:30.000Z</time>
      </trkpt>
      <trkpt lat="47.36354" lon="-1.3606">
        <ele>122</ele>
        <time>2014-10-31T10:52:33.000Z</time>
      </trkpt>
      <trkpt lat="47.36367" lon="-1.36065">
        <ele>122</ele>
        <time>2014-10-31T10:52:35.000Z</time>
      </trkpt>
      <trkpt lat="47.36376" lon="-1.36071">
        <ele>121</ele>
        <time>2014-10-31T10:52:37.000Z</time>
      </trkpt>
      <trkpt lat="47.36386" lon="-1.3608">
        <ele>122</ele>
        <time>2014-10-31T10:52:39.000Z</time>
      </trkpt>
      <trkpt lat="47.36398" lon="-1.36089">
        <ele>122</ele>
        <time>2014-10-31T10:52:40.000Z</time>
      </trkpt>
      <trkpt lat="47.36407" lon="-1.36094">
        <ele>124</ele>
        <time>2014-10-31T10:52:42.000Z</time>
      </trkpt>
      <trkpt lat="47.36419" lon="-1.36094">
        <ele>122</ele>
        <time>2014-10-31T10:52:44.000Z</time>
      </trkpt>
      <trkpt lat="47.36423" lon="-1.36086">
        <ele>121</ele>
        <time>2014-10-31T10:52:46.000Z</time>
      </trkpt>
      <trkpt lat="47.36425" lon="-1.36072">
        <ele>117</ele>
        <time>2014-10-31T10:52:48.000Z</time>
      </trkpt>
      <trkpt lat="47.36427" lon="-1.3606">
        <ele>117</ele>
        <time>2014-10-31T10:52:51.000Z</time>
      </trkpt>
      <trkpt lat="47.36428" lon="-1.36049">
        <ele>116</ele>
        <time>2014-10-31T10:52:52.000Z</time>
      </trkpt>
      <trkpt lat="47.36428" lon="-1.36038">
        <ele>116</ele>
        <time>2014-10-31T10:52:54.000Z</time>
      </trkpt>
      <trkpt lat="47.36429" lon="-1.36026">
        <ele>116</ele>
        <time>2014-10-31T10:52:56.000Z</time>
      </trkpt>
      <trkpt lat="47.36431" lon="-1.36013">
        <ele>116</ele>
        <time>2014-10-31T10:52:58.000Z</time>
      </trkpt>
      <trkpt lat="47.36432" lon="-1.36001">
        <ele>115</ele>
        <time>2014-10-31T10:53:01.000Z</time>
      </trkpt>
      <trkpt lat="47.36435" lon="-1.35988">
        <ele>114</ele>
        <time>2014-10-31T10:53:02.000Z</time>
      </trkpt>
      <trkpt lat="47.36436" lon="-1.35976">
        <ele>114</ele>
        <time>2014-10-31T10:53:05.000Z</time>
      </trkpt>
      <trkpt lat="47.36438" lon="-1.35963">
        <ele>113</ele>
        <time>2014-10-31T10:53:06.000Z</time>
      </trkpt>
      <trkpt lat="47.3644" lon="-1.3595">
        <ele>114</ele>
        <time>2014-10-31T10:53:08.000Z</time>
      </trkpt>
      <trkpt lat="47.36442" lon="-1.35937">
        <ele>113</ele>
        <time>2014-10-31T10:53:10.000Z</time>
      </trkpt>
      <trkpt lat="47.36444" lon="-1.35924">
        <ele>113</ele>
        <time>2014-10-31T10:53:12.000Z</time>
      </trkpt>
      <trkpt lat="47.36446" lon="-1.35911">
        <ele>113</ele>
        <time>2014-10-31T10:53:15.000Z</time>
      </trkpt>
      <trkpt lat="47.36447" lon="-1.35898">
        <ele>113</ele>
        <time>2014-10-31T10:53:17.000Z</time>
      </trkpt>
      <trkpt lat="47.36449" lon="-1.35886">
        <ele>113</ele>
        <time>2014-10-31T10:53:18.000Z</time>
      </trkpt>
      <trkpt lat="47.3645" lon="-1.35874">
        <ele>113</ele>
        <time>2014-10-31T10:53:20.000Z</time>
      </trkpt>
      <trkpt lat="47.36452" lon="-1.35861">
        <ele>114</ele>
        <time>2014-10-31T10:53:22.000Z</time>
      </trkpt>
      <trkpt lat="47.36453" lon="-1.35849">
        <ele>114</ele>
        <time>2014-10-31T10:53:25.000Z</time>
      </trkpt>
      <trkpt lat="47.36454" lon="-1.35837">
        <ele>115</ele>
        <time>2014-10-31T10:53:26.000Z</time>
      </trkpt>
      <trkpt lat="47.36456" lon="-1.35825">
        <ele>114</ele>
        <time>2014-10-31T10:53:29.000Z</time>
      </trkpt>
      <trkpt lat="47.36457" lon="-1.35813">
        <ele>114</ele>
        <time>2014-10-31T10:53:30.000Z</time>
      </trkpt>
      <trkpt lat="47.36459" lon="-1.35801">
        <ele>115</ele>
        <time>2014-10-31T10:53:32.000Z</time>
      </trkpt>
      <trkpt lat="47.3646" lon="-1.35789">
        <ele>115</ele>
        <time>2014-10-31T10:53:35.000Z</time>
      </trkpt>
      <trkpt lat="47.36462" lon="-1.35776">
        <ele>115</ele>
        <time>2014-10-31T10:53:36.000Z</time>
      </trkpt>
      <trkpt lat="47.36465" lon="-1.35762">
        <ele>115</ele>
        <time>2014-10-31T10:53:38.000Z</time>
      </trkpt>
      <trkpt lat="47.36467" lon="-1.35749">
        <ele>115</ele>
        <time>2014-10-31T10:53:40.000Z</time>
      </trkpt>
      <trkpt lat="47.36469" lon="-1.35735">
        <ele>115</ele>
        <time>2014-10-31T10:53:43.000Z</time>
      </trkpt>
      <trkpt lat="47.3647" lon="-1.35722">
        <ele>115</ele>
        <time>2014-10-31T10:53:44.000Z</time>
      </trkpt>
      <trkpt lat="47.36472" lon="-1.35709">
        <ele>115</ele>
        <time>2014-10-31T10:53:46.000Z</time>
      </trkpt>
      <trkpt lat="47.36474" lon="-1.35696">
        <ele>115</ele>
        <time>2014-10-31T10:53:49.000Z</time>
      </trkpt>
      <trkpt lat="47.36475" lon="-1.35683">
        <ele>115</ele>
        <time>2014-10-31T10:53:51.000Z</time>
      </trkpt>
      <trkpt lat="47.36478" lon="-1.35669">
        <ele>114</ele>
        <time>2014-10-31T10:53:52.000Z</time>
      </trkpt>
      <trkpt lat="47.36479" lon="-1.35654">
        <ele>114</ele>
        <time>2014-10-31T10:53:54.000Z</time>
      </trkpt>
      <trkpt lat="47.3648" lon="-1.3564">
        <ele>114</ele>
        <time>2014-10-31T10:53:56.000Z</time>
      </trkpt>
      <trkpt lat="47.36481" lon="-1.35627">
        <ele>114</ele>
        <time>2014-10-31T10:53:59.000Z</time>
      </trkpt>
      <trkpt lat="47.36482" lon="-1.35612">
        <ele>114</ele>
        <time>2014-10-31T10:54:01.000Z</time>
      </trkpt>
      <trkpt lat="47.36482" lon="-1.35598">
        <ele>114</ele>
        <time>2014-10-31T10:54:02.000Z</time>
      </trkpt>
      <trkpt lat="47.36482" lon="-1.35584">
        <ele>114</ele>
        <time>2014-10-31T10:54:04.000Z</time>
      </trkpt>
      <trkpt lat="47.36483" lon="-1.35568">
        <ele>114</ele>
        <time>2014-10-31T10:54:07.000Z</time>
      </trkpt>
      <trkpt lat="47.36482" lon="-1.35554">
        <ele>115</ele>
        <time>2014-10-31T10:54:09.000Z</time>
      </trkpt>
      <trkpt lat="47.36483" lon="-1.35539">
        <ele>115</ele>
        <time>2014-10-31T10:54:11.000Z</time>
      </trkpt>
      <trkpt lat="47.36482" lon="-1.35524">
        <ele>115</ele>
        <time>2014-10-31T10:54:13.000Z</time>
      </trkpt>
      <trkpt lat="47.36482" lon="-1.35509">
        <ele>113</ele>
        <time>2014-10-31T10:54:15.000Z</time>
      </trkpt>
      <trkpt lat="47.36483" lon="-1.35494">
        <ele>113</ele>
        <time>2014-10-31T10:54:16.000Z</time>
      </trkpt>
      <trkpt lat="47.36484" lon="-1.35479">
        <ele>112</ele>
        <time>2014-10-31T10:54:19.000Z</time>
      </trkpt>
      <trkpt lat="47.36484" lon="-1.35466">
        <ele>113</ele>
        <time>2014-10-31T10:54:21.000Z</time>
      </trkpt>
      <trkpt lat="47.36485" lon="-1.35452">
        <ele>113</ele>
        <time>2014-10-31T10:54:23.000Z</time>
      </trkpt>
      <trkpt lat="47.36485" lon="-1.35437">
        <ele>113</ele>
        <time>2014-10-31T10:54:24.000Z</time>
      </trkpt>
      <trkpt lat="47.36485" lon="-1.35421">
        <ele>112</ele>
        <time>2014-10-31T10:54:27.000Z</time>
      </trkpt>
      <trkpt lat="47.36485" lon="-1.35406">
        <ele>113</ele>
        <time>2014-10-31T10:54:29.000Z</time>
      </trkpt>
      <trkpt lat="47.36484" lon="-1.3539">
        <ele>112</ele>
        <time>2014-10-31T10:54:31.000Z</time>
      </trkpt>
      <trkpt lat="47.36483" lon="-1.35375">
        <ele>112</ele>
        <time>2014-10-31T10:54:33.000Z</time>
      </trkpt>
      <trkpt lat="47.36483" lon="-1.35359">
        <ele>113</ele>
        <time>2014-10-31T10:54:35.000Z</time>
      </trkpt>
      <trkpt lat="47.36483" lon="-1.35344">
        <ele>112</ele>
        <time>2014-10-31T10:54:37.000Z</time>
      </trkpt>
      <trkpt lat="47.36481" lon="-1.35329">
        <ele>112</ele>
        <time>2014-10-31T10:54:38.000Z</time>
      </trkpt>
      <trkpt lat="47.3648" lon="-1.35315">
        <ele>112</ele>
        <time>2014-10-31T10:54:41.000Z</time>
      </trkpt>
      <trkpt lat="47.36477" lon="-1.353">
        <ele>112</ele>
        <time>2014-10-31T10:54:43.000Z</time>
      </trkpt>
      <trkpt lat="47.36476" lon="-1.35287">
        <ele>112</ele>
        <time>2014-10-31T10:54:44.000Z</time>
      </trkpt>
      <trkpt lat="47.36476" lon="-1.35273">
        <ele>112</ele>
        <time>2014-10-31T10:54:47.000Z</time>
      </trkpt>
      <trkpt lat="47.36475" lon="-1.35262">
        <ele>112</ele>
        <time>2014-10-31T10:54:49.000Z</time>
      </trkpt>
      <trkpt lat="47.36474" lon="-1.3525">
        <ele>112</ele>
        <time>2014-10-31T10:54:50.000Z</time>
      </trkpt>
      <trkpt lat="47.36473" lon="-1.3524">
        <ele>113</ele>
        <time>2014-10-31T10:54:53.000Z</time>
      </trkpt>
      <trkpt lat="47.36472" lon="-1.35231">
        <ele>113</ele>
        <time>2014-10-31T10:54:55.000Z</time>
      </trkpt>
      <trkpt lat="47.36472" lon="-1.35231">
        <ele>113</ele>
        <time>2014-10-31T10:54:56.000Z</time>
      </trkpt>
      <trkpt lat="47.3647" lon="-1.35215">
        <ele>113</ele>
        <time>2014-10-31T10:54:58.000Z</time>
      </trkpt>
      <trkpt lat="47.3647" lon="-1.35215">
        <ele>113</ele>
        <time>2014-10-31T10:55:00.000Z</time>
      </trkpt>
      <trkpt lat="47.36467" lon="-1.35199">
        <ele>113</ele>
        <time>2014-10-31T10:55:03.000Z</time>
      </trkpt>
      <trkpt lat="47.36467" lon="-1.35187">
        <ele>113</ele>
        <time>2014-10-31T10:55:05.000Z</time>
      </trkpt>
      <trkpt lat="47.36466" lon="-1.3517">
        <ele>113</ele>
        <time>2014-10-31T10:55:07.000Z</time>
      </trkpt>
      <trkpt lat="47.36464" lon="-1.35157">
        <ele>113</ele>
        <time>2014-10-31T10:55:08.000Z</time>
      </trkpt>
      <trkpt lat="47.36463" lon="-1.35143">
        <ele>113</ele>
        <time>2014-10-31T10:55:10.000Z</time>
      </trkpt>
      <trkpt lat="47.36461" lon="-1.3513">
        <ele>113</ele>
        <time>2014-10-31T10:55:13.000Z</time>
      </trkpt>
      <trkpt lat="47.3646" lon="-1.35117">
        <ele>113</ele>
        <time>2014-10-31T10:55:14.000Z</time>
      </trkpt>
      <trkpt lat="47.36458" lon="-1.35103">
        <ele>113</ele>
        <time>2014-10-31T10:55:17.000Z</time>
      </trkpt>
      <trkpt lat="47.36457" lon="-1.35089">
        <ele>113</ele>
        <time>2014-10-31T10:55:19.000Z</time>
      </trkpt>
      <trkpt lat="47.36456" lon="-1.35075">
        <ele>113</ele>
        <time>2014-10-31T10:55:20.000Z</time>
      </trkpt>
      <trkpt lat="47.36454" lon="-1.35061">
        <ele>113</ele>
        <time>2014-10-31T10:55:22.000Z</time>
      </trkpt>
      <trkpt lat="47.36452" lon="-1.35046">
        <ele>113</ele>
        <time>2014-10-31T10:55:24.000Z</time>
      </trkpt>
      <trkpt lat="47.3645" lon="-1.35032">
        <ele>113</ele>
        <time>2014-10-31T10:55:27.000Z</time>
      </trkpt>
      <trkpt lat="47.36448" lon="-1.35017">
        <ele>113</ele>
        <time>2014-10-31T10:55:29.000Z</time>
      </trkpt>
      <trkpt lat="47.36446" lon="-1.35002">
        <ele>114</ele>
        <time>2014-10-31T10:55:30.000Z</time>
      </trkpt>
      <trkpt lat="47.36444" lon="-1.34987">
        <ele>114</ele>
        <time>2014-10-31T10:55:32.000Z</time>
      </trkpt>
      <trkpt lat="47.36443" lon="-1.34972">
        <ele>114</ele>
        <time>2014-10-31T10:55:35.000Z</time>
      </trkpt>
      <trkpt lat="47.36441" lon="-1.34956">
        <ele>114</ele>
        <time>2014-10-31T10:55:36.000Z</time>
      </trkpt>
      <trkpt lat="47.3644" lon="-1.3494">
        <ele>114</ele>
        <time>2014-10-31T10:55:39.000Z</time>
      </trkpt>
      <trkpt lat="47.36438" lon="-1.34925">
        <ele>114</ele>
        <time>2014-10-31T10:55:41.000Z</time>
      </trkpt>
      <trkpt lat="47.36437" lon="-1.34911">
        <ele>114</ele>
        <time>2014-10-31T10:55:43.000Z</time>
      </trkpt>
      <trkpt lat="47.36436" lon="-1.34897">
        <ele>113</ele>
        <time>2014-10-31T10:55:45.000Z</time>
      </trkpt>
      <trkpt lat="47.36435" lon="-1.34882">
        <ele>113</ele>
        <time>2014-10-31T10:55:47.000Z</time>
      </trkpt>
      <trkpt lat="47.36433" lon="-1.34868">
        <ele>114</ele>
        <time>2014-10-31T10:55:49.000Z</time>
      </trkpt>
      <trkpt lat="47.36432" lon="-1.34853">
        <ele>114</ele>
        <time>2014-10-31T10:55:51.000Z</time>
      </trkpt>
      <trkpt lat="47.36431" lon="-1.3484">
        <ele>114</ele>
        <time>2014-10-31T10:55:52.000Z</time>
      </trkpt>
      <trkpt lat="47.36431" lon="-1.34825">
        <ele>114</ele>
        <time>2014-10-31T10:55:54.000Z</time>
      </trkpt>
      <trkpt lat="47.3643" lon="-1.34811">
        <ele>114</ele>
        <time>2014-10-31T10:55:57.000Z</time>
      </trkpt>
      <trkpt lat="47.36429" lon="-1.34796">
        <ele>114</ele>
        <time>2014-10-31T10:55:59.000Z</time>
      </trkpt>
      <trkpt lat="47.36428" lon="-1.34782">
        <ele>115</ele>
        <time>2014-10-31T10:56:01.000Z</time>
      </trkpt>
      <trkpt lat="47.36427" lon="-1.34766">
        <ele>115</ele>
        <time>2014-10-31T10:56:02.000Z</time>
      </trkpt>
      <trkpt lat="47.36426" lon="-1.34752">
        <ele>116</ele>
        <time>2014-10-31T10:56:04.000Z</time>
      </trkpt>
      <trkpt lat="47.36425" lon="-1.34736">
        <ele>116</ele>
        <time>2014-10-31T10:56:06.000Z</time>
      </trkpt>
      <trkpt lat="47.36424" lon="-1.34722">
        <ele>116</ele>
        <time>2014-10-31T10:56:09.000Z</time>
      </trkpt>
      <trkpt lat="47.36424" lon="-1.34709">
        <ele>116</ele>
        <time>2014-10-31T10:56:11.000Z</time>
      </trkpt>
      <trkpt lat="47.36423" lon="-1.34695">
        <ele>116</ele>
        <time>2014-10-31T10:56:12.000Z</time>
      </trkpt>
      <trkpt lat="47.36423" lon="-1.3468">
        <ele>116</ele>
        <time>2014-10-31T10:56:15.000Z</time>
      </trkpt>
      <trkpt lat="47.36422" lon="-1.34667">
        <ele>117</ele>
        <time>2014-10-31T10:56:17.000Z</time>
      </trkpt>
      <trkpt lat="47.3642" lon="-1.34653">
        <ele>117</ele>
        <time>2014-10-31T10:56:19.000Z</time>
      </trkpt>
      <trkpt lat="47.3642" lon="-1.34641">
        <ele>117</ele>
        <time>2014-10-31T10:56:21.000Z</time>
      </trkpt>
      <trkpt lat="47.36419" lon="-1.34628">
        <ele>117</ele>
        <time>2014-10-31T10:56:23.000Z</time>
      </trkpt>
      <trkpt lat="47.36418" lon="-1.34614">
        <ele>117</ele>
        <time>2014-10-31T10:56:25.000Z</time>
      </trkpt>
      <trkpt lat="47.36418" lon="-1.346">
        <ele>118</ele>
        <time>2014-10-31T10:56:27.000Z</time>
      </trkpt>
      <trkpt lat="47.36417" lon="-1.34587">
        <ele>118</ele>
        <time>2014-10-31T10:56:29.000Z</time>
      </trkpt>
      <trkpt lat="47.36417" lon="-1.34572">
        <ele>118</ele>
        <time>2014-10-31T10:56:31.000Z</time>
      </trkpt>
      <trkpt lat="47.36416" lon="-1.3456">
        <ele>118</ele>
        <time>2014-10-31T10:56:33.000Z</time>
      </trkpt>
      <trkpt lat="47.36415" lon="-1.34545">
        <ele>117</ele>
        <time>2014-10-31T10:56:35.000Z</time>
      </trkpt>
      <trkpt lat="47.36415" lon="-1.34532">
        <ele>117</ele>
        <time>2014-10-31T10:56:37.000Z</time>
      </trkpt>
      <trkpt lat="47.36414" lon="-1.34519">
        <ele>118</ele>
        <time>2014-10-31T10:56:39.000Z</time>
      </trkpt>
      <trkpt lat="47.36413" lon="-1.34507">
        <ele>118</ele>
        <time>2014-10-31T10:56:41.000Z</time>
      </trkpt>
      <trkpt lat="47.36412" lon="-1.34495">
        <ele>118</ele>
        <time>2014-10-31T10:56:43.000Z</time>
      </trkpt>
      <trkpt lat="47.36409" lon="-1.34483">
        <ele>118</ele>
        <time>2014-10-31T10:56:45.000Z</time>
      </trkpt>
      <trkpt lat="47.36406" lon="-1.34472">
        <ele>118</ele>
        <time>2014-10-31T10:56:47.000Z</time>
      </trkpt>
      <trkpt lat="47.36403" lon="-1.3446">
        <ele>117</ele>
        <time>2014-10-31T10:56:49.000Z</time>
      </trkpt>
      <trkpt lat="47.36401" lon="-1.34448">
        <ele>116</ele>
        <time>2014-10-31T10:56:51.000Z</time>
      </trkpt>
      <trkpt lat="47.36398" lon="-1.34436">
        <ele>114</ele>
        <time>2014-10-31T10:56:53.000Z</time>
      </trkpt>
      <trkpt lat="47.36395" lon="-1.34424">
        <ele>114</ele>
        <time>2014-10-31T10:56:55.000Z</time>
      </trkpt>
      <trkpt lat="47.36391" lon="-1.34412">
        <ele>114</ele>
        <time>2014-10-31T10:56:57.000Z</time>
      </trkpt>
      <trkpt lat="47.36387" lon="-1.344">
        <ele>113</ele>
        <time>2014-10-31T10:56:59.000Z</time>
      </trkpt>
      <trkpt lat="47.36383" lon="-1.34389">
        <ele>113</ele>
        <time>2014-10-31T10:57:01.000Z</time>
      </trkpt>
      <trkpt lat="47.36379" lon="-1.34379">
        <ele>113</ele>
        <time>2014-10-31T10:57:03.000Z</time>
      </trkpt>
      <trkpt lat="47.36372" lon="-1.34375">
        <ele>112</ele>
        <time>2014-10-31T10:57:05.000Z</time>
      </trkpt>
      <trkpt lat="47.36366" lon="-1.34381">
        <ele>111</ele>
        <time>2014-10-31T10:57:07.000Z</time>
      </trkpt>
      <trkpt lat="47.36361" lon="-1.34386">
        <ele>111</ele>
        <time>2014-10-31T10:57:09.000Z</time>
      </trkpt>
      <trkpt lat="47.36361" lon="-1.34386">
        <ele>111</ele>
        <time>2014-10-31T10:57:11.000Z</time>
      </trkpt>
      <trkpt lat="47.36361" lon="-1.34386">
        <ele>111</ele>
        <time>2014-10-31T10:57:12.000Z</time>
      </trkpt>
      <trkpt lat="47.36361" lon="-1.34386">
        <ele>111</ele>
        <time>2014-10-31T10:57:15.000Z</time>
      </trkpt>
      <trkpt lat="47.36361" lon="-1.34386">
        <ele>111</ele>
        <time>2014-10-31T10:57:17.000Z</time>
      </trkpt>
      <trkpt lat="47.36361" lon="-1.34386">
        <ele>111</ele>
        <time>2014-10-31T10:57:19.000Z</time>
      </trkpt>
      <trkpt lat="47.36361" lon="-1.34386">
        <ele>111</ele>
        <time>2014-10-31T10:57:21.000Z</time>
      </trkpt>
      <trkpt lat="47.36361" lon="-1.34386">
        <ele>111</ele>
        <time>2014-10-31T10:57:23.000Z</time>
      </trkpt>
      <trkpt lat="47.36361" lon="-1.34386">
        <ele>111</ele>
        <time>2014-10-31T10:57:25.000Z</time>
      </trkpt>
      <trkpt lat="47.36361" lon="-1.34386">
        <ele>111</ele>
        <time>2014-10-31T10:57:27.000Z</time>
      </trkpt>
      <trkpt lat="47.36361" lon="-1.34386">
        <ele>111</ele>
        <time>2014-10-31T10:57:29.000Z</time>
      </trkpt>
      <trkpt lat="47.36361" lon="-1.34386">
        <ele>111</ele>
        <time>2014-10-31T10:57:30.000Z</time>
      </trkpt>
      <trkpt lat="47.36361" lon="-1.34386">
        <ele>111</ele>
        <time>2014-10-31T10:57:33.000Z</time>
      </trkpt>
      <trkpt lat="47.36361" lon="-1.34386">
        <ele>111</ele>
        <time>2014-10-31T10:57:35.000Z</time>
      </trkpt>
      <trkpt lat="47.36361" lon="-1.34386">
        <ele>111</ele>
        <time>2014-10-31T10:57:37.000Z</time>
      </trkpt>
      <trkpt lat="47.36361" lon="-1.34386">
        <ele>111</ele>
        <time>2014-10-31T10:57:39.000Z</time>
      </trkpt>
      <trkpt lat="47.36361" lon="-1.34386">
        <ele>111</ele>
        <time>2014-10-31T10:57:41.000Z</time>
      </trkpt>
      <trkpt lat="47.36361" lon="-1.34386">
        <ele>111</ele>
        <time>2014-10-31T10:57:43.000Z</time>
      </trkpt>
      <trkpt lat="47.36361" lon="-1.34386">
        <ele>111</ele>
        <time>2014-10-31T10:58:25.000Z</time>
      </trkpt>
      <trkpt lat="47.36361" lon="-1.34386">
        <ele>111</ele>
        <time>2014-10-31T10:58:26.000Z</time>
      </trkpt>
      <trkpt lat="47.36361" lon="-1.34386">
        <ele>111</ele>
        <time>2014-10-31T10:58:28.000Z</time>
      </trkpt>
      <trkpt lat="47.36361" lon="-1.34386">
        <ele>111</ele>
        <time>2014-10-31T10:58:31.000Z</time>
      </trkpt>
      <trkpt lat="47.36361" lon="-1.34386">
        <ele>111</ele>
        <time>2014-10-31T10:58:31.000Z</time>
      </trkpt>
    </trkseg>
  </trk>
</gpx>